Wetterdaten: Montag, 19.06.2017
Datum Zeit Temp. A. Temp. A. max Feuchte A. Luftdruck Regen Wind Richtung Richtung Sonnenschein ET UV Solar Taupunkt Windchill Windböen
19.06.2017 00:00 11,4 °C 11,4 °C 83 % 1021,2 hPa 0,0 mm 0,7 km/h (0 Bft) O-SO 107 ° 0 min 0,000 mm 0,0 UV-I 0 W/m² 8,6 °C 11,4 °C 3,2 km/h (1 Bft)
19.06.2017 00:01 11,6 °C 11,6 °C 83 % 1021,2 hPa 0,0 mm 2,2 km/h (1 Bft) O-SO 107 ° 0 min 0,000 mm 0,0 UV-I 0 W/m² 8,8 °C 11,6 °C 3,2 km/h (1 Bft)
19.06.2017 00:02 11,7 °C 11,7 °C 83 % 1021,2 hPa 0,0 mm 1,4 km/h (1 Bft) O-SO 107 ° 0 min 0,000 mm 0,0 UV-I 0 W/m² 8,9 °C 11,7 °C 1,6 km/h (1 Bft)
19.06.2017 00:03 11,8 °C 11,8 °C 83 % 1021,3 hPa 0,0 mm 0,2 km/h (0 Bft) O-SO 107 ° 0 min 0,000 mm 0,0 UV-I 0 W/m² 9,0 °C 11,8 °C 1,6 km/h (1 Bft)
19.06.2017 00:04 11,9 °C 11,9 °C 82 % 1021,2 hPa 0,0 mm 0,0 km/h (0 Bft) O-SO 107 ° 0 min 0,000 mm 0,0 UV-I 0 W/m² 8,9 °C 11,9 °C 0,0 km/h (0 Bft)
19.06.2017 00:05 11,9 °C 11,9 °C 82 % 1021,2 hPa 0,0 mm 1,4 km/h (1 Bft) O-SO 107 ° 0 min 0,000 mm 0,0 UV-I 0 W/m² 8,9 °C 11,9 °C 3,2 km/h (1 Bft)
19.06.2017 00:06 11,9 °C 12,0 °C 82 % 1021,2 hPa 0,0 mm 0,5 km/h (0 Bft) O-SO 107 ° 0 min 0,000 mm 0,0 UV-I 0 W/m² 8,9 °C 11,9 °C 1,6 km/h (1 Bft)
19.06.2017 00:07 12,0 °C 12,0 °C 82 % 1021,2 hPa 0,0 mm 0,0 km/h (0 Bft) O-SO 107 ° 0 min 0,000 mm 0,0 UV-I 0 W/m² 9,0 °C 12,0 °C 0,0 km/h (0 Bft)
19.06.2017 00:08 12,0 °C 12,0 °C 82 % 1021,2 hPa 0,0 mm 0,0 km/h (0 Bft) O-SO 107 ° 0 min 0,000 mm 0,0 UV-I 0 W/m² 9,0 °C 12,0 °C 0,0 km/h (0 Bft)
19.06.2017 00:09 11,9 °C 12,0 °C 82 % 1021,2 hPa 0,0 mm 0,0 km/h (0 Bft) O-SO 107 ° 0 min 0,000 mm 0,0 UV-I 0 W/m² 8,9 °C 11,9 °C 0,0 km/h (0 Bft)
19.06.2017 00:10 11,9 °C 12,0 °C 82 % 1021,2 hPa 0,0 mm 1,1 km/h (1 Bft) O-SO 107 ° 0 min 0,000 mm 0,0 UV-I 0 W/m² 8,9 °C 11,9 °C 3,2 km/h (1 Bft)
19.06.2017 00:11 11,9 °C 11,9 °C 82 % 1021,2 hPa 0,0 mm 0,9 km/h (0 Bft) O-SO 107 ° 0 min 0,000 mm 0,0 UV-I 0 W/m² 8,9 °C 11,9 °C 3,2 km/h (1 Bft)
19.06.2017 00:12 11,9 °C 11,9 °C 82 % 1021,2 hPa 0,0 mm 0,0 km/h (0 Bft) O-SO 107 ° 0 min 0,000 mm 0,0 UV-I 0 W/m² 8,9 °C 11,9 °C 0,0 km/h (0 Bft)
19.06.2017 00:13 11,8 °C 11,9 °C 82 % 1021,2 hPa 0,0 mm 0,0 km/h (0 Bft) O-SO 107 ° 0 min 0,000 mm 0,0 UV-I 0 W/m² 8,8 °C 11,8 °C 0,0 km/h (0 Bft)
19.06.2017 00:14 11,7 °C 11,8 °C 82 % 1021,2 hPa 0,0 mm 0,0 km/h (0 Bft) O-SO 107 ° 0 min 0,000 mm 0,0 UV-I 0 W/m² 8,7 °C 11,7 °C 0,0 km/h (0 Bft)
19.06.2017 00:15 11,6 °C 11,7 °C 83 % 1021,2 hPa 0,0 mm 0,0 km/h (0 Bft) O-SO 107 ° 0 min 0,000 mm 0,0 UV-I 0 W/m² 8,8 °C 11,6 °C 0,0 km/h (0 Bft)
19.06.2017 00:16 11,4 °C 11,6 °C 83 % 1021,2 hPa 0,0 mm 0,1 km/h (0 Bft) O-SO 107 ° 0 min 0,000 mm 0,0 UV-I 0 W/m² 8,6 °C 11,4 °C 1,6 km/h (1 Bft)
19.06.2017 00:17 11,3 °C 11,4 °C 84 % 1021,1 hPa 0,0 mm 0,0 km/h (0 Bft) O-SO 107 ° 0 min 0,000 mm 0,0 UV-I 0 W/m² 8,7 °C 11,3 °C 0,0 km/h (0 Bft)
19.06.2017 00:18 11,3 °C 11,3 °C 85 % 1021,1 hPa 0,0 mm 0,0 km/h (0 Bft) O-SO 107 ° 0 min 0,000 mm 0,0 UV-I 0 W/m² 8,9 °C 11,3 °C 0,0 km/h (0 Bft)
19.06.2017 00:19 11,3 °C 11,3 °C 85 % 1021,1 hPa 0,0 mm 0,0 km/h (0 Bft) O-SO 107 ° 0 min 0,000 mm 0,0 UV-I 0 W/m² 8,9 °C 11,3 °C 0,0 km/h (0 Bft)
19.06.2017 00:20 11,4 °C 11,4 °C 85 % 1021,0 hPa 0,0 mm 0,5 km/h (0 Bft) O-SO 107 ° 0 min 0,000 mm 0,0 UV-I 0 W/m² 9,0 °C 11,4 °C 1,6 km/h (1 Bft)
19.06.2017 00:21 11,6 °C 11,6 °C 85 % 1021,0 hPa 0,0 mm 0,6 km/h (0 Bft) O-SO 107 ° 0 min 0,000 mm 0,0 UV-I 0 W/m² 9,2 °C 11,6 °C 1,6 km/h (1 Bft)
19.06.2017 00:22 11,7 °C 11,7 °C 84 % 1021,0 hPa 0,0 mm 0,6 km/h (0 Bft) O-SO 107 ° 0 min 0,000 mm 0,0 UV-I 0 W/m² 9,1 °C 11,7 °C 3,2 km/h (1 Bft)
19.06.2017 00:23 11,8 °C 11,8 °C 84 % 1021,0 hPa 0,0 mm 0,5 km/h (0 Bft) O-SO 107 ° 0 min 0,000 mm 0,0 UV-I 0 W/m² 9,2 °C 11,8 °C 3,2 km/h (1 Bft)
19.06.2017 00:24 11,9 °C 11,9 °C 83 % 1021,0 hPa 0,0 mm 0,5 km/h (0 Bft) O-SO 107 ° 0 min 0,000 mm 0,0 UV-I 0 W/m² 9,1 °C 11,9 °C 1,6 km/h (1 Bft)
19.06.2017 00:25 11,9 °C 11,9 °C 83 % 1021,0 hPa 0,0 mm 0,0 km/h (0 Bft) O-SO 107 ° 0 min 0,000 mm 0,0 UV-I 0 W/m² 9,1 °C 11,9 °C 0,0 km/h (0 Bft)
19.06.2017 00:26 12,1 °C 12,1 °C 82 % 1021,0 hPa 0,0 mm 0,0 km/h (0 Bft) O-SO 107 ° 0 min 0,000 mm 0,0 UV-I 0 W/m² 9,1 °C 12,1 °C 0,0 km/h (0 Bft)
19.06.2017 00:27 12,2 °C 12,2 °C 82 % 1021,0 hPa 0,0 mm 0,0 km/h (0 Bft) O-SO 107 ° 0 min 0,000 mm 0,0 UV-I 0 W/m² 9,2 °C 12,2 °C 0,0 km/h (0 Bft)
19.06.2017 00:28 12,3 °C 12,3 °C 82 % 1021,0 hPa 0,0 mm 0,0 km/h (0 Bft) O-SO 107 ° 0 min 0,000 mm 0,0 UV-I 0 W/m² 9,3 °C 12,3 °C 0,0 km/h (0 Bft)
19.06.2017 00:29 12,3 °C 12,3 °C 82 % 1021,0 hPa 0,0 mm 0,0 km/h (0 Bft) O-SO 107 ° 0 min 0,000 mm 0,0 UV-I 0 W/m² 9,3 °C 12,3 °C 0,0 km/h (0 Bft)
19.06.2017 00:30 12,3 °C 12,3 °C 81 % 1021,0 hPa 0,0 mm 0,0 km/h (0 Bft) O-SO 107 ° 0 min 0,000 mm 0,0 UV-I 0 W/m² 9,1 °C 12,3 °C 0,0 km/h (0 Bft)
19.06.2017 00:31 12,3 °C 12,3 °C 81 % 1020,9 hPa 0,0 mm 0,0 km/h (0 Bft) O-SO 107 ° 0 min 0,000 mm 0,0 UV-I 0 W/m² 9,1 °C 12,3 °C 0,0 km/h (0 Bft)
19.06.2017 00:32 12,2 °C 12,3 °C 81 % 1020,9 hPa 0,0 mm 0,0 km/h (0 Bft) O-SO 107 ° 0 min 0,000 mm 0,0 UV-I 0 W/m² 9,0 °C 12,2 °C 0,0 km/h (0 Bft)
19.06.2017 00:33 12,2 °C 12,2 °C 82 % 1020,9 hPa 0,0 mm 0,0 km/h (0 Bft) O-SO 107 ° 0 min 0,000 mm 0,0 UV-I 0 W/m² 9,2 °C 12,2 °C 0,0 km/h (0 Bft)
19.06.2017 00:34 12,2 °C 12,2 °C 82 % 1020,9 hPa 0,0 mm 0,0 km/h (0 Bft) O-SO 107 ° 0 min 0,000 mm 0,0 UV-I 0 W/m² 9,2 °C 12,2 °C 0,0 km/h (0 Bft)
19.06.2017 00:35 12,1 °C 12,2 °C 82 % 1020,9 hPa 0,0 mm 0,0 km/h (0 Bft) O-SO 107 ° 0 min 0,000 mm 0,0 UV-I 0 W/m² 9,1 °C 12,1 °C 0,0 km/h (0 Bft)
19.06.2017 00:36 12,1 °C 12,1 °C 82 % 1020,9 hPa 0,0 mm 0,0 km/h (0 Bft) O-SO 107 ° 0 min 0,000 mm 0,0 UV-I 0 W/m² 9,1 °C 12,1 °C 0,0 km/h (0 Bft)
19.06.2017 00:37 12,0 °C 12,1 °C 83 % 1020,9 hPa 0,0 mm 0,0 km/h (0 Bft) O-SO 107 ° 0 min 0,000 mm 0,0 UV-I 0 W/m² 9,2 °C 12,0 °C 0,0 km/h (0 Bft)
19.06.2017 00:38 11,9 °C 12,0 °C 83 % 1020,9 hPa 0,0 mm 0,0 km/h (0 Bft) O-SO 107 ° 0 min 0,000 mm 0,0 UV-I 0 W/m² 9,1 °C 11,9 °C 0,0 km/h (0 Bft)
19.06.2017 00:39 11,8 °C 11,9 °C 83 % 1020,8 hPa 0,0 mm 0,0 km/h (0 Bft) O-SO 107 ° 0 min 0,000 mm 0,0 UV-I 0 W/m² 9,0 °C 11,8 °C 0,0 km/h (0 Bft)
19.06.2017 00:40 11,8 °C 11,8 °C 83 % 1020,8 hPa 0,0 mm 0,0 km/h (0 Bft) O-SO 107 ° 0 min 0,000 mm 0,0 UV-I 0 W/m² 9,0 °C 11,8 °C 0,0 km/h (0 Bft)
19.06.2017 00:41 11,8 °C 11,8 °C 83 % 1020,9 hPa 0,0 mm 0,0 km/h (0 Bft) O-SO 107 ° 0 min 0,000 mm 0,0 UV-I 0 W/m² 9,0 °C 11,8 °C 0,0 km/h (0 Bft)
19.06.2017 00:42 11,8 °C 11,8 °C 83 % 1020,9 hPa 0,0 mm 0,0 km/h (0 Bft) O-SO 107 ° 0 min 0,000 mm 0,0 UV-I 0 W/m² 9,0 °C 11,8 °C 0,0 km/h (0 Bft)
19.06.2017 00:43 11,8 °C 11,8 °C 83 % 1020,8 hPa 0,0 mm 0,0 km/h (0 Bft) O-SO 107 ° 0 min 0,000 mm 0,0 UV-I 0 W/m² 9,0 °C 11,8 °C 0,0 km/h (0 Bft)
19.06.2017 00:44 11,7 °C 11,8 °C 83 % 1020,8 hPa 0,0 mm 0,0 km/h (0 Bft) O-SO 107 ° 0 min 0,000 mm 0,0 UV-I 0 W/m² 8,9 °C 11,7 °C 0,0 km/h (0 Bft)
19.06.2017 00:45 11,7 °C 11,8 °C 83 % 1020,8 hPa 0,0 mm 0,0 km/h (0 Bft) O-SO 107 ° 0 min 0,000 mm 0,0 UV-I 0 W/m² 8,9 °C 11,7 °C 0,0 km/h (0 Bft)
19.06.2017 00:46 11,5 °C 11,7 °C 83 % 1020,8 hPa 0,0 mm 0,6 km/h (0 Bft) O-SO 107 ° 0 min 0,000 mm 0,0 UV-I 0 W/m² 8,7 °C 11,5 °C 1,6 km/h (1 Bft)
19.06.2017 00:47 11,3 °C 11,5 °C 84 % 1020,9 hPa 0,0 mm 0,0 km/h (0 Bft) O-SO 107 ° 0 min 0,000 mm 0,0 UV-I 0 W/m² 8,7 °C 11,3 °C 0,0 km/h (0 Bft)
19.06.2017 00:48 11,2 °C 11,3 °C 84 % 1020,9 hPa 0,0 mm 0,0 km/h (0 Bft) O-SO 107 ° 0 min 0,000 mm 0,0 UV-I 0 W/m² 8,6 °C 11,2 °C 0,0 km/h (0 Bft)
19.06.2017 00:49 11,1 °C 11,2 °C 85 % 1020,9 hPa 0,0 mm 0,0 km/h (0 Bft) O-SO 107 ° 0 min 0,000 mm 0,0 UV-I 0 W/m² 8,7 °C 11,1 °C 0,0 km/h (0 Bft)
19.06.2017 00:50 10,9 °C 11,1 °C 85 % 1020,8 hPa 0,0 mm 0,0 km/h (0 Bft) O-SO 107 ° 0 min 0,000 mm 0,0 UV-I 0 W/m² 8,5 °C 10,9 °C 0,0 km/h (0 Bft)
19.06.2017 00:51 10,8 °C 10,9 °C 86 % 1020,8 hPa 0,0 mm 0,0 km/h (0 Bft) O-SO 107 ° 0 min 0,000 mm 0,0 UV-I 0 W/m² 8,6 °C 10,8 °C 0,0 km/h (0 Bft)
19.06.2017 00:52 10,8 °C 10,8 °C 86 % 1020,8 hPa 0,0 mm 0,0 km/h (0 Bft) O-SO 107 ° 0 min 0,000 mm 0,0 UV-I 0 W/m² 8,6 °C 10,8 °C 0,0 km/h (0 Bft)
19.06.2017 00:53 10,8 °C 10,8 °C 87 % 1020,8 hPa 0,0 mm 0,0 km/h (0 Bft) O-SO 107 ° 0 min 0,000 mm 0,0 UV-I 0 W/m² 8,7 °C 10,8 °C 0,0 km/h (0 Bft)
19.06.2017 00:54 10,7 °C 10,8 °C 87 % 1020,8 hPa 0,0 mm 0,0 km/h (0 Bft) O-SO 107 ° 0 min 0,000 mm 0,0 UV-I 0 W/m² 8,6 °C 10,7 °C 0,0 km/h (0 Bft)
19.06.2017 00:55 10,7 °C 10,8 °C 87 % 1020,8 hPa 0,0 mm 0,0 km/h (0 Bft) O-SO 107 ° 0 min 0,000 mm 0,0 UV-I 0 W/m² 8,6 °C 10,7 °C 0,0 km/h (0 Bft)
19.06.2017 00:56 10,7 °C 10,7 °C 87 % 1020,8 hPa 0,0 mm 0,0 km/h (0 Bft) O-SO 107 ° 0 min 0,000 mm 0,0 UV-I 0 W/m² 8,6 °C 10,7 °C 0,0 km/h (0 Bft)
19.06.2017 00:57 10,7 °C 10,7 °C 87 % 1020,8 hPa 0,0 mm 0,0 km/h (0 Bft) O-SO 107 ° 0 min 0,000 mm 0,0 UV-I 0 W/m² 8,6 °C 10,7 °C 0,0 km/h (0 Bft)
19.06.2017 00:58 10,7 °C 10,8 °C 87 % 1020,8 hPa 0,0 mm 0,0 km/h (0 Bft) O-SO 107 ° 0 min 0,000 mm 0,0 UV-I 0 W/m² 8,6 °C 10,7 °C 0,0 km/h (0 Bft)
19.06.2017 00:59 10,8 °C 10,8 °C 87 % 1020,8 hPa 0,0 mm 0,0 km/h (0 Bft) O-SO 107 ° 0 min 0,000 mm 0,0 UV-I 0 W/m² 8,7 °C 10,8 °C 0,0 km/h (0 Bft)
19.06.2017 01:00 10,8 °C 10,8 °C 87 % 1020,8 hPa 0,0 mm 0,0 km/h (0 Bft) O-SO 107 ° 0 min 0,000 mm 0,0 UV-I 0 W/m² 8,7 °C 10,8 °C 0,0 km/h (0 Bft)
19.06.2017 01:01 10,8 °C 10,8 °C 87 % 1020,8 hPa 0,0 mm 0,0 km/h (0 Bft) O-SO 107 ° 0 min 0,000 mm 0,0 UV-I 0 W/m² 8,7 °C 10,8 °C 0,0 km/h (0 Bft)
19.06.2017 01:02 10,8 °C 10,8 °C 88 % 1020,8 hPa 0,0 mm 0,0 km/h (0 Bft) O-SO 107 ° 0 min 0,000 mm 0,0 UV-I 0 W/m² 8,9 °C 10,8 °C 0,0 km/h (0 Bft)
19.06.2017 01:03 10,8 °C 10,8 °C 87 % 1020,8 hPa 0,0 mm 0,0 km/h (0 Bft) O-SO 107 ° 0 min 0,000 mm 0,0 UV-I 0 W/m² 8,7 °C 10,8 °C 0,0 km/h (0 Bft)
19.06.2017 01:04 10,8 °C 10,8 °C 87 % 1020,8 hPa 0,0 mm 0,0 km/h (0 Bft) O-SO 107 ° 0 min 0,000 mm 0,0 UV-I 0 W/m² 8,7 °C 10,8 °C 0,0 km/h (0 Bft)
19.06.2017 01:05 10,8 °C 10,8 °C 87 % 1020,8 hPa 0,0 mm 0,0 km/h (0 Bft) O-SO 107 ° 0 min 0,000 mm 0,0 UV-I 0 W/m² 8,7 °C 10,8 °C 0,0 km/h (0 Bft)
19.06.2017 01:06 10,9 °C 10,9 °C 87 % 1020,8 hPa 0,0 mm 0,0 km/h (0 Bft) O-SO 107 ° 0 min 0,000 mm 0,0 UV-I 0 W/m² 8,8 °C 10,9 °C 0,0 km/h (0 Bft)
19.06.2017 01:07 10,9 °C 10,9 °C 87 % 1020,8 hPa 0,0 mm 0,0 km/h (0 Bft) O-SO 107 ° 0 min 0,000 mm 0,0 UV-I 0 W/m² 8,8 °C 10,9 °C 0,0 km/h (0 Bft)
19.06.2017 01:08 10,9 °C 10,9 °C 87 % 1020,7 hPa 0,0 mm 0,0 km/h (0 Bft) O-SO 107 ° 0 min 0,000 mm 0,0 UV-I 0 W/m² 8,8 °C 10,9 °C 0,0 km/h (0 Bft)
19.06.2017 01:09 10,9 °C 10,9 °C 87 % 1020,7 hPa 0,0 mm 0,0 km/h (0 Bft) O-SO 107 ° 0 min 0,000 mm 0,0 UV-I 0 W/m² 8,8 °C 10,9 °C 0,0 km/h (0 Bft)
19.06.2017 01:10 10,8 °C 10,9 °C 87 % 1020,8 hPa 0,0 mm 0,0 km/h (0 Bft) O-SO 107 ° 0 min 0,000 mm 0,0 UV-I 0 W/m² 8,7 °C 10,8 °C 0,0 km/h (0 Bft)
19.06.2017 01:11 10,8 °C 10,8 °C 87 % 1020,7 hPa 0,0 mm 0,0 km/h (0 Bft) O-SO 107 ° 0 min 0,000 mm 0,0 UV-I 0 W/m² 8,7 °C 10,8 °C 0,0 km/h (0 Bft)
19.06.2017 01:12 10,7 °C 10,8 °C 87 % 1020,7 hPa 0,0 mm 0,0 km/h (0 Bft) O-SO 107 ° 0 min 0,000 mm 0,0 UV-I 0 W/m² 8,6 °C 10,7 °C 0,0 km/h (0 Bft)
19.06.2017 01:13 10,7 °C 10,7 °C 87 % 1020,7 hPa 0,0 mm 0,0 km/h (0 Bft) O-SO 107 ° 0 min 0,000 mm 0,0 UV-I 0 W/m² 8,6 °C 10,7 °C 0,0 km/h (0 Bft)
19.06.2017 01:14 10,7 °C 10,7 °C 87 % 1020,7 hPa 0,0 mm 0,0 km/h (0 Bft) O-SO 107 ° 0 min 0,000 mm 0,0 UV-I 0 W/m² 8,6 °C 10,7 °C 0,0 km/h (0 Bft)
19.06.2017 01:15 10,7 °C 10,7 °C 87 % 1020,7 hPa 0,0 mm 0,0 km/h (0 Bft) O-SO 107 ° 0 min 0,000 mm 0,0 UV-I 0 W/m² 8,6 °C 10,7 °C 0,0 km/h (0 Bft)
19.06.2017 01:16 10,7 °C 10,7 °C 88 % 1020,7 hPa 0,0 mm 0,0 km/h (0 Bft) O-SO 107 ° 0 min 0,000 mm 0,0 UV-I 0 W/m² 8,8 °C 10,7 °C 0,0 km/h (0 Bft)
19.06.2017 01:17 10,6 °C 10,7 °C 88 % 1020,7 hPa 0,0 mm 0,0 km/h (0 Bft) O-SO 107 ° 0 min 0,000 mm 0,0 UV-I 0 W/m² 8,7 °C 10,6 °C 0,0 km/h (0 Bft)
19.06.2017 01:18 10,6 °C 10,6 °C 88 % 1020,7 hPa 0,0 mm 0,0 km/h (0 Bft) O-SO 107 ° 0 min 0,000 mm 0,0 UV-I 0 W/m² 8,7 °C 10,6 °C 0,0 km/h (0 Bft)
19.06.2017 01:19 10,6 °C 10,6 °C 88 % 1020,7 hPa 0,0 mm 0,0 km/h (0 Bft) O-SO 107 ° 0 min 0,000 mm 0,0 UV-I 0 W/m² 8,7 °C 10,6 °C 0,0 km/h (0 Bft)
19.06.2017 01:20 10,6 °C 10,6 °C 88 % 1020,7 hPa 0,0 mm 0,0 km/h (0 Bft) O-SO 107 ° 0 min 0,000 mm 0,0 UV-I 0 W/m² 8,7 °C 10,6 °C 0,0 km/h (0 Bft)
19.06.2017 01:21 10,6 °C 10,6 °C 88 % 1020,7 hPa 0,0 mm 0,0 km/h (0 Bft) O-SO 107 ° 0 min 0,000 mm 0,0 UV-I 0 W/m² 8,7 °C 10,6 °C 0,0 km/h (0 Bft)
19.06.2017 01:22 10,5 °C 10,6 °C 88 % 1020,7 hPa 0,0 mm 0,0 km/h (0 Bft) O-SO 107 ° 0 min 0,000 mm 0,0 UV-I 0 W/m² 8,6 °C 10,5 °C 0,0 km/h (0 Bft)
19.06.2017 01:23 10,5 °C 10,6 °C 89 % 1020,6 hPa 0,0 mm 0,0 km/h (0 Bft) O-SO 107 ° 0 min 0,000 mm 0,0 UV-I 0 W/m² 8,8 °C 10,5 °C 0,0 km/h (0 Bft)
19.06.2017 01:24 10,6 °C 10,6 °C 89 % 1020,6 hPa 0,0 mm 0,0 km/h (0 Bft) O-SO 107 ° 0 min 0,000 mm 0,0 UV-I 0 W/m² 8,9 °C 10,6 °C 0,0 km/h (0 Bft)
19.06.2017 01:25 10,6 °C 10,6 °C 89 % 1020,6 hPa 0,0 mm 0,0 km/h (0 Bft) O-SO 107 ° 0 min 0,000 mm 0,0 UV-I 0 W/m² 8,9 °C 10,6 °C 0,0 km/h (0 Bft)
19.06.2017 01:26 10,6 °C 10,6 °C 88 % 1020,7 hPa 0,0 mm 0,0 km/h (0 Bft) O-SO 107 ° 0 min 0,000 mm 0,0 UV-I 0 W/m² 8,7 °C 10,6 °C 0,0 km/h (0 Bft)
19.06.2017 01:27 10,5 °C 10,6 °C 88 % 1020,6 hPa 0,0 mm 0,0 km/h (0 Bft) O-SO 107 ° 0 min 0,000 mm 0,0 UV-I 0 W/m² 8,6 °C 10,5 °C 0,0 km/h (0 Bft)
19.06.2017 01:28 10,4 °C 10,5 °C 89 % 1020,5 hPa 0,0 mm 0,0 km/h (0 Bft) O-SO 107 ° 0 min 0,000 mm 0,0 UV-I 0 W/m² 8,7 °C 10,4 °C 0,0 km/h (0 Bft)
19.06.2017 01:29 10,4 °C 10,4 °C 89 % 1020,5 hPa 0,0 mm 0,0 km/h (0 Bft) O-SO 107 ° 0 min 0,000 mm 0,0 UV-I 0 W/m² 8,7 °C 10,4 °C 0,0 km/h (0 Bft)
19.06.2017 01:30 10,4 °C 10,4 °C 89 % 1020,5 hPa 0,0 mm 0,0 km/h (0 Bft) O-SO 107 ° 0 min 0,000 mm 0,0 UV-I 0 W/m² 8,7 °C 10,4 °C 0,0 km/h (0 Bft)
19.06.2017 01:31 10,4 °C 10,4 °C 89 % 1020,5 hPa 0,0 mm 0,0 km/h (0 Bft) O-SO 107 ° 0 min 0,000 mm 0,0 UV-I 0 W/m² 8,7 °C 10,4 °C 0,0 km/h (0 Bft)
19.06.2017 01:32 10,5 °C 10,5 °C 89 % 1020,5 hPa 0,0 mm 0,0 km/h (0 Bft) O-SO 107 ° 0 min 0,000 mm 0,0 UV-I 0 W/m² 8,8 °C 10,5 °C 0,0 km/h (0 Bft)
19.06.2017 01:33 10,6 °C 10,6 °C 89 % 1020,5 hPa 0,0 mm 0,0 km/h (0 Bft) O-SO 107 ° 0 min 0,000 mm 0,0 UV-I 0 W/m² 8,9 °C 10,6 °C 0,0 km/h (0 Bft)
19.06.2017 01:34 10,6 °C 10,6 °C 89 % 1020,4 hPa 0,0 mm 0,0 km/h (0 Bft) O-SO 107 ° 0 min 0,000 mm 0,0 UV-I 0 W/m² 8,9 °C 10,6 °C 0,0 km/h (0 Bft)
19.06.2017 01:35 10,6 °C 10,6 °C 89 % 1020,4 hPa 0,0 mm 0,0 km/h (0 Bft) O-SO 107 ° 0 min 0,000 mm 0,0 UV-I 0 W/m² 8,9 °C 10,6 °C 0,0 km/h (0 Bft)
19.06.2017 01:36 10,6 °C 10,6 °C 89 % 1020,4 hPa 0,0 mm 0,0 km/h (0 Bft) O-SO 107 ° 0 min 0,000 mm 0,0 UV-I 0 W/m² 8,9 °C 10,6 °C 0,0 km/h (0 Bft)
19.06.2017 01:37 10,6 °C 10,6 °C 89 % 1020,5 hPa 0,0 mm 0,0 km/h (0 Bft) O-SO 107 ° 0 min 0,000 mm 0,0 UV-I 0 W/m² 8,9 °C 10,6 °C 0,0 km/h (0 Bft)
19.06.2017 01:38 10,6 °C 10,6 °C 89 % 1020,4 hPa 0,0 mm 0,0 km/h (0 Bft) O-SO 107 ° 0 min 0,000 mm 0,0 UV-I 0 W/m² 8,9 °C 10,6 °C 0,0 km/h (0 Bft)
19.06.2017 01:39 10,6 °C 10,6 °C 89 % 1020,4 hPa 0,0 mm 0,0 km/h (0 Bft) O-SO 107 ° 0 min 0,000 mm 0,0 UV-I 0 W/m² 8,9 °C 10,6 °C 0,0 km/h (0 Bft)
19.06.2017 01:40 10,6 °C 10,6 °C 89 % 1020,5 hPa 0,0 mm 0,0 km/h (0 Bft) O-SO 107 ° 0 min 0,000 mm 0,0 UV-I 0 W/m² 8,9 °C 10,6 °C 0,0 km/h (0 Bft)
19.06.2017 01:41 10,6 °C 10,6 °C 89 % 1020,5 hPa 0,0 mm 0,0 km/h (0 Bft) O-SO 107 ° 0 min 0,000 mm 0,0 UV-I 0 W/m² 8,9 °C 10,6 °C 0,0 km/h (0 Bft)
19.06.2017 01:42 10,6 °C 10,6 °C 88 % 1020,5 hPa 0,0 mm 0,0 km/h (0 Bft) O-SO 107 ° 0 min 0,000 mm 0,0 UV-I 0 W/m² 8,7 °C 10,6 °C 0,0 km/h (0 Bft)
19.06.2017 01:43 10,5 °C 10,6 °C 88 % 1020,5 hPa 0,0 mm 0,0 km/h (0 Bft) O-SO 107 ° 0 min 0,000 mm 0,0 UV-I 0 W/m² 8,6 °C 10,5 °C 0,0 km/h (0 Bft)
19.06.2017 01:44 10,4 °C 10,5 °C 89 % 1020,5 hPa 0,0 mm 0,0 km/h (0 Bft) O-SO 107 ° 0 min 0,000 mm 0,0 UV-I 0 W/m² 8,7 °C 10,4 °C 0,0 km/h (0 Bft)
19.06.2017 01:45 10,3 °C 10,4 °C 89 % 1020,5 hPa 0,0 mm 0,0 km/h (0 Bft) O-SO 107 ° 0 min 0,000 mm 0,0 UV-I 0 W/m² 8,6 °C 10,3 °C 0,0 km/h (0 Bft)
19.06.2017 01:46 10,3 °C 10,3 °C 89 % 1020,5 hPa 0,0 mm 0,0 km/h (0 Bft) O-SO 107 ° 0 min 0,000 mm 0,0 UV-I 0 W/m² 8,6 °C 10,3 °C 0,0 km/h (0 Bft)
19.06.2017 01:47 10,2 °C 10,3 °C 89 % 1020,5 hPa 0,0 mm 0,0 km/h (0 Bft) O-SO 107 ° 0 min 0,000 mm 0,0 UV-I 0 W/m² 8,5 °C 10,2 °C 0,0 km/h (0 Bft)
19.06.2017 01:48 10,1 °C 10,2 °C 90 % 1020,4 hPa 0,0 mm 0,0 km/h (0 Bft) O-SO 107 ° 0 min 0,000 mm 0,0 UV-I 0 W/m² 8,5 °C 10,1 °C 0,0 km/h (0 Bft)
19.06.2017 01:49 10,1 °C 10,2 °C 90 % 1020,4 hPa 0,0 mm 0,0 km/h (0 Bft) O-SO 107 ° 0 min 0,000 mm 0,0 UV-I 0 W/m² 8,5 °C 10,1 °C 0,0 km/h (0 Bft)
19.06.2017 01:50 10,1 °C 10,1 °C 90 % 1020,4 hPa 0,0 mm 0,0 km/h (0 Bft) O-SO 107 ° 0 min 0,000 mm 0,0 UV-I 0 W/m² 8,5 °C 10,1 °C 0,0 km/h (0 Bft)
19.06.2017 01:51 10,1 °C 10,1 °C 90 % 1020,4 hPa 0,0 mm 0,0 km/h (0 Bft) O-SO 107 ° 0 min 0,000 mm 0,0 UV-I 0 W/m² 8,5 °C 10,1 °C 0,0 km/h (0 Bft)
19.06.2017 01:52 10,2 °C 10,2 °C 90 % 1020,4 hPa 0,0 mm 0,0 km/h (0 Bft) O-SO 107 ° 0 min 0,000 mm 0,0 UV-I 0 W/m² 8,6 °C 10,2 °C 0,0 km/h (0 Bft)
19.06.2017 01:53 10,1 °C 10,2 °C 90 % 1020,4 hPa 0,0 mm 0,0 km/h (0 Bft) O-SO 107 ° 0 min 0,000 mm 0,0 UV-I 0 W/m² 8,5 °C 10,1 °C 0,0 km/h (0 Bft)
19.06.2017 01:54 10,1 °C 10,1 °C 90 % 1020,4 hPa 0,0 mm 0,0 km/h (0 Bft) O-SO 107 ° 0 min 0,000 mm 0,0 UV-I 0 W/m² 8,5 °C 10,1 °C 0,0 km/h (0 Bft)
19.06.2017 01:55 10,1 °C 10,1 °C 90 % 1020,4 hPa 0,0 mm 0,0 km/h (0 Bft) O-SO 107 ° 0 min 0,000 mm 0,0 UV-I 0 W/m² 8,5 °C 10,1 °C 0,0 km/h (0 Bft)
19.06.2017 01:56 10,0 °C 10,1 °C 90 % 1020,4 hPa 0,0 mm 0,0 km/h (0 Bft) O-SO 107 ° 0 min 0,000 mm 0,0 UV-I 0 W/m² 8,4 °C 10,0 °C 0,0 km/h (0 Bft)
19.06.2017 01:57 10,0 °C 10,1 °C 90 % 1020,4 hPa 0,0 mm 0,0 km/h (0 Bft) O-SO 107 ° 0 min 0,000 mm 0,0 UV-I 0 W/m² 8,4 °C 10,0 °C 0,0 km/h (0 Bft)
19.06.2017 01:58 9,9 °C 10,0 °C 90 % 1020,4 hPa 0,0 mm 0,0 km/h (0 Bft) O-SO 107 ° 0 min 0,000 mm 0,0 UV-I 0 W/m² 8,3 °C 9,9 °C 0,0 km/h (0 Bft)
19.06.2017 01:59 9,9 °C 9,9 °C 90 % 1020,3 hPa 0,0 mm 0,0 km/h (0 Bft) O-SO 107 ° 0 min 0,000 mm 0,0 UV-I 0 W/m² 8,3 °C 9,9 °C 0,0 km/h (0 Bft)
19.06.2017 02:00 9,8 °C 9,9 °C 90 % 1020,3 hPa 0,0 mm 0,0 km/h (0 Bft) O-SO 107 ° 0 min 0,000 mm 0,0 UV-I 0 W/m² 8,2 °C 9,8 °C 0,0 km/h (0 Bft)
19.06.2017 02:01 9,8 °C 9,8 °C 90 % 1020,2 hPa 0,0 mm 0,0 km/h (0 Bft) O-SO 107 ° 0 min 0,000 mm 0,0 UV-I 0 W/m² 8,2 °C 9,8 °C 0,0 km/h (0 Bft)
19.06.2017 02:02 9,8 °C 9,8 °C 90 % 1020,2 hPa 0,0 mm 0,0 km/h (0 Bft) O-SO 107 ° 0 min 0,000 mm 0,0 UV-I 0 W/m² 8,2 °C 9,8 °C 0,0 km/h (0 Bft)
19.06.2017 02:03 9,8 °C 9,8 °C 90 % 1020,3 hPa 0,0 mm 0,0 km/h (0 Bft) O-SO 107 ° 0 min 0,000 mm 0,0 UV-I 0 W/m² 8,2 °C 9,8 °C 0,0 km/h (0 Bft)
19.06.2017 02:04 9,8 °C 9,8 °C 90 % 1020,3 hPa 0,0 mm 0,0 km/h (0 Bft) O-SO 107 ° 0 min 0,000 mm 0,0 UV-I 0 W/m² 8,2 °C 9,8 °C 0,0 km/h (0 Bft)
19.06.2017 02:05 9,8 °C 9,8 °C 90 % 1020,2 hPa 0,0 mm 0,0 km/h (0 Bft) O-SO 107 ° 0 min 0,000 mm 0,0 UV-I 0 W/m² 8,2 °C 9,8 °C 0,0 km/h (0 Bft)
19.06.2017 02:06 9,8 °C 9,8 °C 90 % 1020,3 hPa 0,0 mm 0,0 km/h (0 Bft) O-SO 107 ° 0 min 0,000 mm 0,0 UV-I 0 W/m² 8,2 °C 9,8 °C 0,0 km/h (0 Bft)
19.06.2017 02:07 9,7 °C 9,8 °C 90 % 1020,3 hPa 0,0 mm 0,0 km/h (0 Bft) O-SO 107 ° 0 min 0,000 mm 0,0 UV-I 0 W/m² 8,1 °C 9,7 °C 0,0 km/h (0 Bft)
19.06.2017 02:08 9,7 °C 9,7 °C 90 % 1020,3 hPa 0,0 mm 0,0 km/h (0 Bft) O-SO 107 ° 0 min 0,000 mm 0,0 UV-I 0 W/m² 8,1 °C 9,7 °C 0,0 km/h (0 Bft)
19.06.2017 02:09 9,7 °C 9,7 °C 91 % 1020,3 hPa 0,0 mm 0,0 km/h (0 Bft) O-SO 107 ° 0 min 0,000 mm 0,0 UV-I 0 W/m² 8,3 °C 9,7 °C 0,0 km/h (0 Bft)
19.06.2017 02:10 9,8 °C 9,8 °C 91 % 1020,4 hPa 0,0 mm 0,0 km/h (0 Bft) O-SO 107 ° 0 min 0,000 mm 0,0 UV-I 0 W/m² 8,4 °C 9,8 °C 0,0 km/h (0 Bft)
19.06.2017 02:11 9,8 °C 9,8 °C 91 % 1020,3 hPa 0,0 mm 0,0 km/h (0 Bft) O-SO 107 ° 0 min 0,000 mm 0,0 UV-I 0 W/m² 8,4 °C 9,8 °C 0,0 km/h (0 Bft)
19.06.2017 02:12 9,8 °C 9,8 °C 91 % 1020,3 hPa 0,0 mm 0,0 km/h (0 Bft) O-SO 107 ° 0 min 0,000 mm 0,0 UV-I 0 W/m² 8,4 °C 9,8 °C 0,0 km/h (0 Bft)
19.06.2017 02:13 9,8 °C 9,8 °C 91 % 1020,3 hPa 0,0 mm 0,0 km/h (0 Bft) O-SO 107 ° 0 min 0,000 mm 0,0 UV-I 0 W/m² 8,4 °C 9,8 °C 0,0 km/h (0 Bft)
19.06.2017 02:14 9,8 °C 9,8 °C 91 % 1020,4 hPa 0,0 mm 0,0 km/h (0 Bft) O-SO 107 ° 0 min 0,000 mm 0,0 UV-I 0 W/m² 8,4 °C 9,8 °C 0,0 km/h (0 Bft)
19.06.2017 02:15 9,8 °C 9,8 °C 91 % 1020,4 hPa 0,0 mm 0,0 km/h (0 Bft) O-SO 107 ° 0 min 0,000 mm 0,0 UV-I 0 W/m² 8,4 °C 9,8 °C 0,0 km/h (0 Bft)
19.06.2017 02:16 9,8 °C 9,8 °C 91 % 1020,3 hPa 0,0 mm 0,0 km/h (0 Bft) O-SO 107 ° 0 min 0,000 mm 0,0 UV-I 0 W/m² 8,4 °C 9,8 °C 0,0 km/h (0 Bft)
19.06.2017 02:17 9,9 °C 9,9 °C 91 % 1020,3 hPa 0,0 mm 0,0 km/h (0 Bft) O-SO 107 ° 0 min 0,000 mm 0,0 UV-I 0 W/m² 8,5 °C 9,9 °C 0,0 km/h (0 Bft)
19.06.2017 02:18 9,8 °C 9,9 °C 91 % 1020,4 hPa 0,0 mm 0,0 km/h (0 Bft) O-SO 107 ° 0 min 0,000 mm 0,0 UV-I 0 W/m² 8,4 °C 9,8 °C 0,0 km/h (0 Bft)
19.06.2017 02:19 9,8 °C 9,9 °C 91 % 1020,3 hPa 0,0 mm 0,0 km/h (0 Bft) O-SO 107 ° 0 min 0,000 mm 0,0 UV-I 0 W/m² 8,4 °C 9,8 °C 0,0 km/h (0 Bft)
19.06.2017 02:20 9,9 °C 9,9 °C 91 % 1020,4 hPa 0,0 mm 0,0 km/h (0 Bft) O-SO 107 ° 0 min 0,000 mm 0,0 UV-I 0 W/m² 8,5 °C 9,9 °C 0,0 km/h (0 Bft)
19.06.2017 02:21 9,8 °C 9,9 °C 91 % 1020,3 hPa 0,0 mm 0,0 km/h (0 Bft) O-SO 107 ° 0 min 0,000 mm 0,0 UV-I 0 W/m² 8,4 °C 9,8 °C 0,0 km/h (0 Bft)
19.06.2017 02:22 9,8 °C 9,8 °C 91 % 1020,3 hPa 0,0 mm 0,0 km/h (0 Bft) O-SO 107 ° 0 min 0,000 mm 0,0 UV-I 0 W/m² 8,4 °C 9,8 °C 0,0 km/h (0 Bft)
19.06.2017 02:23 9,8 °C 9,8 °C 91 % 1020,3 hPa 0,0 mm 0,0 km/h (0 Bft) O-SO 107 ° 0 min 0,000 mm 0,0 UV-I 0 W/m² 8,4 °C 9,8 °C 0,0 km/h (0 Bft)
19.06.2017 02:24 9,8 °C 9,8 °C 91 % 1020,3 hPa 0,0 mm 0,0 km/h (0 Bft) O-SO 107 ° 0 min 0,000 mm 0,0 UV-I 0 W/m² 8,4 °C 9,8 °C 0,0 km/h (0 Bft)
19.06.2017 02:25 9,8 °C 9,8 °C 91 % 1020,3 hPa 0,0 mm 0,0 km/h (0 Bft) O-SO 107 ° 0 min 0,000 mm 0,0 UV-I 0 W/m² 8,4 °C 9,8 °C 0,0 km/h (0 Bft)
19.06.2017 02:26 9,8 °C 9,8 °C 91 % 1020,4 hPa 0,0 mm 0,0 km/h (0 Bft) O-SO 107 ° 0 min 0,000 mm 0,0 UV-I 0 W/m² 8,4 °C 9,8 °C 0,0 km/h (0 Bft)
19.06.2017 02:27 9,7 °C 9,8 °C 91 % 1020,3 hPa 0,0 mm 0,0 km/h (0 Bft) O-SO 107 ° 0 min 0,000 mm 0,0 UV-I 0 W/m² 8,3 °C 9,7 °C 0,0 km/h (0 Bft)
19.06.2017 02:28 9,7 °C 9,7 °C 91 % 1020,4 hPa 0,0 mm 0,0 km/h (0 Bft) O-SO 107 ° 0 min 0,000 mm 0,0 UV-I 0 W/m² 8,3 °C 9,7 °C 0,0 km/h (0 Bft)
19.06.2017 02:29 9,7 °C 9,7 °C 91 % 1020,4 hPa 0,0 mm 0,0 km/h (0 Bft) O-SO 107 ° 0 min 0,000 mm 0,0 UV-I 0 W/m² 8,3 °C 9,7 °C 0,0 km/h (0 Bft)
19.06.2017 02:30 9,6 °C 9,7 °C 91 % 1020,3 hPa 0,0 mm 0,0 km/h (0 Bft) O-SO 107 ° 0 min 0,000 mm 0,0 UV-I 0 W/m² 8,2 °C 9,6 °C 0,0 km/h (0 Bft)
19.06.2017 02:31 9,6 °C 9,6 °C 91 % 1020,3 hPa 0,0 mm 0,0 km/h (0 Bft) O-SO 107 ° 0 min 0,000 mm 0,0 UV-I 0 W/m² 8,2 °C 9,6 °C 0,0 km/h (0 Bft)
19.06.2017 02:32 9,6 °C 9,6 °C 91 % 1020,3 hPa 0,0 mm 0,0 km/h (0 Bft) O-SO 107 ° 0 min 0,000 mm 0,0 UV-I 0 W/m² 8,2 °C 9,6 °C 0,0 km/h (0 Bft)
19.06.2017 02:33 9,6 °C 9,7 °C 91 % 1020,3 hPa 0,0 mm 0,0 km/h (0 Bft) O-SO 107 ° 0 min 0,000 mm 0,0 UV-I 0 W/m² 8,2 °C 9,6 °C 0,0 km/h (0 Bft)
19.06.2017 02:34 9,7 °C 9,7 °C 91 % 1020,3 hPa 0,0 mm 0,0 km/h (0 Bft) O-SO 107 ° 0 min 0,000 mm 0,0 UV-I 0 W/m² 8,3 °C 9,7 °C 0,0 km/h (0 Bft)
19.06.2017 02:35 9,6 °C 9,7 °C 91 % 1020,3 hPa 0,0 mm 0,0 km/h (0 Bft) O-SO 107 ° 0 min 0,000 mm 0,0 UV-I 0 W/m² 8,2 °C 9,6 °C 0,0 km/h (0 Bft)
19.06.2017 02:36 9,6 °C 9,6 °C 91 % 1020,3 hPa 0,0 mm 0,0 km/h (0 Bft) O-SO 107 ° 0 min 0,000 mm 0,0 UV-I 0 W/m² 8,2 °C 9,6 °C 0,0 km/h (0 Bft)
19.06.2017 02:37 9,4 °C 9,6 °C 91 % 1020,3 hPa 0,0 mm 0,0 km/h (0 Bft) O-SO 107 ° 0 min 0,000 mm 0,0 UV-I 0 W/m² 8,0 °C 9,4 °C 0,0 km/h (0 Bft)
19.06.2017 02:38 9,4 °C 9,4 °C 91 % 1020,3 hPa 0,0 mm 0,0 km/h (0 Bft) O-SO 107 ° 0 min 0,000 mm 0,0 UV-I 0 W/m² 8,0 °C 9,4 °C 0,0 km/h (0 Bft)
19.06.2017 02:39 9,3 °C 9,4 °C 91 % 1020,3 hPa 0,0 mm 0,0 km/h (0 Bft) O-SO 107 ° 0 min 0,000 mm 0,0 UV-I 0 W/m² 7,9 °C 9,3 °C 0,0 km/h (0 Bft)
19.06.2017 02:40 9,3 °C 9,3 °C 91 % 1020,3 hPa 0,0 mm 0,0 km/h (0 Bft) O-SO 107 ° 0 min 0,000 mm 0,0 UV-I 0 W/m² 7,9 °C 9,3 °C 0,0 km/h (0 Bft)
19.06.2017 02:41 9,2 °C 9,3 °C 91 % 1020,3 hPa 0,0 mm 0,0 km/h (0 Bft) O-SO 107 ° 0 min 0,000 mm 0,0 UV-I 0 W/m² 7,8 °C 9,2 °C 0,0 km/h (0 Bft)
19.06.2017 02:42 9,2 °C 9,2 °C 91 % 1020,3 hPa 0,0 mm 0,0 km/h (0 Bft) O-SO 107 ° 0 min 0,000 mm 0,0 UV-I 0 W/m² 7,8 °C 9,2 °C 0,0 km/h (0 Bft)
19.06.2017 02:43 9,2 °C 9,2 °C 91 % 1020,3 hPa 0,0 mm 0,0 km/h (0 Bft) O-SO 107 ° 0 min 0,000 mm 0,0 UV-I 0 W/m² 7,8 °C 9,2 °C 0,0 km/h (0 Bft)
19.06.2017 02:44 9,3 °C 9,3 °C 92 % 1020,3 hPa 0,0 mm 0,0 km/h (0 Bft) O-SO 107 ° 0 min 0,000 mm 0,0 UV-I 0 W/m² 8,1 °C 9,3 °C 0,0 km/h (0 Bft)
19.06.2017 02:45 9,4 °C 9,4 °C 92 % 1020,3 hPa 0,0 mm 0,0 km/h (0 Bft) O-SO 107 ° 0 min 0,000 mm 0,0 UV-I 0 W/m² 8,2 °C 9,4 °C 0,0 km/h (0 Bft)
19.06.2017 02:46 9,4 °C 9,4 °C 92 % 1020,2 hPa 0,0 mm 0,0 km/h (0 Bft) O-SO 107 ° 0 min 0,000 mm 0,0 UV-I 0 W/m² 8,2 °C 9,4 °C 0,0 km/h (0 Bft)
19.06.2017 02:47 9,6 °C 9,6 °C 92 % 1020,2 hPa 0,0 mm 0,0 km/h (0 Bft) O-SO 107 ° 0 min 0,000 mm 0,0 UV-I 0 W/m² 8,4 °C 9,6 °C 0,0 km/h (0 Bft)
19.06.2017 02:48 9,6 °C 9,6 °C 92 % 1020,3 hPa 0,0 mm 0,0 km/h (0 Bft) O-SO 107 ° 0 min 0,000 mm 0,0 UV-I 0 W/m² 8,4 °C 9,6 °C 0,0 km/h (0 Bft)
19.06.2017 02:49 9,7 °C 9,7 °C 92 % 1020,2 hPa 0,0 mm 0,0 km/h (0 Bft) O-SO 107 ° 0 min 0,000 mm 0,0 UV-I 0 W/m² 8,5 °C 9,7 °C 0,0 km/h (0 Bft)
19.06.2017 02:50 9,7 °C 9,7 °C 91 % 1020,3 hPa 0,0 mm 0,0 km/h (0 Bft) O-SO 107 ° 0 min 0,000 mm 0,0 UV-I 0 W/m² 8,3 °C 9,7 °C 0,0 km/h (0 Bft)
19.06.2017 02:51 9,6 °C 9,7 °C 91 % 1020,3 hPa 0,0 mm 0,0 km/h (0 Bft) O-SO 107 ° 0 min 0,000 mm 0,0 UV-I 0 W/m² 8,2 °C 9,6 °C 0,0 km/h (0 Bft)
19.06.2017 02:52 9,6 °C 9,6 °C 91 % 1020,3 hPa 0,0 mm 0,0 km/h (0 Bft) O-SO 107 ° 0 min 0,000 mm 0,0 UV-I 0 W/m² 8,2 °C 9,6 °C 0,0 km/h (0 Bft)
19.06.2017 02:53 9,4 °C 9,6 °C 90 % 1020,3 hPa 0,0 mm 0,0 km/h (0 Bft) O-SO 107 ° 0 min 0,000 mm 0,0 UV-I 0 W/m² 7,8 °C 9,4 °C 0,0 km/h (0 Bft)
19.06.2017 02:54 9,3 °C 9,4 °C 90 % 1020,3 hPa 0,0 mm 0,0 km/h (0 Bft) O-SO 107 ° 0 min 0,000 mm 0,0 UV-I 0 W/m² 7,7 °C 9,3 °C 0,0 km/h (0 Bft)
19.06.2017 02:55 9,2 °C 9,3 °C 91 % 1020,3 hPa 0,0 mm 0,0 km/h (0 Bft) O-SO 107 ° 0 min 0,000 mm 0,0 UV-I 0 W/m² 7,8 °C 9,2 °C 0,0 km/h (0 Bft)
19.06.2017 02:56 9,2 °C 9,2 °C 91 % 1020,3 hPa 0,0 mm 0,0 km/h (0 Bft) O-SO 107 ° 0 min 0,000 mm 0,0 UV-I 0 W/m² 7,8 °C 9,2 °C 0,0 km/h (0 Bft)
19.06.2017 02:57 9,3 °C 9,3 °C 92 % 1020,3 hPa 0,0 mm 0,0 km/h (0 Bft) O-SO 107 ° 0 min 0,000 mm 0,0 UV-I 0 W/m² 8,1 °C 9,3 °C 0,0 km/h (0 Bft)
19.06.2017 02:58 9,2 °C 9,3 °C 92 % 1020,2 hPa 0,0 mm 0,0 km/h (0 Bft) O-SO 107 ° 0 min 0,000 mm 0,0 UV-I 0 W/m² 8,0 °C 9,2 °C 0,0 km/h (0 Bft)
19.06.2017 02:59 9,3 °C 9,3 °C 92 % 1020,2 hPa 0,0 mm 0,0 km/h (0 Bft) O-SO 107 ° 0 min 0,000 mm 0,0 UV-I 0 W/m² 8,1 °C 9,3 °C 0,0 km/h (0 Bft)
19.06.2017 03:00 9,3 °C 9,3 °C 92 % 1020,1 hPa 0,0 mm 0,0 km/h (0 Bft) O-SO 107 ° 0 min 0,000 mm 0,0 UV-I 0 W/m² 8,1 °C 9,3 °C 0,0 km/h (0 Bft)
19.06.2017 03:01 9,3 °C 9,4 °C 92 % 1020,2 hPa 0,0 mm 0,0 km/h (0 Bft) O-SO 107 ° 0 min 0,000 mm 0,0 UV-I 0 W/m² 8,1 °C 9,3 °C 0,0 km/h (0 Bft)
19.06.2017 03:02 9,4 °C 9,4 °C 92 % 1020,2 hPa 0,0 mm 0,0 km/h (0 Bft) O-SO 107 ° 0 min 0,000 mm 0,0 UV-I 0 W/m² 8,2 °C 9,4 °C 0,0 km/h (0 Bft)
19.06.2017 03:03 9,5 °C 9,5 °C 92 % 1020,2 hPa 0,0 mm 0,0 km/h (0 Bft) O-SO 107 ° 0 min 0,000 mm 0,0 UV-I 0 W/m² 8,3 °C 9,5 °C 0,0 km/h (0 Bft)
19.06.2017 03:04 9,6 °C 9,6 °C 92 % 1020,1 hPa 0,0 mm 0,2 km/h (0 Bft) O-SO 107 ° 0 min 0,000 mm 0,0 UV-I 0 W/m² 8,4 °C 9,6 °C 1,6 km/h (1 Bft)
19.06.2017 03:05 9,6 °C 9,6 °C 92 % 1020,2 hPa 0,0 mm 0,0 km/h (0 Bft) O-SO 107 ° 0 min 0,000 mm 0,0 UV-I 0 W/m² 8,4 °C 9,6 °C 0,0 km/h (0 Bft)
19.06.2017 03:06 9,7 °C 9,7 °C 92 % 1020,2 hPa 0,0 mm 0,0 km/h (0 Bft) O-SO 107 ° 0 min 0,000 mm 0,0 UV-I 0 W/m² 8,5 °C 9,7 °C 0,0 km/h (0 Bft)
19.06.2017 03:07 9,7 °C 9,7 °C 92 % 1020,2 hPa 0,0 mm 0,0 km/h (0 Bft) O-SO 107 ° 0 min 0,000 mm 0,0 UV-I 0 W/m² 8,5 °C 9,7 °C 0,0 km/h (0 Bft)
19.06.2017 03:08 9,6 °C 9,7 °C 91 % 1020,1 hPa 0,0 mm 0,0 km/h (0 Bft) O-SO 107 ° 0 min 0,000 mm 0,0 UV-I 0 W/m² 8,2 °C 9,6 °C 0,0 km/h (0 Bft)
19.06.2017 03:09 9,5 °C 9,6 °C 91 % 1020,1 hPa 0,0 mm 0,0 km/h (0 Bft) O-SO 107 ° 0 min 0,000 mm 0,0 UV-I 0 W/m² 8,1 °C 9,5 °C 0,0 km/h (0 Bft)
19.06.2017 03:10 9,4 °C 9,5 °C 90 % 1020,1 hPa 0,0 mm 0,0 km/h (0 Bft) O-SO 107 ° 0 min 0,000 mm 0,0 UV-I 0 W/m² 7,8 °C 9,4 °C 0,0 km/h (0 Bft)
19.06.2017 03:11 9,3 °C 9,4 °C 91 % 1020,1 hPa 0,0 mm 0,0 km/h (0 Bft) O-SO 107 ° 0 min 0,000 mm 0,0 UV-I 0 W/m² 7,9 °C 9,3 °C 0,0 km/h (0 Bft)
19.06.2017 03:12 9,3 °C 9,3 °C 91 % 1020,1 hPa 0,0 mm 0,0 km/h (0 Bft) O-SO 107 ° 0 min 0,000 mm 0,0 UV-I 0 W/m² 7,9 °C 9,3 °C 0,0 km/h (0 Bft)
19.06.2017 03:13 9,3 °C 9,3 °C 91 % 1020,1 hPa 0,0 mm 0,0 km/h (0 Bft) O-SO 107 ° 0 min 0,000 mm 0,0 UV-I 0 W/m² 7,9 °C 9,3 °C 0,0 km/h (0 Bft)
19.06.2017 03:14 9,3 °C 9,3 °C 92 % 1020,1 hPa 0,0 mm 0,0 km/h (0 Bft) O-SO 107 ° 0 min 0,000 mm 0,0 UV-I 0 W/m² 8,1 °C 9,3 °C 0,0 km/h (0 Bft)
19.06.2017 03:15 9,3 °C 9,3 °C 92 % 1020,1 hPa 0,0 mm 0,0 km/h (0 Bft) O-SO 107 ° 0 min 0,000 mm 0,0 UV-I 0 W/m² 8,1 °C 9,3 °C 0,0 km/h (0 Bft)
19.06.2017 03:16 9,4 °C 9,4 °C 92 % 1020,1 hPa 0,0 mm 0,0 km/h (0 Bft) O-SO 107 ° 0 min 0,000 mm 0,0 UV-I 0 W/m² 8,2 °C 9,4 °C 0,0 km/h (0 Bft)
19.06.2017 03:17 9,4 °C 9,4 °C 92 % 1020,1 hPa 0,0 mm 0,0 km/h (0 Bft) O-SO 107 ° 0 min 0,000 mm 0,0 UV-I 0 W/m² 8,2 °C 9,4 °C 0,0 km/h (0 Bft)
19.06.2017 03:18 9,3 °C 9,4 °C 91 % 1020,0 hPa 0,0 mm 0,0 km/h (0 Bft) O-SO 107 ° 0 min 0,000 mm 0,0 UV-I 0 W/m² 7,9 °C 9,3 °C 0,0 km/h (0 Bft)
19.06.2017 03:19 9,3 °C 9,3 °C 91 % 1020,0 hPa 0,0 mm 0,0 km/h (0 Bft) O-SO 107 ° 0 min 0,000 mm 0,0 UV-I 0 W/m² 7,9 °C 9,3 °C 0,0 km/h (0 Bft)
19.06.2017 03:20 9,3 °C 9,3 °C 91 % 1020,0 hPa 0,0 mm 0,0 km/h (0 Bft) O-SO 107 ° 0 min 0,000 mm 0,0 UV-I 0 W/m² 7,9 °C 9,3 °C 0,0 km/h (0 Bft)
19.06.2017 03:21 9,3 °C 9,3 °C 91 % 1020,0 hPa 0,0 mm 0,0 km/h (0 Bft) O-SO 107 ° 0 min 0,000 mm 0,0 UV-I 0 W/m² 7,9 °C 9,3 °C 0,0 km/h (0 Bft)
19.06.2017 03:22 9,3 °C 9,3 °C 92 % 1020,0 hPa 0,0 mm 0,0 km/h (0 Bft) O-SO 107 ° 0 min 0,000 mm 0,0 UV-I 0 W/m² 8,1 °C 9,3 °C 0,0 km/h (0 Bft)
19.06.2017 03:23 9,3 °C 9,3 °C 92 % 1020,0 hPa 0,0 mm 0,0 km/h (0 Bft) O-SO 107 ° 0 min 0,000 mm 0,0 UV-I 0 W/m² 8,1 °C 9,3 °C 0,0 km/h (0 Bft)
19.06.2017 03:24 9,3 °C 9,3 °C 92 % 1020,0 hPa 0,0 mm 0,0 km/h (0 Bft) O-SO 107 ° 0 min 0,000 mm 0,0 UV-I 0 W/m² 8,1 °C 9,3 °C 0,0 km/h (0 Bft)
19.06.2017 03:25 9,3 °C 9,3 °C 92 % 1020,0 hPa 0,0 mm 0,0 km/h (0 Bft) O-SO 107 ° 0 min 0,000 mm 0,0 UV-I 0 W/m² 8,1 °C 9,3 °C 0,0 km/h (0 Bft)
19.06.2017 03:26 9,4 °C 9,4 °C 92 % 1020,0 hPa 0,0 mm 0,0 km/h (0 Bft) O-SO 107 ° 0 min 0,000 mm 0,0 UV-I 0 W/m² 8,2 °C 9,4 °C 0,0 km/h (0 Bft)
19.06.2017 03:27 9,4 °C 9,4 °C 92 % 1020,0 hPa 0,0 mm 0,0 km/h (0 Bft) O-SO 107 ° 0 min 0,000 mm 0,0 UV-I 0 W/m² 8,2 °C 9,4 °C 0,0 km/h (0 Bft)
19.06.2017 03:28 9,4 °C 9,4 °C 92 % 1020,0 hPa 0,0 mm 0,0 km/h (0 Bft) O-SO 107 ° 0 min 0,000 mm 0,0 UV-I 0 W/m² 8,2 °C 9,4 °C 0,0 km/h (0 Bft)
19.06.2017 03:29 9,6 °C 9,6 °C 92 % 1020,0 hPa 0,0 mm 0,0 km/h (0 Bft) O-SO 107 ° 0 min 0,000 mm 0,0 UV-I 0 W/m² 8,4 °C 9,6 °C 0,0 km/h (0 Bft)
19.06.2017 03:30 9,6 °C 9,6 °C 92 % 1020,0 hPa 0,0 mm 0,0 km/h (0 Bft) O-SO 107 ° 0 min 0,000 mm 0,0 UV-I 0 W/m² 8,4 °C 9,6 °C 0,0 km/h (0 Bft)
19.06.2017 03:31 9,6 °C 9,7 °C 92 % 1020,0 hPa 0,0 mm 0,0 km/h (0 Bft) O-SO 107 ° 0 min 0,000 mm 0,0 UV-I 0 W/m² 8,4 °C 9,6 °C 0,0 km/h (0 Bft)
19.06.2017 03:32 9,6 °C 9,7 °C 92 % 1019,9 hPa 0,0 mm 0,0 km/h (0 Bft) O-SO 107 ° 0 min 0,000 mm 0,0 UV-I 0 W/m² 8,4 °C 9,6 °C 0,0 km/h (0 Bft)
19.06.2017 03:33 9,6 °C 9,7 °C 92 % 1019,9 hPa 0,0 mm 0,0 km/h (0 Bft) O-SO 107 ° 0 min 0,000 mm 0,0 UV-I 0 W/m² 8,4 °C 9,6 °C 0,0 km/h (0 Bft)
19.06.2017 03:34 9,6 °C 9,6 °C 92 % 1019,9 hPa 0,0 mm 0,0 km/h (0 Bft) O-SO 107 ° 0 min 0,000 mm 0,0 UV-I 0 W/m² 8,4 °C 9,6 °C 0,0 km/h (0 Bft)
19.06.2017 03:35 9,6 °C 9,6 °C 92 % 1019,9 hPa 0,0 mm 0,0 km/h (0 Bft) O-SO 107 ° 0 min 0,000 mm 0,0 UV-I 0 W/m² 8,4 °C 9,6 °C 0,0 km/h (0 Bft)
19.06.2017 03:36 9,6 °C 9,6 °C 92 % 1019,9 hPa 0,0 mm 0,0 km/h (0 Bft) O-SO 107 ° 0 min 0,000 mm 0,0 UV-I 0 W/m² 8,4 °C 9,6 °C 0,0 km/h (0 Bft)
19.06.2017 03:37 9,6 °C 9,6 °C 91 % 1019,9 hPa 0,0 mm 0,0 km/h (0 Bft) O-SO 107 ° 0 min 0,000 mm 0,0 UV-I 0 W/m² 8,2 °C 9,6 °C 0,0 km/h (0 Bft)
19.06.2017 03:38 9,5 °C 9,6 °C 91 % 1019,9 hPa 0,0 mm 0,0 km/h (0 Bft) O-SO 107 ° 0 min 0,000 mm 0,0 UV-I 0 W/m² 8,1 °C 9,5 °C 0,0 km/h (0 Bft)
19.06.2017 03:39 9,4 °C 9,5 °C 91 % 1019,9 hPa 0,0 mm 0,0 km/h (0 Bft) O-SO 107 ° 0 min 0,000 mm 0,0 UV-I 0 W/m² 8,0 °C 9,4 °C 0,0 km/h (0 Bft)
19.06.2017 03:40 9,4 °C 9,4 °C 91 % 1019,8 hPa 0,0 mm 0,0 km/h (0 Bft) O-SO 107 ° 0 min 0,000 mm 0,0 UV-I 0 W/m² 8,0 °C 9,4 °C 0,0 km/h (0 Bft)
19.06.2017 03:41 9,4 °C 9,4 °C 91 % 1019,8 hPa 0,0 mm 0,0 km/h (0 Bft) O-SO 107 ° 0 min 0,000 mm 0,0 UV-I 0 W/m² 8,0 °C 9,4 °C 0,0 km/h (0 Bft)
19.06.2017 03:42 9,4 °C 9,4 °C 92 % 1019,8 hPa 0,0 mm 0,0 km/h (0 Bft) O-SO 107 ° 0 min 0,000 mm 0,0 UV-I 0 W/m² 8,2 °C 9,4 °C 0,0 km/h (0 Bft)
19.06.2017 03:43 9,4 °C 9,4 °C 92 % 1019,8 hPa 0,0 mm 0,0 km/h (0 Bft) O-SO 107 ° 0 min 0,000 mm 0,0 UV-I 0 W/m² 8,2 °C 9,4 °C 0,0 km/h (0 Bft)
19.06.2017 03:44 9,4 °C 9,4 °C 92 % 1019,8 hPa 0,0 mm 0,0 km/h (0 Bft) O-SO 107 ° 0 min 0,000 mm 0,0 UV-I 0 W/m² 8,2 °C 9,4 °C 0,0 km/h (0 Bft)
19.06.2017 03:45 9,4 °C 9,4 °C 92 % 1019,8 hPa 0,0 mm 0,0 km/h (0 Bft) O-SO 107 ° 0 min 0,000 mm 0,0 UV-I 0 W/m² 8,2 °C 9,4 °C 0,0 km/h (0 Bft)
19.06.2017 03:46 9,3 °C 9,4 °C 91 % 1019,7 hPa 0,0 mm 0,0 km/h (0 Bft) O-SO 107 ° 0 min 0,000 mm 0,0 UV-I 0 W/m² 7,9 °C 9,3 °C 0,0 km/h (0 Bft)
19.06.2017 03:47 9,3 °C 9,3 °C 91 % 1019,7 hPa 0,0 mm 0,0 km/h (0 Bft) O-SO 107 ° 0 min 0,000 mm 0,0 UV-I 0 W/m² 7,9 °C 9,3 °C 0,0 km/h (0 Bft)
19.06.2017 03:48 9,2 °C 9,3 °C 91 % 1019,8 hPa 0,0 mm 0,0 km/h (0 Bft) O-SO 107 ° 0 min 0,000 mm 0,0 UV-I 0 W/m² 7,8 °C 9,2 °C 0,0 km/h (0 Bft)
19.06.2017 03:49 9,2 °C 9,2 °C 91 % 1019,8 hPa 0,0 mm 0,0 km/h (0 Bft) O-SO 107 ° 0 min 0,000 mm 0,0 UV-I 0 W/m² 7,8 °C 9,2 °C 0,0 km/h (0 Bft)
19.06.2017 03:50 9,2 °C 9,2 °C 91 % 1019,8 hPa 0,0 mm 0,0 km/h (0 Bft) O-SO 107 ° 0 min 0,000 mm 0,0 UV-I 0 W/m² 7,8 °C 9,2 °C 0,0 km/h (0 Bft)
19.06.2017 03:51 9,1 °C 9,2 °C 91 % 1019,7 hPa 0,0 mm 0,0 km/h (0 Bft) O-SO 107 ° 0 min 0,000 mm 0,0 UV-I 0 W/m² 7,7 °C 9,1 °C 0,0 km/h (0 Bft)
19.06.2017 03:52 9,0 °C 9,1 °C 92 % 1019,7 hPa 0,0 mm 0,0 km/h (0 Bft) O-SO 107 ° 0 min 0,000 mm 0,0 UV-I 0 W/m² 7,8 °C 9,0 °C 0,0 km/h (0 Bft)
19.06.2017 03:53 8,9 °C 9,0 °C 92 % 1019,7 hPa 0,0 mm 0,0 km/h (0 Bft) O-SO 107 ° 0 min 0,000 mm 0,0 UV-I 0 W/m² 7,7 °C 8,9 °C 0,0 km/h (0 Bft)
19.06.2017 03:54 8,9 °C 8,9 °C 92 % 1019,7 hPa 0,0 mm 0,0 km/h (0 Bft) O-SO 107 ° 0 min 0,000 mm 0,0 UV-I 0 W/m² 7,7 °C 8,9 °C 0,0 km/h (0 Bft)
19.06.2017 03:55 8,9 °C 8,9 °C 92 % 1019,7 hPa 0,0 mm 0,0 km/h (0 Bft) O-SO 107 ° 0 min 0,000 mm 0,0 UV-I 0 W/m² 7,7 °C 8,9 °C 0,0 km/h (0 Bft)
19.06.2017 03:56 8,9 °C 8,9 °C 92 % 1019,7 hPa 0,0 mm 0,0 km/h (0 Bft) O-SO 107 ° 0 min 0,000 mm 0,0 UV-I 0 W/m² 7,7 °C 8,9 °C 0,0 km/h (0 Bft)
19.06.2017 03:57 8,8 °C 8,9 °C 92 % 1019,7 hPa 0,0 mm 0,0 km/h (0 Bft) O-SO 107 ° 0 min 0,000 mm 0,0 UV-I 0 W/m² 7,6 °C 8,8 °C 0,0 km/h (0 Bft)
19.06.2017 03:58 8,8 °C 8,8 °C 92 % 1019,7 hPa 0,0 mm 0,0 km/h (0 Bft) O-SO 107 ° 0 min 0,000 mm 0,0 UV-I 0 W/m² 7,6 °C 8,8 °C 0,0 km/h (0 Bft)
19.06.2017 03:59 8,9 °C 8,9 °C 92 % 1019,7 hPa 0,0 mm 0,0 km/h (0 Bft) O-SO 107 ° 0 min 0,000 mm 0,0 UV-I 0 W/m² 7,7 °C 8,9 °C 0,0 km/h (0 Bft)
19.06.2017 04:00 8,9 °C 8,9 °C 93 % 1019,7 hPa 0,0 mm 0,0 km/h (0 Bft) O-SO 107 ° 0 min 0,000 mm 0,0 UV-I 0 W/m² 7,8 °C 8,9 °C 0,0 km/h (0 Bft)
19.06.2017 04:01 8,9 °C 8,9 °C 92 % 1019,6 hPa 0,0 mm 0,0 km/h (0 Bft) O-SO 107 ° 0 min 0,000 mm 0,0 UV-I 0 W/m² 7,7 °C 8,9 °C 0,0 km/h (0 Bft)
19.06.2017 04:02 8,9 °C 8,9 °C 92 % 1019,6 hPa 0,0 mm 0,0 km/h (0 Bft) O-SO 107 ° 0 min 0,000 mm 0,0 UV-I 0 W/m² 7,7 °C 8,9 °C 0,0 km/h (0 Bft)
19.06.2017 04:03 8,8 °C 8,9 °C 92 % 1019,5 hPa 0,0 mm 0,0 km/h (0 Bft) O-SO 107 ° 0 min 0,000 mm 0,0 UV-I 0 W/m² 7,6 °C 8,8 °C 0,0 km/h (0 Bft)
19.06.2017 04:04 8,8 °C 8,8 °C 93 % 1019,5 hPa 0,0 mm 0,0 km/h (0 Bft) O-SO 107 ° 0 min 0,000 mm 0,0 UV-I 0 W/m² 7,7 °C 8,8 °C 0,0 km/h (0 Bft)
19.06.2017 04:05 8,8 °C 8,8 °C 93 % 1019,6 hPa 0,0 mm 0,0 km/h (0 Bft) O-SO 107 ° 0 min 0,000 mm 0,0 UV-I 0 W/m² 7,7 °C 8,8 °C 0,0 km/h (0 Bft)
19.06.2017 04:06 8,8 °C 8,8 °C 92 % 1019,6 hPa 0,0 mm 0,0 km/h (0 Bft) O-SO 107 ° 0 min 0,000 mm 0,0 UV-I 0 W/m² 7,6 °C 8,8 °C 0,0 km/h (0 Bft)
19.06.2017 04:07 8,9 °C 8,9 °C 93 % 1019,7 hPa 0,0 mm 0,0 km/h (0 Bft) O-SO 107 ° 0 min 0,000 mm 0,0 UV-I 0 W/m² 7,8 °C 8,9 °C 0,0 km/h (0 Bft)
19.06.2017 04:08 8,9 °C 8,9 °C 93 % 1019,6 hPa 0,0 mm 0,0 km/h (0 Bft) O-SO 107 ° 0 min 0,000 mm 0,0 UV-I 0 W/m² 7,8 °C 8,9 °C 0,0 km/h (0 Bft)
19.06.2017 04:09 8,9 °C 8,9 °C 93 % 1019,6 hPa 0,0 mm 0,0 km/h (0 Bft) O-SO 107 ° 0 min 0,000 mm 0,0 UV-I 0 W/m² 7,8 °C 8,9 °C 0,0 km/h (0 Bft)
19.06.2017 04:10 8,9 °C 8,9 °C 93 % 1019,6 hPa 0,0 mm 0,0 km/h (0 Bft) O-SO 107 ° 0 min 0,000 mm 0,0 UV-I 0 W/m² 7,8 °C 8,9 °C 0,0 km/h (0 Bft)
19.06.2017 04:11 8,8 °C 8,9 °C 93 % 1019,6 hPa 0,0 mm 0,0 km/h (0 Bft) O-SO 107 ° 0 min 0,000 mm 0,0 UV-I 0 W/m² 7,7 °C 8,8 °C 0,0 km/h (0 Bft)
19.06.2017 04:12 8,8 °C 8,8 °C 93 % 1019,6 hPa 0,0 mm 0,0 km/h (0 Bft) O-SO 107 ° 0 min 0,000 mm 0,0 UV-I 0 W/m² 7,7 °C 8,8 °C 0,0 km/h (0 Bft)
19.06.2017 04:13 8,8 °C 8,8 °C 93 % 1019,6 hPa 0,0 mm 0,0 km/h (0 Bft) O-SO 107 ° 0 min 0,000 mm 0,0 UV-I 0 W/m² 7,7 °C 8,8 °C 0,0 km/h (0 Bft)
19.06.2017 04:14 8,9 °C 8,9 °C 93 % 1019,6 hPa 0,0 mm 0,0 km/h (0 Bft) O-SO 107 ° 0 min 0,000 mm 0,0 UV-I 0 W/m² 7,8 °C 8,9 °C 0,0 km/h (0 Bft)
19.06.2017 04:15 8,9 °C 8,9 °C 93 % 1019,6 hPa 0,0 mm 0,0 km/h (0 Bft) O-SO 107 ° 0 min 0,000 mm 0,0 UV-I 0 W/m² 7,8 °C 8,9 °C 0,0 km/h (0 Bft)
19.06.2017 04:16 9,0 °C 9,0 °C 93 % 1019,6 hPa 0,0 mm 0,0 km/h (0 Bft) O-SO 107 ° 0 min 0,000 mm 0,0 UV-I 0 W/m² 7,9 °C 9,0 °C 0,0 km/h (0 Bft)
19.06.2017 04:17 9,1 °C 9,1 °C 93 % 1019,6 hPa 0,0 mm 0,0 km/h (0 Bft) O-SO 107 ° 0 min 0,000 mm 0,0 UV-I 0 W/m² 8,0 °C 9,1 °C 0,0 km/h (0 Bft)
19.06.2017 04:18 9,0 °C 9,1 °C 93 % 1019,6 hPa 0,0 mm 0,0 km/h (0 Bft) O-SO 107 ° 0 min 0,000 mm 0,0 UV-I 0 W/m² 7,9 °C 9,0 °C 0,0 km/h (0 Bft)
19.06.2017 04:19 8,9 °C 9,0 °C 93 % 1019,6 hPa 0,0 mm 0,0 km/h (0 Bft) O-SO 107 ° 0 min 0,000 mm 0,0 UV-I 0 W/m² 7,8 °C 8,9 °C 0,0 km/h (0 Bft)
19.06.2017 04:20 8,9 °C 8,9 °C 93 % 1019,7 hPa 0,0 mm 0,0 km/h (0 Bft) O-SO 107 ° 0 min 0,000 mm 0,0 UV-I 0 W/m² 7,8 °C 8,9 °C 0,0 km/h (0 Bft)
19.06.2017 04:21 8,9 °C 8,9 °C 93 % 1019,7 hPa 0,0 mm 0,0 km/h (0 Bft) O-SO 107 ° 0 min 0,000 mm 0,0 UV-I 0 W/m² 7,8 °C 8,9 °C 0,0 km/h (0 Bft)
19.06.2017 04:22 9,0 °C 9,0 °C 93 % 1019,7 hPa 0,0 mm 0,0 km/h (0 Bft) O-SO 107 ° 0 min 0,000 mm 0,0 UV-I 0 W/m² 7,9 °C 9,0 °C 0,0 km/h (0 Bft)
19.06.2017 04:23 9,1 °C 9,1 °C 93 % 1019,7 hPa 0,0 mm 0,0 km/h (0 Bft) O-SO 107 ° 0 min 0,000 mm 0,0 UV-I 0 W/m² 8,0 °C 9,1 °C 0,0 km/h (0 Bft)
19.06.2017 04:24 9,1 °C 9,1 °C 94 % 1019,6 hPa 0,0 mm 0,0 km/h (0 Bft) O-SO 107 ° 0 min 0,000 mm 0,0 UV-I 0 W/m² 8,2 °C 9,1 °C 0,0 km/h (0 Bft)
19.06.2017 04:25 9,1 °C 9,1 °C 94 % 1019,6 hPa 0,0 mm 0,0 km/h (0 Bft) O-SO 107 ° 0 min 0,000 mm 0,0 UV-I 0 W/m² 8,2 °C 9,1 °C 0,0 km/h (0 Bft)
19.06.2017 04:26 9,0 °C 9,1 °C 93 % 1019,7 hPa 0,0 mm 0,0 km/h (0 Bft) O-SO 107 ° 0 min 0,000 mm 0,0 UV-I 0 W/m² 7,9 °C 9,0 °C 0,0 km/h (0 Bft)
19.06.2017 04:27 9,0 °C 9,0 °C 94 % 1019,7 hPa 0,0 mm 0,0 km/h (0 Bft) O-SO 107 ° 0 min 0,000 mm 0,0 UV-I 0 W/m² 8,1 °C 9,0 °C 0,0 km/h (0 Bft)
19.06.2017 04:28 8,9 °C 9,0 °C 93 % 1019,7 hPa 0,0 mm 0,0 km/h (0 Bft) O-SO 107 ° 0 min 0,000 mm 0,0 UV-I 0 W/m² 7,8 °C 8,9 °C 0,0 km/h (0 Bft)
19.06.2017 04:29 8,8 °C 8,9 °C 93 % 1019,7 hPa 0,0 mm 0,0 km/h (0 Bft) O-SO 107 ° 0 min 0,000 mm 0,0 UV-I 0 W/m² 7,7 °C 8,8 °C 0,0 km/h (0 Bft)
19.06.2017 04:30 8,7 °C 8,8 °C 93 % 1019,7 hPa 0,0 mm 0,0 km/h (0 Bft) O-SO 107 ° 0 min 0,000 mm 0,0 UV-I 0 W/m² 7,6 °C 8,7 °C 0,0 km/h (0 Bft)
19.06.2017 04:31 8,6 °C 8,7 °C 93 % 1019,7 hPa 0,0 mm 0,0 km/h (0 Bft) O-SO 107 ° 0 min 0,000 mm 0,0 UV-I 0 W/m² 7,5 °C 8,6 °C 0,0 km/h (0 Bft)
19.06.2017 04:32 8,5 °C 8,6 °C 93 % 1019,7 hPa 0,0 mm 0,0 km/h (0 Bft) O-SO 107 ° 0 min 0,000 mm 0,0 UV-I 0 W/m² 7,4 °C 8,5 °C 0,0 km/h (0 Bft)
19.06.2017 04:33 8,5 °C 8,6 °C 93 % 1019,7 hPa 0,0 mm 0,0 km/h (0 Bft) O-SO 107 ° 0 min 0,000 mm 0,0 UV-I 0 W/m² 7,4 °C 8,5 °C 0,0 km/h (0 Bft)
19.06.2017 04:34 8,6 °C 8,6 °C 93 % 1019,7 hPa 0,0 mm 0,0 km/h (0 Bft) O-SO 107 ° 0 min 0,000 mm 0,0 UV-I 0 W/m² 7,5 °C 8,6 °C 0,0 km/h (0 Bft)
19.06.2017 04:35 8,6 °C 8,6 °C 93 % 1019,6 hPa 0,0 mm 0,0 km/h (0 Bft) O-SO 107 ° 0 min 0,000 mm 0,0 UV-I 0 W/m² 7,5 °C 8,6 °C 0,0 km/h (0 Bft)
19.06.2017 04:36 8,6 °C 8,6 °C 94 % 1019,6 hPa 0,0 mm 0,0 km/h (0 Bft) O-SO 107 ° 0 min 0,000 mm 0,0 UV-I 0 W/m² 7,7 °C 8,6 °C 0,0 km/h (0 Bft)
19.06.2017 04:37 8,6 °C 8,7 °C 94 % 1019,7 hPa 0,0 mm 0,0 km/h (0 Bft) O-SO 107 ° 0 min 0,000 mm 0,0 UV-I 0 W/m² 7,7 °C 8,6 °C 0,0 km/h (0 Bft)
19.06.2017 04:38 8,6 °C 8,6 °C 93 % 1019,7 hPa 0,0 mm 0,0 km/h (0 Bft) O-SO 107 ° 0 min 0,000 mm 0,0 UV-I 0 W/m² 7,5 °C 8,6 °C 0,0 km/h (0 Bft)
19.06.2017 04:39 8,6 °C 8,6 °C 93 % 1019,7 hPa 0,0 mm 0,0 km/h (0 Bft) O-SO 107 ° 0 min 0,000 mm 0,0 UV-I 0 W/m² 7,5 °C 8,6 °C 0,0 km/h (0 Bft)
19.06.2017 04:40 8,5 °C 8,6 °C 93 % 1019,7 hPa 0,0 mm 0,0 km/h (0 Bft) O-SO 107 ° 0 min 0,000 mm 0,0 UV-I 0 W/m² 7,4 °C 8,5 °C 0,0 km/h (0 Bft)
19.06.2017 04:41 8,4 °C 8,5 °C 93 % 1019,7 hPa 0,0 mm 0,0 km/h (0 Bft) O-SO 107 ° 0 min 0,000 mm 0,0 UV-I 0 W/m² 7,3 °C 8,4 °C 0,0 km/h (0 Bft)
19.06.2017 04:42 8,5 °C 8,5 °C 94 % 1019,7 hPa 0,0 mm 0,0 km/h (0 Bft) O-SO 107 ° 0 min 0,000 mm 0,0 UV-I 0 W/m² 7,6 °C 8,5 °C 0,0 km/h (0 Bft)
19.06.2017 04:43 8,5 °C 8,5 °C 94 % 1019,7 hPa 0,0 mm 0,0 km/h (0 Bft) O-SO 107 ° 0 min 0,000 mm 0,0 UV-I 0 W/m² 7,6 °C 8,5 °C 0,0 km/h (0 Bft)
19.06.2017 04:44 8,6 °C 8,6 °C 94 % 1019,7 hPa 0,0 mm 0,0 km/h (0 Bft) O-SO 107 ° 0 min 0,000 mm 0,0 UV-I 0 W/m² 7,7 °C 8,6 °C 0,0 km/h (0 Bft)
19.06.2017 04:45 8,6 °C 8,6 °C 94 % 1019,7 hPa 0,0 mm 0,0 km/h (0 Bft) O-SO 107 ° 0 min 0,000 mm 0,0 UV-I 0 W/m² 7,7 °C 8,6 °C 0,0 km/h (0 Bft)
19.06.2017 04:46 8,6 °C 8,6 °C 94 % 1019,7 hPa 0,0 mm 0,0 km/h (0 Bft) O-SO 107 ° 0 min 0,000 mm 0,0 UV-I 0 W/m² 7,7 °C 8,6 °C 0,0 km/h (0 Bft)
19.06.2017 04:47 8,6 °C 8,6 °C 94 % 1019,7 hPa 0,0 mm 0,0 km/h (0 Bft) O-SO 107 ° 0 min 0,000 mm 0,0 UV-I 0 W/m² 7,7 °C 8,6 °C 0,0 km/h (0 Bft)
19.06.2017 04:48 8,6 °C 8,6 °C 93 % 1019,7 hPa 0,0 mm 0,0 km/h (0 Bft) O-SO 107 ° 0 min 0,000 mm 0,0 UV-I 0 W/m² 7,5 °C 8,6 °C 0,0 km/h (0 Bft)
19.06.2017 04:49 8,6 °C 8,6 °C 93 % 1019,7 hPa 0,0 mm 0,0 km/h (0 Bft) O-SO 107 ° 0 min 0,000 mm 0,0 UV-I 0 W/m² 7,5 °C 8,6 °C 0,0 km/h (0 Bft)
19.06.2017 04:50 8,6 °C 8,6 °C 93 % 1019,7 hPa 0,0 mm 0,0 km/h (0 Bft) O-SO 107 ° 0 min 0,000 mm 0,0 UV-I 0 W/m² 7,5 °C 8,6 °C 0,0 km/h (0 Bft)
19.06.2017 04:51 8,6 °C 8,6 °C 94 % 1019,7 hPa 0,0 mm 0,0 km/h (0 Bft) O-SO 107 ° 0 min 0,000 mm 0,0 UV-I 0 W/m² 7,7 °C 8,6 °C 0,0 km/h (0 Bft)
19.06.2017 04:52 8,6 °C 8,6 °C 94 % 1019,7 hPa 0,0 mm 0,0 km/h (0 Bft) O-SO 107 ° 0 min 0,000 mm 0,0 UV-I 0 W/m² 7,7 °C 8,6 °C 0,0 km/h (0 Bft)
19.06.2017 04:53 8,7 °C 8,7 °C 94 % 1019,6 hPa 0,0 mm 0,0 km/h (0 Bft) O-SO 107 ° 0 min 0,000 mm 0,0 UV-I 0 W/m² 7,8 °C 8,7 °C 0,0 km/h (0 Bft)
19.06.2017 04:54 8,8 °C 8,8 °C 94 % 1019,6 hPa 0,0 mm 0,0 km/h (0 Bft) O-SO 107 ° 0 min 0,000 mm 0,0 UV-I 0 W/m² 7,9 °C 8,8 °C 0,0 km/h (0 Bft)
19.06.2017 04:55 8,8 °C 8,8 °C 94 % 1019,6 hPa 0,0 mm 0,0 km/h (0 Bft) O-SO 107 ° 0 min 0,000 mm 0,0 UV-I 0 W/m² 7,9 °C 8,8 °C 0,0 km/h (0 Bft)
19.06.2017 04:56 8,9 °C 8,9 °C 94 % 1019,6 hPa 0,0 mm 0,0 km/h (0 Bft) O-SO 107 ° 0 min 0,000 mm 0,0 UV-I 0 W/m² 8,0 °C 8,9 °C 0,0 km/h (0 Bft)
19.06.2017 04:57 8,9 °C 8,9 °C 94 % 1019,6 hPa 0,0 mm 0,0 km/h (0 Bft) O-SO 107 ° 0 min 0,000 mm 0,0 UV-I 0 W/m² 8,0 °C 8,9 °C 0,0 km/h (0 Bft)
19.06.2017 04:58 8,8 °C 8,9 °C 94 % 1019,6 hPa 0,0 mm 0,0 km/h (0 Bft) O-SO 107 ° 0 min 0,000 mm 0,0 UV-I 0 W/m² 7,9 °C 8,8 °C 0,0 km/h (0 Bft)
19.06.2017 04:59 8,8 °C 8,8 °C 94 % 1019,6 hPa 0,0 mm 0,0 km/h (0 Bft) O-SO 107 ° 0 min 0,000 mm 0,0 UV-I 0 W/m² 7,9 °C 8,8 °C 0,0 km/h (0 Bft)
19.06.2017 05:00 8,8 °C 8,8 °C 94 % 1019,6 hPa 0,0 mm 0,0 km/h (0 Bft) O-SO 107 ° 0 min 0,000 mm 0,0 UV-I 0 W/m² 7,9 °C 8,8 °C 0,0 km/h (0 Bft)
19.06.2017 05:01 8,8 °C 8,8 °C 94 % 1019,6 hPa 0,0 mm 0,0 km/h (0 Bft) O-SO 107 ° 0 min 0,000 mm 0,0 UV-I 0 W/m² 7,9 °C 8,8 °C 0,0 km/h (0 Bft)
19.06.2017 05:02 8,8 °C 8,8 °C 94 % 1019,6 hPa 0,0 mm 0,0 km/h (0 Bft) O-SO 107 ° 0 min 0,000 mm 0,0 UV-I 0 W/m² 7,9 °C 8,8 °C 0,0 km/h (0 Bft)
19.06.2017 05:03 8,9 °C 8,9 °C 94 % 1019,6 hPa 0,0 mm 0,0 km/h (0 Bft) O-SO 107 ° 0 min 0,000 mm 0,0 UV-I 0 W/m² 8,0 °C 8,9 °C 0,0 km/h (0 Bft)
19.06.2017 05:04 8,9 °C 8,9 °C 94 % 1019,6 hPa 0,0 mm 0,0 km/h (0 Bft) O-SO 107 ° 0 min 0,000 mm 0,0 UV-I 0 W/m² 8,0 °C 8,9 °C 0,0 km/h (0 Bft)
19.06.2017 05:05 8,9 °C 8,9 °C 94 % 1019,6 hPa 0,0 mm 0,0 km/h (0 Bft) O-SO 107 ° 0 min 0,000 mm 0,0 UV-I 0 W/m² 8,0 °C 8,9 °C 0,0 km/h (0 Bft)
19.06.2017 05:06 8,8 °C 8,9 °C 94 % 1019,6 hPa 0,0 mm 0,0 km/h (0 Bft) O-SO 107 ° 0 min 0,000 mm 0,0 UV-I 0 W/m² 7,9 °C 8,8 °C 0,0 km/h (0 Bft)
19.06.2017 05:07 8,8 °C 8,8 °C 94 % 1019,6 hPa 0,0 mm 0,0 km/h (0 Bft) O-SO 107 ° 0 min 0,000 mm 0,0 UV-I 0 W/m² 7,9 °C 8,8 °C 0,0 km/h (0 Bft)
19.06.2017 05:08 8,8 °C 8,8 °C 94 % 1019,6 hPa 0,0 mm 0,0 km/h (0 Bft) O-SO 107 ° 0 min 0,000 mm 0,0 UV-I 0 W/m² 7,9 °C 8,8 °C 0,0 km/h (0 Bft)
19.06.2017 05:09 8,8 °C 8,8 °C 94 % 1019,6 hPa 0,0 mm 0,0 km/h (0 Bft) O-SO 107 ° 0 min 0,000 mm 0,0 UV-I 0 W/m² 7,9 °C 8,8 °C 0,0 km/h (0 Bft)
19.06.2017 05:10 8,9 °C 8,9 °C 94 % 1019,6 hPa 0,0 mm 0,0 km/h (0 Bft) O-SO 107 ° 0 min 0,000 mm 0,0 UV-I 0 W/m² 8,0 °C 8,9 °C 0,0 km/h (0 Bft)
19.06.2017 05:11 8,9 °C 8,9 °C 94 % 1019,6 hPa 0,0 mm 0,0 km/h (0 Bft) O-SO 107 ° 0 min 0,000 mm 0,0 UV-I 0 W/m² 8,0 °C 8,9 °C 0,0 km/h (0 Bft)
19.06.2017 05:12 9,0 °C 9,0 °C 94 % 1019,6 hPa 0,0 mm 0,1 km/h (0 Bft) O-SO 107 ° 0 min 0,000 mm 0,0 UV-I 0 W/m² 8,1 °C 9,0 °C 1,6 km/h (1 Bft)
19.06.2017 05:13 9,0 °C 9,0 °C 94 % 1019,6 hPa 0,0 mm 0,0 km/h (0 Bft) O-SO 107 ° 0 min 0,000 mm 0,0 UV-I 0 W/m² 8,1 °C 9,0 °C 0,0 km/h (0 Bft)
19.06.2017 05:14 8,9 °C 9,0 °C 94 % 1019,6 hPa 0,0 mm 1,2 km/h (1 Bft) O-SO 107 ° 0 min 0,000 mm 0,0 UV-I 0 W/m² 8,0 °C 8,9 °C 3,2 km/h (1 Bft)
19.06.2017 05:15 8,8 °C 8,9 °C 93 % 1019,6 hPa 0,0 mm 2,3 km/h (1 Bft) O-SO 107 ° 0 min 0,000 mm 0,0 UV-I 0 W/m² 7,7 °C 8,8 °C 4,8 km/h (1 Bft)
19.06.2017 05:16 8,7 °C 8,8 °C 93 % 1019,6 hPa 0,0 mm 0,2 km/h (0 Bft) O-SO 107 ° 0 min 0,000 mm 0,0 UV-I 0 W/m² 7,6 °C 8,7 °C 1,6 km/h (1 Bft)
19.06.2017 05:17 8,7 °C 8,7 °C 93 % 1019,6 hPa 0,0 mm 1,0 km/h (0 Bft) O-SO 107 ° 0 min 0,000 mm 0,0 UV-I 0 W/m² 7,6 °C 8,7 °C 3,2 km/h (1 Bft)
19.06.2017 05:18 8,6 °C 8,7 °C 93 % 1019,6 hPa 0,0 mm 0,2 km/h (0 Bft) O-SO 107 ° 0 min 0,000 mm 0,0 UV-I 5 W/m² 7,5 °C 8,6 °C 1,6 km/h (1 Bft)
19.06.2017 05:19 8,6 °C 8,6 °C 93 % 1019,5 hPa 0,0 mm 0,0 km/h (0 Bft) O-SO 107 ° 0 min 0,000 mm 0,0 UV-I 5 W/m² 7,5 °C 8,6 °C 0,0 km/h (0 Bft)
19.06.2017 05:20 8,6 °C 8,6 °C 93 % 1019,5 hPa 0,0 mm 0,0 km/h (0 Bft) O-SO 107 ° 0 min 0,000 mm 0,0 UV-I 5 W/m² 7,5 °C 8,6 °C 0,0 km/h (0 Bft)
19.06.2017 05:21 8,6 °C 8,6 °C 94 % 1019,6 hPa 0,0 mm 0,0 km/h (0 Bft) O-SO 107 ° 0 min 0,000 mm 0,0 UV-I 5 W/m² 7,7 °C 8,6 °C 0,0 km/h (0 Bft)
19.06.2017 05:22 8,7 °C 8,7 °C 94 % 1019,5 hPa 0,0 mm 0,0 km/h (0 Bft) O-SO 107 ° 0 min 0,000 mm 0,0 UV-I 5 W/m² 7,8 °C 8,7 °C 0,0 km/h (0 Bft)
19.06.2017 05:23 8,7 °C 8,7 °C 94 % 1019,5 hPa 0,0 mm 0,0 km/h (0 Bft) O-SO 107 ° 0 min 0,000 mm 0,0 UV-I 5 W/m² 7,8 °C 8,7 °C 0,0 km/h (0 Bft)
19.06.2017 05:24 8,7 °C 8,7 °C 94 % 1019,5 hPa 0,0 mm 0,0 km/h (0 Bft) O-SO 107 ° 0 min 0,000 mm 0,0 UV-I 7 W/m² 7,8 °C 8,7 °C 0,0 km/h (0 Bft)
19.06.2017 05:25 8,7 °C 8,7 °C 93 % 1019,5 hPa 0,0 mm 0,0 km/h (0 Bft) O-SO 107 ° 0 min 0,000 mm 0,0 UV-I 7 W/m² 7,6 °C 8,7 °C 0,0 km/h (0 Bft)
19.06.2017 05:26 8,6 °C 8,7 °C 93 % 1019,5 hPa 0,0 mm 0,0 km/h (0 Bft) O-SO 107 ° 0 min 0,000 mm 0,0 UV-I 7 W/m² 7,5 °C 8,6 °C 0,0 km/h (0 Bft)
19.06.2017 05:27 8,6 °C 8,6 °C 93 % 1019,4 hPa 0,0 mm 0,0 km/h (0 Bft) O-SO 107 ° 0 min 0,000 mm 0,0 UV-I 7 W/m² 7,5 °C 8,6 °C 0,0 km/h (0 Bft)
19.06.2017 05:28 8,6 °C 8,6 °C 93 % 1019,4 hPa 0,0 mm 0,0 km/h (0 Bft) O-SO 107 ° 0 min 0,000 mm 0,0 UV-I 7 W/m² 7,5 °C 8,6 °C 0,0 km/h (0 Bft)
19.06.2017 05:29 8,6 °C 8,6 °C 94 % 1019,4 hPa 0,0 mm 0,0 km/h (0 Bft) O-SO 107 ° 0 min 0,000 mm 0,0 UV-I 9 W/m² 7,7 °C 8,6 °C 0,0 km/h (0 Bft)
19.06.2017 05:30 8,6 °C 8,6 °C 93 % 1019,4 hPa 0,0 mm 0,0 km/h (0 Bft) O-SO 107 ° 0 min 0,000 mm 0,0 UV-I 9 W/m² 7,5 °C 8,6 °C 0,0 km/h (0 Bft)
19.06.2017 05:31 8,5 °C 8,6 °C 93 % 1019,4 hPa 0,0 mm 0,0 km/h (0 Bft) O-SO 107 ° 0 min 0,000 mm 0,0 UV-I 9 W/m² 7,4 °C 8,5 °C 0,0 km/h (0 Bft)
19.06.2017 05:32 8,4 °C 8,5 °C 93 % 1019,4 hPa 0,0 mm 0,0 km/h (0 Bft) O-SO 107 ° 0 min 0,000 mm 0,0 UV-I 9 W/m² 7,3 °C 8,4 °C 0,0 km/h (0 Bft)
19.06.2017 05:33 8,3 °C 8,4 °C 93 % 1019,4 hPa 0,0 mm 0,0 km/h (0 Bft) O-SO 107 ° 0 min 0,000 mm 0,0 UV-I 9 W/m² 7,2 °C 8,3 °C 0,0 km/h (0 Bft)
19.06.2017 05:34 8,3 °C 8,4 °C 93 % 1019,4 hPa 0,0 mm 0,0 km/h (0 Bft) O-SO 107 ° 0 min 0,000 mm 0,0 UV-I 11 W/m² 7,2 °C 8,3 °C 0,0 km/h (0 Bft)
19.06.2017 05:35 8,4 °C 8,4 °C 94 % 1019,4 hPa 0,0 mm 0,0 km/h (0 Bft) O-SO 107 ° 0 min 0,000 mm 0,0 UV-I 12 W/m² 7,5 °C 8,4 °C 0,0 km/h (0 Bft)
19.06.2017 05:36 8,6 °C 8,6 °C 94 % 1019,4 hPa 0,0 mm 0,0 km/h (0 Bft) O-SO 107 ° 0 min 0,000 mm 0,0 UV-I 12 W/m² 7,7 °C 8,6 °C 0,0 km/h (0 Bft)
19.06.2017 05:37 8,7 °C 8,7 °C 94 % 1019,4 hPa 0,0 mm 0,0 km/h (0 Bft) O-SO 107 ° 0 min 0,000 mm 0,0 UV-I 12 W/m² 7,8 °C 8,7 °C 0,0 km/h (0 Bft)
19.06.2017 05:38 8,7 °C 8,7 °C 94 % 1019,4 hPa 0,0 mm 0,0 km/h (0 Bft) O-SO 107 ° 0 min 0,000 mm 0,0 UV-I 14 W/m² 7,8 °C 8,7 °C 0,0 km/h (0 Bft)
19.06.2017 05:39 8,7 °C 8,7 °C 94 % 1019,4 hPa 0,0 mm 0,0 km/h (0 Bft) O-SO 107 ° 0 min 0,000 mm 0,0 UV-I 14 W/m² 7,8 °C 8,7 °C 0,0 km/h (0 Bft)
19.06.2017 05:40 8,7 °C 8,7 °C 93 % 1019,4 hPa 0,0 mm 0,0 km/h (0 Bft) O-SO 107 ° 0 min 0,000 mm 0,0 UV-I 14 W/m² 7,6 °C 8,7 °C 0,0 km/h (0 Bft)
19.06.2017 05:41 8,6 °C 8,7 °C 93 % 1019,4 hPa 0,0 mm 0,0 km/h (0 Bft) O-SO 107 ° 0 min 0,000 mm 0,0 UV-I 14 W/m² 7,5 °C 8,6 °C 0,0 km/h (0 Bft)
19.06.2017 05:42 8,6 °C 8,7 °C 93 % 1019,4 hPa 0,0 mm 0,0 km/h (0 Bft) O-SO 107 ° 0 min 0,000 mm 0,0 UV-I 14 W/m² 7,5 °C 8,6 °C 0,0 km/h (0 Bft)
19.06.2017 05:43 8,6 °C 8,6 °C 93 % 1019,4 hPa 0,0 mm 0,0 km/h (0 Bft) O-SO 107 ° 0 min 0,000 mm 0,0 UV-I 14 W/m² 7,5 °C 8,6 °C 0,0 km/h (0 Bft)
19.06.2017 05:44 8,7 °C 8,7 °C 93 % 1019,3 hPa 0,0 mm 0,0 km/h (0 Bft) O-SO 107 ° 0 min 0,000 mm 0,0 UV-I 16 W/m² 7,6 °C 8,7 °C 0,0 km/h (0 Bft)
19.06.2017 05:45 8,7 °C 8,7 °C 94 % 1019,4 hPa 0,0 mm 0,0 km/h (0 Bft) O-SO 107 ° 0 min 0,000 mm 0,0 UV-I 16 W/m² 7,8 °C 8,7 °C 0,0 km/h (0 Bft)
19.06.2017 05:46 8,8 °C 8,8 °C 94 % 1019,5 hPa 0,0 mm 0,0 km/h (0 Bft) O-SO 107 ° 0 min 0,000 mm 0,0 UV-I 16 W/m² 7,9 °C 8,8 °C 0,0 km/h (0 Bft)
19.06.2017 05:47 8,8 °C 8,9 °C 94 % 1019,5 hPa 0,0 mm 0,0 km/h (0 Bft) O-SO 107 ° 0 min 0,000 mm 0,0 UV-I 16 W/m² 7,9 °C 8,8 °C 0,0 km/h (0 Bft)
19.06.2017 05:48 8,9 °C 8,9 °C 94 % 1019,4 hPa 0,0 mm 0,0 km/h (0 Bft) O-SO 107 ° 0 min 0,000 mm 0,0 UV-I 18 W/m² 8,0 °C 8,9 °C 0,0 km/h (0 Bft)
19.06.2017 05:49 8,9 °C 8,9 °C 94 % 1019,4 hPa 0,0 mm 0,0 km/h (0 Bft) O-SO 107 ° 0 min 0,000 mm 0,0 UV-I 18 W/m² 8,0 °C 8,9 °C 0,0 km/h (0 Bft)
19.06.2017 05:50 8,9 °C 8,9 °C 93 % 1019,4 hPa 0,0 mm 0,0 km/h (0 Bft) O-SO 107 ° 0 min 0,000 mm 0,0 UV-I 18 W/m² 7,8 °C 8,9 °C 0,0 km/h (0 Bft)
19.06.2017 05:51 8,8 °C 8,9 °C 93 % 1019,4 hPa 0,0 mm 0,0 km/h (0 Bft) O-SO 107 ° 0 min 0,000 mm 0,0 UV-I 18 W/m² 7,7 °C 8,8 °C 0,0 km/h (0 Bft)
19.06.2017 05:52 8,8 °C 8,8 °C 93 % 1019,4 hPa 0,0 mm 0,0 km/h (0 Bft) O-SO 107 ° 0 min 0,000 mm 0,0 UV-I 18 W/m² 7,7 °C 8,8 °C 0,0 km/h (0 Bft)
19.06.2017 05:53 8,8 °C 8,8 °C 93 % 1019,4 hPa 0,0 mm 0,0 km/h (0 Bft) O-SO 107 ° 0 min 0,000 mm 0,0 UV-I 18 W/m² 7,7 °C 8,8 °C 0,0 km/h (0 Bft)
19.06.2017 05:54 8,8 °C 8,8 °C 93 % 1019,3 hPa 0,0 mm 0,0 km/h (0 Bft) O-SO 107 ° 0 min 0,000 mm 0,0 UV-I 19 W/m² 7,7 °C 8,8 °C 0,0 km/h (0 Bft)
19.06.2017 05:55 8,7 °C 8,8 °C 93 % 1019,3 hPa 0,0 mm 0,0 km/h (0 Bft) O-SO 107 ° 0 min 0,000 mm 0,0 UV-I 19 W/m² 7,6 °C 8,7 °C 0,0 km/h (0 Bft)
19.06.2017 05:56 8,8 °C 8,8 °C 93 % 1019,3 hPa 0,0 mm 0,0 km/h (0 Bft) O-SO 107 ° 0 min 0,000 mm 0,0 UV-I 19 W/m² 7,7 °C 8,8 °C 0,0 km/h (0 Bft)
19.06.2017 05:57 8,8 °C 8,8 °C 93 % 1019,3 hPa 0,0 mm 0,0 km/h (0 Bft) O-SO 107 ° 0 min 0,000 mm 0,0 UV-I 19 W/m² 7,7 °C 8,8 °C 0,0 km/h (0 Bft)
19.06.2017 05:58 8,8 °C 8,8 °C 93 % 1019,4 hPa 0,0 mm 0,0 km/h (0 Bft) O-SO 107 ° 0 min 0,000 mm 0,0 UV-I 19 W/m² 7,7 °C 8,8 °C 0,0 km/h (0 Bft)
19.06.2017 05:59 8,8 °C 8,8 °C 93 % 1019,4 hPa 0,0 mm 0,0 km/h (0 Bft) O-SO 107 ° 0 min 0,000 mm 0,0 UV-I 21 W/m² 7,7 °C 8,8 °C 0,0 km/h (0 Bft)
19.06.2017 06:00 8,8 °C 8,8 °C 93 % 1019,4 hPa 0,0 mm 0,0 km/h (0 Bft) O-SO 107 ° 0 min 0,000 mm 0,0 UV-I 25 W/m² 7,7 °C 8,8 °C 0,0 km/h (0 Bft)
19.06.2017 06:01 8,8 °C 8,8 °C 93 % 1019,4 hPa 0,0 mm 0,0 km/h (0 Bft) O-SO 107 ° 0 min 0,000 mm 0,0 UV-I 25 W/m² 7,7 °C 8,8 °C 0,0 km/h (0 Bft)
19.06.2017 06:02 8,8 °C 8,8 °C 93 % 1019,4 hPa 0,0 mm 0,0 km/h (0 Bft) O-SO 107 ° 0 min 0,000 mm 0,0 UV-I 28 W/m² 7,7 °C 8,8 °C 0,0 km/h (0 Bft)
19.06.2017 06:03 8,9 °C 8,9 °C 93 % 1019,4 hPa 0,0 mm 0,0 km/h (0 Bft) O-SO 107 ° 0 min 0,000 mm 0,0 UV-I 35 W/m² 7,8 °C 8,9 °C 0,0 km/h (0 Bft)
19.06.2017 06:04 8,9 °C 8,9 °C 93 % 1019,4 hPa 0,0 mm 0,0 km/h (0 Bft) O-SO 107 ° 0 min 0,000 mm 0,0 UV-I 42 W/m² 7,8 °C 8,9 °C 0,0 km/h (0 Bft)
19.06.2017 06:05 8,9 °C 8,9 °C 93 % 1019,4 hPa 0,0 mm 0,0 km/h (0 Bft) O-SO 107 ° 0 min 0,000 mm 0,0 UV-I 47 W/m² 7,8 °C 8,9 °C 0,0 km/h (0 Bft)
19.06.2017 06:06 9,0 °C 9,0 °C 93 % 1019,4 hPa 0,0 mm 0,0 km/h (0 Bft) O-SO 107 ° 0 min 0,000 mm 0,0 UV-I 53 W/m² 7,9 °C 9,0 °C 0,0 km/h (0 Bft)
19.06.2017 06:07 9,0 °C 9,1 °C 93 % 1019,4 hPa 0,0 mm 0,0 km/h (0 Bft) O-SO 107 ° 0 min 0,000 mm 0,0 UV-I 53 W/m² 7,9 °C 9,0 °C 0,0 km/h (0 Bft)
19.06.2017 06:08 9,1 °C 9,1 °C 93 % 1019,4 hPa 0,0 mm 0,0 km/h (0 Bft) O-SO 107 ° 0 min 0,000 mm 0,0 UV-I 53 W/m² 8,0 °C 9,1 °C 0,0 km/h (0 Bft)
19.06.2017 06:09 9,2 °C 9,2 °C 94 % 1019,4 hPa 0,0 mm 0,0 km/h (0 Bft) O-SO 107 ° 0 min 0,000 mm 0,0 UV-I 54 W/m² 8,3 °C 9,2 °C 0,0 km/h (0 Bft)
19.06.2017 06:10 9,3 °C 9,3 °C 94 % 1019,4 hPa 0,0 mm 0,0 km/h (0 Bft) O-SO 107 ° 0 min 0,000 mm 0,0 UV-I 56 W/m² 8,4 °C 9,3 °C 0,0 km/h (0 Bft)
19.06.2017 06:11 9,4 °C 9,4 °C 94 % 1019,4 hPa 0,0 mm 0,0 km/h (0 Bft) O-SO 107 ° 0 min 0,000 mm 0,0 UV-I 58 W/m² 8,5 °C 9,4 °C 0,0 km/h (0 Bft)
19.06.2017 06:12 9,5 °C 9,5 °C 94 % 1019,4 hPa 0,0 mm 0,0 km/h (0 Bft) O-SO 107 ° 0 min 0,000 mm 0,0 UV-I 60 W/m² 8,6 °C 9,5 °C 0,0 km/h (0 Bft)
19.06.2017 06:13 9,6 °C 9,6 °C 94 % 1019,4 hPa 0,0 mm 0,0 km/h (0 Bft) O-SO 107 ° 0 min 0,000 mm 0,0 UV-I 62 W/m² 8,7 °C 9,6 °C 0,0 km/h (0 Bft)
19.06.2017 06:14 9,7 °C 9,7 °C 94 % 1019,4 hPa 0,0 mm 0,0 km/h (0 Bft) O-SO 107 ° 0 min 0,000 mm 0,0 UV-I 62 W/m² 8,8 °C 9,7 °C 0,0 km/h (0 Bft)
19.06.2017 06:15 9,7 °C 9,7 °C 94 % 1019,4 hPa 0,0 mm 0,0 km/h (0 Bft) O-SO 107 ° 0 min 0,000 mm 0,0 UV-I 62 W/m² 8,8 °C 9,7 °C 0,0 km/h (0 Bft)
19.06.2017 06:16 9,8 °C 9,8 °C 93 % 1019,4 hPa 0,0 mm 0,0 km/h (0 Bft) O-SO 107 ° 0 min 0,000 mm 0,0 UV-I 62 W/m² 8,7 °C 9,8 °C 0,0 km/h (0 Bft)
19.06.2017 06:17 9,8 °C 9,8 °C 93 % 1019,4 hPa 0,0 mm 0,0 km/h (0 Bft) O-SO 107 ° 0 min 0,000 mm 0,0 UV-I 63 W/m² 8,7 °C 9,8 °C 0,0 km/h (0 Bft)
19.06.2017 06:18 9,9 °C 9,9 °C 93 % 1019,4 hPa 0,0 mm 0,0 km/h (0 Bft) O-SO 107 ° 0 min 0,000 mm 0,0 UV-I 65 W/m² 8,8 °C 9,9 °C 0,0 km/h (0 Bft)
19.06.2017 06:19 9,9 °C 9,9 °C 93 % 1019,4 hPa 0,0 mm 0,0 km/h (0 Bft) O-SO 107 ° 0 min 0,000 mm 0,0 UV-I 67 W/m² 8,8 °C 9,9 °C 0,0 km/h (0 Bft)
19.06.2017 06:20 9,9 °C 9,9 °C 93 % 1019,4 hPa 0,0 mm 0,0 km/h (0 Bft) O-SO 107 ° 0 min 0,000 mm 0,0 UV-I 69 W/m² 8,8 °C 9,9 °C 0,0 km/h (0 Bft)
19.06.2017 06:21 10,0 °C 10,0 °C 93 % 1019,5 hPa 0,0 mm 0,0 km/h (0 Bft) O-SO 107 ° 0 min 0,000 mm 0,0 UV-I 70 W/m² 8,9 °C 10,0 °C 0,0 km/h (0 Bft)
19.06.2017 06:22 10,0 °C 10,0 °C 93 % 1019,5 hPa 0,0 mm 0,0 km/h (0 Bft) O-SO 107 ° 0 min 0,000 mm 0,0 UV-I 74 W/m² 8,9 °C 10,0 °C 0,0 km/h (0 Bft)
19.06.2017 06:23 10,1 °C 10,1 °C 93 % 1019,4 hPa 0,0 mm 0,0 km/h (0 Bft) O-SO 107 ° 0 min 0,000 mm 0,0 UV-I 76 W/m² 9,0 °C 10,1 °C 0,0 km/h (0 Bft)
19.06.2017 06:24 10,1 °C 10,1 °C 93 % 1019,4 hPa 0,0 mm 0,0 km/h (0 Bft) O-SO 107 ° 0 min 0,000 mm 0,0 UV-I 76 W/m² 9,0 °C 10,1 °C 0,0 km/h (0 Bft)
19.06.2017 06:25 10,1 °C 10,1 °C 93 % 1019,4 hPa 0,0 mm 0,0 km/h (0 Bft) O-SO 107 ° 0 min 0,000 mm 0,0 UV-I 76 W/m² 9,0 °C 10,1 °C 0,0 km/h (0 Bft)
19.06.2017 06:26 10,3 °C 10,3 °C 93 % 1019,4 hPa 0,0 mm 0,0 km/h (0 Bft) O-SO 107 ° 0 min 0,000 mm 0,0 UV-I 83 W/m² 9,2 °C 10,3 °C 0,0 km/h (0 Bft)
19.06.2017 06:27 10,3 °C 10,3 °C 93 % 1019,4 hPa 0,0 mm 0,0 km/h (0 Bft) O-SO 107 ° 0 min 0,000 mm 0,0 UV-I 90 W/m² 9,2 °C 10,3 °C 0,0 km/h (0 Bft)
19.06.2017 06:28 10,5 °C 10,5 °C 93 % 1019,4 hPa 0,0 mm 0,0 km/h (0 Bft) O-SO 107 ° 0 min 0,000 mm 0,0 UV-I 91 W/m² 9,4 °C 10,5 °C 0,0 km/h (0 Bft)
19.06.2017 06:29 10,4 °C 10,5 °C 92 % 1019,4 hPa 0,0 mm 0,0 km/h (0 Bft) O-SO 107 ° 0 min 0,000 mm 0,0 UV-I 98 W/m² 9,2 °C 10,4 °C 0,0 km/h (0 Bft)
19.06.2017 06:30 10,4 °C 10,4 °C 92 % 1019,4 hPa 0,0 mm 0,0 km/h (0 Bft) O-SO 107 ° 0 min 0,000 mm 0,0 UV-I 100 W/m² 9,2 °C 10,4 °C 0,0 km/h (0 Bft)
19.06.2017 06:31 10,4 °C 10,4 °C 92 % 1019,4 hPa 0,0 mm 0,0 km/h (0 Bft) O-SO 107 ° 0 min 0,000 mm 0,0 UV-I 104 W/m² 9,2 °C 10,4 °C 0,0 km/h (0 Bft)
19.06.2017 06:32 10,4 °C 10,4 °C 92 % 1019,4 hPa 0,0 mm 0,0 km/h (0 Bft) O-SO 107 ° 0 min 0,000 mm 0,0 UV-I 107 W/m² 9,2 °C 10,4 °C 0,0 km/h (0 Bft)
19.06.2017 06:33 10,4 °C 10,4 °C 92 % 1019,4 hPa 0,0 mm 0,0 km/h (0 Bft) O-SO 107 ° 0 min 0,000 mm 0,0 UV-I 109 W/m² 9,2 °C 10,4 °C 0,0 km/h (0 Bft)
19.06.2017 06:34 10,4 °C 10,4 °C 92 % 1019,4 hPa 0,0 mm 0,0 km/h (0 Bft) O-SO 107 ° 0 min 0,000 mm 0,0 UV-I 113 W/m² 9,2 °C 10,4 °C 0,0 km/h (0 Bft)
19.06.2017 06:35 10,4 °C 10,4 °C 92 % 1019,4 hPa 0,0 mm 0,0 km/h (0 Bft) O-SO 107 ° 0 min 0,000 mm 0,0 UV-I 116 W/m² 9,2 °C 10,4 °C 0,0 km/h (0 Bft)
19.06.2017 06:36 10,4 °C 10,4 °C 92 % 1019,4 hPa 0,0 mm 0,0 km/h (0 Bft) O-SO 107 ° 0 min 0,000 mm 0,0 UV-I 120 W/m² 9,2 °C 10,4 °C 0,0 km/h (0 Bft)
19.06.2017 06:37 10,4 °C 10,4 °C 92 % 1019,4 hPa 0,0 mm 0,0 km/h (0 Bft) O-SO 107 ° 0 min 0,000 mm 0,5 UV-I 121 W/m² 9,2 °C 10,4 °C 0,0 km/h (0 Bft)
19.06.2017 06:38 10,5 °C 10,5 °C 92 % 1019,4 hPa 0,0 mm 0,0 km/h (0 Bft) O-SO 107 ° 0 min 0,000 mm 0,5 UV-I 123 W/m² 9,3 °C 10,5 °C 0,0 km/h (0 Bft)
19.06.2017 06:39 10,5 °C 10,6 °C 92 % 1019,4 hPa 0,0 mm 0,0 km/h (0 Bft) O-SO 107 ° 0 min 0,000 mm 0,5 UV-I 127 W/m² 9,3 °C 10,5 °C 0,0 km/h (0 Bft)
19.06.2017 06:40 10,6 °C 10,6 °C 92 % 1019,4 hPa 0,0 mm 0,0 km/h (0 Bft) O-SO 107 ° 0 min 0,000 mm 0,5 UV-I 128 W/m² 9,4 °C 10,6 °C 0,0 km/h (0 Bft)
19.06.2017 06:41 10,6 °C 10,6 °C 92 % 1019,4 hPa 0,0 mm 0,0 km/h (0 Bft) O-SO 107 ° 0 min 0,000 mm 0,5 UV-I 132 W/m² 9,4 °C 10,6 °C 0,0 km/h (0 Bft)
19.06.2017 06:42 10,6 °C 10,6 °C 92 % 1019,3 hPa 0,0 mm 0,0 km/h (0 Bft) O-SO 107 ° 0 min 0,000 mm 0,5 UV-I 135 W/m² 9,4 °C 10,6 °C 0,0 km/h (0 Bft)
19.06.2017 06:43 10,6 °C 10,6 °C 92 % 1019,3 hPa 0,0 mm 0,0 km/h (0 Bft) O-SO 107 ° 0 min 0,000 mm 0,5 UV-I 137 W/m² 9,4 °C 10,6 °C 0,0 km/h (0 Bft)
19.06.2017 06:44 10,7 °C 10,7 °C 92 % 1019,4 hPa 0,0 mm 0,0 km/h (0 Bft) O-SO 107 ° 0 min 0,000 mm 0,5 UV-I 139 W/m² 9,5 °C 10,7 °C 0,0 km/h (0 Bft)
19.06.2017 06:45 10,8 °C 10,8 °C 92 % 1019,4 hPa 0,0 mm 0,0 km/h (0 Bft) O-SO 107 ° 0 min 0,000 mm 0,5 UV-I 141 W/m² 9,6 °C 10,8 °C 0,0 km/h (0 Bft)
19.06.2017 06:46 10,9 °C 10,9 °C 92 % 1019,4 hPa 0,0 mm 0,0 km/h (0 Bft) O-SO 107 ° 0 min 0,000 mm 0,5 UV-I 142 W/m² 9,7 °C 10,9 °C 0,0 km/h (0 Bft)
19.06.2017 06:47 11,1 °C 11,1 °C 92 % 1019,4 hPa 0,0 mm 0,0 km/h (0 Bft) O-SO 107 ° 0 min 0,000 mm 0,5 UV-I 148 W/m² 9,8 °C 11,1 °C 0,0 km/h (0 Bft)
19.06.2017 06:48 11,2 °C 11,2 °C 93 % 1019,3 hPa 0,0 mm 0,0 km/h (0 Bft) O-SO 107 ° 0 min 0,000 mm 0,6 UV-I 151 W/m² 10,1 °C 11,2 °C 0,0 km/h (0 Bft)
19.06.2017 06:49 11,3 °C 11,3 °C 92 % 1019,4 hPa 0,0 mm 0,0 km/h (0 Bft) O-SO 107 ° 0 min 0,000 mm 0,6 UV-I 153 W/m² 10,0 °C 11,3 °C 0,0 km/h (0 Bft)
19.06.2017 06:50 11,3 °C 11,3 °C 92 % 1019,4 hPa 0,0 mm 0,0 km/h (0 Bft) O-SO 107 ° 0 min 0,000 mm 0,6 UV-I 156 W/m² 10,0 °C 11,3 °C 0,0 km/h (0 Bft)
19.06.2017 06:51 11,4 °C 11,4 °C 92 % 1019,4 hPa 0,0 mm 0,0 km/h (0 Bft) O-SO 107 ° 0 min 0,000 mm 0,6 UV-I 156 W/m² 10,1 °C 11,4 °C 0,0 km/h (0 Bft)
19.06.2017 06:52 11,4 °C 11,4 °C 92 % 1019,4 hPa 0,0 mm 0,0 km/h (0 Bft) O-SO 107 ° 0 min 0,000 mm 0,6 UV-I 160 W/m² 10,1 °C 11,4 °C 0,0 km/h (0 Bft)
19.06.2017 06:53 11,4 °C 11,4 °C 92 % 1019,4 hPa 0,0 mm 0,0 km/h (0 Bft) O-SO 107 ° 0 min 0,000 mm 0,6 UV-I 165 W/m² 10,1 °C 11,4 °C 0,0 km/h (0 Bft)
19.06.2017 06:54 11,4 °C 11,4 °C 91 % 1019,4 hPa 0,0 mm 0,0 km/h (0 Bft) O-SO 107 ° 0 min 0,000 mm 0,6 UV-I 167 W/m² 10,0 °C 11,4 °C 0,0 km/h (0 Bft)
19.06.2017 06:55 11,5 °C 11,5 °C 91 % 1019,4 hPa 0,0 mm 0,0 km/h (0 Bft) O-SO 107 ° 0 min 0,000 mm 0,7 UV-I 169 W/m² 10,1 °C 11,5 °C 0,0 km/h (0 Bft)
19.06.2017 06:56 11,6 °C 11,6 °C 91 % 1019,4 hPa 0,0 mm 0,0 km/h (0 Bft) O-SO 107 ° 0 min 0,000 mm 0,7 UV-I 171 W/m² 10,2 °C 11,6 °C 0,0 km/h (0 Bft)
19.06.2017 06:57 11,7 °C 11,7 °C 91 % 1019,4 hPa 0,0 mm 0,0 km/h (0 Bft) O-SO 107 ° 0 min 0,000 mm 0,7 UV-I 174 W/m² 10,3 °C 11,7 °C 0,0 km/h (0 Bft)
19.06.2017 06:58 11,8 °C 11,8 °C 91 % 1019,4 hPa 0,0 mm 0,0 km/h (0 Bft) O-SO 107 ° 0 min 0,000 mm 0,7 UV-I 176 W/m² 10,4 °C 11,8 °C 0,0 km/h (0 Bft)
19.06.2017 06:59 12,0 °C 12,0 °C 91 % 1019,4 hPa 0,0 mm 0,0 km/h (0 Bft) O-SO 107 ° 0 min 0,000 mm 0,7 UV-I 179 W/m² 10,6 °C 12,0 °C 0,0 km/h (0 Bft)
19.06.2017 07:00 12,2 °C 12,2 °C 91 % 1019,4 hPa 0,0 mm 0,0 km/h (0 Bft) O-SO 107 ° 0 min 0,000 mm 0,7 UV-I 181 W/m² 10,8 °C 12,2 °C 0,0 km/h (0 Bft)
19.06.2017 07:01 12,3 °C 12,3 °C 90 % 1019,4 hPa 0,0 mm 0,0 km/h (0 Bft) O-SO 107 ° 0 min 0,051 mm 0,7 UV-I 181 W/m² 10,7 °C 12,3 °C 0,0 km/h (0 Bft)
19.06.2017 07:02 12,4 °C 12,4 °C 89 % 1019,4 hPa 0,0 mm 0,0 km/h (0 Bft) O-SO 107 ° 0 min 0,000 mm 0,8 UV-I 181 W/m² 10,6 °C 12,4 °C 0,0 km/h (0 Bft)
19.06.2017 07:03 12,5 °C 12,5 °C 89 % 1019,4 hPa 0,0 mm 0,0 km/h (0 Bft) O-SO 107 ° 0 min 0,000 mm 0,8 UV-I 181 W/m² 10,7 °C 12,5 °C 0,0 km/h (0 Bft)
19.06.2017 07:04 12,6 °C 12,6 °C 90 % 1019,4 hPa 0,0 mm 0,0 km/h (0 Bft) O-SO 107 ° 0 min 0,000 mm 0,8 UV-I 181 W/m² 11,0 °C 12,6 °C 0,0 km/h (0 Bft)
19.06.2017 07:05 12,8 °C 12,8 °C 90 % 1019,4 hPa 0,0 mm 0,0 km/h (0 Bft) O-SO 107 ° 0 min 0,000 mm 0,8 UV-I 181 W/m² 11,2 °C 12,8 °C 0,0 km/h (0 Bft)
19.06.2017 07:06 12,8 °C 12,8 °C 89 % 1019,4 hPa 0,0 mm 0,0 km/h (0 Bft) O-SO 107 ° 0 min 0,000 mm 0,8 UV-I 179 W/m² 11,0 °C 12,8 °C 0,0 km/h (0 Bft)
19.06.2017 07:07 12,9 °C 12,9 °C 89 % 1019,4 hPa 0,0 mm 0,0 km/h (0 Bft) O-SO 107 ° 0 min 0,000 mm 0,8 UV-I 179 W/m² 11,1 °C 12,9 °C 0,0 km/h (0 Bft)
19.06.2017 07:08 12,9 °C 12,9 °C 89 % 1019,5 hPa 0,0 mm 0,0 km/h (0 Bft) O-SO 107 ° 0 min 0,000 mm 0,9 UV-I 178 W/m² 11,1 °C 12,9 °C 0,0 km/h (0 Bft)
19.06.2017 07:09 12,9 °C 12,9 °C 88 % 1019,5 hPa 0,0 mm 0,0 km/h (0 Bft) O-SO 107 ° 0 min 0,000 mm 0,9 UV-I 178 W/m² 11,0 °C 12,9 °C 0,0 km/h (0 Bft)
19.06.2017 07:10 12,9 °C 12,9 °C 88 % 1019,4 hPa 0,0 mm 0,0 km/h (0 Bft) O-SO 107 ° 0 min 0,000 mm 0,9 UV-I 176 W/m² 11,0 °C 12,9 °C 0,0 km/h (0 Bft)
19.06.2017 07:11 12,9 °C 12,9 °C 88 % 1019,5 hPa 0,0 mm 0,0 km/h (0 Bft) O-SO 107 ° 0 min 0,000 mm 0,9 UV-I 174 W/m² 11,0 °C 12,9 °C 0,0 km/h (0 Bft)
19.06.2017 07:12 12,9 °C 12,9 °C 88 % 1019,5 hPa 0,0 mm 0,0 km/h (0 Bft) O-SO 107 ° 0 min 0,000 mm 0,9 UV-I 176 W/m² 11,0 °C 12,9 °C 0,0 km/h (0 Bft)
19.06.2017 07:13 12,9 °C 12,9 °C 87 % 1019,5 hPa 0,0 mm 0,0 km/h (0 Bft) O-SO 107 ° 0 min 0,000 mm 0,9 UV-I 176 W/m² 10,8 °C 12,9 °C 0,0 km/h (0 Bft)
19.06.2017 07:14 13,1 °C 13,1 °C 88 % 1019,4 hPa 0,0 mm 0,0 km/h (0 Bft) O-SO 107 ° 0 min 0,000 mm 1,0 UV-I 176 W/m² 11,2 °C 13,1 °C 0,0 km/h (0 Bft)
19.06.2017 07:15 13,1 °C 13,1 °C 87 % 1019,5 hPa 0,0 mm 0,0 km/h (0 Bft) O-SO 107 ° 0 min 0,000 mm 1,0 UV-I 178 W/m² 11,0 °C 13,1 °C 0,0 km/h (0 Bft)
19.06.2017 07:16 13,2 °C 13,2 °C 87 % 1019,5 hPa 0,0 mm 0,0 km/h (0 Bft) O-SO 107 ° 0 min 0,000 mm 1,0 UV-I 183 W/m² 11,1 °C 13,2 °C 0,0 km/h (0 Bft)
19.06.2017 07:17 13,3 °C 13,3 °C 87 % 1019,5 hPa 0,0 mm 0,0 km/h (0 Bft) O-SO 107 ° 0 min 0,000 mm 1,0 UV-I 186 W/m² 11,2 °C 13,3 °C 0,0 km/h (0 Bft)
19.06.2017 07:18 13,3 °C 13,3 °C 87 % 1019,5 hPa 0,0 mm 0,0 km/h (0 Bft) O-SO 107 ° 0 min 0,000 mm 1,0 UV-I 190 W/m² 11,2 °C 13,3 °C 0,0 km/h (0 Bft)
19.06.2017 07:19 13,3 °C 13,3 °C 87 % 1019,4 hPa 0,0 mm 0,0 km/h (0 Bft) O-SO 107 ° 0 min 0,000 mm 1,0 UV-I 190 W/m² 11,2 °C 13,3 °C 0,0 km/h (0 Bft)
19.06.2017 07:20 13,2 °C 13,3 °C 87 % 1019,5 hPa 0,0 mm 0,0 km/h (0 Bft) O-SO 107 ° 0 min 0,000 mm 1,0 UV-I 199 W/m² 11,1 °C 13,2 °C 0,0 km/h (0 Bft)
19.06.2017 07:21 13,2 °C 13,2 °C 87 % 1019,5 hPa 0,0 mm 0,0 km/h (0 Bft) O-SO 107 ° 0 min 0,000 mm 1,1 UV-I 202 W/m² 11,1 °C 13,2 °C 0,0 km/h (0 Bft)
19.06.2017 07:22 13,3 °C 13,3 °C 87 % 1019,4 hPa 0,0 mm 0,0 km/h (0 Bft) O-SO 107 ° 0 min 0,000 mm 1,1 UV-I 213 W/m² 11,2 °C 13,3 °C 0,0 km/h (0 Bft)
19.06.2017 07:23 13,5 °C 13,5 °C 87 % 1019,5 hPa 0,0 mm 0,0 km/h (0 Bft) O-SO 107 ° 0 min 0,000 mm 1,1 UV-I 218 W/m² 11,4 °C 13,5 °C 0,0 km/h (0 Bft)
19.06.2017 07:24 13,6 °C 13,6 °C 86 % 1019,5 hPa 0,0 mm 0,0 km/h (0 Bft) O-SO 107 ° 0 min 0,000 mm 1,1 UV-I 221 W/m² 11,3 °C 13,6 °C 0,0 km/h (0 Bft)
19.06.2017 07:25 13,7 °C 13,7 °C 86 % 1019,5 hPa 0,0 mm 0,0 km/h (0 Bft) O-SO 107 ° 0 min 0,000 mm 1,1 UV-I 229 W/m² 11,4 °C 13,7 °C 0,0 km/h (0 Bft)
19.06.2017 07:26 13,8 °C 13,8 °C 86 % 1019,4 hPa 0,0 mm 0,0 km/h (0 Bft) O-SO 107 ° 0 min 0,000 mm 1,1 UV-I 234 W/m² 11,5 °C 13,8 °C 0,0 km/h (0 Bft)
19.06.2017 07:27 14,0 °C 14,0 °C 85 % 1019,4 hPa 0,0 mm 0,0 km/h (0 Bft) O-SO 107 ° 0 min 0,000 mm 1,2 UV-I 237 W/m² 11,5 °C 14,0 °C 0,0 km/h (0 Bft)
19.06.2017 07:28 14,1 °C 14,1 °C 85 % 1019,5 hPa 0,0 mm 0,0 km/h (0 Bft) O-SO 107 ° 0 min 0,000 mm 1,2 UV-I 248 W/m² 11,6 °C 14,1 °C 0,0 km/h (0 Bft)
19.06.2017 07:29 14,2 °C 14,2 °C 85 % 1019,5 hPa 0,0 mm 0,0 km/h (0 Bft) O-SO 107 ° 0 min 0,000 mm 1,2 UV-I 251 W/m² 11,7 °C 14,2 °C 0,0 km/h (0 Bft)
19.06.2017 07:30 14,2 °C 14,2 °C 87 % 1019,5 hPa 0,0 mm 0,0 km/h (0 Bft) O-SO 107 ° 0 min 0,000 mm 1,2 UV-I 255 W/m² 12,1 °C 14,2 °C 0,0 km/h (0 Bft)
19.06.2017 07:31 14,1 °C 14,2 °C 87 % 1019,5 hPa 0,0 mm 0,0 km/h (0 Bft) O-SO 107 ° 0 min 0,000 mm 1,2 UV-I 258 W/m² 12,0 °C 14,1 °C 0,0 km/h (0 Bft)
19.06.2017 07:32 14,1 °C 14,2 °C 87 % 1019,5 hPa 0,0 mm 0,0 km/h (0 Bft) O-SO 107 ° 0 min 0,000 mm 1,3 UV-I 258 W/m² 12,0 °C 14,1 °C 0,0 km/h (0 Bft)
19.06.2017 07:33 14,1 °C 14,1 °C 87 % 1019,5 hPa 0,0 mm 0,0 km/h (0 Bft) O-SO 107 ° 0 min 0,000 mm 1,3 UV-I 264 W/m² 12,0 °C 14,1 °C 0,0 km/h (0 Bft)
19.06.2017 07:34 14,1 °C 14,1 °C 87 % 1019,5 hPa 0,0 mm 0,0 km/h (0 Bft) O-SO 107 ° 0 min 0,000 mm 1,3 UV-I 265 W/m² 12,0 °C 14,1 °C 0,0 km/h (0 Bft)
19.06.2017 07:35 14,1 °C 14,1 °C 87 % 1019,5 hPa 0,0 mm 0,0 km/h (0 Bft) O-SO 107 ° 0 min 0,000 mm 1,3 UV-I 267 W/m² 12,0 °C 14,1 °C 0,0 km/h (0 Bft)
19.06.2017 07:36 14,1 °C 14,1 °C 86 % 1019,5 hPa 0,0 mm 0,0 km/h (0 Bft) O-SO 107 ° 0 min 0,000 mm 1,3 UV-I 269 W/m² 11,8 °C 14,1 °C 0,0 km/h (0 Bft)
19.06.2017 07:37 14,2 °C 14,2 °C 85 % 1019,5 hPa 0,0 mm 0,3 km/h (0 Bft) O-SO 107 ° 0 min 0,000 mm 1,3 UV-I 269 W/m² 11,7 °C 14,2 °C 1,6 km/h (1 Bft)
19.06.2017 07:38 14,3 °C 14,3 °C 84 % 1019,5 hPa 0,0 mm 0,1 km/h (0 Bft) O-SO 107 ° 0 min 0,000 mm 1,3 UV-I 271 W/m² 11,6 °C 14,3 °C 1,6 km/h (1 Bft)
19.06.2017 07:39 14,4 °C 14,4 °C 85 % 1019,5 hPa 0,0 mm 0,0 km/h (0 Bft) O-SO 107 ° 0 min 0,000 mm 1,4 UV-I 272 W/m² 11,9 °C 14,4 °C 0,0 km/h (0 Bft)
19.06.2017 07:40 14,5 °C 14,5 °C 85 % 1019,5 hPa 0,0 mm 0,0 km/h (0 Bft) O-SO 107 ° 0 min 0,000 mm 1,4 UV-I 265 W/m² 12,0 °C 14,5 °C 0,0 km/h (0 Bft)
19.06.2017 07:41 14,6 °C 14,6 °C 86 % 1019,5 hPa 0,0 mm 0,0 km/h (0 Bft) O-SO 107 ° 0 min 0,000 mm 1,4 UV-I 274 W/m² 12,3 °C 14,6 °C 0,0 km/h (0 Bft)
19.06.2017 07:42 14,8 °C 14,8 °C 84 % 1019,5 hPa 0,0 mm 0,0 km/h (0 Bft) O-SO 107 ° 0 min 0,000 mm 1,4 UV-I 274 W/m² 12,1 °C 14,8 °C 0,0 km/h (0 Bft)
19.06.2017 07:43 14,8 °C 14,8 °C 85 % 1019,5 hPa 0,0 mm 0,0 km/h (0 Bft) O-SO 107 ° 0 min 0,000 mm 1,4 UV-I 234 W/m² 12,3 °C 14,8 °C 0,0 km/h (0 Bft)
19.06.2017 07:44 14,9 °C 14,9 °C 85 % 1019,5 hPa 0,0 mm 0,0 km/h (0 Bft) O-SO 107 ° 0 min 0,000 mm 1,3 UV-I 204 W/m² 12,4 °C 14,9 °C 0,0 km/h (0 Bft)
19.06.2017 07:45 14,8 °C 14,9 °C 85 % 1019,5 hPa 0,0 mm 0,0 km/h (0 Bft) O-SO 107 ° 0 min 0,000 mm 1,3 UV-I 239 W/m² 12,3 °C 14,8 °C 0,0 km/h (0 Bft)
19.06.2017 07:46 14,6 °C 14,8 °C 85 % 1019,5 hPa 0,0 mm 0,0 km/h (0 Bft) O-SO 107 ° 0 min 0,000 mm 1,5 UV-I 271 W/m² 12,1 °C 14,6 °C 0,0 km/h (0 Bft)
19.06.2017 07:47 14,6 °C 14,6 °C 85 % 1019,6 hPa 0,0 mm 0,0 km/h (0 Bft) O-SO 107 ° 0 min 0,000 mm 1,5 UV-I 272 W/m² 12,1 °C 14,6 °C 0,0 km/h (0 Bft)
19.06.2017 07:48 14,6 °C 14,6 °C 85 % 1019,5 hPa 0,0 mm 0,0 km/h (0 Bft) O-SO 107 ° 0 min 0,000 mm 1,6 UV-I 274 W/m² 12,1 °C 14,6 °C 0,0 km/h (0 Bft)
19.06.2017 07:49 14,6 °C 14,6 °C 84 % 1019,5 hPa 0,0 mm 0,0 km/h (0 Bft) O-SO 107 ° 0 min 0,000 mm 1,6 UV-I 276 W/m² 11,9 °C 14,6 °C 0,0 km/h (0 Bft)
19.06.2017 07:50 14,7 °C 14,7 °C 84 % 1019,5 hPa 0,0 mm 0,0 km/h (0 Bft) O-SO 107 ° 0 min 0,000 mm 1,6 UV-I 276 W/m² 12,0 °C 14,7 °C 0,0 km/h (0 Bft)
19.06.2017 07:51 14,8 °C 14,8 °C 84 % 1019,6 hPa 0,0 mm 0,0 km/h (0 Bft) O-SO 107 ° 0 min 0,000 mm 1,6 UV-I 278 W/m² 12,1 °C 14,8 °C 0,0 km/h (0 Bft)
19.06.2017 07:52 14,9 °C 14,9 °C 85 % 1019,6 hPa 0,0 mm 0,0 km/h (0 Bft) O-SO 107 ° 0 min 0,000 mm 1,6 UV-I 278 W/m² 12,4 °C 14,9 °C 0,0 km/h (0 Bft)
19.06.2017 07:53 15,1 °C 15,1 °C 84 % 1019,6 hPa 0,0 mm 0,1 km/h (0 Bft) O-SO 107 ° 0 min 0,000 mm 1,7 UV-I 276 W/m² 12,4 °C 15,1 °C 1,6 km/h (1 Bft)
19.06.2017 07:54 15,2 °C 15,2 °C 83 % 1019,6 hPa 0,0 mm 0,4 km/h (0 Bft) O-SO 107 ° 0 min 0,000 mm 1,7 UV-I 271 W/m² 12,3 °C 15,2 °C 1,6 km/h (1 Bft)
19.06.2017 07:55 15,2 °C 15,2 °C 83 % 1019,6 hPa 0,0 mm 0,0 km/h (0 Bft) O-SO 107 ° 0 min 0,000 mm 1,7 UV-I 271 W/m² 12,3 °C 15,2 °C 0,0 km/h (0 Bft)
19.06.2017 07:56 15,1 °C 15,2 °C 83 % 1019,6 hPa 0,0 mm 0,0 km/h (0 Bft) O-SO 107 ° 0 min 0,000 mm 1,5 UV-I 199 W/m² 12,2 °C 15,1 °C 0,0 km/h (0 Bft)
19.06.2017 07:57 15,1 °C 15,1 °C 82 % 1019,6 hPa 0,0 mm 0,0 km/h (0 Bft) O-SO 107 ° 0 min 0,000 mm 1,5 UV-I 165 W/m² 12,0 °C 15,1 °C 0,0 km/h (0 Bft)
19.06.2017 07:58 15,1 °C 15,1 °C 82 % 1019,6 hPa 0,0 mm 0,0 km/h (0 Bft) O-SO 107 ° 0 min 0,000 mm 1,5 UV-I 179 W/m² 12,0 °C 15,1 °C 0,0 km/h (0 Bft)
19.06.2017 07:59 15,1 °C 15,1 °C 84 % 1019,6 hPa 0,0 mm 0,0 km/h (0 Bft) O-SO 107 ° 0 min 0,000 mm 1,7 UV-I 197 W/m² 12,4 °C 15,1 °C 0,0 km/h (0 Bft)
19.06.2017 08:00 15,1 °C 15,1 °C 84 % 1019,6 hPa 0,0 mm 0,0 km/h (0 Bft) O-SO 107 ° 0 min 0,101 mm 1,7 UV-I 211 W/m² 12,4 °C 15,1 °C 0,0 km/h (0 Bft)
19.06.2017 08:01 15,1 °C 15,1 °C 85 % 1019,6 hPa 0,0 mm 0,0 km/h (0 Bft) O-SO 107 ° 0 min 0,000 mm 1,8 UV-I 227 W/m² 12,6 °C 15,1 °C 0,0 km/h (0 Bft)
19.06.2017 08:02 15,2 °C 15,2 °C 85 % 1019,6 hPa 0,0 mm 0,8 km/h (0 Bft) O-SO 107 ° 0 min 0,000 mm 1,8 UV-I 230 W/m² 12,7 °C 15,2 °C 1,6 km/h (1 Bft)
19.06.2017 08:03 15,2 °C 15,2 °C 84 % 1019,6 hPa 0,0 mm 1,0 km/h (0 Bft) O-SO 107 ° 0 min 0,000 mm 1,8 UV-I 227 W/m² 12,5 °C 15,2 °C 1,6 km/h (1 Bft)
19.06.2017 08:04 15,3 °C 15,3 °C 83 % 1019,6 hPa 0,0 mm 0,1 km/h (0 Bft) O-SO 107 ° 0 min 0,000 mm 1,9 UV-I 227 W/m² 12,4 °C 15,3 °C 1,6 km/h (1 Bft)
19.06.2017 08:05 15,4 °C 15,4 °C 83 % 1019,6 hPa 0,0 mm 0,0 km/h (0 Bft) O-SO 107 ° 0 min 0,000 mm 1,9 UV-I 227 W/m² 12,5 °C 15,4 °C 0,0 km/h (0 Bft)
19.06.2017 08:06 15,6 °C 15,6 °C 83 % 1019,6 hPa 0,0 mm 0,0 km/h (0 Bft) O-SO 107 ° 0 min 0,000 mm 1,9 UV-I 230 W/m² 12,7 °C 15,6 °C 0,0 km/h (0 Bft)
19.06.2017 08:07 15,6 °C 15,6 °C 83 % 1019,6 hPa 0,0 mm 0,0 km/h (0 Bft) O-SO 107 ° 0 min 0,000 mm 1,9 UV-I 234 W/m² 12,7 °C 15,6 °C 0,0 km/h (0 Bft)
19.06.2017 08:08 15,6 °C 15,6 °C 83 % 1019,6 hPa 0,0 mm 0,0 km/h (0 Bft) O-SO 107 ° 0 min 0,000 mm 2,0 UV-I 239 W/m² 12,7 °C 15,6 °C 0,0 km/h (0 Bft)
19.06.2017 08:09 15,6 °C 15,6 °C 81 % 1019,6 hPa 0,0 mm 0,0 km/h (0 Bft) O-SO 107 ° 0 min 0,000 mm 2,0 UV-I 250 W/m² 12,3 °C 15,6 °C 0,0 km/h (0 Bft)
19.06.2017 08:10 15,7 °C 15,7 °C 82 % 1019,6 hPa 0,0 mm 0,5 km/h (0 Bft) O-SO 107 ° 0 min 0,000 mm 2,0 UV-I 257 W/m² 12,6 °C 15,7 °C 1,6 km/h (1 Bft)
19.06.2017 08:11 15,8 °C 15,8 °C 84 % 1019,6 hPa 0,0 mm 0,0 km/h (0 Bft) O-SO 107 ° 0 min 0,000 mm 2,0 UV-I 262 W/m² 13,1 °C 15,8 °C 0,0 km/h (0 Bft)
19.06.2017 08:12 15,9 °C 15,9 °C 83 % 1019,6 hPa 0,0 mm 0,0 km/h (0 Bft) O-SO 107 ° 0 min 0,000 mm 2,1 UV-I 271 W/m² 13,0 °C 15,9 °C 0,0 km/h (0 Bft)
19.06.2017 08:13 15,9 °C 15,9 °C 81 % 1019,6 hPa 0,0 mm 0,0 km/h (0 Bft) O-SO 107 ° 0 min 0,000 mm 2,1 UV-I 271 W/m² 12,6 °C 15,9 °C 0,0 km/h (0 Bft)
19.06.2017 08:14 15,9 °C 16,0 °C 82 % 1019,6 hPa 0,0 mm 0,0 km/h (0 Bft) O-SO 107 ° 0 min 0,000 mm 2,1 UV-I 285 W/m² 12,8 °C 15,9 °C 0,0 km/h (0 Bft)
19.06.2017 08:15 16,0 °C 16,0 °C 81 % 1019,6 hPa 0,0 mm 0,0 km/h (0 Bft) O-SO 107 ° 1 min 0,000 mm 2,1 UV-I 299 W/m² 12,7 °C 16,0 °C 0,0 km/h (0 Bft)
19.06.2017 08:16 16,0 °C 16,0 °C 82 % 1019,6 hPa 0,0 mm 0,0 km/h (0 Bft) O-SO 107 ° 1 min 0,000 mm 2,1 UV-I 308 W/m² 12,9 °C 16,0 °C 0,0 km/h (0 Bft)
19.06.2017 08:17 16,1 °C 16,1 °C 83 % 1019,6 hPa 0,0 mm 0,0 km/h (0 Bft) O-SO 107 ° 1 min 0,000 mm 2,2 UV-I 313 W/m² 13,2 °C 16,1 °C 0,0 km/h (0 Bft)
19.06.2017 08:18 16,1 °C 16,1 °C 81 % 1019,6 hPa 0,0 mm 0,0 km/h (0 Bft) O-SO 107 ° 1 min 0,000 mm 2,2 UV-I 322 W/m² 12,8 °C 16,1 °C 0,0 km/h (0 Bft)
19.06.2017 08:19 16,2 °C 16,2 °C 81 % 1019,6 hPa 0,0 mm 0,0 km/h (0 Bft) O-SO 107 ° 1 min 0,000 mm 2,2 UV-I 323 W/m² 12,9 °C 16,2 °C 0,0 km/h (0 Bft)
19.06.2017 08:20 16,2 °C 16,2 °C 81 % 1019,6 hPa 0,0 mm 0,0 km/h (0 Bft) O-SO 107 ° 1 min 0,000 mm 2,2 UV-I 327 W/m² 12,9 °C 16,2 °C 0,0 km/h (0 Bft)
19.06.2017 08:21 16,2 °C 16,2 °C 80 % 1019,6 hPa 0,0 mm 0,0 km/h (0 Bft) O-SO 107 ° 1 min 0,000 mm 2,2 UV-I 346 W/m² 12,7 °C 16,2 °C 0,0 km/h (0 Bft)
19.06.2017 08:22 16,3 °C 16,3 °C 81 % 1019,7 hPa 0,0 mm 0,0 km/h (0 Bft) O-SO 107 ° 1 min 0,000 mm 2,3 UV-I 353 W/m² 13,0 °C 16,3 °C 0,0 km/h (0 Bft)
19.06.2017 08:23 16,5 °C 16,5 °C 81 % 1019,7 hPa 0,0 mm 0,0 km/h (0 Bft) O-SO 107 ° 1 min 0,000 mm 2,3 UV-I 359 W/m² 13,2 °C 16,5 °C 0,0 km/h (0 Bft)
19.06.2017 08:24 16,6 °C 16,6 °C 80 % 1019,7 hPa 0,0 mm 0,0 km/h (0 Bft) O-SO 107 ° 1 min 0,000 mm 2,3 UV-I 364 W/m² 13,1 °C 16,6 °C 0,0 km/h (0 Bft)
19.06.2017 08:25 16,7 °C 16,7 °C 82 % 1019,7 hPa 0,0 mm 0,0 km/h (0 Bft) O-SO 107 ° 1 min 0,000 mm 2,3 UV-I 369 W/m² 13,6 °C 16,7 °C 0,0 km/h (0 Bft)
19.06.2017 08:26 16,8 °C 16,8 °C 82 % 1019,7 hPa 0,0 mm 0,0 km/h (0 Bft) O-SO 107 ° 1 min 0,000 mm 2,4 UV-I 380 W/m² 13,7 °C 16,8 °C 0,0 km/h (0 Bft)
19.06.2017 08:27 16,7 °C 16,8 °C 79 % 1019,7 hPa 0,0 mm 0,5 km/h (0 Bft) O-SO 107 ° 1 min 0,000 mm 2,4 UV-I 385 W/m² 13,0 °C 16,7 °C 1,6 km/h (1 Bft)
19.06.2017 08:28 16,7 °C 16,7 °C 78 % 1019,7 hPa 0,0 mm 0,6 km/h (0 Bft) O-SO 107 ° 1 min 0,000 mm 2,4 UV-I 388 W/m² 12,8 °C 16,7 °C 1,6 km/h (1 Bft)
19.06.2017 08:29 16,8 °C 16,8 °C 79 % 1019,7 hPa 0,0 mm 0,8 km/h (0 Bft) O-SO 107 ° 1 min 0,000 mm 2,4 UV-I 394 W/m² 13,1 °C 16,8 °C 3,2 km/h (1 Bft)
19.06.2017 08:30 16,8 °C 16,8 °C 79 % 1019,7 hPa 0,0 mm 0,7 km/h (0 Bft) O-SO 107 ° 1 min 0,000 mm 2,4 UV-I 399 W/m² 13,1 °C 16,8 °C 1,6 km/h (1 Bft)
19.06.2017 08:31 16,8 °C 16,8 °C 79 % 1019,7 hPa 0,0 mm 0,0 km/h (0 Bft) O-SO 107 ° 1 min 0,000 mm 2,5 UV-I 399 W/m² 13,1 °C 16,8 °C 0,0 km/h (0 Bft)
19.06.2017 08:32 16,8 °C 16,8 °C 79 % 1019,7 hPa 0,0 mm 0,0 km/h (0 Bft) O-SO 107 ° 1 min 0,000 mm 2,5 UV-I 410 W/m² 13,1 °C 16,8 °C 0,0 km/h (0 Bft)
19.06.2017 08:33 16,9 °C 16,9 °C 79 % 1019,7 hPa 0,0 mm 0,0 km/h (0 Bft) O-SO 107 ° 1 min 0,000 mm 2,5 UV-I 417 W/m² 13,2 °C 16,9 °C 0,0 km/h (0 Bft)
19.06.2017 08:34 17,2 °C 17,2 °C 81 % 1019,7 hPa 0,0 mm 0,0 km/h (0 Bft) O-SO 107 ° 1 min 0,000 mm 2,5 UV-I 422 W/m² 13,9 °C 17,2 °C 0,0 km/h (0 Bft)
19.06.2017 08:35 17,3 °C 17,3 °C 79 % 1019,7 hPa 0,0 mm 0,0 km/h (0 Bft) O-SO 107 ° 1 min 0,000 mm 2,6 UV-I 427 W/m² 13,6 °C 17,3 °C 0,0 km/h (0 Bft)
19.06.2017 08:36 17,4 °C 17,4 °C 77 % 1019,7 hPa 0,0 mm 0,0 km/h (0 Bft) O-SO 107 ° 1 min 0,000 mm 2,6 UV-I 432 W/m² 13,3 °C 17,4 °C 0,0 km/h (0 Bft)
19.06.2017 08:37 17,3 °C 17,4 °C 80 % 1019,7 hPa 0,0 mm 0,0 km/h (0 Bft) O-SO 107 ° 1 min 0,000 mm 2,6 UV-I 436 W/m² 13,8 °C 17,3 °C 0,0 km/h (0 Bft)
19.06.2017 08:38 17,4 °C 17,4 °C 80 % 1019,6 hPa 0,0 mm 1,0 km/h (0 Bft) O-SO 107 ° 1 min 0,000 mm 2,6 UV-I 441 W/m² 13,9 °C 17,4 °C 3,2 km/h (1 Bft)
19.06.2017 08:39 17,6 °C 17,6 °C 78 % 1019,7 hPa 0,0 mm 1,0 km/h (0 Bft) O-SO 107 ° 1 min 0,000 mm 2,6 UV-I 445 W/m² 13,7 °C 17,6 °C 3,2 km/h (1 Bft)
19.06.2017 08:40 17,7 °C 17,7 °C 80 % 1019,7 hPa 0,0 mm 1,1 km/h (1 Bft) O-SO 107 ° 1 min 0,000 mm 2,7 UV-I 448 W/m² 14,2 °C 17,7 °C 1,6 km/h (1 Bft)
19.06.2017 08:41 17,8 °C 17,8 °C 77 % 1019,6 hPa 0,0 mm 0,3 km/h (0 Bft) O-SO 107 ° 1 min 0,000 mm 2,7 UV-I 452 W/m² 13,7 °C 17,8 °C 1,6 km/h (1 Bft)
19.06.2017 08:42 17,9 °C 17,9 °C 75 % 1019,6 hPa 0,0 mm 0,0 km/h (0 Bft) O-SO 107 ° 1 min 0,000 mm 2,7 UV-I 455 W/m² 13,4 °C 17,9 °C 0,0 km/h (0 Bft)
19.06.2017 08:43 17,8 °C 17,9 °C 75 % 1019,7 hPa 0,0 mm 0,0 km/h (0 Bft) O-SO 107 ° 1 min 0,000 mm 2,8 UV-I 457 W/m² 13,3 °C 17,8 °C 0,0 km/h (0 Bft)
19.06.2017 08:44 17,8 °C 17,8 °C 78 % 1019,7 hPa 0,0 mm 0,0 km/h (0 Bft) O-SO 107 ° 1 min 0,000 mm 2,8 UV-I 464 W/m² 13,9 °C 17,8 °C 0,0 km/h (0 Bft)
19.06.2017 08:45 17,9 °C 17,9 °C 78 % 1019,7 hPa 0,0 mm 0,0 km/h (0 Bft) O-SO 107 ° 1 min 0,000 mm 2,8 UV-I 466 W/m² 14,0 °C 17,9 °C 0,0 km/h (0 Bft)
19.06.2017 08:46 18,1 °C 18,1 °C 78 % 1019,6 hPa 0,0 mm 0,0 km/h (0 Bft) O-SO 107 ° 1 min 0,000 mm 2,9 UV-I 468 W/m² 14,2 °C 18,1 °C 0,0 km/h (0 Bft)
19.06.2017 08:47 18,1 °C 18,1 °C 76 % 1019,6 hPa 0,0 mm 0,0 km/h (0 Bft) O-SO 107 ° 1 min 0,000 mm 2,9 UV-I 468 W/m² 13,8 °C 18,1 °C 0,0 km/h (0 Bft)
19.06.2017 08:48 18,1 °C 18,1 °C 77 % 1019,6 hPa 0,0 mm 0,6 km/h (0 Bft) O-SO 107 ° 1 min 0,000 mm 2,9 UV-I 475 W/m² 14,0 °C 18,1 °C 1,6 km/h (1 Bft)
19.06.2017 08:49 17,9 °C 18,1 °C 76 % 1019,6 hPa 0,0 mm 0,7 km/h (0 Bft) O-SO 107 ° 1 min 0,000 mm 2,9 UV-I 475 W/m² 13,6 °C 17,9 °C 1,6 km/h (1 Bft)
19.06.2017 08:50 17,8 °C 17,9 °C 76 % 1019,6 hPa 0,0 mm 1,3 km/h (1 Bft) O-SO 107 ° 1 min 0,000 mm 3,0 UV-I 483 W/m² 13,5 °C 17,8 °C 3,2 km/h (1 Bft)
19.06.2017 08:51 17,8 °C 17,8 °C 77 % 1019,6 hPa 0,0 mm 0,8 km/h (0 Bft) O-SO 107 ° 1 min 0,000 mm 3,0 UV-I 485 W/m² 13,7 °C 17,8 °C 1,6 km/h (1 Bft)
19.06.2017 08:52 17,9 °C 17,9 °C 76 % 1019,6 hPa 0,0 mm 0,1 km/h (0 Bft) O-SO 107 ° 1 min 0,000 mm 3,0 UV-I 487 W/m² 13,6 °C 17,9 °C 1,6 km/h (1 Bft)
19.06.2017 08:53 18,1 °C 18,1 °C 74 % 1019,6 hPa 0,0 mm 0,4 km/h (0 Bft) O-SO 107 ° 1 min 0,000 mm 3,0 UV-I 490 W/m² 13,4 °C 18,1 °C 1,6 km/h (1 Bft)
19.06.2017 08:54 18,2 °C 18,2 °C 73 % 1019,6 hPa 0,0 mm 0,4 km/h (0 Bft) O-SO 107 ° 1 min 0,000 mm 3,1 UV-I 492 W/m² 13,3 °C 18,2 °C 1,6 km/h (1 Bft)
19.06.2017 08:55 18,3 °C 18,3 °C 76 % 1019,6 hPa 0,0 mm 0,0 km/h (0 Bft) O-SO 107 ° 1 min 0,000 mm 3,1 UV-I 494 W/m² 14,0 °C 18,3 °C 0,0 km/h (0 Bft)
19.06.2017 08:56 18,3 °C 18,3 °C 74 % 1019,7 hPa 0,0 mm 0,0 km/h (0 Bft) O-SO 107 ° 1 min 0,000 mm 3,1 UV-I 499 W/m² 13,6 °C 18,3 °C 0,0 km/h (0 Bft)
19.06.2017 08:57 18,2 °C 18,3 °C 74 % 1019,6 hPa 0,0 mm 0,0 km/h (0 Bft) O-SO 107 ° 1 min 0,000 mm 3,1 UV-I 503 W/m² 13,5 °C 18,2 °C 0,0 km/h (0 Bft)
19.06.2017 08:58 18,3 °C 18,3 °C 74 % 1019,6 hPa 0,0 mm 0,8 km/h (0 Bft) O-SO 107 ° 1 min 0,000 mm 3,1 UV-I 504 W/m² 13,6 °C 18,3 °C 1,6 km/h (1 Bft)
19.06.2017 08:59 18,3 °C 18,3 °C 73 % 1019,6 hPa 0,0 mm 0,0 km/h (0 Bft) O-SO 107 ° 1 min 0,000 mm 3,2 UV-I 506 W/m² 13,4 °C 18,3 °C 0,0 km/h (0 Bft)
19.06.2017 09:00 18,3 °C 18,3 °C 77 % 1019,6 hPa 0,0 mm 0,0 km/h (0 Bft) O-SO 107 ° 1 min 0,204 mm 3,2 UV-I 508 W/m² 14,2 °C 18,3 °C 0,0 km/h (0 Bft)
19.06.2017 09:01 18,3 °C 18,3 °C 74 % 1019,6 hPa 0,0 mm 0,0 km/h (0 Bft) O-SO 107 ° 1 min 0,000 mm 3,2 UV-I 510 W/m² 13,6 °C 18,3 °C 0,0 km/h (0 Bft)
19.06.2017 09:02 18,4 °C 18,4 °C 75 % 1019,6 hPa 0,0 mm 0,0 km/h (0 Bft) O-SO 107 ° 1 min 0,000 mm 3,2 UV-I 515 W/m² 13,9 °C 18,4 °C 0,0 km/h (0 Bft)
19.06.2017 09:03 18,6 °C 18,6 °C 74 % 1019,6 hPa 0,0 mm 0,0 km/h (0 Bft) O-SO 107 ° 1 min 0,000 mm 3,3 UV-I 517 W/m² 13,9 °C 18,6 °C 0,0 km/h (0 Bft)
19.06.2017 09:04 18,7 °C 18,7 °C 76 % 1019,6 hPa 0,0 mm 1,3 km/h (1 Bft) O-SO 106 ° 1 min 0,000 mm 3,3 UV-I 520 W/m² 14,4 °C 18,7 °C 3,2 km/h (1 Bft)
19.06.2017 09:05 18,7 °C 18,7 °C 74 % 1019,6 hPa 0,0 mm 0,4 km/h (0 Bft) O-SO 106 ° 1 min 0,000 mm 3,3 UV-I 522 W/m² 14,0 °C 18,7 °C 1,6 km/h (1 Bft)
19.06.2017 09:06 18,6 °C 18,7 °C 74 % 1019,6 hPa 0,0 mm 1,1 km/h (1 Bft) NO 48 ° 1 min 0,000 mm 3,3 UV-I 524 W/m² 13,9 °C 18,6 °C 3,2 km/h (1 Bft)
19.06.2017 09:07 18,6 °C 18,6 °C 74 % 1019,6 hPa 0,0 mm 3,8 km/h (1 Bft) N-NO 12 ° 1 min 0,000 mm 3,4 UV-I 524 W/m² 13,9 °C 18,6 °C 6,4 km/h (2 Bft)
19.06.2017 09:08 18,8 °C 18,8 °C 74 % 1019,6 hPa 0,0 mm 2,1 km/h (1 Bft) N-NO 12 ° 1 min 0,000 mm 3,4 UV-I 531 W/m² 14,1 °C 18,8 °C 4,8 km/h (1 Bft)
19.06.2017 09:09 18,9 °C 18,9 °C 75 % 1019,6 hPa 0,0 mm 0,3 km/h (0 Bft) N-NO 12 ° 1 min 0,000 mm 3,4 UV-I 533 W/m² 14,4 °C 18,9 °C 1,6 km/h (1 Bft)
19.06.2017 09:10 19,1 °C 19,1 °C 78 % 1019,6 hPa 0,0 mm 0,1 km/h (0 Bft) N-NO 13 ° 1 min 0,000 mm 3,4 UV-I 534 W/m² 15,2 °C 19,1 °C 1,6 km/h (1 Bft)
19.06.2017 09:11 19,1 °C 19,2 °C 73 % 1019,6 hPa 0,0 mm 2,1 km/h (1 Bft) O 86 ° 1 min 0,000 mm 3,4 UV-I 538 W/m² 14,1 °C 19,1 °C 4,8 km/h (1 Bft)
19.06.2017 09:12 19,1 °C 19,1 °C 73 % 1019,6 hPa 0,0 mm 2,1 km/h (1 Bft) O 86 ° 1 min 0,000 mm 3,5 UV-I 540 W/m² 14,1 °C 19,1 °C 3,2 km/h (1 Bft)
19.06.2017 09:13 19,1 °C 19,1 °C 74 % 1019,6 hPa 0,0 mm 0,7 km/h (0 Bft) O 86 ° 1 min 0,000 mm 3,5 UV-I 543 W/m² 14,4 °C 19,1 °C 1,6 km/h (1 Bft)
19.06.2017 09:14 19,1 °C 19,1 °C 75 % 1019,6 hPa 0,0 mm 1,8 km/h (1 Bft) O-NO 78 ° 1 min 0,000 mm 3,5 UV-I 545 W/m² 14,6 °C 19,1 °C 3,2 km/h (1 Bft)
19.06.2017 09:15 19,1 °C 19,1 °C 75 % 1019,6 hPa 0,0 mm 2,5 km/h (1 Bft) O-NO 70 ° 1 min 0,000 mm 3,5 UV-I 548 W/m² 14,6 °C 19,1 °C 3,2 km/h (1 Bft)
19.06.2017 09:16 19,2 °C 19,2 °C 75 % 1019,6 hPa 0,0 mm 1,4 km/h (1 Bft) O-NO 70 ° 1 min 0,000 mm 3,6 UV-I 550 W/m² 14,7 °C 19,2 °C 4,8 km/h (1 Bft)
19.06.2017 09:17 19,2 °C 19,3 °C 72 % 1019,6 hPa 0,0 mm 3,4 km/h (1 Bft) O-NO 70 ° 1 min 0,000 mm 3,6 UV-I 552 W/m² 14,0 °C 19,2 °C 4,8 km/h (1 Bft)
19.06.2017 09:18 19,2 °C 19,2 °C 72 % 1019,6 hPa 0,0 mm 3,3 km/h (1 Bft) O 82 ° 1 min 0,000 mm 3,6 UV-I 554 W/m² 14,0 °C 19,2 °C 4,8 km/h (1 Bft)
19.06.2017 09:19 19,2 °C 19,2 °C 71 % 1019,6 hPa 0,0 mm 1,7 km/h (1 Bft) O 82 ° 1 min 0,000 mm 3,6 UV-I 557 W/m² 13,8 °C 19,2 °C 3,2 km/h (1 Bft)
19.06.2017 09:20 19,1 °C 19,2 °C 71 % 1019,6 hPa 0,0 mm 0,8 km/h (0 Bft) O 82 ° 1 min 0,000 mm 3,7 UV-I 559 W/m² 13,7 °C 19,1 °C 1,6 km/h (1 Bft)
19.06.2017 09:21 19,1 °C 19,1 °C 72 % 1019,6 hPa 0,0 mm 0,0 km/h (0 Bft) O 82 ° 1 min 0,000 mm 3,7 UV-I 561 W/m² 13,9 °C 19,1 °C 0,0 km/h (0 Bft)
19.06.2017 09:22 19,2 °C 19,2 °C 72 % 1019,6 hPa 0,0 mm 0,0 km/h (0 Bft) O 82 ° 1 min 0,000 mm 3,7 UV-I 563 W/m² 14,0 °C 19,2 °C 0,0 km/h (0 Bft)
19.06.2017 09:23 19,3 °C 19,3 °C 73 % 1019,6 hPa 0,0 mm 1,4 km/h (1 Bft) O-NO 65 ° 1 min 0,000 mm 3,7 UV-I 561 W/m² 14,3 °C 19,3 °C 4,8 km/h (1 Bft)
19.06.2017 09:24 19,4 °C 19,4 °C 74 % 1019,6 hPa 0,0 mm 3,0 km/h (1 Bft) O-NO 69 ° 1 min 0,000 mm 3,7 UV-I 557 W/m² 14,6 °C 19,4 °C 4,8 km/h (1 Bft)
19.06.2017 09:25 19,5 °C 19,5 °C 74 % 1019,6 hPa 0,0 mm 3,4 km/h (1 Bft) NO 51 ° 1 min 0,000 mm 3,7 UV-I 570 W/m² 14,7 °C 19,5 °C 4,8 km/h (1 Bft)
19.06.2017 09:26 19,7 °C 19,7 °C 72 % 1019,6 hPa 0,0 mm 1,2 km/h (1 Bft) NO 49 ° 1 min 0,000 mm 3,8 UV-I 570 W/m² 14,5 °C 19,7 °C 1,6 km/h (1 Bft)
19.06.2017 09:27 19,8 °C 19,8 °C 72 % 1019,6 hPa 0,0 mm 1,5 km/h (1 Bft) NO 49 ° 1 min 0,000 mm 3,8 UV-I 571 W/m² 14,6 °C 19,8 °C 3,2 km/h (1 Bft)
19.06.2017 09:28 19,8 °C 19,8 °C 68 % 1019,6 hPa 0,0 mm 0,7 km/h (0 Bft) NO 49 ° 1 min 0,000 mm 3,8 UV-I 577 W/m² 13,7 °C 19,8 °C 1,6 km/h (1 Bft)
19.06.2017 09:29 19,9 °C 19,9 °C 69 % 1019,6 hPa 0,0 mm 0,0 km/h (0 Bft) NO 49 ° 1 min 0,000 mm 3,9 UV-I 578 W/m² 14,0 °C 19,9 °C 0,0 km/h (0 Bft)
19.06.2017 09:30 20,0 °C 20,0 °C 71 % 1019,6 hPa 0,0 mm 2,4 km/h (1 Bft) NO 49 ° 1 min 0,000 mm 3,9 UV-I 580 W/m² 14,6 °C 20,0 °C 4,8 km/h (1 Bft)
19.06.2017 09:31 20,1 °C 20,1 °C 70 % 1019,6 hPa 0,0 mm 2,6 km/h (1 Bft) NO 49 ° 1 min 0,000 mm 3,9 UV-I 585 W/m² 14,5 °C 20,1 °C 4,8 km/h (1 Bft)
19.06.2017 09:32 20,1 °C 20,1 °C 70 % 1019,6 hPa 0,0 mm 1,2 km/h (1 Bft) NO 49 ° 1 min 0,000 mm 4,0 UV-I 587 W/m² 14,5 °C 20,1 °C 3,2 km/h (1 Bft)
19.06.2017 09:33 19,8 °C 20,1 °C 70 % 1019,6 hPa 0,0 mm 1,2 km/h (1 Bft) NO 49 ° 1 min 0,000 mm 4,0 UV-I 589 W/m² 14,2 °C 19,8 °C 3,2 km/h (1 Bft)
19.06.2017 09:34 19,8 °C 19,8 °C 72 % 1019,6 hPa 0,0 mm 3,5 km/h (1 Bft) N-NO 26 ° 1 min 0,000 mm 4,0 UV-I 592 W/m² 14,6 °C 19,8 °C 4,8 km/h (1 Bft)
19.06.2017 09:35 20,0 °C 20,0 °C 70 % 1019,6 hPa 0,0 mm 3,2 km/h (1 Bft) N-NO 26 ° 1 min 0,000 mm 4,0 UV-I 592 W/m² 14,4 °C 20,0 °C 4,8 km/h (1 Bft)
19.06.2017 09:36 20,0 °C 20,1 °C 70 % 1019,6 hPa 0,0 mm 2,7 km/h (1 Bft) N-NO 19 ° 1 min 0,000 mm 4,0 UV-I 598 W/m² 14,4 °C 20,0 °C 4,8 km/h (1 Bft)
19.06.2017 09:37 20,1 °C 20,1 °C 69 % 1019,6 hPa 0,0 mm 1,7 km/h (1 Bft) N-NO 19 ° 1 min 0,000 mm 4,1 UV-I 601 W/m² 14,2 °C 20,1 °C 3,2 km/h (1 Bft)
19.06.2017 09:38 20,2 °C 20,2 °C 68 % 1019,7 hPa 0,0 mm 1,4 km/h (1 Bft) N-NO 19 ° 1 min 0,000 mm 4,1 UV-I 599 W/m² 14,1 °C 20,2 °C 3,2 km/h (1 Bft)
19.06.2017 09:39 20,3 °C 20,3 °C 70 % 1019,6 hPa 0,0 mm 2,2 km/h (1 Bft) N-NO 19 ° 1 min 0,000 mm 4,1 UV-I 603 W/m² 14,6 °C 20,3 °C 3,2 km/h (1 Bft)
19.06.2017 09:40 20,4 °C 20,4 °C 72 % 1019,6 hPa 0,0 mm 1,6 km/h (1 Bft) N-NO 19 ° 1 min 0,000 mm 4,1 UV-I 605 W/m² 15,2 °C 20,4 °C 3,2 km/h (1 Bft)
19.06.2017 09:41 20,4 °C 20,5 °C 72 % 1019,6 hPa 0,0 mm 1,8 km/h (1 Bft) N-NO 19 ° 1 min 0,000 mm 4,1 UV-I 603 W/m² 15,2 °C 20,4 °C 3,2 km/h (1 Bft)
19.06.2017 09:42 20,5 °C 20,5 °C 69 % 1019,6 hPa 0,0 mm 2,2 km/h (1 Bft) N-NO 19 ° 1 min 0,000 mm 4,2 UV-I 606 W/m² 14,6 °C 20,5 °C 3,2 km/h (1 Bft)
19.06.2017 09:43 20,6 °C 20,6 °C 67 % 1019,6 hPa 0,0 mm 1,7 km/h (1 Bft) N-NO 20 ° 1 min 0,000 mm 4,2 UV-I 612 W/m² 14,3 °C 20,6 °C 3,2 km/h (1 Bft)
19.06.2017 09:44 20,4 °C 20,6 °C 65 % 1019,6 hPa 0,0 mm 1,3 km/h (1 Bft) N-NO 20 ° 1 min 0,000 mm 4,2 UV-I 615 W/m² 13,6 °C 20,4 °C 3,2 km/h (1 Bft)
19.06.2017 09:45 20,3 °C 20,4 °C 66 % 1019,6 hPa 0,0 mm 0,0 km/h (0 Bft) N-NO 20 ° 1 min 0,000 mm 4,2 UV-I 613 W/m² 13,7 °C 20,3 °C 0,0 km/h (0 Bft)
19.06.2017 09:46 20,2 °C 20,3 °C 67 % 1019,6 hPa 0,0 mm 0,0 km/h (0 Bft) N-NO 20 ° 1 min 0,000 mm 4,2 UV-I 613 W/m² 13,9 °C 20,2 °C 0,0 km/h (0 Bft)
19.06.2017 09:47 20,3 °C 20,3 °C 69 % 1019,6 hPa 0,0 mm 1,4 km/h (1 Bft) N-NO 20 ° 1 min 0,000 mm 4,3 UV-I 615 W/m² 14,4 °C 20,3 °C 4,8 km/h (1 Bft)
19.06.2017 09:48 20,4 °C 20,4 °C 71 % 1019,6 hPa 0,0 mm 2,7 km/h (1 Bft) N-NO 20 ° 1 min 0,000 mm 4,3 UV-I 624 W/m² 15,0 °C 20,4 °C 6,4 km/h (2 Bft)
19.06.2017 09:49 20,5 °C 20,5 °C 66 % 1019,6 hPa 0,0 mm 0,7 km/h (0 Bft) N-NO 20 ° 1 min 0,000 mm 4,4 UV-I 628 W/m² 13,9 °C 20,5 °C 1,6 km/h (1 Bft)
19.06.2017 09:50 20,6 °C 20,6 °C 68 % 1019,6 hPa 0,0 mm 2,9 km/h (1 Bft) NO 54 ° 1 min 0,000 mm 4,4 UV-I 629 W/m² 14,5 °C 20,6 °C 4,8 km/h (1 Bft)
19.06.2017 09:51 20,7 °C 20,7 °C 68 % 1019,7 hPa 0,0 mm 1,3 km/h (1 Bft) NO 54 ° 1 min 0,000 mm 4,4 UV-I 633 W/m² 14,6 °C 20,7 °C 3,2 km/h (1 Bft)
19.06.2017 09:52 20,7 °C 20,7 °C 65 % 1019,6 hPa 0,0 mm 2,9 km/h (1 Bft) NO 56 ° 1 min 0,000 mm 4,4 UV-I 633 W/m² 13,9 °C 20,7 °C 4,8 km/h (1 Bft)
19.06.2017 09:53 20,6 °C 20,7 °C 64 % 1019,6 hPa 0,0 mm 2,8 km/h (1 Bft) NO 56 ° 1 min 0,000 mm 4,5 UV-I 636 W/m² 13,5 °C 20,6 °C 4,8 km/h (1 Bft)
19.06.2017 09:54 20,4 °C 20,6 °C 65 % 1019,6 hPa 0,0 mm 1,1 km/h (1 Bft) NO 56 ° 1 min 0,000 mm 4,5 UV-I 642 W/m² 13,6 °C 20,4 °C 1,6 km/h (1 Bft)
19.06.2017 09:55 20,3 °C 20,4 °C 65 % 1019,6 hPa 0,0 mm 0,5 km/h (0 Bft) NO 56 ° 1 min 0,000 mm 4,6 UV-I 652 W/m² 13,5 °C 20,3 °C 1,6 km/h (1 Bft)
19.06.2017 09:56 20,4 °C 20,4 °C 67 % 1019,6 hPa 0,0 mm 1,6 km/h (1 Bft) NO 56 ° 1 min 0,000 mm 4,6 UV-I 666 W/m² 14,1 °C 20,4 °C 3,2 km/h (1 Bft)
19.06.2017 09:57 20,6 °C 20,6 °C 66 % 1019,6 hPa 0,0 mm 0,8 km/h (0 Bft) NO 55 ° 1 min 0,000 mm 4,7 UV-I 677 W/m² 14,0 °C 20,6 °C 3,2 km/h (1 Bft)
19.06.2017 09:58 20,8 °C 20,8 °C 68 % 1019,6 hPa 0,0 mm 0,1 km/h (0 Bft) NO 55 ° 1 min 0,000 mm 4,8 UV-I 701 W/m² 14,7 °C 20,8 °C 1,6 km/h (1 Bft)
19.06.2017 09:59 20,9 °C 20,9 °C 65 % 1019,6 hPa 0,0 mm 2,6 km/h (1 Bft) NW 309 ° 1 min 0,000 mm 4,9 UV-I 737 W/m² 14,1 °C 20,9 °C 6,4 km/h (2 Bft)
19.06.2017 10:00 20,9 °C 20,9 °C 63 % 1019,6 hPa 0,0 mm 3,7 km/h (1 Bft) N-NW 348 ° 1 min 0,000 mm 3,2 UV-I 737 W/m² 13,6 °C 20,9 °C 4,8 km/h (1 Bft)
19.06.2017 10:01 20,9 °C 20,9 °C 64 % 1019,6 hPa 0,0 mm 2,5 km/h (1 Bft) N 355 ° 1 min 0,330 mm 4,6 UV-I 737 W/m² 13,8 °C 20,9 °C 4,8 km/h (1 Bft)
19.06.2017 10:02 20,9 °C 20,9 °C 64 % 1019,6 hPa 0,0 mm 3,7 km/h (1 Bft) N-NW 329 ° 1 min 0,000 mm 4,9 UV-I 731 W/m² 13,8 °C 20,9 °C 6,4 km/h (2 Bft)
19.06.2017 10:03 21,1 °C 21,1 °C 66 % 1019,7 hPa 0,0 mm 3,0 km/h (1 Bft) N 350 ° 1 min 0,000 mm 4,8 UV-I 731 W/m² 14,5 °C 21,1 °C 4,8 km/h (1 Bft)
19.06.2017 10:04 21,2 °C 21,2 °C 66 % 1019,6 hPa 0,0 mm 3,8 km/h (1 Bft) N-NW 345 ° 1 min 0,000 mm 4,8 UV-I 621 W/m² 14,6 °C 21,2 °C 4,8 km/h (1 Bft)
19.06.2017 10:05 21,1 °C 21,2 °C 62 % 1019,6 hPa 0,0 mm 1,5 km/h (1 Bft) N-NW 345 ° 1 min 0,000 mm 3,7 UV-I 696 W/m² 13,5 °C 21,1 °C 3,2 km/h (1 Bft)
19.06.2017 10:06 21,1 °C 21,1 °C 63 % 1019,7 hPa 0,0 mm 1,5 km/h (1 Bft) N-NW 345 ° 1 min 0,000 mm 5,1 UV-I 747 W/m² 13,8 °C 21,1 °C 3,2 km/h (1 Bft)
19.06.2017 10:07 21,1 °C 21,1 °C 66 % 1019,7 hPa 0,0 mm 1,7 km/h (1 Bft) N-NW 345 ° 1 min 0,000 mm 3,3 UV-I 747 W/m² 14,5 °C 21,1 °C 3,2 km/h (1 Bft)
19.06.2017 10:08 21,2 °C 21,2 °C 62 % 1019,7 hPa 0,0 mm 0,2 km/h (0 Bft) N-NW 345 ° 1 min 0,000 mm 3,6 UV-I 747 W/m² 13,6 °C 21,2 °C 1,6 km/h (1 Bft)
19.06.2017 10:09 21,2 °C 21,2 °C 63 % 1019,7 hPa 0,0 mm 0,0 km/h (0 Bft) N-NW 345 ° 1 min 0,000 mm 5,1 UV-I 747 W/m² 13,9 °C 21,2 °C 0,0 km/h (0 Bft)
19.06.2017 10:10 21,2 °C 21,2 °C 64 % 1019,6 hPa 0,0 mm 0,0 km/h (0 Bft) N-NW 345 ° 1 min 0,000 mm 5,1 UV-I 744 W/m² 14,1 °C 21,2 °C 0,0 km/h (0 Bft)
19.06.2017 10:11 21,2 °C 21,2 °C 67 % 1019,6 hPa 0,0 mm 3,5 km/h (1 Bft) N-NW 329 ° 1 min 0,000 mm 4,7 UV-I 758 W/m² 14,8 °C 21,2 °C 6,4 km/h (2 Bft)
19.06.2017 10:12 21,3 °C 21,3 °C 69 % 1019,6 hPa 0,0 mm 4,2 km/h (1 Bft) NW 319 ° 1 min 0,000 mm 5,1 UV-I 758 W/m² 15,4 °C 21,3 °C 6,4 km/h (2 Bft)
19.06.2017 10:13 21,4 °C 21,4 °C 65 % 1019,6 hPa 0,0 mm 1,7 km/h (1 Bft) N-NW 331 ° 1 min 0,000 mm 5,2 UV-I 737 W/m² 14,5 °C 21,4 °C 4,8 km/h (1 Bft)
19.06.2017 10:14 21,6 °C 21,6 °C 65 % 1019,6 hPa 0,0 mm 1,0 km/h (0 Bft) N-NW 330 ° 1 min 0,000 mm 4,1 UV-I 737 W/m² 14,7 °C 21,6 °C 3,2 km/h (1 Bft)
19.06.2017 10:15 21,7 °C 21,7 °C 67 % 1019,6 hPa 0,0 mm 4,4 km/h (1 Bft) NW 325 ° 1 min 0,000 mm 5,0 UV-I 737 W/m² 15,3 °C 21,7 °C 6,4 km/h (2 Bft)
19.06.2017 10:16 21,8 °C 21,8 °C 63 % 1019,6 hPa 0,0 mm 4,1 km/h (1 Bft) NW 321 ° 1 min 0,000 mm 5,0 UV-I 689 W/m² 14,4 °C 21,8 °C 6,4 km/h (2 Bft)
19.06.2017 10:17 21,8 °C 21,8 °C 67 % 1019,6 hPa 0,0 mm 3,2 km/h (1 Bft) N-NW 332 ° 1 min 0,000 mm 5,0 UV-I 689 W/m² 15,4 °C 21,8 °C 4,8 km/h (1 Bft)
19.06.2017 10:18 21,8 °C 21,8 °C 64 % 1019,6 hPa 0,0 mm 1,9 km/h (1 Bft) N-NW 332 ° 1 min 0,000 mm 5,1 UV-I 691 W/m² 14,7 °C 21,8 °C 3,2 km/h (1 Bft)
19.06.2017 10:19 21,9 °C 21,9 °C 65 % 1019,6 hPa 0,0 mm 3,6 km/h (1 Bft) N 5 ° 1 min 0,000 mm 5,1 UV-I 696 W/m² 15,0 °C 21,9 °C 6,4 km/h (2 Bft)
19.06.2017 10:20 22,0 °C 22,0 °C 64 % 1019,6 hPa 0,0 mm 1,5 km/h (1 Bft) N 5 ° 1 min 0,000 mm 5,1 UV-I 696 W/m² 14,9 °C 22,0 °C 4,8 km/h (1 Bft)
19.06.2017 10:21 21,9 °C 22,0 °C 63 % 1019,6 hPa 0,0 mm 4,3 km/h (1 Bft) N-NW 345 ° 1 min 0,000 mm 5,2 UV-I 696 W/m² 14,5 °C 21,9 °C 4,8 km/h (1 Bft)
19.06.2017 10:22 21,9 °C 21,9 °C 61 % 1019,6 hPa 0,0 mm 0,5 km/h (0 Bft) N-NW 345 ° 1 min 0,000 mm 5,2 UV-I 700 W/m² 14,0 °C 21,9 °C 1,6 km/h (1 Bft)
19.06.2017 10:23 22,0 °C 22,0 °C 67 % 1019,5 hPa 0,0 mm 3,8 km/h (1 Bft) W-NW 301 ° 1 min 0,000 mm 5,2 UV-I 701 W/m² 15,6 °C 22,0 °C 6,4 km/h (2 Bft)
19.06.2017 10:24 21,9 °C 22,1 °C 62 % 1019,6 hPa 0,0 mm 2,5 km/h (1 Bft) W-NW 301 ° 1 min 0,000 mm 5,2 UV-I 705 W/m² 14,3 °C 21,9 °C 4,8 km/h (1 Bft)
19.06.2017 10:25 21,9 °C 21,9 °C 62 % 1019,5 hPa 0,0 mm 1,1 km/h (1 Bft) W-NW 297 ° 1 min 0,000 mm 5,3 UV-I 707 W/m² 14,3 °C 21,9 °C 3,2 km/h (1 Bft)
19.06.2017 10:26 21,9 °C 21,9 °C 69 % 1019,5 hPa 0,0 mm 3,2 km/h (1 Bft) NW 307 ° 1 min 0,000 mm 5,3 UV-I 708 W/m² 15,9 °C 21,9 °C 4,8 km/h (1 Bft)
19.06.2017 10:27 21,9 °C 21,9 °C 64 % 1019,5 hPa 0,0 mm 3,6 km/h (1 Bft) N-NW 327 ° 1 min 0,000 mm 5,3 UV-I 708 W/m² 14,8 °C 21,9 °C 4,8 km/h (1 Bft)
19.06.2017 10:28 21,9 °C 22,0 °C 63 % 1019,5 hPa 0,0 mm 4,4 km/h (1 Bft) NW 323 ° 1 min 0,000 mm 5,3 UV-I 712 W/m² 14,5 °C 21,9 °C 4,8 km/h (1 Bft)
19.06.2017 10:29 21,8 °C 21,9 °C 62 % 1019,5 hPa 0,0 mm 3,8 km/h (1 Bft) NW 325 ° 1 min 0,000 mm 5,3 UV-I 714 W/m² 14,2 °C 21,8 °C 4,8 km/h (1 Bft)
19.06.2017 10:30 21,8 °C 21,8 °C 65 % 1019,5 hPa 0,0 mm 4,3 km/h (1 Bft) N-NW 344 ° 1 min 0,000 mm 5,4 UV-I 717 W/m² 14,9 °C 21,8 °C 6,4 km/h (2 Bft)
19.06.2017 10:31 22,0 °C 22,0 °C 69 % 1019,5 hPa 0,0 mm 3,4 km/h (1 Bft) N-NW 344 ° 1 min 0,000 mm 5,4 UV-I 717 W/m² 16,0 °C 22,0 °C 4,8 km/h (1 Bft)
19.06.2017 10:32 22,0 °C 22,0 °C 64 % 1019,5 hPa 0,0 mm 1,1 km/h (1 Bft) N-NW 344 ° 1 min 0,000 mm 5,4 UV-I 717 W/m² 14,9 °C 22,0 °C 3,2 km/h (1 Bft)
19.06.2017 10:33 21,9 °C 22,0 °C 63 % 1019,5 hPa 0,0 mm 0,4 km/h (0 Bft) N-NW 344 ° 1 min 0,000 mm 5,4 UV-I 719 W/m² 14,5 °C 21,9 °C 3,2 km/h (1 Bft)
19.06.2017 10:34 21,9 °C 21,9 °C 64 % 1019,5 hPa 0,0 mm 0,2 km/h (0 Bft) N-NW 344 ° 1 min 0,000 mm 5,5 UV-I 722 W/m² 14,8 °C 21,9 °C 1,6 km/h (1 Bft)
19.06.2017 10:35 21,8 °C 21,9 °C 65 % 1019,5 hPa 0,0 mm 2,2 km/h (1 Bft) N 5 ° 1 min 0,000 mm 5,5 UV-I 726 W/m² 14,9 °C 21,8 °C 3,2 km/h (1 Bft)
19.06.2017 10:36 21,8 °C 21,8 °C 64 % 1019,5 hPa 0,0 mm 2,5 km/h (1 Bft) N 5 ° 1 min 0,000 mm 5,5 UV-I 726 W/m² 14,7 °C 21,8 °C 3,2 km/h (1 Bft)
19.06.2017 10:37 21,8 °C 21,8 °C 63 % 1019,4 hPa 0,0 mm 5,2 km/h (1 Bft) O 94 ° 1 min 0,000 mm 5,5 UV-I 729 W/m² 14,4 °C 21,8 °C 8,0 km/h (2 Bft)
19.06.2017 10:38 21,8 °C 21,8 °C 66 % 1019,4 hPa 0,0 mm 4,6 km/h (1 Bft) O 88 ° 1 min 0,000 mm 5,5 UV-I 731 W/m² 15,2 °C 21,8 °C 9,7 km/h (2 Bft)
19.06.2017 10:39 21,8 °C 21,8 °C 63 % 1019,5 hPa 0,0 mm 2,6 km/h (1 Bft) N-NO 22 ° 1 min 0,000 mm 5,5 UV-I 731 W/m² 14,4 °C 21,8 °C 4,8 km/h (1 Bft)
19.06.2017 10:40 21,9 °C 21,9 °C 65 % 1019,5 hPa 0,0 mm 0,3 km/h (0 Bft) N-NO 22 ° 1 min 0,000 mm 5,5 UV-I 729 W/m² 15,0 °C 21,9 °C 1,6 km/h (1 Bft)
19.06.2017 10:41 22,0 °C 22,0 °C 66 % 1019,5 hPa 0,0 mm 1,8 km/h (1 Bft) N-NO 26 ° 1 min 0,000 mm 5,6 UV-I 735 W/m² 15,3 °C 22,0 °C 6,4 km/h (2 Bft)
19.06.2017 10:42 22,0 °C 22,0 °C 65 % 1019,5 hPa 0,0 mm 3,6 km/h (1 Bft) O-NO 68 ° 1 min 0,000 mm 5,6 UV-I 737 W/m² 15,1 °C 22,0 °C 6,4 km/h (2 Bft)
19.06.2017 10:43 21,9 °C 22,0 °C 65 % 1019,5 hPa 0,0 mm 5,8 km/h (2 Bft) NO 35 ° 1 min 0,000 mm 5,6 UV-I 740 W/m² 15,0 °C 21,9 °C 8,0 km/h (2 Bft)
19.06.2017 10:44 21,9 °C 21,9 °C 65 % 1019,5 hPa 0,0 mm 2,7 km/h (1 Bft) NO 35 ° 1 min 0,000 mm 5,7 UV-I 747 W/m² 15,0 °C 21,9 °C 6,4 km/h (2 Bft)
19.06.2017 10:45 22,0 °C 22,0 °C 65 % 1019,5 hPa 0,0 mm 2,4 km/h (1 Bft) N-NO 30 ° 1 min 0,000 mm 5,7 UV-I 749 W/m² 15,1 °C 22,0 °C 3,2 km/h (1 Bft)
19.06.2017 10:46 22,0 °C 22,0 °C 67 % 1019,5 hPa 0,0 mm 3,8 km/h (1 Bft) N 360 ° 1 min 0,000 mm 5,7 UV-I 754 W/m² 15,6 °C 22,0 °C 4,8 km/h (1 Bft)
19.06.2017 10:47 21,9 °C 22,0 °C 63 % 1019,5 hPa 0,0 mm 2,8 km/h (1 Bft) N-NW 337 ° 1 min 0,000 mm 5,8 UV-I 761 W/m² 14,5 °C 21,9 °C 4,8 km/h (1 Bft)
19.06.2017 10:48 22,0 °C 22,0 °C 66 % 1019,5 hPa 0,0 mm 3,2 km/h (1 Bft) SO 126 ° 1 min 0,000 mm 5,8 UV-I 773 W/m² 15,3 °C 22,0 °C 6,4 km/h (2 Bft)
19.06.2017 10:49 21,9 °C 22,1 °C 65 % 1019,5 hPa 0,0 mm 4,1 km/h (1 Bft) O-SO 123 ° 1 min 0,000 mm 5,8 UV-I 793 W/m² 15,0 °C 21,9 °C 6,4 km/h (2 Bft)
19.06.2017 10:50 21,8 °C 21,9 °C 64 % 1019,5 hPa 0,0 mm 4,5 km/h (1 Bft) O 82 ° 1 min 0,000 mm 5,9 UV-I 803 W/m² 14,7 °C 21,8 °C 6,4 km/h (2 Bft)
19.06.2017 10:51 21,8 °C 21,8 °C 64 % 1019,5 hPa 0,0 mm 1,5 km/h (1 Bft) O 82 ° 1 min 0,000 mm 5,9 UV-I 795 W/m² 14,7 °C 21,8 °C 3,2 km/h (1 Bft)
19.06.2017 10:52 21,7 °C 21,8 °C 67 % 1019,5 hPa 0,0 mm 0,0 km/h (0 Bft) O 82 ° 1 min 0,000 mm 5,2 UV-I 726 W/m² 15,3 °C 21,7 °C 0,0 km/h (0 Bft)
19.06.2017 10:53 21,7 °C 21,8 °C 63 % 1019,5 hPa 0,0 mm 0,0 km/h (0 Bft) O 82 ° 1 min 0,000 mm 4,8 UV-I 726 W/m² 14,3 °C 21,7 °C 0,0 km/h (0 Bft)
19.06.2017 10:54 21,7 °C 21,7 °C 64 % 1019,5 hPa 0,0 mm 0,1 km/h (0 Bft) O 82 ° 1 min 0,000 mm 6,0 UV-I 726 W/m² 14,6 °C 21,7 °C 1,6 km/h (1 Bft)
19.06.2017 10:55 21,7 °C 21,7 °C 66 % 1019,4 hPa 0,0 mm 3,0 km/h (1 Bft) NO 54 ° 1 min 0,000 mm 5,5 UV-I 726 W/m² 15,1 °C 21,7 °C 4,8 km/h (1 Bft)
19.06.2017 10:56 21,8 °C 21,8 °C 65 % 1019,4 hPa 0,0 mm 3,2 km/h (1 Bft) NO 55 ° 1 min 0,000 mm 6,0 UV-I 726 W/m² 14,9 °C 21,8 °C 4,8 km/h (1 Bft)
19.06.2017 10:57 21,9 °C 21,9 °C 67 % 1019,4 hPa 0,0 mm 1,5 km/h (1 Bft) NO 55 ° 1 min 0,000 mm 6,1 UV-I 791 W/m² 15,5 °C 21,9 °C 3,2 km/h (1 Bft)
19.06.2017 10:58 21,9 °C 21,9 °C 64 % 1019,4 hPa 0,0 mm 1,0 km/h (0 Bft) NO 55 ° 1 min 0,000 mm 6,0 UV-I 775 W/m² 14,8 °C 21,9 °C 1,6 km/h (1 Bft)
19.06.2017 10:59 22,1 °C 22,1 °C 68 % 1019,4 hPa 0,0 mm 0,7 km/h (0 Bft) NO 55 ° 1 min 0,000 mm 6,1 UV-I 782 W/m² 15,9 °C 22,1 °C 3,2 km/h (1 Bft)
19.06.2017 11:00 22,2 °C 22,2 °C 65 % 1019,4 hPa 0,0 mm 5,5 km/h (1 Bft) NO 40 ° 1 min 0,000 mm 6,1 UV-I 788 W/m² 15,3 °C 22,2 °C 6,4 km/h (2 Bft)
19.06.2017 11:01 22,3 °C 22,3 °C 64 % 1019,4 hPa 0,0 mm 2,2 km/h (1 Bft) NO 40 ° 1 min 0,432 mm 6,0 UV-I 786 W/m² 15,2 °C 22,3 °C 3,2 km/h (1 Bft)
19.06.2017 11:02 22,3 °C 22,3 °C 64 % 1019,4 hPa 0,0 mm 4,2 km/h (1 Bft) N-NO 28 ° 1 min 0,000 mm 6,0 UV-I 780 W/m² 15,2 °C 22,3 °C 8,0 km/h (2 Bft)
19.06.2017 11:03 22,3 °C 22,3 °C 63 % 1019,4 hPa 0,0 mm 4,8 km/h (1 Bft) O-NO 65 ° 1 min 0,000 mm 6,1 UV-I 784 W/m² 14,9 °C 22,3 °C 8,0 km/h (2 Bft)
19.06.2017 11:04 22,4 °C 22,4 °C 65 % 1019,4 hPa 0,0 mm 7,1 km/h (2 Bft) O-NO 58 ° 1 min 0,000 mm 6,1 UV-I 795 W/m² 15,5 °C 22,4 °C 9,7 km/h (2 Bft)
19.06.2017 11:05 22,3 °C 22,4 °C 64 % 1019,4 hPa 0,0 mm 5,4 km/h (1 Bft) O 98 ° 1 min 0,000 mm 6,0 UV-I 814 W/m² 15,2 °C 22,3 °C 8,0 km/h (2 Bft)
19.06.2017 11:06 22,3 °C 22,3 °C 64 % 1019,4 hPa 0,0 mm 0,9 km/h (0 Bft) O-NO 76 ° 1 min 0,000 mm 6,2 UV-I 824 W/m² 15,2 °C 22,3 °C 1,6 km/h (1 Bft)
19.06.2017 11:07 22,2 °C 22,3 °C 64 % 1019,4 hPa 0,0 mm 2,3 km/h (1 Bft) O 94 ° 1 min 0,000 mm 6,4 UV-I 809 W/m² 15,1 °C 22,2 °C 6,4 km/h (2 Bft)
19.06.2017 11:08 22,2 °C 22,2 °C 63 % 1019,4 hPa 0,0 mm 4,4 km/h (1 Bft) O 82 ° 1 min 0,000 mm 6,3 UV-I 742 W/m² 14,8 °C 22,2 °C 6,4 km/h (2 Bft)
19.06.2017 11:09 22,2 °C 22,2 °C 65 % 1019,4 hPa 0,0 mm 2,2 km/h (1 Bft) O-NO 72 ° 1 min 0,000 mm 6,3 UV-I 779 W/m² 15,3 °C 22,2 °C 3,2 km/h (1 Bft)
19.06.2017 11:10 22,2 °C 22,2 °C 66 % 1019,4 hPa 0,0 mm 2,7 km/h (1 Bft) O-NO 72 ° 1 min 0,000 mm 6,4 UV-I 844 W/m² 15,5 °C 22,2 °C 4,8 km/h (1 Bft)
19.06.2017 11:11 22,4 °C 22,4 °C 67 % 1019,4 hPa 0,0 mm 4,2 km/h (1 Bft) SO 138 ° 1 min 0,000 mm 6,3 UV-I 824 W/m² 16,0 °C 22,4 °C 6,4 km/h (2 Bft)
19.06.2017 11:12 22,4 °C 22,4 °C 63 % 1019,4 hPa 0,0 mm 2,7 km/h (1 Bft) SO 137 ° 1 min 0,000 mm 6,3 UV-I 824 W/m² 15,0 °C 22,4 °C 3,2 km/h (1 Bft)
19.06.2017 11:13 22,3 °C 22,4 °C 64 % 1019,4 hPa 0,0 mm 4,2 km/h (1 Bft) NO 51 ° 1 min 0,000 mm 6,4 UV-I 833 W/m² 15,2 °C 22,3 °C 6,4 km/h (2 Bft)
19.06.2017 11:14 22,3 °C 22,3 °C 63 % 1019,4 hPa 0,0 mm 2,7 km/h (1 Bft) NO 51 ° 1 min 0,000 mm 6,4 UV-I 838 W/m² 14,9 °C 22,3 °C 4,8 km/h (1 Bft)
19.06.2017 11:15 22,4 °C 22,4 °C 64 % 1019,4 hPa 0,0 mm 3,7 km/h (1 Bft) O-NO 59 ° 1 min 0,000 mm 6,3 UV-I 810 W/m² 15,2 °C 22,4 °C 6,4 km/h (2 Bft)
19.06.2017 11:16 22,6 °C 22,6 °C 64 % 1019,4 hPa 0,0 mm 7,0 km/h (2 Bft) O-NO 58 ° 1 min 0,000 mm 6,3 UV-I 819 W/m² 15,4 °C 22,6 °C 9,7 km/h (2 Bft)
19.06.2017 11:17 22,7 °C 22,7 °C 63 % 1019,4 hPa 0,0 mm 7,0 km/h (2 Bft) O-NO 64 ° 1 min 0,000 mm 6,3 UV-I 816 W/m² 15,3 °C 22,7 °C 11,3 km/h (2 Bft)
19.06.2017 11:18 22,6 °C 22,7 °C 64 % 1019,5 hPa 0,0 mm 5,5 km/h (1 Bft) NO 53 ° 1 min 0,000 mm 6,4 UV-I 819 W/m² 15,4 °C 22,6 °C 8,0 km/h (2 Bft)
19.06.2017 11:19 22,6 °C 22,6 °C 63 % 1019,4 hPa 0,0 mm 4,4 km/h (1 Bft) O 92 ° 1 min 0,000 mm 6,4 UV-I 823 W/m² 15,2 °C 22,6 °C 6,4 km/h (2 Bft)
19.06.2017 11:20 22,6 °C 22,6 °C 63 % 1019,5 hPa 0,0 mm 6,6 km/h (2 Bft) O 91 ° 1 min 0,000 mm 6,4 UV-I 821 W/m² 15,2 °C 22,6 °C 9,7 km/h (2 Bft)
19.06.2017 11:21 22,6 °C 22,6 °C 62 % 1019,5 hPa 0,0 mm 3,9 km/h (1 Bft) SO 136 ° 1 min 0,000 mm 6,4 UV-I 812 W/m² 14,9 °C 22,6 °C 9,7 km/h (2 Bft)
19.06.2017 11:22 22,4 °C 22,6 °C 63 % 1019,5 hPa 0,0 mm 6,8 km/h (2 Bft) S-SO 159 ° 1 min 0,000 mm 6,4 UV-I 817 W/m² 15,0 °C 22,4 °C 11,3 km/h (2 Bft)
19.06.2017 11:23 22,4 °C 22,4 °C 63 % 1019,4 hPa 0,0 mm 3,0 km/h (1 Bft) S-SO 155 ° 1 min 0,000 mm 6,4 UV-I 809 W/m² 15,0 °C 22,4 °C 6,4 km/h (2 Bft)
19.06.2017 11:24 22,4 °C 22,4 °C 63 % 1019,4 hPa 0,0 mm 0,3 km/h (0 Bft) S-SO 149 ° 1 min 0,000 mm 6,4 UV-I 814 W/m² 15,0 °C 22,4 °C 3,2 km/h (1 Bft)
19.06.2017 11:25 22,4 °C 22,4 °C 64 % 1019,4 hPa 0,0 mm 4,1 km/h (1 Bft) O 94 ° 1 min 0,000 mm 6,5 UV-I 821 W/m² 15,2 °C 22,4 °C 6,4 km/h (2 Bft)
19.06.2017 11:26 22,5 °C 22,5 °C 64 % 1019,4 hPa 0,0 mm 4,0 km/h (1 Bft) O-SO 109 ° 1 min 0,000 mm 6,5 UV-I 817 W/m² 15,3 °C 22,5 °C 6,4 km/h (2 Bft)
19.06.2017 11:27 22,5 °C 22,5 °C 66 % 1019,5 hPa 0,0 mm 4,6 km/h (1 Bft) N 11 ° 1 min 0,000 mm 6,5 UV-I 817 W/m² 15,8 °C 22,5 °C 8,0 km/h (2 Bft)
19.06.2017 11:28 22,7 °C 22,7 °C 65 % 1019,4 hPa 0,0 mm 8,6 km/h (2 Bft) N 5 ° 1 min 0,000 mm 6,5 UV-I 809 W/m² 15,8 °C 22,7 °C 14,5 km/h (3 Bft)
19.06.2017 11:29 22,9 °C 22,9 °C 64 % 1019,4 hPa 0,0 mm 4,8 km/h (1 Bft) N-NO 18 ° 1 min 0,000 mm 6,5 UV-I 810 W/m² 15,7 °C 22,9 °C 8,0 km/h (2 Bft)
19.06.2017 11:30 23,0 °C 23,0 °C 63 % 1019,4 hPa 0,0 mm 5,9 km/h (2 Bft) N-NO 33 ° 1 min 0,000 mm 6,6 UV-I 817 W/m² 15,6 °C 23,0 °C 9,7 km/h (2 Bft)
19.06.2017 11:31 23,1 °C 23,1 °C 64 % 1019,4 hPa 0,0 mm 5,4 km/h (1 Bft) NO 35 ° 1 min 0,000 mm 6,5 UV-I 814 W/m² 15,9 °C 23,1 °C 8,0 km/h (2 Bft)
19.06.2017 11:32 23,1 °C 23,1 °C 62 % 1019,4 hPa 0,0 mm 4,9 km/h (1 Bft) NO 36 ° 1 min 0,000 mm 6,6 UV-I 814 W/m² 15,4 °C 23,1 °C 6,4 km/h (2 Bft)
19.06.2017 11:33 23,1 °C 23,1 °C 64 % 1019,4 hPa 0,0 mm 4,7 km/h (1 Bft) N 5 ° 1 min 0,000 mm 6,6 UV-I 817 W/m² 15,9 °C 23,1 °C 6,4 km/h (2 Bft)
19.06.2017 11:34 23,2 °C 23,2 °C 62 % 1019,5 hPa 0,0 mm 5,3 km/h (1 Bft) NO 42 ° 1 min 0,000 mm 6,6 UV-I 819 W/m² 15,5 °C 23,2 °C 9,7 km/h (2 Bft)
19.06.2017 11:35 23,2 °C 23,2 °C 66 % 1019,5 hPa 0,0 mm 5,5 km/h (1 Bft) NO 45 ° 1 min 0,000 mm 6,6 UV-I 823 W/m² 16,5 °C 23,2 °C 6,4 km/h (2 Bft)
19.06.2017 11:36 23,2 °C 23,2 °C 64 % 1019,4 hPa 0,0 mm 4,4 km/h (1 Bft) NO 51 ° 1 min 0,000 mm 6,6 UV-I 824 W/m² 16,0 °C 23,2 °C 6,4 km/h (2 Bft)
19.06.2017 11:37 23,2 °C 23,2 °C 62 % 1019,5 hPa 0,0 mm 5,4 km/h (1 Bft) N-NO 30 ° 1 min 0,000 mm 6,6 UV-I 824 W/m² 15,5 °C 23,2 °C 6,4 km/h (2 Bft)
19.06.2017 11:38 23,2 °C 23,2 °C 62 % 1019,5 hPa 0,0 mm 5,6 km/h (1 Bft) N-NO 33 ° 1 min 0,000 mm 6,7 UV-I 830 W/m² 15,5 °C 23,2 °C 6,4 km/h (2 Bft)
19.06.2017 11:39 23,2 °C 23,2 °C 61 % 1019,4 hPa 0,0 mm 4,6 km/h (1 Bft) N 5 ° 1 min 0,000 mm 6,7 UV-I 828 W/m² 15,3 °C 23,2 °C 6,4 km/h (2 Bft)
19.06.2017 11:40 23,3 °C 23,3 °C 61 % 1019,4 hPa 0,0 mm 6,4 km/h (2 Bft) N-NO 19 ° 1 min 0,000 mm 6,7 UV-I 833 W/m² 15,3 °C 23,3 °C 8,0 km/h (2 Bft)
19.06.2017 11:41 23,3 °C 23,3 °C 63 % 1019,4 hPa 0,0 mm 4,7 km/h (1 Bft) NO 36 ° 1 min 0,000 mm 6,7 UV-I 833 W/m² 15,9 °C 23,3 °C 8,0 km/h (2 Bft)
19.06.2017 11:42 23,3 °C 23,3 °C 61 % 1019,4 hPa 0,0 mm 6,6 km/h (2 Bft) N-NO 14 ° 1 min 0,000 mm 6,7 UV-I 835 W/m² 15,3 °C 23,3 °C 12,9 km/h (3 Bft)
19.06.2017 11:43 23,4 °C 23,4 °C 62 % 1019,4 hPa 0,0 mm 9,0 km/h (2 Bft) N-NO 25 ° 1 min 0,000 mm 6,7 UV-I 835 W/m² 15,7 °C 23,4 °C 12,9 km/h (3 Bft)
19.06.2017 11:44 23,4 °C 23,4 °C 60 % 1019,4 hPa 0,0 mm 3,9 km/h (1 Bft) NO 39 ° 1 min 0,000 mm 6,8 UV-I 838 W/m² 15,2 °C 23,4 °C 6,4 km/h (2 Bft)
19.06.2017 11:45 23,4 °C 23,4 °C 63 % 1019,4 hPa 0,0 mm 5,2 km/h (1 Bft) N 5 ° 1 min 0,000 mm 6,8 UV-I 838 W/m² 15,9 °C 23,4 °C 8,0 km/h (2 Bft)
19.06.2017 11:46 23,3 °C 23,4 °C 62 % 1019,4 hPa 0,0 mm 3,4 km/h (1 Bft) O-NO 61 ° 1 min 0,000 mm 6,8 UV-I 837 W/m² 15,6 °C 23,3 °C 4,8 km/h (1 Bft)
19.06.2017 11:47 23,4 °C 23,4 °C 63 % 1019,4 hPa 0,0 mm 4,7 km/h (1 Bft) O 91 ° 1 min 0,000 mm 6,8 UV-I 840 W/m² 15,9 °C 23,4 °C 6,4 km/h (2 Bft)
19.06.2017 11:48 23,3 °C 23,4 °C 64 % 1019,4 hPa 0,0 mm 4,8 km/h (1 Bft) O 86 ° 1 min 0,000 mm 6,8 UV-I 840 W/m² 16,1 °C 23,3 °C 8,0 km/h (2 Bft)
19.06.2017 11:49 23,2 °C 23,3 °C 62 % 1019,4 hPa 0,0 mm 2,7 km/h (1 Bft) O 90 ° 1 min 0,000 mm 6,8 UV-I 842 W/m² 15,5 °C 23,2 °C 8,0 km/h (2 Bft)
19.06.2017 11:50 23,2 °C 23,2 °C 63 % 1019,4 hPa 0,0 mm 3,8 km/h (1 Bft) NO 46 ° 1 min 0,000 mm 6,8 UV-I 840 W/m² 15,8 °C 23,2 °C 9,7 km/h (2 Bft)
19.06.2017 11:51 23,2 °C 23,2 °C 63 % 1019,4 hPa 0,0 mm 4,5 km/h (1 Bft) N-NW 347 ° 1 min 0,000 mm 6,9 UV-I 838 W/m² 15,8 °C 23,2 °C 8,0 km/h (2 Bft)
19.06.2017 11:52 23,3 °C 23,3 °C 68 % 1019,4 hPa 0,0 mm 3,5 km/h (1 Bft) O-SO 103 ° 1 min 0,000 mm 6,9 UV-I 847 W/m² 17,1 °C 23,3 °C 9,7 km/h (2 Bft)
19.06.2017 11:53 23,3 °C 23,3 °C 64 % 1019,4 hPa 0,0 mm 6,0 km/h (2 Bft) O-NO 57 ° 1 min 0,000 mm 6,9 UV-I 849 W/m² 16,1 °C 23,3 °C 8,0 km/h (2 Bft)
19.06.2017 11:54 23,4 °C 23,4 °C 63 % 1019,4 hPa 0,0 mm 2,7 km/h (1 Bft) N-NO 23 ° 1 min 0,000 mm 6,9 UV-I 853 W/m² 15,9 °C 23,4 °C 6,4 km/h (2 Bft)
19.06.2017 11:55 23,5 °C 23,5 °C 63 % 1019,3 hPa 0,0 mm 5,1 km/h (1 Bft) O 80 ° 1 min 0,000 mm 6,9 UV-I 851 W/m² 16,0 °C 23,5 °C 8,0 km/h (2 Bft)
19.06.2017 11:56 23,5 °C 23,6 °C 60 % 1019,4 hPa 0,0 mm 4,6 km/h (1 Bft) NO 45 ° 1 min 0,000 mm 7,0 UV-I 854 W/m² 15,3 °C 23,5 °C 6,4 km/h (2 Bft)
19.06.2017 11:57 23,6 °C 23,6 °C 62 % 1019,4 hPa 0,0 mm 4,0 km/h (1 Bft) N-NO 22 ° 1 min 0,000 mm 7,0 UV-I 854 W/m² 15,9 °C 23,6 °C 6,4 km/h (2 Bft)
19.06.2017 11:58 23,6 °C 23,6 °C 63 % 1019,4 hPa 0,0 mm 5,2 km/h (1 Bft) O-NO 61 ° 1 min 0,000 mm 7,0 UV-I 856 W/m² 16,1 °C 23,6 °C 8,0 km/h (2 Bft)
19.06.2017 11:59 23,5 °C 23,6 °C 60 % 1019,4 hPa 0,0 mm 3,3 km/h (1 Bft) O 91 ° 1 min 0,000 mm 7,0 UV-I 853 W/m² 15,3 °C 23,5 °C 9,7 km/h (2 Bft)
19.06.2017 12:00 23,3 °C 23,5 °C 61 % 1019,5 hPa 0,0 mm 2,9 km/h (1 Bft) NO 43 ° 1 min 0,508 mm 7,0 UV-I 849 W/m² 15,3 °C 23,3 °C 9,7 km/h (2 Bft)
19.06.2017 12:01 23,3 °C 23,3 °C 62 % 1019,4 hPa 0,0 mm 4,1 km/h (1 Bft) NO 48 ° 1 min 0,000 mm 7,0 UV-I 853 W/m² 15,6 °C 23,3 °C 6,4 km/h (2 Bft)
19.06.2017 12:02 23,3 °C 23,3 °C 61 % 1019,4 hPa 0,0 mm 2,7 km/h (1 Bft) NO 49 ° 1 min 0,000 mm 7,0 UV-I 858 W/m² 15,3 °C 23,3 °C 4,8 km/h (1 Bft)
19.06.2017 12:03 23,3 °C 23,3 °C 61 % 1019,4 hPa 0,0 mm 1,3 km/h (1 Bft) NO 49 ° 1 min 0,000 mm 7,0 UV-I 863 W/m² 15,3 °C 23,3 °C 3,2 km/h (1 Bft)
19.06.2017 12:04 23,4 °C 23,4 °C 65 % 1019,3 hPa 0,0 mm 2,5 km/h (1 Bft) O 96 ° 1 min 0,000 mm 7,1 UV-I 861 W/m² 16,4 °C 23,4 °C 4,8 km/h (1 Bft)
19.06.2017 12:05 23,4 °C 23,4 °C 63 % 1019,4 hPa 0,0 mm 3,6 km/h (1 Bft) O 85 ° 1 min 0,000 mm 7,1 UV-I 863 W/m² 15,9 °C 23,4 °C 6,4 km/h (2 Bft)
19.06.2017 12:06 23,4 °C 23,4 °C 61 % 1019,4 hPa 0,0 mm 3,2 km/h (1 Bft) O-SO 121 ° 1 min 0,000 mm 7,1 UV-I 858 W/m² 15,4 °C 23,4 °C 4,8 km/h (1 Bft)
19.06.2017 12:07 23,4 °C 23,4 °C 61 % 1019,4 hPa 0,0 mm 2,9 km/h (1 Bft) S-SO 153 ° 1 min 0,000 mm 7,1 UV-I 858 W/m² 15,4 °C 23,4 °C 4,8 km/h (1 Bft)
19.06.2017 12:08 23,3 °C 23,4 °C 64 % 1019,4 hPa 0,0 mm 2,9 km/h (1 Bft) O-SO 118 ° 1 min 0,000 mm 7,2 UV-I 863 W/m² 16,1 °C 23,3 °C 6,4 km/h (2 Bft)
19.06.2017 12:09 23,4 °C 23,4 °C 65 % 1019,4 hPa 0,0 mm 5,1 km/h (1 Bft) O-SO 109 ° 1 min 0,000 mm 7,1 UV-I 867 W/m² 16,4 °C 23,4 °C 6,4 km/h (2 Bft)
19.06.2017 12:10 23,4 °C 23,4 °C 65 % 1019,4 hPa 0,0 mm 3,5 km/h (1 Bft) O-NO 70 ° 1 min 0,000 mm 7,2 UV-I 868 W/m² 16,4 °C 23,4 °C 4,8 km/h (1 Bft)
19.06.2017 12:11 23,4 °C 23,4 °C 60 % 1019,4 hPa 0,0 mm 1,9 km/h (1 Bft) O-NO 69 ° 1 min 0,000 mm 7,2 UV-I 870 W/m² 15,2 °C 23,4 °C 3,2 km/h (1 Bft)
19.06.2017 12:12 23,6 °C 23,6 °C 65 % 1019,3 hPa 0,0 mm 4,7 km/h (1 Bft) NO 47 ° 1 min 0,000 mm 7,2 UV-I 872 W/m² 16,6 °C 23,6 °C 9,7 km/h (2 Bft)
19.06.2017 12:13 23,9 °C 23,9 °C 66 % 1019,4 hPa 0,0 mm 7,6 km/h (2 Bft) NO 53 ° 1 min 0,000 mm 7,2 UV-I 868 W/m² 17,1 °C 23,9 °C 11,3 km/h (2 Bft)
19.06.2017 12:14 23,9 °C 23,9 °C 61 % 1019,3 hPa 0,0 mm 8,1 km/h (2 Bft) N-NW 340 ° 1 min 0,000 mm 7,2 UV-I 868 W/m² 15,9 °C 23,9 °C 12,9 km/h (3 Bft)
19.06.2017 12:15 24,1 °C 24,1 °C 60 % 1019,4 hPa 0,0 mm 7,7 km/h (2 Bft) N 355 ° 1 min 0,000 mm 7,3 UV-I 867 W/m² 15,8 °C 24,1 °C 12,9 km/h (3 Bft)
19.06.2017 12:16 24,2 °C 24,2 °C 58 % 1019,4 hPa 0,0 mm 5,2 km/h (1 Bft) N-NW 327 ° 1 min 0,000 mm 7,2 UV-I 872 W/m² 15,4 °C 24,2 °C 8,0 km/h (2 Bft)
19.06.2017 12:17 24,2 °C 24,2 °C 61 % 1019,4 hPa 0,0 mm 6,4 km/h (2 Bft) N-NW 331 ° 1 min 0,000 mm 7,2 UV-I 872 W/m² 16,2 °C 24,2 °C 9,7 km/h (2 Bft)
19.06.2017 12:18 24,2 °C 24,2 °C 61 % 1019,4 hPa 0,0 mm 2,8 km/h (1 Bft) N-NW 332 ° 1 min 0,000 mm 7,2 UV-I 865 W/m² 16,2 °C 24,2 °C 4,8 km/h (1 Bft)
19.06.2017 12:19 24,1 °C 24,2 °C 61 % 1019,4 hPa 0,0 mm 4,0 km/h (1 Bft) NO 50 ° 1 min 0,000 mm 7,3 UV-I 872 W/m² 16,1 °C 24,1 °C 4,8 km/h (1 Bft)
19.06.2017 12:20 23,9 °C 24,1 °C 56 % 1019,3 hPa 0,0 mm 0,2 km/h (0 Bft) NO 50 ° 1 min 0,000 mm 7,3 UV-I 870 W/m² 14,6 °C 23,9 °C 1,6 km/h (1 Bft)
19.06.2017 12:21 23,8 °C 23,9 °C 61 % 1019,3 hPa 0,0 mm 5,2 km/h (1 Bft) NO 38 ° 1 min 0,000 mm 7,3 UV-I 868 W/m² 15,8 °C 23,8 °C 6,4 km/h (2 Bft)
19.06.2017 12:22 23,9 °C 23,9 °C 58 % 1019,3 hPa 0,0 mm 3,9 km/h (1 Bft) N-NW 329 ° 1 min 0,000 mm 7,3 UV-I 875 W/m² 15,1 °C 23,9 °C 6,4 km/h (2 Bft)
19.06.2017 12:23 23,9 °C 23,9 °C 59 % 1019,3 hPa 0,0 mm 4,2 km/h (1 Bft) N 11 ° 1 min 0,000 mm 7,3 UV-I 874 W/m² 15,4 °C 23,9 °C 8,0 km/h (2 Bft)
19.06.2017 12:24 24,2 °C 24,2 °C 61 % 1019,3 hPa 0,0 mm 4,9 km/h (1 Bft) N-NW 333 ° 1 min 0,000 mm 7,3 UV-I 874 W/m² 16,2 °C 24,2 °C 8,0 km/h (2 Bft)
19.06.2017 12:25 24,3 °C 24,3 °C 58 % 1019,3 hPa 0,0 mm 3,6 km/h (1 Bft) N-NO 20 ° 1 min 0,000 mm 7,3 UV-I 874 W/m² 15,5 °C 24,3 °C 6,4 km/h (2 Bft)
19.06.2017 12:26 24,2 °C 24,3 °C 58 % 1019,3 hPa 0,0 mm 2,6 km/h (1 Bft) N 5 ° 1 min 0,000 mm 7,3 UV-I 877 W/m² 15,4 °C 24,2 °C 4,8 km/h (1 Bft)
19.06.2017 12:27 24,2 °C 24,2 °C 62 % 1019,3 hPa 0,0 mm 2,1 km/h (1 Bft) O-NO 59 ° 1 min 0,000 mm 7,4 UV-I 879 W/m² 16,4 °C 24,2 °C 4,8 km/h (1 Bft)
19.06.2017 12:28 24,3 °C 24,3 °C 62 % 1019,3 hPa 0,0 mm 3,8 km/h (1 Bft) NO 40 ° 1 min 0,000 mm 7,4 UV-I 879 W/m² 16,5 °C 24,3 °C 6,4 km/h (2 Bft)
19.06.2017 12:29 24,3 °C 24,3 °C 57 % 1019,3 hPa 0,0 mm 2,3 km/h (1 Bft) NO 40 ° 1 min 0,000 mm 7,3 UV-I 879 W/m² 15,2 °C 24,3 °C 4,8 km/h (1 Bft)
19.06.2017 12:30 24,3 °C 24,3 °C 61 % 1019,3 hPa 0,0 mm 3,9 km/h (1 Bft) N-NO 22 ° 1 min 0,000 mm 7,3 UV-I 879 W/m² 16,3 °C 24,3 °C 8,0 km/h (2 Bft)
19.06.2017 12:31 24,3 °C 24,3 °C 58 % 1019,3 hPa 0,0 mm 5,4 km/h (1 Bft) N-NW 344 ° 1 min 0,000 mm 7,4 UV-I 884 W/m² 15,5 °C 24,3 °C 9,7 km/h (2 Bft)
19.06.2017 12:32 24,4 °C 24,4 °C 60 % 1019,3 hPa 0,0 mm 2,1 km/h (1 Bft) N 351 ° 1 min 0,000 mm 7,4 UV-I 893 W/m² 16,1 °C 24,4 °C 3,2 km/h (1 Bft)
19.06.2017 12:33 24,4 °C 24,5 °C 59 % 1019,3 hPa 0,0 mm 1,3 km/h (1 Bft) N 355 ° 1 min 0,000 mm 6,1 UV-I 874 W/m² 15,9 °C 24,4 °C 3,2 km/h (1 Bft)
19.06.2017 12:34 24,3 °C 24,4 °C 57 % 1019,3 hPa 0,0 mm 4,1 km/h (1 Bft) NW 323 ° 1 min 0,000 mm 7,5 UV-I 882 W/m² 15,2 °C 24,3 °C 8,0 km/h (2 Bft)
19.06.2017 12:35 24,3 °C 24,3 °C 61 % 1019,2 hPa 0,0 mm 5,1 km/h (1 Bft) NW 319 ° 1 min 0,000 mm 7,5 UV-I 888 W/m² 16,3 °C 24,3 °C 8,0 km/h (2 Bft)
19.06.2017 12:36 24,3 °C 24,3 °C 62 % 1019,2 hPa 0,0 mm 7,3 km/h (2 Bft) N-NO 18 ° 1 min 0,000 mm 7,5 UV-I 889 W/m² 16,5 °C 24,3 °C 11,3 km/h (2 Bft)
19.06.2017 12:37 24,4 °C 24,4 °C 62 % 1019,2 hPa 0,0 mm 8,3 km/h (2 Bft) N-NW 340 ° 1 min 0,000 mm 7,5 UV-I 888 W/m² 16,6 °C 24,4 °C 12,9 km/h (3 Bft)
19.06.2017 12:38 24,7 °C 24,7 °C 62 % 1019,2 hPa 0,0 mm 6,8 km/h (2 Bft) N-NW 344 ° 1 min 0,000 mm 7,5 UV-I 888 W/m² 16,9 °C 24,7 °C 11,3 km/h (2 Bft)
19.06.2017 12:39 24,9 °C 24,9 °C 61 % 1019,2 hPa 0,0 mm 8,9 km/h (2 Bft) NW 307 ° 1 min 0,000 mm 7,5 UV-I 889 W/m² 16,8 °C 24,9 °C 12,9 km/h (3 Bft)
19.06.2017 12:40 25,1 °C 25,1 °C 59 % 1019,2 hPa 0,0 mm 6,3 km/h (2 Bft) W-NW 286 ° 1 min 0,000 mm 7,6 UV-I 893 W/m² 16,5 °C 25,1 °C 11,3 km/h (2 Bft)
19.06.2017 12:41 25,1 °C 25,1 °C 60 % 1019,2 hPa 0,0 mm 9,4 km/h (2 Bft) W-SW 258 ° 1 min 0,000 mm 7,6 UV-I 895 W/m² 16,8 °C 25,1 °C 12,9 km/h (3 Bft)
19.06.2017 12:42 24,9 °C 25,1 °C 60 % 1019,2 hPa 0,0 mm 6,3 km/h (2 Bft) N 349 ° 1 min 0,000 mm 7,6 UV-I 893 W/m² 16,6 °C 24,9 °C 11,3 km/h (2 Bft)
19.06.2017 12:43 24,7 °C 24,9 °C 55 % 1019,2 hPa 0,0 mm 2,5 km/h (1 Bft) N 350 ° 1 min 0,000 mm 7,6 UV-I 898 W/m² 15,0 °C 24,7 °C 4,8 km/h (1 Bft)
19.06.2017 12:44 24,5 °C 24,7 °C 57 % 1019,2 hPa 0,0 mm 2,7 km/h (1 Bft) O-NO 60 ° 1 min 0,000 mm 7,6 UV-I 898 W/m² 15,4 °C 24,5 °C 4,8 km/h (1 Bft)
19.06.2017 12:45 24,4 °C 24,5 °C 59 % 1019,2 hPa 0,0 mm 1,7 km/h (1 Bft) O-NO 59 ° 1 min 0,000 mm 7,6 UV-I 904 W/m² 15,9 °C 24,4 °C 3,2 km/h (1 Bft)
19.06.2017 12:46 24,3 °C 24,4 °C 60 % 1019,2 hPa 0,0 mm 0,9 km/h (0 Bft) NW 325 ° 1 min 0,000 mm 7,6 UV-I 904 W/m² 16,0 °C 24,3 °C 4,8 km/h (1 Bft)
19.06.2017 12:47 24,5 °C 24,5 °C 65 % 1019,2 hPa 0,0 mm 4,1 km/h (1 Bft) W-SW 254 ° 1 min 0,000 mm 7,6 UV-I 907 W/m² 17,5 °C 24,5 °C 6,4 km/h (2 Bft)
19.06.2017 12:48 24,7 °C 24,7 °C 57 % 1019,2 hPa 0,0 mm 10,6 km/h (2 Bft) W-NW 296 ° 1 min 0,000 mm 7,7 UV-I 918 W/m² 15,6 °C 24,7 °C 14,5 km/h (3 Bft)
19.06.2017 12:49 24,9 °C 24,9 °C 61 % 1019,2 hPa 0,0 mm 10,7 km/h (2 Bft) W-NW 288 ° 1 min 0,000 mm 7,6 UV-I 919 W/m² 16,8 °C 24,9 °C 16,1 km/h (3 Bft)
19.06.2017 12:50 25,1 °C 25,1 °C 63 % 1019,1 hPa 0,0 mm 5,9 km/h (2 Bft) W-NW 288 ° 1 min 0,000 mm 7,7 UV-I 907 W/m² 17,5 °C 25,1 °C 8,0 km/h (2 Bft)
19.06.2017 12:51 25,3 °C 25,3 °C 62 % 1019,1 hPa 0,0 mm 13,8 km/h (3 Bft) W-SW 243 ° 1 min 0,000 mm 7,7 UV-I 909 W/m² 17,5 °C 25,3 °C 22,5 km/h (4 Bft)
19.06.2017 12:52 25,3 °C 25,3 °C 59 % 1019,1 hPa 0,0 mm 9,3 km/h (2 Bft) W-NW 292 ° 1 min 0,000 mm 7,7 UV-I 912 W/m² 16,7 °C 25,3 °C 16,1 km/h (3 Bft)
19.06.2017 12:53 25,3 °C 25,3 °C 58 % 1019,1 hPa 0,0 mm 8,1 km/h (2 Bft) W 264 ° 1 min 0,000 mm 7,7 UV-I 914 W/m² 16,4 °C 25,3 °C 14,5 km/h (3 Bft)
19.06.2017 12:54 25,3 °C 25,3 °C 57 % 1019,1 hPa 0,0 mm 6,8 km/h (2 Bft) W-NW 300 ° 1 min 0,000 mm 7,7 UV-I 911 W/m² 16,2 °C 25,3 °C 11,3 km/h (2 Bft)
19.06.2017 12:55 25,2 °C 25,3 °C 58 % 1019,1 hPa 0,0 mm 3,8 km/h (1 Bft) NW 323 ° 1 min 0,000 mm 7,6 UV-I 900 W/m² 16,3 °C 25,2 °C 6,4 km/h (2 Bft)
19.06.2017 12:56 25,3 °C 25,3 °C 59 % 1019,1 hPa 0,0 mm 7,4 km/h (2 Bft) NW 308 ° 1 min 0,000 mm 7,6 UV-I 900 W/m² 16,7 °C 25,3 °C 16,1 km/h (3 Bft)
19.06.2017 12:57 25,3 °C 25,3 °C 60 % 1019,1 hPa 0,0 mm 9,3 km/h (2 Bft) NW 317 ° 1 min 0,000 mm 7,6 UV-I 902 W/m² 17,0 °C 25,3 °C 14,5 km/h (3 Bft)
19.06.2017 12:58 25,3 °C 25,3 °C 58 % 1019,1 hPa 0,0 mm 6,2 km/h (2 Bft) N-NW 338 ° 1 min 0,000 mm 7,7 UV-I 907 W/m² 16,4 °C 25,3 °C 9,7 km/h (2 Bft)
19.06.2017 12:59 25,3 °C 25,3 °C 59 % 1019,1 hPa 0,0 mm 8,4 km/h (2 Bft) W-NW 298 ° 1 min 0,000 mm 7,7 UV-I 909 W/m² 16,7 °C 25,3 °C 14,5 km/h (3 Bft)
19.06.2017 13:00 25,3 °C 25,3 °C 56 % 1019,2 hPa 0,0 mm 12,5 km/h (3 Bft) W 268 ° 1 min 0,000 mm 7,7 UV-I 911 W/m² 15,9 °C 25,3 °C 20,9 km/h (4 Bft)
19.06.2017 13:01 25,2 °C 25,3 °C 57 % 1019,1 hPa 0,0 mm 10,5 km/h (2 Bft) W-NW 296 ° 1 min 0,584 mm 7,7 UV-I 912 W/m² 16,1 °C 25,2 °C 14,5 km/h (3 Bft)
19.06.2017 13:02 25,1 °C 25,2 °C 57 % 1019,0 hPa 0,0 mm 9,2 km/h (2 Bft) W-NW 294 ° 1 min 0,000 mm 7,7 UV-I 912 W/m² 16,0 °C 25,1 °C 16,1 km/h (3 Bft)
19.06.2017 13:03 25,1 °C 25,1 °C 58 % 1019,1 hPa 0,0 mm 5,1 km/h (1 Bft) W 261 ° 1 min 0,000 mm 7,7 UV-I 916 W/m² 16,2 °C 25,1 °C 9,7 km/h (2 Bft)
19.06.2017 13:04 25,0 °C 25,1 °C 55 % 1019,0 hPa 0,0 mm 8,1 km/h (2 Bft) W-NW 297 ° 1 min 0,000 mm 7,8 UV-I 926 W/m² 15,3 °C 25,0 °C 12,9 km/h (3 Bft)
19.06.2017 13:05 25,0 °C 25,0 °C 56 % 1019,0 hPa 0,0 mm 1,7 km/h (1 Bft) NW 313 ° 1 min 0,000 mm 7,8 UV-I 926 W/m² 15,6 °C 25,0 °C 3,2 km/h (1 Bft)
19.06.2017 13:06 25,0 °C 25,0 °C 58 % 1019,0 hPa 0,0 mm 4,3 km/h (1 Bft) NW 308 ° 1 min 0,000 mm 7,8 UV-I 925 W/m² 16,1 °C 25,0 °C 6,4 km/h (2 Bft)
19.06.2017 13:07 25,1 °C 25,1 °C 59 % 1019,0 hPa 0,0 mm 7,0 km/h (2 Bft) W 279 ° 1 min 0,000 mm 7,9 UV-I 940 W/m² 16,5 °C 25,1 °C 12,9 km/h (3 Bft)
19.06.2017 13:08 25,3 °C 25,3 °C 58 % 1019,0 hPa 0,0 mm 9,0 km/h (2 Bft) W-NW 289 ° 1 min 0,000 mm 7,9 UV-I 940 W/m² 16,4 °C 25,3 °C 14,5 km/h (3 Bft)
19.06.2017 13:09 25,6 °C 25,6 °C 59 % 1019,0 hPa 0,0 mm 8,6 km/h (2 Bft) W-NW 285 ° 1 min 0,000 mm 7,9 UV-I 942 W/m² 17,0 °C 25,6 °C 16,1 km/h (3 Bft)
19.06.2017 13:10 25,7 °C 25,7 °C 63 % 1019,0 hPa 0,0 mm 10,0 km/h (2 Bft) W-NW 295 ° 1 min 0,000 mm 7,9 UV-I 944 W/m² 18,1 °C 25,7 °C 14,5 km/h (3 Bft)
19.06.2017 13:11 25,7 °C 25,8 °C 57 % 1019,0 hPa 0,0 mm 5,2 km/h (1 Bft) W-NW 301 ° 1 min 0,000 mm 8,0 UV-I 953 W/m² 16,5 °C 25,7 °C 12,9 km/h (3 Bft)
19.06.2017 13:12 25,7 °C 25,7 °C 57 % 1019,0 hPa 0,0 mm 6,4 km/h (2 Bft) N-NW 333 ° 1 min 0,000 mm 8,0 UV-I 956 W/m² 16,5 °C 25,7 °C 11,3 km/h (2 Bft)
19.06.2017 13:13 25,7 °C 25,7 °C 60 % 1019,0 hPa 0,0 mm 7,4 km/h (2 Bft) NW 319 ° 1 min 0,000 mm 7,9 UV-I 949 W/m² 17,3 °C 25,7 °C 12,9 km/h (3 Bft)
19.06.2017 13:14 25,8 °C 25,8 °C 57 % 1018,9 hPa 0,0 mm 5,3 km/h (1 Bft) NW 311 ° 1 min 0,000 mm 7,9 UV-I 942 W/m² 16,6 °C 25,8 °C 8,0 km/h (2 Bft)
19.06.2017 13:15 25,9 °C 25,9 °C 57 % 1019,0 hPa 0,0 mm 5,6 km/h (1 Bft) N-NW 327 ° 1 min 0,000 mm 7,8 UV-I 944 W/m² 16,7 °C 25,9 °C 8,0 km/h (2 Bft)
19.06.2017 13:16 25,9 °C 25,9 °C 59 % 1019,0 hPa 0,0 mm 2,7 km/h (1 Bft) N-NW 342 ° 1 min 0,000 mm 7,7 UV-I 932 W/m² 17,3 °C 25,9 °C 6,4 km/h (2 Bft)
19.06.2017 13:17 25,9 °C 25,9 °C 56 % 1018,9 hPa 0,0 mm 6,2 km/h (2 Bft) N-NW 340 ° 1 min 0,000 mm 7,8 UV-I 928 W/m² 16,4 °C 25,9 °C 12,9 km/h (3 Bft)
19.06.2017 13:18 25,9 °C 25,9 °C 59 % 1019,0 hPa 0,0 mm 5,6 km/h (1 Bft) N 355 ° 1 min 0,000 mm 7,8 UV-I 921 W/m² 17,3 °C 25,9 °C 9,7 km/h (2 Bft)
19.06.2017 13:19 25,9 °C 25,9 °C 58 % 1019,0 hPa 0,0 mm 7,4 km/h (2 Bft) NW 314 ° 1 min 0,000 mm 7,8 UV-I 923 W/m² 17,0 °C 25,9 °C 11,3 km/h (2 Bft)
19.06.2017 13:20 25,9 °C 25,9 °C 56 % 1019,0 hPa 0,0 mm 6,0 km/h (2 Bft) N-NW 340 ° 1 min 0,000 mm 7,8 UV-I 928 W/m² 16,4 °C 25,9 °C 8,0 km/h (2 Bft)
19.06.2017 13:21 25,9 °C 25,9 °C 57 % 1019,0 hPa 0,0 mm 8,1 km/h (2 Bft) NW 313 ° 1 min 0,000 mm 7,9 UV-I 933 W/m² 16,7 °C 25,9 °C 12,9 km/h (3 Bft)
19.06.2017 13:22 25,8 °C 25,9 °C 55 % 1018,9 hPa 0,0 mm 4,9 km/h (1 Bft) W-NW 290 ° 1 min 0,000 mm 7,9 UV-I 947 W/m² 16,1 °C 25,8 °C 6,4 km/h (2 Bft)
19.06.2017 13:23 25,6 °C 25,8 °C 54 % 1019,0 hPa 0,0 mm 2,5 km/h (1 Bft) W-NW 290 ° 1 min 0,000 mm 6,2 UV-I 970 W/m² 15,6 °C 25,6 °C 3,2 km/h (1 Bft)
19.06.2017 13:24 25,3 °C 25,6 °C 54 % 1018,9 hPa 0,0 mm 1,9 km/h (1 Bft) W-SW 248 ° 1 min 0,000 mm 7,1 UV-I 956 W/m² 15,3 °C 25,3 °C 4,8 km/h (1 Bft)
19.06.2017 13:25 25,2 °C 25,3 °C 57 % 1018,9 hPa 0,0 mm 4,3 km/h (1 Bft) W 279 ° 1 min 0,000 mm 7,8 UV-I 956 W/m² 16,1 °C 25,2 °C 9,7 km/h (2 Bft)
19.06.2017 13:26 25,2 °C 25,2 °C 58 % 1018,9 hPa 0,0 mm 4,8 km/h (1 Bft) W-NW 303 ° 1 min 0,000 mm 7,9 UV-I 940 W/m² 16,3 °C 25,2 °C 9,7 km/h (2 Bft)
19.06.2017 13:27 25,2 °C 25,3 °C 59 % 1018,9 hPa 0,0 mm 6,5 km/h (2 Bft) W-NW 285 ° 1 min 0,000 mm 7,7 UV-I 928 W/m² 16,6 °C 25,2 °C 11,3 km/h (2 Bft)
19.06.2017 13:28 25,3 °C 25,3 °C 60 % 1018,9 hPa 0,0 mm 8,7 km/h (2 Bft) W 262 ° 1 min 0,000 mm 7,7 UV-I 916 W/m² 17,0 °C 25,3 °C 17,7 km/h (3 Bft)
19.06.2017 13:29 25,3 °C 25,3 °C 56 % 1019,0 hPa 0,0 mm 7,8 km/h (2 Bft) W-SW 251 ° 1 min 0,000 mm 7,7 UV-I 916 W/m² 15,9 °C 25,3 °C 14,5 km/h (3 Bft)
19.06.2017 13:30 25,2 °C 25,3 °C 56 % 1018,9 hPa 0,0 mm 9,2 km/h (2 Bft) W-NW 292 ° 1 min 0,000 mm 7,7 UV-I 918 W/m² 15,8 °C 25,2 °C 12,9 km/h (3 Bft)
19.06.2017 13:31 25,2 °C 25,2 °C 57 % 1018,9 hPa 0,0 mm 5,9 km/h (2 Bft) W 267 ° 1 min 0,000 mm 7,8 UV-I 939 W/m² 16,1 °C 25,2 °C 11,3 km/h (2 Bft)
19.06.2017 13:32 25,2 °C 25,2 °C 56 % 1018,9 hPa 0,0 mm 6,5 km/h (2 Bft) W-NW 295 ° 1 min 0,000 mm 7,8 UV-I 942 W/m² 15,8 °C 25,2 °C 11,3 km/h (2 Bft)
19.06.2017 13:33 25,3 °C 25,3 °C 57 % 1018,9 hPa 0,0 mm 12,0 km/h (2 Bft) W-NW 284 ° 1 min 0,000 mm 7,8 UV-I 949 W/m² 16,2 °C 25,3 °C 17,7 km/h (3 Bft)
19.06.2017 13:34 25,3 °C 25,3 °C 57 % 1018,9 hPa 0,0 mm 5,7 km/h (1 Bft) NW 319 ° 1 min 0,000 mm 7,6 UV-I 933 W/m² 16,2 °C 25,3 °C 9,7 km/h (2 Bft)
19.06.2017 13:35 25,4 °C 25,4 °C 59 % 1018,9 hPa 0,0 mm 7,8 km/h (2 Bft) NW 323 ° 1 min 0,000 mm 7,8 UV-I 933 W/m² 16,8 °C 25,4 °C 11,3 km/h (2 Bft)
19.06.2017 13:36 25,6 °C 25,6 °C 57 % 1018,9 hPa 0,0 mm 3,5 km/h (1 Bft) N-NW 330 ° 1 min 0,000 mm 7,7 UV-I 919 W/m² 16,4 °C 25,6 °C 12,9 km/h (3 Bft)
19.06.2017 13:37 25,6 °C 25,6 °C 56 % 1018,9 hPa 0,0 mm 5,5 km/h (1 Bft) N-NW 348 ° 1 min 0,000 mm 7,6 UV-I 905 W/m² 16,2 °C 25,6 °C 12,9 km/h (3 Bft)
19.06.2017 13:38 25,7 °C 25,7 °C 57 % 1018,8 hPa 0,0 mm 6,0 km/h (2 Bft) N 349 ° 1 min 0,000 mm 7,6 UV-I 916 W/m² 16,5 °C 25,7 °C 8,0 km/h (2 Bft)
19.06.2017 13:39 25,8 °C 25,8 °C 58 % 1018,8 hPa 0,0 mm 4,8 km/h (1 Bft) N 355 ° 1 min 0,000 mm 7,7 UV-I 921 W/m² 16,9 °C 25,8 °C 9,7 km/h (2 Bft)
19.06.2017 13:40 25,9 °C 25,9 °C 56 % 1018,8 hPa 0,0 mm 10,5 km/h (2 Bft) NW 319 ° 1 min 0,000 mm 7,7 UV-I 918 W/m² 16,4 °C 25,9 °C 14,5 km/h (3 Bft)
19.06.2017 13:41 26,1 °C 26,1 °C 59 % 1018,8 hPa 0,0 mm 10,1 km/h (2 Bft) W 281 ° 1 min 0,000 mm 7,7 UV-I 921 W/m² 17,4 °C 26,1 °C 12,9 km/h (3 Bft)
19.06.2017 13:42 26,1 °C 26,1 °C 56 % 1018,8 hPa 0,0 mm 8,9 km/h (2 Bft) W 281 ° 1 min 0,000 mm 7,6 UV-I 916 W/m² 16,6 °C 26,1 °C 11,3 km/h (2 Bft)
19.06.2017 13:43 26,0 °C 26,1 °C 55 % 1018,8 hPa 0,0 mm 4,3 km/h (1 Bft) W 276 ° 1 min 0,000 mm 7,6 UV-I 912 W/m² 16,2 °C 26,0 °C 6,4 km/h (2 Bft)
19.06.2017 13:44 25,8 °C 26,0 °C 56 % 1018,8 hPa 0,0 mm 7,1 km/h (2 Bft) W 259 ° 1 min 0,000 mm 7,6 UV-I 916 W/m² 16,3 °C 25,8 °C 11,3 km/h (2 Bft)
19.06.2017 13:45 25,8 °C 25,8 °C 58 % 1018,8 hPa 0,0 mm 7,4 km/h (2 Bft) W 259 ° 1 min 0,000 mm 7,7 UV-I 923 W/m² 16,9 °C 25,8 °C 12,9 km/h (3 Bft)
19.06.2017 13:46 25,8 °C 25,8 °C 58 % 1018,8 hPa 0,0 mm 2,4 km/h (1 Bft) W 262 ° 1 min 0,000 mm 7,7 UV-I 926 W/m² 16,9 °C 25,8 °C 3,2 km/h (1 Bft)
19.06.2017 13:47 25,8 °C 25,8 °C 58 % 1018,7 hPa 0,0 mm 1,9 km/h (1 Bft) W 279 ° 1 min 0,000 mm 7,7 UV-I 930 W/m² 16,9 °C 25,8 °C 3,2 km/h (1 Bft)
19.06.2017 13:48 25,9 °C 25,9 °C 59 % 1018,7 hPa 0,0 mm 8,9 km/h (2 Bft) N 355 ° 1 min 0,000 mm 7,7 UV-I 932 W/m² 17,3 °C 25,9 °C 16,1 km/h (3 Bft)
19.06.2017 13:49 26,1 °C 26,1 °C 54 % 1018,7 hPa 0,0 mm 9,9 km/h (2 Bft) N 360 ° 1 min 0,000 mm 7,8 UV-I 958 W/m² 16,0 °C 26,1 °C 17,7 km/h (3 Bft)
19.06.2017 13:50 26,2 °C 26,2 °C 56 % 1018,7 hPa 0,0 mm 6,8 km/h (2 Bft) N-NW 329 ° 1 min 0,000 mm 8,0 UV-I 967 W/m² 16,7 °C 26,2 °C 12,9 km/h (3 Bft)
19.06.2017 13:51 26,2 °C 26,2 °C 57 % 1018,7 hPa 0,0 mm 6,0 km/h (2 Bft) W-NW 302 ° 1 min 0,000 mm 7,9 UV-I 972 W/m² 17,0 °C 26,2 °C 8,0 km/h (2 Bft)
19.06.2017 13:52 26,3 °C 26,3 °C 55 % 1018,6 hPa 0,0 mm 4,7 km/h (1 Bft) NW 311 ° 1 min 0,000 mm 8,0 UV-I 977 W/m² 16,5 °C 26,3 °C 11,3 km/h (2 Bft)
19.06.2017 13:54 26,3 °C 26,3 °C 58 % 1018,7 hPa 0,0 mm 5,1 km/h (1 Bft) N-NW 331 ° 2 min 0,000 mm 7,9 UV-I 977 W/m² 17,4 °C 26,3 °C 8,0 km/h (2 Bft)
19.06.2017 13:55 26,4 °C 26,4 °C 60 % 1018,7 hPa 0,0 mm 6,5 km/h (2 Bft) W-NW 301 ° 1 min 0,000 mm 7,9 UV-I 967 W/m² 18,0 °C 26,4 °C 11,3 km/h (2 Bft)
19.06.2017 13:56 26,3 °C 26,4 °C 53 % 1018,6 hPa 0,0 mm 3,3 km/h (1 Bft) NW 323 ° 1 min 0,000 mm 7,8 UV-I 949 W/m² 15,9 °C 26,3 °C 4,8 km/h (1 Bft)
19.06.2017 13:57 26,2 °C 26,3 °C 56 % 1018,6 hPa 0,0 mm 2,8 km/h (1 Bft) N 355 ° 1 min 0,000 mm 7,8 UV-I 946 W/m² 16,7 °C 26,2 °C 4,8 km/h (1 Bft)
19.06.2017 13:58 26,2 °C 26,3 °C 56 % 1018,5 hPa 0,0 mm 3,5 km/h (1 Bft) N 350 ° 1 min 0,000 mm 7,8 UV-I 944 W/m² 16,7 °C 26,2 °C 4,8 km/h (1 Bft)
19.06.2017 13:59 26,2 °C 26,2 °C 54 % 1018,6 hPa 0,0 mm 7,4 km/h (2 Bft) W-NW 283 ° 1 min 0,000 mm 7,7 UV-I 944 W/m² 16,1 °C 26,2 °C 12,9 km/h (3 Bft)
19.06.2017 14:00 26,2 °C 26,2 °C 56 % 1018,6 hPa 0,0 mm 7,8 km/h (2 Bft) W 281 ° 1 min 0,000 mm 7,7 UV-I 930 W/m² 16,7 °C 26,2 °C 12,9 km/h (3 Bft)
19.06.2017 14:01 26,1 °C 26,2 °C 54 % 1018,6 hPa 0,0 mm 6,1 km/h (2 Bft) W-NW 296 ° 1 min 0,635 mm 7,4 UV-I 946 W/m² 16,0 °C 26,1 °C 12,9 km/h (3 Bft)
19.06.2017 14:02 25,9 °C 26,1 °C 54 % 1018,6 hPa 0,0 mm 3,6 km/h (1 Bft) N-NW 334 ° 1 min 0,000 mm 7,7 UV-I 991 W/m² 15,9 °C 25,9 °C 4,8 km/h (1 Bft)
19.06.2017 14:03 25,9 °C 25,9 °C 55 % 1018,5 hPa 0,0 mm 1,3 km/h (1 Bft) W-NW 300 ° 1 min 0,000 mm 7,7 UV-I 991 W/m² 16,2 °C 25,9 °C 3,2 km/h (1 Bft)
19.06.2017 14:04 25,8 °C 25,9 °C 58 % 1018,6 hPa 0,0 mm 3,5 km/h (1 Bft) W 267 ° 1 min 0,000 mm 7,7 UV-I 991 W/m² 16,9 °C 25,8 °C 4,8 km/h (1 Bft)
19.06.2017 14:05 25,8 °C 25,8 °C 55 % 1018,5 hPa 0,0 mm 6,9 km/h (2 Bft) W-SW 240 ° 1 min 0,000 mm 7,8 UV-I 956 W/m² 16,1 °C 25,8 °C 14,5 km/h (3 Bft)
19.06.2017 14:06 25,8 °C 25,8 °C 57 % 1018,5 hPa 0,0 mm 3,0 km/h (1 Bft) S 184 ° 1 min 0,000 mm 7,8 UV-I 956 W/m² 16,6 °C 25,8 °C 6,4 km/h (2 Bft)
19.06.2017 14:07 25,7 °C 25,8 °C 55 % 1018,5 hPa 0,0 mm 0,3 km/h (0 Bft) S 182 ° 1 min 0,000 mm 7,6 UV-I 930 W/m² 16,0 °C 25,7 °C 3,2 km/h (1 Bft)
19.06.2017 14:08 25,7 °C 25,8 °C 56 % 1018,4 hPa 0,0 mm 4,5 km/h (1 Bft) W-SW 250 ° 1 min 0,000 mm 7,6 UV-I 935 W/m² 16,2 °C 25,7 °C 6,4 km/h (2 Bft)
19.06.2017 14:09 25,8 °C 25,8 °C 55 % 1018,4 hPa 0,0 mm 4,9 km/h (1 Bft) SW 235 ° 1 min 0,000 mm 7,6 UV-I 928 W/m² 16,1 °C 25,8 °C 9,7 km/h (2 Bft)
19.06.2017 14:10 25,9 °C 25,9 °C 59 % 1018,4 hPa 0,0 mm 4,8 km/h (1 Bft) W 281 ° 1 min 0,000 mm 7,7 UV-I 935 W/m² 17,3 °C 25,9 °C 8,0 km/h (2 Bft)
19.06.2017 14:11 26,1 °C 26,1 °C 58 % 1018,3 hPa 0,0 mm 5,4 km/h (1 Bft) NW 319 ° 1 min 0,000 mm 7,5 UV-I 933 W/m² 17,2 °C 26,1 °C 12,9 km/h (3 Bft)
19.06.2017 14:12 26,2 °C 26,2 °C 58 % 1018,3 hPa 0,0 mm 12,5 km/h (3 Bft) N-NW 343 ° 1 min 0,000 mm 7,6 UV-I 928 W/m² 17,3 °C 26,2 °C 19,3 km/h (3 Bft)
19.06.2017 14:13 26,2 °C 26,2 °C 58 % 1018,4 hPa 0,0 mm 9,0 km/h (2 Bft) N 5 ° 1 min 0,000 mm 7,4 UV-I 911 W/m² 17,3 °C 26,2 °C 16,1 km/h (3 Bft)
19.06.2017 14:14 26,3 °C 26,3 °C 57 % 1018,4 hPa 0,0 mm 9,6 km/h (2 Bft) NW 321 ° 1 min 0,000 mm 7,3 UV-I 896 W/m² 17,1 °C 26,3 °C 14,5 km/h (3 Bft)
19.06.2017 14:15 26,3 °C 26,3 °C 57 % 1018,4 hPa 0,0 mm 6,3 km/h (2 Bft) N-NW 347 ° 1 min 0,000 mm 7,4 UV-I 898 W/m² 17,1 °C 26,3 °C 12,9 km/h (3 Bft)
19.06.2017 14:16 26,2 °C 26,3 °C 56 % 1018,3 hPa 0,0 mm 4,8 km/h (1 Bft) N 11 ° 1 min 0,000 mm 7,5 UV-I 907 W/m² 16,7 °C 26,2 °C 6,4 km/h (2 Bft)
19.06.2017 14:17 26,2 °C 26,2 °C 59 % 1018,3 hPa 0,0 mm 2,7 km/h (1 Bft) N-NO 17 ° 1 min 0,000 mm 7,5 UV-I 912 W/m² 17,5 °C 26,2 °C 3,2 km/h (1 Bft)
19.06.2017 14:18 26,1 °C 26,2 °C 55 % 1018,4 hPa 0,0 mm 6,4 km/h (2 Bft) NW 312 ° 1 min 0,000 mm 7,5 UV-I 907 W/m² 16,3 °C 26,1 °C 8,0 km/h (2 Bft)
19.06.2017 14:19 26,2 °C 26,2 °C 57 % 1018,4 hPa 0,0 mm 3,4 km/h (1 Bft) NW 319 ° 1 min 0,000 mm 7,4 UV-I 896 W/m² 17,0 °C 26,2 °C 8,0 km/h (2 Bft)
19.06.2017 14:20 26,2 °C 26,2 °C 54 % 1018,4 hPa 0,0 mm 3,0 km/h (1 Bft) N 355 ° 1 min 0,000 mm 7,3 UV-I 898 W/m² 16,1 °C 26,2 °C 6,4 km/h (2 Bft)
19.06.2017 14:21 26,2 °C 26,2 °C 55 % 1018,4 hPa 0,0 mm 0,0 km/h (0 Bft) N 355 ° 1 min 0,000 mm 7,4 UV-I 900 W/m² 16,4 °C 26,2 °C 0,0 km/h (0 Bft)
19.06.2017 14:22 26,0 °C 26,2 °C 57 % 1018,3 hPa 0,0 mm 1,9 km/h (1 Bft) NO 48 ° 1 min 0,000 mm 7,3 UV-I 895 W/m² 16,8 °C 26,0 °C 3,2 km/h (1 Bft)
19.06.2017 14:23 25,9 °C 26,0 °C 59 % 1018,3 hPa 0,0 mm 0,9 km/h (0 Bft) N-NO 24 ° 1 min 0,000 mm 7,2 UV-I 893 W/m² 17,3 °C 25,9 °C 3,2 km/h (1 Bft)
19.06.2017 14:24 25,9 °C 25,9 °C 56 % 1018,3 hPa 0,0 mm 1,2 km/h (1 Bft) N 11 ° 1 min 0,000 mm 7,2 UV-I 900 W/m² 16,4 °C 25,9 °C 4,8 km/h (1 Bft)
19.06.2017 14:25 25,9 °C 25,9 °C 55 % 1018,3 hPa 0,0 mm 4,2 km/h (1 Bft) N-NO 24 ° 1 min 0,000 mm 7,2 UV-I 893 W/m² 16,2 °C 25,9 °C 6,4 km/h (2 Bft)
19.06.2017 14:26 25,8 °C 25,9 °C 52 % 1018,3 hPa 0,0 mm 1,6 km/h (1 Bft) N-NO 24 ° 1 min 0,000 mm 7,3 UV-I 893 W/m² 15,2 °C 25,8 °C 3,2 km/h (1 Bft)
19.06.2017 14:27 25,9 °C 25,9 °C 55 % 1018,3 hPa 0,0 mm 3,2 km/h (1 Bft) N-NO 29 ° 1 min 0,000 mm 7,3 UV-I 895 W/m² 16,2 °C 25,9 °C 4,8 km/h (1 Bft)
19.06.2017 14:28 25,9 °C 25,9 °C 53 % 1018,2 hPa 0,0 mm 5,9 km/h (2 Bft) N-NO 22 ° 1 min 0,000 mm 7,3 UV-I 893 W/m² 15,6 °C 25,9 °C 11,3 km/h (2 Bft)
19.06.2017 14:29 25,9 °C 25,9 °C 55 % 1018,2 hPa 0,0 mm 3,5 km/h (1 Bft) N-NW 346 ° 1 min 0,000 mm 7,3 UV-I 895 W/m² 16,2 °C 25,9 °C 6,4 km/h (2 Bft)
19.06.2017 14:30 26,1 °C 26,1 °C 56 % 1018,2 hPa 0,0 mm 5,9 km/h (2 Bft) N 355 ° 1 min 0,000 mm 7,3 UV-I 933 W/m² 16,6 °C 26,1 °C 9,7 km/h (2 Bft)
19.06.2017 14:31 26,2 °C 26,2 °C 57 % 1018,3 hPa 0,0 mm 6,4 km/h (2 Bft) N-NW 336 ° 1 min 0,000 mm 7,4 UV-I 930 W/m² 17,0 °C 26,2 °C 12,9 km/h (3 Bft)
19.06.2017 14:32 26,3 °C 26,3 °C 55 % 1018,3 hPa 0,0 mm 6,4 km/h (2 Bft) N-NO 13 ° 1 min 0,000 mm 7,2 UV-I 925 W/m² 16,5 °C 26,3 °C 9,7 km/h (2 Bft)
19.06.2017 14:33 26,3 °C 26,3 °C 56 % 1018,3 hPa 0,0 mm 5,7 km/h (1 Bft) N 5 ° 1 min 0,000 mm 7,1 UV-I 907 W/m² 16,8 °C 26,3 °C 9,7 km/h (2 Bft)
19.06.2017 14:34 26,4 °C 26,4 °C 54 % 1018,2 hPa 0,0 mm 3,6 km/h (1 Bft) N 355 ° 1 min 0,000 mm 7,2 UV-I 905 W/m² 16,3 °C 26,4 °C 6,4 km/h (2 Bft)
19.06.2017 14:35 26,5 °C 26,5 °C 55 % 1018,1 hPa 0,0 mm 3,7 km/h (1 Bft) N-NO 25 ° 1 min 0,000 mm 7,2 UV-I 905 W/m² 16,7 °C 26,5 °C 6,4 km/h (2 Bft)
19.06.2017 14:36 26,5 °C 26,5 °C 54 % 1018,1 hPa 0,0 mm 9,0 km/h (2 Bft) N-NW 339 ° 1 min 0,000 mm 7,2 UV-I 911 W/m² 16,4 °C 26,5 °C 12,9 km/h (3 Bft)
19.06.2017 14:37 26,6 °C 26,6 °C 56 % 1018,2 hPa 0,0 mm 7,1 km/h (2 Bft) N 355 ° 1 min 0,000 mm 7,3 UV-I 909 W/m² 17,1 °C 26,6 °C 12,9 km/h (3 Bft)
19.06.2017 14:38 26,5 °C 26,6 °C 54 % 1018,2 hPa 0,0 mm 6,4 km/h (2 Bft) N-NW 348 ° 1 min 0,000 mm 7,3 UV-I 911 W/m² 16,4 °C 26,5 °C 9,7 km/h (2 Bft)
19.06.2017 14:39 26,4 °C 26,5 °C 55 % 1018,2 hPa 0,0 mm 3,7 km/h (1 Bft) N-NW 333 ° 1 min 0,000 mm 7,2 UV-I 905 W/m² 16,6 °C 26,4 °C 6,4 km/h (2 Bft)
19.06.2017 14:40 26,4 °C 26,4 °C 54 % 1018,2 hPa 0,0 mm 2,9 km/h (1 Bft) N-NW 348 ° 1 min 0,000 mm 7,2 UV-I 900 W/m² 16,3 °C 26,4 °C 4,8 km/h (1 Bft)
19.06.2017 14:41 26,4 °C 26,4 °C 52 % 1018,1 hPa 0,0 mm 1,9 km/h (1 Bft) NW 321 ° 1 min 0,000 mm 7,1 UV-I 886 W/m² 15,7 °C 26,4 °C 6,4 km/h (2 Bft)
19.06.2017 14:42 26,4 °C 26,4 °C 55 % 1018,1 hPa 0,0 mm 6,2 km/h (2 Bft) NW 317 ° 1 min 0,000 mm 7,1 UV-I 884 W/m² 16,6 °C 26,4 °C 8,0 km/h (2 Bft)
19.06.2017 14:43 26,4 °C 26,4 °C 58 % 1018,1 hPa 0,0 mm 9,5 km/h (2 Bft) NW 306 ° 1 min 0,000 mm 7,1 UV-I 881 W/m² 17,5 °C 26,4 °C 14,5 km/h (3 Bft)
19.06.2017 14:44 26,5 °C 26,5 °C 54 % 1018,1 hPa 0,0 mm 9,8 km/h (2 Bft) NW 312 ° 1 min 0,000 mm 7,1 UV-I 874 W/m² 16,4 °C 26,5 °C 14,5 km/h (3 Bft)
19.06.2017 14:45 26,6 °C 26,6 °C 54 % 1018,1 hPa 0,0 mm 6,5 km/h (2 Bft) W 281 ° 1 min 0,000 mm 7,0 UV-I 870 W/m² 16,5 °C 26,6 °C 9,7 km/h (2 Bft)
19.06.2017 14:46 26,5 °C 26,6 °C 52 % 1018,1 hPa 0,0 mm 7,7 km/h (2 Bft) W-NW 286 ° 1 min 0,000 mm 7,0 UV-I 867 W/m² 15,8 °C 26,5 °C 11,3 km/h (2 Bft)
19.06.2017 14:47 26,4 °C 26,5 °C 50 % 1018,1 hPa 0,0 mm 4,9 km/h (1 Bft) W 280 ° 1 min 0,000 mm 6,9 UV-I 865 W/m² 15,1 °C 26,4 °C 9,7 km/h (2 Bft)
19.06.2017 14:48 26,3 °C 26,4 °C 50 % 1018,0 hPa 0,0 mm 1,1 km/h (1 Bft) W 280 ° 1 min 0,000 mm 7,0 UV-I 865 W/m² 15,0 °C 26,3 °C 3,2 km/h (1 Bft)
19.06.2017 14:49 26,2 °C 26,3 °C 52 % 1018,0 hPa 0,0 mm 2,6 km/h (1 Bft) N-NW 339 ° 1 min 0,000 mm 6,9 UV-I 861 W/m² 15,6 °C 26,2 °C 3,2 km/h (1 Bft)
19.06.2017 14:50 26,2 °C 26,2 °C 51 % 1018,0 hPa 0,0 mm 5,0 km/h (1 Bft) O 99 ° 1 min 0,000 mm 6,9 UV-I 858 W/m² 15,2 °C 26,2 °C 9,7 km/h (2 Bft)
19.06.2017 14:51 26,1 °C 26,2 °C 56 % 1018,0 hPa 0,0 mm 1,7 km/h (1 Bft) W-SW 257 ° 1 min 0,000 mm 6,9 UV-I 856 W/m² 16,6 °C 26,1 °C 4,8 km/h (1 Bft)
19.06.2017 14:52 26,2 °C 26,2 °C 54 % 1017,9 hPa 0,0 mm 8,0 km/h (2 Bft) NW 304 ° 1 min 0,000 mm 6,9 UV-I 861 W/m² 16,1 °C 26,2 °C 14,5 km/h (3 Bft)
19.06.2017 14:53 26,3 °C 26,3 °C 54 % 1017,9 hPa 0,0 mm 5,0 km/h (1 Bft) NW 311 ° 1 min 0,000 mm 6,9 UV-I 874 W/m² 16,2 °C 26,3 °C 12,9 km/h (3 Bft)
19.06.2017 14:54 26,4 °C 26,4 °C 55 % 1017,9 hPa 0,0 mm 7,0 km/h (2 Bft) N-NW 338 ° 1 min 0,000 mm 6,8 UV-I 863 W/m² 16,6 °C 26,4 °C 12,9 km/h (3 Bft)
19.06.2017 14:55 26,6 °C 26,6 °C 56 % 1017,9 hPa 0,0 mm 9,7 km/h (2 Bft) W-NW 296 ° 1 min 0,000 mm 6,8 UV-I 865 W/m² 17,1 °C 26,6 °C 16,1 km/h (3 Bft)
19.06.2017 14:56 26,6 °C 26,6 °C 55 % 1017,9 hPa 0,0 mm 6,8 km/h (2 Bft) NW 304 ° 1 min 0,000 mm 6,7 UV-I 863 W/m² 16,8 °C 26,6 °C 11,3 km/h (2 Bft)
19.06.2017 14:57 26,6 °C 26,6 °C 54 % 1017,9 hPa 0,0 mm 6,5 km/h (2 Bft) NW 323 ° 1 min 0,000 mm 6,7 UV-I 863 W/m² 16,5 °C 26,6 °C 9,7 km/h (2 Bft)
19.06.2017 14:58 26,5 °C 26,6 °C 54 % 1018,0 hPa 0,0 mm 7,4 km/h (2 Bft) W-NW 303 ° 1 min 0,000 mm 6,8 UV-I 865 W/m² 16,4 °C 26,5 °C 11,3 km/h (2 Bft)
19.06.2017 14:59 26,4 °C 26,5 °C 52 % 1017,9 hPa 0,0 mm 3,8 km/h (1 Bft) W-NW 285 ° 1 min 0,000 mm 6,9 UV-I 860 W/m² 15,7 °C 26,4 °C 6,4 km/h (2 Bft)
19.06.2017 15:00 26,3 °C 26,4 °C 52 % 1017,9 hPa 0,0 mm 6,1 km/h (2 Bft) W 267 ° 1 min 0,609 mm 6,7 UV-I 849 W/m² 15,6 °C 26,3 °C 9,7 km/h (2 Bft)
19.06.2017 15:01 26,2 °C 26,3 °C 54 % 1017,9 hPa 0,0 mm 5,2 km/h (1 Bft) NW 304 ° 1 min 0,000 mm 6,7 UV-I 847 W/m² 16,1 °C 26,2 °C 9,7 km/h (2 Bft)
19.06.2017 15:02 26,2 °C 26,2 °C 53 % 1017,9 hPa 0,0 mm 5,3 km/h (1 Bft) W 271 ° 1 min 0,000 mm 6,7 UV-I 844 W/m² 15,8 °C 26,2 °C 9,7 km/h (2 Bft)
19.06.2017 15:03 26,2 °C 26,2 °C 53 % 1017,9 hPa 0,0 mm 15,2 km/h (3 Bft) W-NW 288 ° 1 min 0,000 mm 6,7 UV-I 849 W/m² 15,8 °C 26,2 °C 20,9 km/h (4 Bft)
19.06.2017 15:04 26,3 °C 26,3 °C 54 % 1017,9 hPa 0,0 mm 9,8 km/h (2 Bft) W 280 ° 1 min 0,000 mm 6,7 UV-I 856 W/m² 16,2 °C 26,3 °C 16,1 km/h (3 Bft)
19.06.2017 15:05 26,3 °C 26,3 °C 54 % 1017,9 hPa 0,0 mm 7,9 km/h (2 Bft) W-NW 286 ° 1 min 0,000 mm 6,3 UV-I 874 W/m² 16,2 °C 26,3 °C 16,1 km/h (3 Bft)
19.06.2017 15:06 26,4 °C 26,4 °C 53 % 1017,9 hPa 0,0 mm 9,5 km/h (2 Bft) NW 306 ° 1 min 0,000 mm 6,7 UV-I 884 W/m² 16,0 °C 26,4 °C 14,5 km/h (3 Bft)
19.06.2017 15:07 26,5 °C 26,5 °C 53 % 1017,8 hPa 0,0 mm 11,3 km/h (2 Bft) W 271 ° 1 min 0,000 mm 6,6 UV-I 854 W/m² 16,1 °C 26,5 °C 14,5 km/h (3 Bft)
19.06.2017 15:08 26,4 °C 26,5 °C 54 % 1017,8 hPa 0,0 mm 11,7 km/h (2 Bft) W 262 ° 1 min 0,000 mm 6,6 UV-I 868 W/m² 16,3 °C 26,4 °C 16,1 km/h (3 Bft)
19.06.2017 15:09 26,4 °C 26,4 °C 57 % 1017,8 hPa 0,0 mm 6,9 km/h (2 Bft) W-NW 296 ° 1 min 0,000 mm 6,6 UV-I 875 W/m² 17,2 °C 26,4 °C 11,3 km/h (2 Bft)
19.06.2017 15:10 26,6 °C 26,6 °C 53 % 1017,8 hPa 0,0 mm 3,6 km/h (1 Bft) W-NW 282 ° 1 min 0,000 mm 6,7 UV-I 881 W/m² 16,2 °C 26,6 °C 6,4 km/h (2 Bft)
19.06.2017 15:11 26,5 °C 26,6 °C 51 % 1017,7 hPa 0,0 mm 2,8 km/h (1 Bft) W-NW 282 ° 1 min 0,000 mm 6,4 UV-I 689 W/m² 15,5 °C 26,5 °C 4,8 km/h (1 Bft)
19.06.2017 15:12 26,4 °C 26,5 °C 50 % 1017,7 hPa 0,0 mm 4,1 km/h (1 Bft) W-SW 254 ° 1 min 0,000 mm 6,5 UV-I 689 W/m² 15,1 °C 26,4 °C 11,3 km/h (2 Bft)
19.06.2017 15:13 26,3 °C 26,4 °C 55 % 1017,7 hPa 0,0 mm 8,4 km/h (2 Bft) W 281 ° 1 min 0,000 mm 6,6 UV-I 889 W/m² 16,5 °C 26,3 °C 11,3 km/h (2 Bft)
19.06.2017 15:14 26,3 °C 26,3 °C 56 % 1017,7 hPa 0,0 mm 10,1 km/h (2 Bft) NW 319 ° 1 min 0,000 mm 6,3 UV-I 893 W/m² 16,8 °C 26,3 °C 16,1 km/h (3 Bft)
19.06.2017 15:15 26,4 °C 26,4 °C 53 % 1017,7 hPa 0,0 mm 5,8 km/h (2 Bft) W 264 ° 1 min 0,000 mm 6,4 UV-I 837 W/m² 16,0 °C 26,4 °C 11,3 km/h (2 Bft)
19.06.2017 15:16 26,6 °C 26,6 °C 55 % 1017,8 hPa 0,0 mm 3,9 km/h (1 Bft) W-NW 283 ° 1 min 0,000 mm 6,4 UV-I 846 W/m² 16,8 °C 26,6 °C 6,4 km/h (2 Bft)
19.06.2017 15:17 26,7 °C 26,7 °C 53 % 1017,8 hPa 0,0 mm 5,1 km/h (1 Bft) W-SW 245 ° 1 min 0,000 mm 6,5 UV-I 842 W/m² 16,3 °C 26,7 °C 9,7 km/h (2 Bft)
19.06.2017 15:18 26,8 °C 26,8 °C 54 % 1017,7 hPa 0,0 mm 4,4 km/h (1 Bft) W-SW 239 ° 1 min 0,000 mm 6,5 UV-I 840 W/m² 16,7 °C 26,8 °C 8,0 km/h (2 Bft)
19.06.2017 15:19 26,7 °C 26,8 °C 50 % 1017,7 hPa 0,0 mm 2,1 km/h (1 Bft) W 267 ° 1 min 0,000 mm 6,5 UV-I 838 W/m² 15,4 °C 26,7 °C 4,8 km/h (1 Bft)
19.06.2017 15:20 26,7 °C 26,7 °C 51 % 1017,7 hPa 0,0 mm 7,5 km/h (2 Bft) W 279 ° 1 min 0,000 mm 6,4 UV-I 833 W/m² 15,7 °C 26,7 °C 11,3 km/h (2 Bft)
19.06.2017 15:21 26,7 °C 26,7 °C 51 % 1017,6 hPa 0,0 mm 8,5 km/h (2 Bft) W-NW 286 ° 1 min 0,000 mm 6,3 UV-I 830 W/m² 15,7 °C 26,7 °C 14,5 km/h (3 Bft)
19.06.2017 15:22 26,6 °C 26,7 °C 52 % 1017,6 hPa 0,0 mm 7,0 km/h (2 Bft) N-NW 333 ° 1 min 0,000 mm 6,3 UV-I 817 W/m² 15,9 °C 26,6 °C 11,3 km/h (2 Bft)
19.06.2017 15:23 26,6 °C 26,7 °C 52 % 1017,7 hPa 0,0 mm 5,4 km/h (1 Bft) N-NW 327 ° 1 min 0,000 mm 6,1 UV-I 863 W/m² 15,9 °C 26,6 °C 8,0 km/h (2 Bft)
19.06.2017 15:24 26,6 °C 26,7 °C 51 % 1017,7 hPa 0,0 mm 5,5 km/h (1 Bft) NW 311 ° 1 min 0,000 mm 4,6 UV-I 863 W/m² 15,6 °C 26,6 °C 8,0 km/h (2 Bft)
19.06.2017 15:25 26,6 °C 26,6 °C 51 % 1017,6 hPa 0,0 mm 5,0 km/h (1 Bft) NW 317 ° 1 min 0,000 mm 4,5 UV-I 721 W/m² 15,6 °C 26,6 °C 8,0 km/h (2 Bft)
19.06.2017 15:26 26,6 °C 26,6 °C 54 % 1017,7 hPa 0,0 mm 3,2 km/h (1 Bft) N-NW 332 ° 1 min 0,000 mm 3,3 UV-I 721 W/m² 16,5 °C 26,6 °C 9,7 km/h (2 Bft)
19.06.2017 15:27 26,4 °C 26,6 °C 51 % 1017,7 hPa 0,0 mm 2,3 km/h (1 Bft) N-NW 328 ° 0 min 0,000 mm 3,2 UV-I 223 W/m² 15,4 °C 26,4 °C 9,7 km/h (2 Bft)
19.06.2017 15:28 26,4 °C 26,4 °C 53 % 1017,6 hPa 0,0 mm 9,1 km/h (2 Bft) NW 306 ° 1 min 0,000 mm 5,5 UV-I 905 W/m² 16,0 °C 26,4 °C 16,1 km/h (3 Bft)
19.06.2017 15:29 26,4 °C 26,4 °C 52 % 1017,7 hPa 0,0 mm 7,0 km/h (2 Bft) W 273 ° 1 min 0,000 mm 3,5 UV-I 884 W/m² 15,7 °C 26,4 °C 11,3 km/h (2 Bft)
19.06.2017 15:30 26,4 °C 26,4 °C 53 % 1017,7 hPa 0,0 mm 8,0 km/h (2 Bft) W-NW 300 ° 1 min 0,000 mm 3,1 UV-I 884 W/m² 16,0 °C 26,4 °C 11,3 km/h (2 Bft)
19.06.2017 15:31 26,3 °C 26,4 °C 51 % 1017,7 hPa 0,0 mm 9,0 km/h (2 Bft) NW 309 ° 1 min 0,000 mm 5,8 UV-I 884 W/m² 15,3 °C 26,3 °C 12,9 km/h (3 Bft)
19.06.2017 15:32 26,2 °C 26,3 °C 51 % 1017,7 hPa 0,0 mm 5,0 km/h (1 Bft) NW 307 ° 1 min 0,000 mm 3,2 UV-I 884 W/m² 15,2 °C 26,2 °C 8,0 km/h (2 Bft)
19.06.2017 15:33 26,1 °C 26,2 °C 51 % 1017,7 hPa 0,0 mm 5,4 km/h (1 Bft) W-NW 297 ° 1 min 0,000 mm 5,8 UV-I 884 W/m² 15,2 °C 26,1 °C 11,3 km/h (2 Bft)
19.06.2017 15:34 26,1 °C 26,1 °C 52 % 1017,7 hPa 0,0 mm 5,6 km/h (1 Bft) N-NO 17 ° 1 min 0,000 mm 5,9 UV-I 805 W/m² 15,5 °C 26,1 °C 8,0 km/h (2 Bft)
19.06.2017 15:35 26,1 °C 26,1 °C 52 % 1017,7 hPa 0,0 mm 5,4 km/h (1 Bft) W-NW 292 ° 1 min 0,000 mm 5,9 UV-I 798 W/m² 15,5 °C 26,1 °C 9,7 km/h (2 Bft)
19.06.2017 15:36 26,3 °C 26,3 °C 53 % 1017,7 hPa 0,0 mm 6,7 km/h (2 Bft) W-NW 289 ° 1 min 0,000 mm 5,8 UV-I 788 W/m² 15,9 °C 26,3 °C 9,7 km/h (2 Bft)
19.06.2017 15:37 26,4 °C 26,4 °C 53 % 1017,7 hPa 0,0 mm 10,9 km/h (2 Bft) NW 304 ° 1 min 0,000 mm 5,9 UV-I 793 W/m² 16,0 °C 26,4 °C 16,1 km/h (3 Bft)
19.06.2017 15:38 26,4 °C 26,4 °C 51 % 1017,7 hPa 0,0 mm 9,8 km/h (2 Bft) N-NW 335 ° 1 min 0,000 mm 5,9 UV-I 788 W/m² 15,4 °C 26,4 °C 12,9 km/h (3 Bft)
19.06.2017 15:39 26,6 °C 26,6 °C 51 % 1017,7 hPa 0,0 mm 6,2 km/h (2 Bft) W-NW 300 ° 1 min 0,000 mm 5,9 UV-I 788 W/m² 15,6 °C 26,6 °C 8,0 km/h (2 Bft)
19.06.2017 15:40 26,6 °C 26,6 °C 51 % 1017,7 hPa 0,0 mm 5,7 km/h (1 Bft) W 277 ° 1 min 0,000 mm 5,8 UV-I 772 W/m² 15,6 °C 26,6 °C 12,9 km/h (3 Bft)
19.06.2017 15:41 26,7 °C 26,7 °C 50 % 1017,7 hPa 0,0 mm 8,2 km/h (2 Bft) W-NW 288 ° 1 min 0,000 mm 5,8 UV-I 779 W/m² 15,4 °C 26,7 °C 12,9 km/h (3 Bft)
19.06.2017 15:42 26,7 °C 26,7 °C 52 % 1017,7 hPa 0,0 mm 5,0 km/h (1 Bft) W-NW 287 ° 1 min 0,000 mm 5,8 UV-I 779 W/m² 16,0 °C 26,7 °C 8,0 km/h (2 Bft)
19.06.2017 15:43 26,8 °C 26,8 °C 50 % 1017,7 hPa 0,0 mm 4,7 km/h (1 Bft) NW 320 ° 1 min 0,000 mm 5,8 UV-I 784 W/m² 15,5 °C 26,8 °C 6,4 km/h (2 Bft)
19.06.2017 15:44 26,8 °C 26,8 °C 51 % 1017,6 hPa 0,0 mm 4,7 km/h (1 Bft) W 279 ° 1 min 0,000 mm 5,6 UV-I 777 W/m² 15,8 °C 26,8 °C 9,7 km/h (2 Bft)
19.06.2017 15:45 26,7 °C 26,8 °C 52 % 1017,6 hPa 0,0 mm 3,6 km/h (1 Bft) N-NW 328 ° 1 min 0,000 mm 5,7 UV-I 773 W/m² 16,0 °C 26,7 °C 6,4 km/h (2 Bft)
19.06.2017 15:46 26,8 °C 26,8 °C 55 % 1017,6 hPa 0,0 mm 7,4 km/h (2 Bft) NW 305 ° 1 min 0,000 mm 5,8 UV-I 772 W/m² 17,0 °C 26,8 °C 12,9 km/h (3 Bft)
19.06.2017 15:47 26,9 °C 26,9 °C 52 % 1017,6 hPa 0,0 mm 7,1 km/h (2 Bft) NW 323 ° 1 min 0,000 mm 5,7 UV-I 766 W/m² 16,2 °C 26,9 °C 11,3 km/h (2 Bft)
19.06.2017 15:48 26,9 °C 26,9 °C 54 % 1017,6 hPa 0,0 mm 6,7 km/h (2 Bft) W-NW 300 ° 1 min 0,000 mm 5,6 UV-I 766 W/m² 16,8 °C 26,9 °C 9,7 km/h (2 Bft)
19.06.2017 15:49 27,0 °C 27,0 °C 53 % 1017,6 hPa 0,0 mm 5,8 km/h (2 Bft) NW 318 ° 1 min 0,000 mm 5,6 UV-I 766 W/m² 16,6 °C 27,0 °C 8,0 km/h (2 Bft)
19.06.2017 15:50 27,0 °C 27,0 °C 52 % 1017,6 hPa 0,0 mm 9,2 km/h (2 Bft) W-NW 302 ° 1 min 0,000 mm 5,5 UV-I 758 W/m² 16,3 °C 27,0 °C 12,9 km/h (3 Bft)
19.06.2017 15:51 26,9 °C 27,0 °C 50 % 1017,7 hPa 0,0 mm 9,0 km/h (2 Bft) N-NW 342 ° 1 min 0,000 mm 5,6 UV-I 761 W/m² 15,6 °C 26,9 °C 12,9 km/h (3 Bft)
19.06.2017 15:52 26,9 °C 26,9 °C 50 % 1017,6 hPa 0,0 mm 8,2 km/h (2 Bft) N-NW 344 ° 1 min 0,000 mm 5,6 UV-I 754 W/m² 15,6 °C 26,9 °C 17,7 km/h (3 Bft)
19.06.2017 15:53 26,8 °C 26,9 °C 51 % 1017,7 hPa 0,0 mm 10,4 km/h (2 Bft) NW 322 ° 1 min 0,000 mm 5,5 UV-I 752 W/m² 15,8 °C 26,8 °C 19,3 km/h (3 Bft)
19.06.2017 15:54 26,7 °C 26,8 °C 53 % 1017,6 hPa 0,0 mm 12,0 km/h (2 Bft) W-NW 291 ° 1 min 0,000 mm 5,5 UV-I 751 W/m² 16,3 °C 26,7 °C 16,1 km/h (3 Bft)
19.06.2017 15:55 26,7 °C 26,7 °C 52 % 1017,6 hPa 0,0 mm 14,0 km/h (3 Bft) W-NW 302 ° 1 min 0,000 mm 5,5 UV-I 752 W/m² 16,0 °C 26,7 °C 16,1 km/h (3 Bft)
19.06.2017 15:56 26,6 °C 26,7 °C 52 % 1017,6 hPa 0,0 mm 14,1 km/h (3 Bft) W 259 ° 1 min 0,000 mm 5,5 UV-I 752 W/m² 15,9 °C 26,6 °C 17,7 km/h (3 Bft)
19.06.2017 15:57 26,7 °C 26,7 °C 51 % 1017,6 hPa 0,0 mm 5,2 km/h (1 Bft) NW 306 ° 1 min 0,000 mm 5,4 UV-I 751 W/m² 15,7 °C 26,7 °C 6,4 km/h (2 Bft)
19.06.2017 15:58 26,6 °C 26,7 °C 52 % 1017,6 hPa 0,0 mm 8,5 km/h (2 Bft) W 261 ° 1 min 0,000 mm 5,4 UV-I 752 W/m² 15,9 °C 26,6 °C 14,5 km/h (3 Bft)
19.06.2017 15:59 26,6 °C 26,6 °C 52 % 1017,6 hPa 0,0 mm 12,1 km/h (2 Bft) W-SW 255 ° 1 min 0,000 mm 5,4 UV-I 751 W/m² 15,9 °C 26,6 °C 16,1 km/h (3 Bft)
19.06.2017 16:00 26,6 °C 26,6 °C 54 % 1017,6 hPa 0,0 mm 11,5 km/h (2 Bft) W 275 ° 1 min 0,000 mm 5,4 UV-I 751 W/m² 16,5 °C 26,6 °C 17,7 km/h (3 Bft)
19.06.2017 16:01 26,6 °C 26,6 °C 55 % 1017,6 hPa 0,0 mm 14,2 km/h (3 Bft) NW 312 ° 1 min 0,534 mm 5,4 UV-I 751 W/m² 16,8 °C 26,6 °C 20,9 km/h (4 Bft)
19.06.2017 16:02 26,6 °C 26,6 °C 52 % 1017,5 hPa 0,0 mm 8,3 km/h (2 Bft) W-NW 284 ° 1 min 0,000 mm 5,4 UV-I 752 W/m² 15,9 °C 26,6 °C 11,3 km/h (2 Bft)
19.06.2017 16:03 26,6 °C 26,6 °C 51 % 1017,6 hPa 0,0 mm 7,1 km/h (2 Bft) W 267 ° 1 min 0,000 mm 5,3 UV-I 752 W/m² 15,6 °C 26,6 °C 11,3 km/h (2 Bft)
19.06.2017 16:04 26,7 °C 26,7 °C 54 % 1017,5 hPa 0,0 mm 8,7 km/h (2 Bft) W-SW 243 ° 1 min 0,000 mm 5,3 UV-I 754 W/m² 16,6 °C 26,7 °C 14,5 km/h (3 Bft)
19.06.2017 16:05 26,7 °C 26,7 °C 54 % 1017,6 hPa 0,0 mm 11,8 km/h (2 Bft) W 259 ° 1 min 0,000 mm 5,3 UV-I 759 W/m² 16,6 °C 26,7 °C 17,7 km/h (3 Bft)
19.06.2017 16:06 26,7 °C 26,7 °C 53 % 1017,5 hPa 0,0 mm 12,2 km/h (2 Bft) W 261 ° 1 min 0,000 mm 5,3 UV-I 749 W/m² 16,3 °C 26,7 °C 14,5 km/h (3 Bft)
19.06.2017 16:07 26,7 °C 26,7 °C 53 % 1017,6 hPa 0,0 mm 8,6 km/h (2 Bft) W 269 ° 1 min 0,000 mm 5,2 UV-I 754 W/m² 16,3 °C 26,7 °C 16,1 km/h (3 Bft)
19.06.2017 16:08 26,7 °C 26,7 °C 51 % 1017,6 hPa 0,0 mm 8,4 km/h (2 Bft) W 269 ° 1 min 0,000 mm 5,2 UV-I 763 W/m² 15,7 °C 26,7 °C 11,3 km/h (2 Bft)
19.06.2017 16:09 26,7 °C 26,7 °C 50 % 1017,5 hPa 0,0 mm 4,4 km/h (1 Bft) W-SW 258 ° 1 min 0,000 mm 5,2 UV-I 758 W/m² 15,4 °C 26,7 °C 6,4 km/h (2 Bft)
19.06.2017 16:10 26,7 °C 26,7 °C 53 % 1017,4 hPa 0,0 mm 4,2 km/h (1 Bft) NW 309 ° 1 min 0,000 mm 5,2 UV-I 719 W/m² 16,3 °C 26,7 °C 6,4 km/h (2 Bft)
19.06.2017 16:11 26,8 °C 26,8 °C 52 % 1017,4 hPa 0,0 mm 5,2 km/h (1 Bft) N-NW 340 ° 1 min 0,000 mm 4,8 UV-I 719 W/m² 16,1 °C 26,8 °C 8,0 km/h (2 Bft)
19.06.2017 16:12 26,8 °C 26,8 °C 52 % 1017,4 hPa 0,0 mm 6,2 km/h (2 Bft) NW 319 ° 1 min 0,000 mm 3,7 UV-I 719 W/m² 16,1 °C 26,8 °C 9,7 km/h (2 Bft)
19.06.2017 16:13 26,9 °C 26,9 °C 51 % 1017,4 hPa 0,0 mm 7,8 km/h (2 Bft) W-NW 294 ° 1 min 0,000 mm 3,3 UV-I 719 W/m² 15,9 °C 26,9 °C 12,9 km/h (3 Bft)
19.06.2017 16:14 26,9 °C 26,9 °C 51 % 1017,5 hPa 0,0 mm 12,6 km/h (3 Bft) W-NW 288 ° 0 min 0,000 mm 3,0 UV-I 128 W/m² 15,9 °C 26,9 °C 19,3 km/h (3 Bft)
19.06.2017 16:15 26,8 °C 26,9 °C 50 % 1017,4 hPa 0,0 mm 11,9 km/h (2 Bft) W 278 ° 0 min 0,000 mm 2,8 UV-I 95 W/m² 15,5 °C 26,8 °C 17,7 km/h (3 Bft)
19.06.2017 16:16 26,8 °C 26,8 °C 51 % 1017,5 hPa 0,0 mm 11,5 km/h (2 Bft) W-SW 240 ° 0 min 0,000 mm 2,6 UV-I 88 W/m² 15,8 °C 26,8 °C 17,7 km/h (3 Bft)
19.06.2017 16:17 26,8 °C 26,8 °C 51 % 1017,4 hPa 0,0 mm 7,2 km/h (2 Bft) W-SW 249 ° 0 min 0,000 mm 2,5 UV-I 76 W/m² 15,8 °C 26,8 °C 12,9 km/h (3 Bft)
19.06.2017 16:18 26,6 °C 26,8 °C 51 % 1017,4 hPa 0,0 mm 10,0 km/h (2 Bft) NW 315 ° 0 min 0,000 mm 2,5 UV-I 79 W/m² 15,6 °C 26,6 °C 16,1 km/h (3 Bft)
19.06.2017 16:19 26,4 °C 26,6 °C 49 % 1017,4 hPa 0,0 mm 8,4 km/h (2 Bft) W 277 ° 0 min 0,000 mm 2,5 UV-I 86 W/m² 14,8 °C 26,4 °C 12,9 km/h (3 Bft)
19.06.2017 16:20 26,3 °C 26,4 °C 50 % 1017,4 hPa 0,0 mm 4,5 km/h (1 Bft) W-NW 289 ° 0 min 0,000 mm 2,5 UV-I 98 W/m² 15,0 °C 26,3 °C 11,3 km/h (2 Bft)
19.06.2017 16:21 26,2 °C 26,3 °C 50 % 1017,4 hPa 0,0 mm 4,4 km/h (1 Bft) W-NW 300 ° 0 min 0,000 mm 2,5 UV-I 86 W/m² 14,9 °C 26,2 °C 6,4 km/h (2 Bft)
19.06.2017 16:22 26,1 °C 26,2 °C 50 % 1017,3 hPa 0,0 mm 3,8 km/h (1 Bft) NW 320 ° 0 min 0,000 mm 2,5 UV-I 86 W/m² 14,8 °C 26,1 °C 4,8 km/h (1 Bft)
19.06.2017 16:23 26,3 °C 26,3 °C 52 % 1017,3 hPa 0,0 mm 5,7 km/h (1 Bft) NW 310 ° 0 min 0,000 mm 2,5 UV-I 84 W/m² 15,6 °C 26,3 °C 8,0 km/h (2 Bft)
19.06.2017 16:24 26,4 °C 26,4 °C 51 % 1017,3 hPa 0,0 mm 7,0 km/h (2 Bft) W 268 ° 0 min 0,000 mm 2,5 UV-I 86 W/m² 15,4 °C 26,4 °C 11,3 km/h (2 Bft)
19.06.2017 16:25 26,5 °C 26,5 °C 54 % 1017,3 hPa 0,0 mm 7,2 km/h (2 Bft) N-NW 329 ° 0 min 0,000 mm 2,5 UV-I 88 W/m² 16,4 °C 26,5 °C 8,0 km/h (2 Bft)
19.06.2017 16:26 26,6 °C 26,6 °C 54 % 1017,3 hPa 0,0 mm 4,0 km/h (1 Bft) W 275 ° 0 min 0,000 mm 2,5 UV-I 88 W/m² 16,5 °C 26,6 °C 6,4 km/h (2 Bft)
19.06.2017 16:27 26,6 °C 26,6 °C 54 % 1017,3 hPa 0,0 mm 9,3 km/h (2 Bft) W-NW 288 ° 0 min 0,000 mm 2,5 UV-I 86 W/m² 16,5 °C 26,6 °C 16,1 km/h (3 Bft)
19.06.2017 16:28 26,6 °C 26,6 °C 52 % 1017,3 hPa 0,0 mm 9,5 km/h (2 Bft) W 268 ° 0 min 0,000 mm 2,4 UV-I 86 W/m² 15,9 °C 26,6 °C 11,3 km/h (2 Bft)
19.06.2017 16:29 26,6 °C 26,6 °C 53 % 1017,3 hPa 0,0 mm 7,7 km/h (2 Bft) NW 307 ° 0 min 0,000 mm 2,4 UV-I 84 W/m² 16,2 °C 26,6 °C 12,9 km/h (3 Bft)
19.06.2017 16:30 26,7 °C 26,7 °C 52 % 1017,3 hPa 0,0 mm 4,7 km/h (1 Bft) N-NW 328 ° 0 min 0,000 mm 2,4 UV-I 83 W/m² 16,0 °C 26,7 °C 12,9 km/h (3 Bft)
19.06.2017 16:31 26,6 °C 26,7 °C 53 % 1017,3 hPa 0,0 mm 9,1 km/h (2 Bft) N-NW 329 ° 0 min 0,000 mm 2,4 UV-I 98 W/m² 16,2 °C 26,6 °C 14,5 km/h (3 Bft)
19.06.2017 16:32 26,6 °C 26,6 °C 52 % 1017,3 hPa 0,0 mm 5,2 km/h (1 Bft) NW 309 ° 0 min 0,000 mm 2,4 UV-I 107 W/m² 15,9 °C 26,6 °C 11,3 km/h (2 Bft)
19.06.2017 16:33 26,7 °C 26,7 °C 52 % 1017,2 hPa 0,0 mm 5,6 km/h (1 Bft) NW 322 ° 0 min 0,000 mm 2,4 UV-I 93 W/m² 16,0 °C 26,7 °C 9,7 km/h (2 Bft)
19.06.2017 16:34 26,7 °C 26,7 °C 51 % 1017,2 hPa 0,0 mm 8,2 km/h (2 Bft) W-NW 292 ° 0 min 0,000 mm 2,4 UV-I 111 W/m² 15,7 °C 26,7 °C 9,7 km/h (2 Bft)
19.06.2017 16:35 26,7 °C 26,7 °C 52 % 1017,2 hPa 0,0 mm 5,0 km/h (1 Bft) N 350 ° 0 min 0,000 mm 2,4 UV-I 100 W/m² 16,0 °C 26,7 °C 8,0 km/h (2 Bft)
19.06.2017 16:36 26,8 °C 26,8 °C 52 % 1017,2 hPa 0,0 mm 9,8 km/h (2 Bft) NW 311 ° 0 min 0,000 mm 2,3 UV-I 81 W/m² 16,1 °C 26,8 °C 16,1 km/h (3 Bft)
19.06.2017 16:37 26,8 °C 26,8 °C 54 % 1017,2 hPa 0,0 mm 6,7 km/h (2 Bft) N-NW 329 ° 0 min 0,000 mm 2,4 UV-I 81 W/m² 16,7 °C 26,8 °C 12,9 km/h (3 Bft)
19.06.2017 16:38 26,7 °C 26,8 °C 53 % 1017,2 hPa 0,0 mm 3,6 km/h (1 Bft) NW 316 ° 0 min 0,000 mm 2,4 UV-I 109 W/m² 16,3 °C 26,7 °C 6,4 km/h (2 Bft)
19.06.2017 16:39 26,6 °C 26,7 °C 51 % 1017,1 hPa 0,0 mm 4,7 km/h (1 Bft) W 280 ° 0 min 0,000 mm 2,3 UV-I 102 W/m² 15,6 °C 26,6 °C 6,4 km/h (2 Bft)
19.06.2017 16:40 26,5 °C 26,6 °C 51 % 1017,2 hPa 0,0 mm 4,4 km/h (1 Bft) NW 317 ° 0 min 0,000 mm 2,3 UV-I 102 W/m² 15,5 °C 26,5 °C 8,0 km/h (2 Bft)
19.06.2017 16:41 26,4 °C 26,5 °C 52 % 1017,2 hPa 0,0 mm 5,6 km/h (1 Bft) W 277 ° 0 min 0,000 mm 2,3 UV-I 98 W/m² 15,7 °C 26,4 °C 11,3 km/h (2 Bft)
19.06.2017 16:42 26,3 °C 26,4 °C 52 % 1017,2 hPa 0,0 mm 5,5 km/h (1 Bft) W 264 ° 0 min 0,000 mm 2,3 UV-I 111 W/m² 15,6 °C 26,3 °C 8,0 km/h (2 Bft)
19.06.2017 16:43 26,2 °C 26,3 °C 53 % 1017,1 hPa 0,0 mm 7,0 km/h (2 Bft) W-NW 292 ° 0 min 0,000 mm 2,3 UV-I 130 W/m² 15,8 °C 26,2 °C 9,7 km/h (2 Bft)
19.06.2017 16:44 26,2 °C 26,2 °C 52 % 1017,1 hPa 0,0 mm 5,9 km/h (2 Bft) W-NW 298 ° 0 min 0,000 mm 2,4 UV-I 142 W/m² 15,6 °C 26,2 °C 11,3 km/h (2 Bft)
19.06.2017 16:45 26,2 °C 26,2 °C 53 % 1017,1 hPa 0,0 mm 6,9 km/h (2 Bft) NW 317 ° 0 min 0,000 mm 2,4 UV-I 137 W/m² 15,8 °C 26,2 °C 11,3 km/h (2 Bft)
19.06.2017 16:46 26,2 °C 26,2 °C 52 % 1017,1 hPa 0,0 mm 3,0 km/h (1 Bft) NW 309 ° 0 min 0,000 mm 2,4 UV-I 128 W/m² 15,6 °C 26,2 °C 6,4 km/h (2 Bft)
19.06.2017 16:47 26,3 °C 26,3 °C 53 % 1017,1 hPa 0,0 mm 2,4 km/h (1 Bft) NW 309 ° 0 min 0,000 mm 2,4 UV-I 123 W/m² 15,9 °C 26,3 °C 3,2 km/h (1 Bft)
19.06.2017 16:48 26,3 °C 26,3 °C 54 % 1017,1 hPa 0,0 mm 5,5 km/h (1 Bft) W 274 ° 0 min 0,000 mm 2,3 UV-I 118 W/m² 16,2 °C 26,3 °C 8,0 km/h (2 Bft)
19.06.2017 16:49 26,3 °C 26,3 °C 55 % 1017,1 hPa 0,0 mm 5,9 km/h (2 Bft) W-NW 292 ° 0 min 0,000 mm 2,3 UV-I 118 W/m² 16,5 °C 26,3 °C 9,7 km/h (2 Bft)
19.06.2017 16:50 26,4 °C 26,4 °C 52 % 1017,1 hPa 0,0 mm 5,3 km/h (1 Bft) W-NW 290 ° 0 min 0,000 mm 2,3 UV-I 120 W/m² 15,7 °C 26,4 °C 6,4 km/h (2 Bft)
19.06.2017 16:51 26,3 °C 26,4 °C 53 % 1017,0 hPa 0,0 mm 7,1 km/h (2 Bft) W-NW 290 ° 0 min 0,000 mm 2,3 UV-I 120 W/m² 15,9 °C 26,3 °C 12,9 km/h (3 Bft)
19.06.2017 16:52 26,4 °C 26,4 °C 53 % 1017,1 hPa 0,0 mm 6,0 km/h (2 Bft) N-NW 348 ° 0 min 0,000 mm 2,3 UV-I 123 W/m² 16,0 °C 26,4 °C 11,3 km/h (2 Bft)
19.06.2017 16:53 26,4 °C 26,4 °C 51 % 1017,0 hPa 0,0 mm 10,3 km/h (2 Bft) N-NW 329 ° 0 min 0,000 mm 2,3 UV-I 118 W/m² 15,4 °C 26,4 °C 16,1 km/h (3 Bft)
19.06.2017 16:54 26,5 °C 26,5 °C 54 % 1017,0 hPa 0,0 mm 7,8 km/h (2 Bft) W-NW 288 ° 0 min 0,000 mm 2,3 UV-I 116 W/m² 16,4 °C 26,5 °C 16,1 km/h (3 Bft)
19.06.2017 16:55 26,6 °C 26,6 °C 51 % 1017,0 hPa 0,0 mm 9,9 km/h (2 Bft) NW 321 ° 0 min 0,000 mm 2,3 UV-I 113 W/m² 15,6 °C 26,6 °C 14,5 km/h (3 Bft)
19.06.2017 16:56 26,6 °C 26,6 °C 51 % 1017,0 hPa 0,0 mm 7,2 km/h (2 Bft) W-NW 297 ° 0 min 0,000 mm 2,2 UV-I 98 W/m² 15,6 °C 26,6 °C 12,9 km/h (3 Bft)
19.06.2017 16:57 26,6 °C 26,6 °C 52 % 1017,0 hPa 0,0 mm 5,6 km/h (1 Bft) W-NW 290 ° 0 min 0,000 mm 2,2 UV-I 93 W/m² 15,9 °C 26,6 °C 11,3 km/h (2 Bft)
19.06.2017 16:58 26,6 °C 26,6 °C 53 % 1017,0 hPa 0,0 mm 5,5 km/h (1 Bft) NW 315 ° 0 min 0,000 mm 2,2 UV-I 90 W/m² 16,2 °C 26,6 °C 8,0 km/h (2 Bft)
19.06.2017 16:59 26,6 °C 26,6 °C 53 % 1017,0 hPa 0,0 mm 9,4 km/h (2 Bft) W-NW 294 ° 0 min 0,000 mm 2,2 UV-I 90 W/m² 16,2 °C 26,6 °C 14,5 km/h (3 Bft)
19.06.2017 17:00 26,5 °C 26,6 °C 51 % 1017,0 hPa 0,0 mm 6,0 km/h (2 Bft) W-NW 283 ° 0 min 0,000 mm 2,2 UV-I 90 W/m² 15,5 °C 26,5 °C 9,7 km/h (2 Bft)
19.06.2017 17:01 26,4 °C 26,5 °C 51 % 1017,0 hPa 0,0 mm 4,8 km/h (1 Bft) N-NO 12 ° 0 min 0,203 mm 2,1 UV-I 86 W/m² 15,4 °C 26,4 °C 6,4 km/h (2 Bft)
19.06.2017 17:02 26,4 °C 26,4 °C 51 % 1016,9 hPa 0,0 mm 3,9 km/h (1 Bft) NW 322 ° 0 min 0,000 mm 2,1 UV-I 90 W/m² 15,4 °C 26,4 °C 8,0 km/h (2 Bft)
19.06.2017 17:03 26,4 °C 26,4 °C 53 % 1016,9 hPa 0,0 mm 7,8 km/h (2 Bft) N-NW 338 ° 0 min 0,000 mm 2,1 UV-I 84 W/m² 16,0 °C 26,4 °C 12,9 km/h (3 Bft)
19.06.2017 17:04 26,4 °C 26,4 °C 53 % 1016,9 hPa 0,0 mm 6,1 km/h (2 Bft) NW 316 ° 0 min 0,000 mm 2,1 UV-I 91 W/m² 16,0 °C 26,4 °C 8,0 km/h (2 Bft)
19.06.2017 17:05 26,6 °C 26,6 °C 54 % 1016,9 hPa 0,0 mm 6,6 km/h (2 Bft) NW 304 ° 0 min 0,000 mm 2,1 UV-I 95 W/m² 16,5 °C 26,6 °C 11,3 km/h (2 Bft)
19.06.2017 17:06 26,6 °C 26,6 °C 51 % 1016,9 hPa 0,0 mm 2,7 km/h (1 Bft) NW 304 ° 0 min 0,000 mm 2,0 UV-I 88 W/m² 15,6 °C 26,6 °C 4,8 km/h (1 Bft)
19.06.2017 17:07 26,4 °C 26,6 °C 50 % 1016,9 hPa 0,0 mm 0,2 km/h (0 Bft) NW 304 ° 0 min 0,000 mm 1,9 UV-I 90 W/m² 15,1 °C 26,4 °C 1,6 km/h (1 Bft)
19.06.2017 17:08 26,3 °C 26,4 °C 49 % 1016,9 hPa 0,0 mm 2,1 km/h (1 Bft) N 360 ° 0 min 0,000 mm 2,0 UV-I 100 W/m² 14,7 °C 26,3 °C 4,8 km/h (1 Bft)
19.06.2017 17:09 26,2 °C 26,3 °C 51 % 1016,9 hPa 0,0 mm 2,4 km/h (1 Bft) N 360 ° 0 min 0,000 mm 1,9 UV-I 111 W/m² 15,2 °C 26,2 °C 4,8 km/h (1 Bft)
19.06.2017 17:10 26,1 °C 26,2 °C 51 % 1016,9 hPa 0,0 mm 3,0 km/h (1 Bft) N 360 ° 0 min 0,000 mm 1,9 UV-I 114 W/m² 15,2 °C 26,1 °C 4,8 km/h (1 Bft)
19.06.2017 17:11 26,0 °C 26,1 °C 56 % 1016,9 hPa 0,0 mm 2,0 km/h (1 Bft) N 360 ° 0 min 0,000 mm 1,9 UV-I 120 W/m² 16,5 °C 26,0 °C 3,2 km/h (1 Bft)
19.06.2017 17:12 25,9 °C 26,0 °C 53 % 1016,9 hPa 0,0 mm 0,2 km/h (0 Bft) N 360 ° 0 min 0,000 mm 2,0 UV-I 134 W/m² 15,6 °C 25,9 °C 1,6 km/h (1 Bft)
19.06.2017 17:13 25,8 °C 25,9 °C 58 % 1016,8 hPa 0,0 mm 0,8 km/h (0 Bft) N-NW 338 ° 0 min 0,000 mm 2,1 UV-I 153 W/m² 16,9 °C 25,8 °C 3,2 km/h (1 Bft)
19.06.2017 17:14 25,8 °C 25,8 °C 56 % 1016,8 hPa 0,0 mm 2,3 km/h (1 Bft) W-NW 288 ° 0 min 0,000 mm 2,1 UV-I 155 W/m² 16,3 °C 25,8 °C 3,2 km/h (1 Bft)
19.06.2017 17:15 25,8 °C 25,8 °C 55 % 1016,8 hPa 0,0 mm 0,2 km/h (0 Bft) W-NW 288 ° 0 min 0,000 mm 2,2 UV-I 149 W/m² 16,1 °C 25,8 °C 1,6 km/h (1 Bft)
19.06.2017 17:16 25,9 °C 25,9 °C 55 % 1016,8 hPa 0,0 mm 0,3 km/h (0 Bft) W-NW 287 ° 0 min 0,000 mm 2,1 UV-I 139 W/m² 16,2 °C 25,9 °C 1,6 km/h (1 Bft)
19.06.2017 17:17 26,0 °C 26,0 °C 57 % 1016,8 hPa 0,0 mm 3,5 km/h (1 Bft) W-SW 238 ° 0 min 0,000 mm 2,1 UV-I 130 W/m² 16,8 °C 26,0 °C 6,4 km/h (2 Bft)
19.06.2017 17:18 26,1 °C 26,1 °C 53 % 1016,8 hPa 0,0 mm 5,0 km/h (1 Bft) W 269 ° 0 min 0,000 mm 2,1 UV-I 120 W/m² 15,8 °C 26,1 °C 9,7 km/h (2 Bft)
19.06.2017 17:19 26,2 °C 26,2 °C 58 % 1016,8 hPa 0,0 mm 7,9 km/h (2 Bft) W-NW 284 ° 0 min 0,000 mm 2,0 UV-I 105 W/m² 17,3 °C 26,2 °C 14,5 km/h (3 Bft)
19.06.2017 17:20 26,3 °C 26,3 °C 52 % 1016,8 hPa 0,0 mm 6,4 km/h (2 Bft) W-NW 284 ° 0 min 0,000 mm 2,0 UV-I 105 W/m² 15,6 °C 26,3 °C 11,3 km/h (2 Bft)
19.06.2017 17:21 26,4 °C 26,4 °C 50 % 1016,8 hPa 0,0 mm 3,4 km/h (1 Bft) W 273 ° 0 min 0,000 mm 2,0 UV-I 111 W/m² 15,1 °C 26,4 °C 6,4 km/h (2 Bft)
19.06.2017 17:22 26,4 °C 26,4 °C 50 % 1016,9 hPa 0,0 mm 4,7 km/h (1 Bft) W-NW 292 ° 0 min 0,000 mm 2,0 UV-I 105 W/m² 15,1 °C 26,4 °C 6,4 km/h (2 Bft)
19.06.2017 17:23 26,4 °C 26,4 °C 53 % 1016,9 hPa 0,0 mm 7,2 km/h (2 Bft) NW 315 ° 0 min 0,000 mm 1,9 UV-I 111 W/m² 16,0 °C 26,4 °C 16,1 km/h (3 Bft)
19.06.2017 17:24 26,4 °C 26,4 °C 53 % 1016,8 hPa 0,0 mm 8,9 km/h (2 Bft) N-NW 339 ° 0 min 0,000 mm 1,9 UV-I 105 W/m² 16,0 °C 26,4 °C 16,1 km/h (3 Bft)
19.06.2017 17:25 26,4 °C 26,4 °C 53 % 1016,9 hPa 0,0 mm 11,1 km/h (2 Bft) W 271 ° 0 min 0,000 mm 1,9 UV-I 109 W/m² 16,0 °C 26,4 °C 14,5 km/h (3 Bft)
19.06.2017 17:26 26,3 °C 26,4 °C 52 % 1016,8 hPa 0,0 mm 5,0 km/h (1 Bft) N-NW 329 ° 0 min 0,000 mm 1,9 UV-I 111 W/m² 15,6 °C 26,3 °C 8,0 km/h (2 Bft)
19.06.2017 17:27 26,2 °C 26,3 °C 56 % 1016,9 hPa 0,0 mm 3,8 km/h (1 Bft) W-NW 283 ° 0 min 0,000 mm 1,9 UV-I 111 W/m² 16,7 °C 26,2 °C 6,4 km/h (2 Bft)
19.06.2017 17:28 26,1 °C 26,2 °C 53 % 1016,9 hPa 0,0 mm 4,9 km/h (1 Bft) S-SW 206 ° 0 min 0,000 mm 1,9 UV-I 116 W/m² 15,8 °C 26,1 °C 9,7 km/h (2 Bft)
19.06.2017 17:29 26,1 °C 26,1 °C 55 % 1016,9 hPa 0,0 mm 5,8 km/h (2 Bft) W-NW 297 ° 0 min 0,000 mm 1,8 UV-I 114 W/m² 16,3 °C 26,1 °C 12,9 km/h (3 Bft)
19.06.2017 17:30 26,0 °C 26,1 °C 56 % 1016,8 hPa 0,0 mm 4,9 km/h (1 Bft) N-NW 331 ° 0 min 0,000 mm 1,8 UV-I 118 W/m² 16,5 °C 26,0 °C 6,4 km/h (2 Bft)
19.06.2017 17:31 26,0 °C 26,1 °C 56 % 1016,9 hPa 0,0 mm 3,9 km/h (1 Bft) NW 309 ° 0 min 0,000 mm 1,8 UV-I 130 W/m² 16,5 °C 26,0 °C 8,0 km/h (2 Bft)
19.06.2017 17:32 26,1 °C 26,1 °C 54 % 1016,9 hPa 0,0 mm 5,1 km/h (1 Bft) W-NW 296 ° 0 min 0,000 mm 1,8 UV-I 137 W/m² 16,0 °C 26,1 °C 8,0 km/h (2 Bft)
19.06.2017 17:33 26,2 °C 26,2 °C 54 % 1016,8 hPa 0,0 mm 6,4 km/h (2 Bft) W-NW 303 ° 0 min 0,000 mm 1,9 UV-I 137 W/m² 16,1 °C 26,2 °C 9,7 km/h (2 Bft)
19.06.2017 17:34 26,3 °C 26,3 °C 51 % 1016,8 hPa 0,0 mm 2,1 km/h (1 Bft) N-NW 333 ° 0 min 0,000 mm 1,9 UV-I 149 W/m² 15,3 °C 26,3 °C 4,8 km/h (1 Bft)
19.06.2017 17:35 26,4 °C 26,4 °C 52 % 1016,8 hPa 0,0 mm 3,8 km/h (1 Bft) W-SW 252 ° 0 min 0,000 mm 2,0 UV-I 155 W/m² 15,7 °C 26,4 °C 6,4 km/h (2 Bft)
19.06.2017 17:36 26,4 °C 26,4 °C 52 % 1016,8 hPa 0,0 mm 8,0 km/h (2 Bft) NW 317 ° 0 min 0,000 mm 2,0 UV-I 153 W/m² 15,7 °C 26,4 °C 14,5 km/h (3 Bft)
19.06.2017 17:37 26,5 °C 26,5 °C 52 % 1016,8 hPa 0,0 mm 7,1 km/h (2 Bft) NW 304 ° 0 min 0,000 mm 2,0 UV-I 130 W/m² 15,8 °C 26,5 °C 9,7 km/h (2 Bft)
19.06.2017 17:38 26,5 °C 26,5 °C 51 % 1016,8 hPa 0,0 mm 5,8 km/h (2 Bft) W-NW 283 ° 0 min 0,000 mm 1,9 UV-I 118 W/m² 15,5 °C 26,5 °C 11,3 km/h (2 Bft)
19.06.2017 17:39 26,4 °C 26,5 °C 51 % 1016,8 hPa 0,0 mm 3,1 km/h (1 Bft) NW 317 ° 0 min 0,000 mm 1,9 UV-I 109 W/m² 15,4 °C 26,4 °C 6,4 km/h (2 Bft)
19.06.2017 17:40 26,4 °C 26,4 °C 53 % 1016,7 hPa 0,0 mm 3,3 km/h (1 Bft) NW 319 ° 0 min 0,000 mm 1,8 UV-I 102 W/m² 16,0 °C 26,4 °C 8,0 km/h (2 Bft)
19.06.2017 17:41 26,4 °C 26,4 °C 53 % 1016,7 hPa 0,0 mm 5,6 km/h (1 Bft) N-NW 327 ° 0 min 0,000 mm 1,8 UV-I 98 W/m² 16,0 °C 26,4 °C 12,9 km/h (3 Bft)
19.06.2017 17:42 26,6 °C 26,6 °C 54 % 1016,7 hPa 0,0 mm 9,3 km/h (2 Bft) W-NW 289 ° 0 min 0,000 mm 1,8 UV-I 91 W/m² 16,5 °C 26,6 °C 14,5 km/h (3 Bft)
19.06.2017 17:43 26,6 °C 26,6 °C 54 % 1016,8 hPa 0,0 mm 8,6 km/h (2 Bft) W-NW 292 ° 0 min 0,000 mm 1,8 UV-I 84 W/m² 16,5 °C 26,6 °C 12,9 km/h (3 Bft)
19.06.2017 17:44 26,6 °C 26,6 °C 52 % 1016,8 hPa 0,0 mm 12,1 km/h (2 Bft) W-NW 286 ° 0 min 0,000 mm 1,7 UV-I 84 W/m² 15,9 °C 26,6 °C 12,9 km/h (3 Bft)
19.06.2017 17:45 26,6 °C 26,6 °C 52 % 1016,8 hPa 0,0 mm 5,0 km/h (1 Bft) W-NW 299 ° 0 min 0,000 mm 1,7 UV-I 84 W/m² 15,9 °C 26,6 °C 8,0 km/h (2 Bft)
19.06.2017 17:46 26,6 °C 26,6 °C 51 % 1016,8 hPa 0,0 mm 2,7 km/h (1 Bft) W-NW 293 ° 0 min 0,000 mm 1,7 UV-I 83 W/m² 15,6 °C 26,6 °C 4,8 km/h (1 Bft)
19.06.2017 17:47 26,6 °C 26,6 °C 52 % 1016,7 hPa 0,0 mm 1,4 km/h (1 Bft) W 268 ° 0 min 0,000 mm 1,7 UV-I 84 W/m² 15,9 °C 26,6 °C 4,8 km/h (1 Bft)
19.06.2017 17:48 26,6 °C 26,6 °C 53 % 1016,7 hPa 0,0 mm 7,0 km/h (2 Bft) W-NW 291 ° 0 min 0,000 mm 1,7 UV-I 84 W/m² 16,2 °C 26,6 °C 11,3 km/h (2 Bft)
19.06.2017 17:49 26,6 °C 26,6 °C 53 % 1016,7 hPa 0,0 mm 7,3 km/h (2 Bft) NW 306 ° 0 min 0,000 mm 1,7 UV-I 95 W/m² 16,2 °C 26,6 °C 12,9 km/h (3 Bft)
19.06.2017 17:50 26,7 °C 26,7 °C 56 % 1016,7 hPa 0,0 mm 6,4 km/h (2 Bft) NW 315 ° 0 min 0,000 mm 1,7 UV-I 95 W/m² 17,2 °C 26,7 °C 11,3 km/h (2 Bft)
19.06.2017 17:51 26,8 °C 26,8 °C 55 % 1016,7 hPa 0,0 mm 8,7 km/h (2 Bft) W-NW 286 ° 0 min 0,000 mm 1,7 UV-I 95 W/m² 17,0 °C 26,8 °C 12,9 km/h (3 Bft)
19.06.2017 17:52 26,7 °C 26,8 °C 49 % 1016,7 hPa 0,0 mm 4,1 km/h (1 Bft) W-NW 302 ° 0 min 0,000 mm 1,7 UV-I 98 W/m² 15,1 °C 26,7 °C 6,4 km/h (2 Bft)
19.06.2017 17:53 26,7 °C 26,7 °C 51 % 1016,7 hPa 0,0 mm 3,9 km/h (1 Bft) NW 315 ° 0 min 0,000 mm 1,7 UV-I 98 W/m² 15,7 °C 26,7 °C 4,8 km/h (1 Bft)
19.06.2017 17:54 26,7 °C 26,7 °C 54 % 1016,6 hPa 0,0 mm 4,1 km/h (1 Bft) N-NW 344 ° 0 min 0,000 mm 1,7 UV-I 100 W/m² 16,6 °C 26,7 °C 6,4 km/h (2 Bft)
19.06.2017 17:55 26,7 °C 26,7 °C 52 % 1016,6 hPa 0,0 mm 4,8 km/h (1 Bft) N-NW 327 ° 0 min 0,000 mm 1,6 UV-I 100 W/m² 16,0 °C 26,7 °C 8,0 km/h (2 Bft)
19.06.2017 17:56 26,7 °C 26,8 °C 53 % 1016,6 hPa 0,0 mm 2,9 km/h (1 Bft) NW 304 ° 0 min 0,000 mm 1,6 UV-I 95 W/m² 16,3 °C 26,7 °C 6,4 km/h (2 Bft)
19.06.2017 17:57 26,7 °C 26,7 °C 51 % 1016,6 hPa 0,0 mm 3,4 km/h (1 Bft) W-NW 297 ° 0 min 0,000 mm 1,6 UV-I 93 W/m² 15,7 °C 26,7 °C 6,4 km/h (2 Bft)
19.06.2017 17:58 26,7 °C 26,8 °C 54 % 1016,7 hPa 0,0 mm 9,1 km/h (2 Bft) NW 325 ° 0 min 0,000 mm 1,6 UV-I 91 W/m² 16,6 °C 26,7 °C 14,5 km/h (3 Bft)
19.06.2017 17:59 26,8 °C 26,8 °C 52 % 1016,7 hPa 0,0 mm 6,4 km/h (2 Bft) N 11 ° 0 min 0,000 mm 1,6 UV-I 90 W/m² 16,1 °C 26,8 °C 8,0 km/h (2 Bft)
19.06.2017 18:00 26,8 °C 26,8 °C 53 % 1016,6 hPa 0,0 mm 5,8 km/h (2 Bft) W-NW 294 ° 0 min 0,000 mm 1,6 UV-I 88 W/m² 16,4 °C 26,8 °C 9,7 km/h (2 Bft)
19.06.2017 18:01 26,8 °C 26,8 °C 54 % 1016,6 hPa 0,0 mm 6,2 km/h (2 Bft) NW 325 ° 0 min 0,127 mm 1,6 UV-I 91 W/m² 16,7 °C 26,8 °C 9,7 km/h (2 Bft)
19.06.2017 18:02 26,8 °C 26,8 °C 53 % 1016,6 hPa 0,0 mm 5,9 km/h (2 Bft) W-NW 285 ° 0 min 0,000 mm 1,6 UV-I 95 W/m² 16,4 °C 26,8 °C 8,0 km/h (2 Bft)
19.06.2017 18:03 26,8 °C 26,8 °C 56 % 1016,7 hPa 0,0 mm 5,3 km/h (1 Bft) NW 321 ° 0 min 0,000 mm 1,6 UV-I 97 W/m² 17,3 °C 26,8 °C 6,4 km/h (2 Bft)
19.06.2017 18:04 26,9 °C 26,9 °C 55 % 1016,7 hPa 0,0 mm 5,1 km/h (1 Bft) NW 313 ° 0 min 0,000 mm 1,6 UV-I 93 W/m² 17,1 °C 26,9 °C 8,0 km/h (2 Bft)
19.06.2017 18:05 26,9 °C 26,9 °C 54 % 1016,7 hPa 0,0 mm 5,0 km/h (1 Bft) W-NW 291 ° 0 min 0,000 mm 1,6 UV-I 91 W/m² 16,8 °C 26,9 °C 8,0 km/h (2 Bft)
19.06.2017 18:06 26,9 °C 26,9 °C 53 % 1016,7 hPa 0,0 mm 6,4 km/h (2 Bft) N-NW 331 ° 0 min 0,000 mm 1,5 UV-I 84 W/m² 16,5 °C 26,9 °C 8,0 km/h (2 Bft)
19.06.2017 18:07 26,8 °C 26,9 °C 53 % 1016,7 hPa 0,0 mm 4,4 km/h (1 Bft) NW 306 ° 0 min 0,000 mm 1,5 UV-I 83 W/m² 16,4 °C 26,8 °C 8,0 km/h (2 Bft)
19.06.2017 18:08 26,8 °C 26,8 °C 53 % 1016,7 hPa 0,0 mm 5,6 km/h (1 Bft) W-NW 289 ° 0 min 0,000 mm 1,5 UV-I 86 W/m² 16,4 °C 26,8 °C 8,0 km/h (2 Bft)
19.06.2017 18:09 26,8 °C 26,8 °C 53 % 1016,7 hPa 0,0 mm 5,1 km/h (1 Bft) W-NW 294 ° 0 min 0,000 mm 1,5 UV-I 90 W/m² 16,4 °C 26,8 °C 6,4 km/h (2 Bft)
19.06.2017 18:10 26,7 °C 26,8 °C 52 % 1016,6 hPa 0,0 mm 3,0 km/h (1 Bft) N-NW 333 ° 0 min 0,000 mm 1,5 UV-I 86 W/m² 16,0 °C 26,7 °C 4,8 km/h (1 Bft)
19.06.2017 18:11 26,7 °C 26,7 °C 51 % 1016,6 hPa 0,0 mm 3,8 km/h (1 Bft) NW 312 ° 0 min 0,000 mm 1,5 UV-I 83 W/m² 15,7 °C 26,7 °C 6,4 km/h (2 Bft)
19.06.2017 18:12 26,7 °C 26,7 °C 53 % 1016,6 hPa 0,0 mm 3,9 km/h (1 Bft) N 355 ° 0 min 0,000 mm 1,5 UV-I 88 W/m² 16,3 °C 26,7 °C 6,4 km/h (2 Bft)
19.06.2017 18:13 26,7 °C 26,7 °C 54 % 1016,6 hPa 0,0 mm 4,0 km/h (1 Bft) NW 309 ° 0 min 0,000 mm 1,5 UV-I 86 W/m² 16,6 °C 26,7 °C 6,4 km/h (2 Bft)
19.06.2017 18:14 26,7 °C 26,7 °C 54 % 1016,6 hPa 0,0 mm 5,2 km/h (1 Bft) NW 315 ° 0 min 0,000 mm 1,4 UV-I 84 W/m² 16,6 °C 26,7 °C 6,4 km/h (2 Bft)
19.06.2017 18:15 26,7 °C 26,7 °C 53 % 1016,6 hPa 0,0 mm 5,1 km/h (1 Bft) N-NW 332 ° 0 min 0,000 mm 1,4 UV-I 83 W/m² 16,3 °C 26,7 °C 8,0 km/h (2 Bft)
19.06.2017 18:16 26,7 °C 26,7 °C 54 % 1016,6 hPa 0,0 mm 7,1 km/h (2 Bft) W-NW 285 ° 0 min 0,000 mm 1,4 UV-I 79 W/m² 16,6 °C 26,7 °C 12,9 km/h (3 Bft)
19.06.2017 18:17 26,7 °C 26,7 °C 52 % 1016,6 hPa 0,0 mm 5,9 km/h (2 Bft) N-NW 331 ° 0 min 0,000 mm 1,4 UV-I 76 W/m² 16,0 °C 26,7 °C 8,0 km/h (2 Bft)
19.06.2017 18:18 26,7 °C 26,7 °C 53 % 1016,6 hPa 0,0 mm 5,1 km/h (1 Bft) W-NW 299 ° 0 min 0,000 mm 1,4 UV-I 77 W/m² 16,3 °C 26,7 °C 9,7 km/h (2 Bft)
19.06.2017 18:19 26,7 °C 26,7 °C 51 % 1016,6 hPa 0,0 mm 4,2 km/h (1 Bft) W 271 ° 0 min 0,000 mm 1,4 UV-I 111 W/m² 15,7 °C 26,7 °C 8,0 km/h (2 Bft)
19.06.2017 18:20 26,7 °C 26,7 °C 54 % 1016,5 hPa 0,0 mm 6,3 km/h (2 Bft) W-NW 282 ° 0 min 0,000 mm 1,4 UV-I 83 W/m² 16,6 °C 26,7 °C 11,3 km/h (2 Bft)
19.06.2017 18:21 26,6 °C 26,7 °C 55 % 1016,5 hPa 0,0 mm 8,2 km/h (2 Bft) W-NW 302 ° 0 min 0,000 mm 1,4 UV-I 70 W/m² 16,8 °C 26,6 °C 14,5 km/h (3 Bft)
19.06.2017 18:22 26,6 °C 26,6 °C 53 % 1016,6 hPa 0,0 mm 7,5 km/h (2 Bft) W 274 ° 0 min 0,000 mm 1,3 UV-I 70 W/m² 16,2 °C 26,6 °C 11,3 km/h (2 Bft)
19.06.2017 18:23 26,6 °C 26,6 °C 52 % 1016,5 hPa 0,0 mm 9,5 km/h (2 Bft) W-NW 295 ° 0 min 0,000 mm 1,3 UV-I 70 W/m² 15,9 °C 26,6 °C 12,9 km/h (3 Bft)
19.06.2017 18:24 26,5 °C 26,6 °C 51 % 1016,6 hPa 0,0 mm 7,8 km/h (2 Bft) W 272 ° 0 min 0,000 mm 1,3 UV-I 70 W/m² 15,5 °C 26,5 °C 12,9 km/h (3 Bft)
19.06.2017 18:25 26,5 °C 26,5 °C 52 % 1016,6 hPa 0,0 mm 4,5 km/h (1 Bft) NW 311 ° 0 min 0,000 mm 1,3 UV-I 91 W/m² 15,8 °C 26,5 °C 9,7 km/h (2 Bft)
19.06.2017 18:26 26,5 °C 26,5 °C 53 % 1016,6 hPa 0,0 mm 7,2 km/h (2 Bft) N 351 ° 0 min 0,000 mm 1,4 UV-I 104 W/m² 16,1 °C 26,5 °C 12,9 km/h (3 Bft)
19.06.2017 18:27 26,5 °C 26,5 °C 52 % 1016,6 hPa 0,0 mm 6,4 km/h (2 Bft) N-NW 327 ° 0 min 0,000 mm 1,3 UV-I 121 W/m² 15,8 °C 26,5 °C 9,7 km/h (2 Bft)
19.06.2017 18:28 26,5 °C 26,5 °C 53 % 1016,5 hPa 0,0 mm 5,8 km/h (2 Bft) W 264 ° 0 min 0,000 mm 1,4 UV-I 155 W/m² 16,1 °C 26,5 °C 11,3 km/h (2 Bft)
19.06.2017 18:29 26,4 °C 26,5 °C 51 % 1016,6 hPa 0,0 mm 8,0 km/h (2 Bft) W-NW 303 ° 0 min 0,000 mm 1,3 UV-I 123 W/m² 15,4 °C 26,4 °C 11,3 km/h (2 Bft)
19.06.2017 18:30 26,4 °C 26,4 °C 51 % 1016,6 hPa 0,0 mm 7,4 km/h (2 Bft) W 267 ° 0 min 0,000 mm 1,3 UV-I 123 W/m² 15,4 °C 26,4 °C 12,9 km/h (3 Bft)
19.06.2017 18:31 26,4 °C 26,4 °C 52 % 1016,5 hPa 0,0 mm 6,0 km/h (2 Bft) W 274 ° 0 min 0,000 mm 1,3 UV-I 172 W/m² 15,7 °C 26,4 °C 9,7 km/h (2 Bft)
19.06.2017 18:32 26,4 °C 26,4 °C 52 % 1016,5 hPa 0,0 mm 4,5 km/h (1 Bft) W 265 ° 0 min 0,000 mm 1,5 UV-I 213 W/m² 15,7 °C 26,4 °C 9,7 km/h (2 Bft)
19.06.2017 18:33 26,4 °C 26,4 °C 53 % 1016,5 hPa 0,0 mm 5,2 km/h (1 Bft) W-NW 303 ° 0 min 0,000 mm 1,4 UV-I 206 W/m² 16,0 °C 26,4 °C 9,7 km/h (2 Bft)
19.06.2017 18:34 26,3 °C 26,4 °C 53 % 1016,5 hPa 0,0 mm 4,3 km/h (1 Bft) W-NW 298 ° 0 min 0,000 mm 1,4 UV-I 160 W/m² 15,9 °C 26,3 °C 6,4 km/h (2 Bft)
19.06.2017 18:35 26,3 °C 26,3 °C 54 % 1016,5 hPa 0,0 mm 3,6 km/h (1 Bft) NW 312 ° 0 min 0,000 mm 1,4 UV-I 107 W/m² 16,2 °C 26,3 °C 4,8 km/h (1 Bft)
19.06.2017 18:36 26,3 °C 26,3 °C 52 % 1016,5 hPa 0,0 mm 3,0 km/h (1 Bft) NW 315 ° 0 min 0,000 mm 1,4 UV-I 204 W/m² 15,6 °C 26,3 °C 4,8 km/h (1 Bft)
19.06.2017 18:37 26,3 °C 26,3 °C 54 % 1016,5 hPa 0,0 mm 1,9 km/h (1 Bft) W-NW 284 ° 0 min 0,000 mm 1,6 UV-I 204 W/m² 16,2 °C 26,3 °C 4,8 km/h (1 Bft)
19.06.2017 18:38 26,4 °C 26,4 °C 53 % 1016,5 hPa 0,0 mm 5,3 km/h (1 Bft) W-NW 294 ° 1 min 0,000 mm 1,6 UV-I 329 W/m² 16,0 °C 26,4 °C 8,0 km/h (2 Bft)
19.06.2017 18:39 26,4 °C 26,4 °C 50 % 1016,6 hPa 0,0 mm 3,9 km/h (1 Bft) W-NW 296 ° 1 min 0,000 mm 1,6 UV-I 327 W/m² 15,1 °C 26,4 °C 6,4 km/h (2 Bft)
19.06.2017 18:40 26,4 °C 26,4 °C 53 % 1016,5 hPa 0,0 mm 5,9 km/h (2 Bft) NW 304 ° 1 min 0,000 mm 1,5 UV-I 322 W/m² 16,0 °C 26,4 °C 8,0 km/h (2 Bft)
19.06.2017 18:41 26,4 °C 26,4 °C 53 % 1016,6 hPa 0,0 mm 4,9 km/h (1 Bft) N-NW 333 ° 1 min 0,000 mm 1,5 UV-I 320 W/m² 16,0 °C 26,4 °C 6,4 km/h (2 Bft)
19.06.2017 18:42 26,4 °C 26,4 °C 51 % 1016,5 hPa 0,0 mm 4,0 km/h (1 Bft) NW 319 ° 1 min 0,000 mm 1,5 UV-I 315 W/m² 15,4 °C 26,4 °C 8,0 km/h (2 Bft)
19.06.2017 18:43 26,4 °C 26,4 °C 51 % 1016,5 hPa 0,0 mm 3,6 km/h (1 Bft) N-NW 337 ° 1 min 0,000 mm 1,5 UV-I 311 W/m² 15,4 °C 26,4 °C 8,0 km/h (2 Bft)
19.06.2017 18:44 26,4 °C 26,4 °C 50 % 1016,5 hPa 0,0 mm 3,3 km/h (1 Bft) N-NW 336 ° 1 min 0,000 mm 1,4 UV-I 308 W/m² 15,1 °C 26,4 °C 4,8 km/h (1 Bft)
19.06.2017 18:45 26,4 °C 26,4 °C 52 % 1016,5 hPa 0,0 mm 1,3 km/h (1 Bft) N-NW 336 ° 1 min 0,000 mm 1,4 UV-I 304 W/m² 15,7 °C 26,4 °C 3,2 km/h (1 Bft)
19.06.2017 18:46 26,3 °C 26,4 °C 50 % 1016,4 hPa 0,0 mm 2,9 km/h (1 Bft) N-NW 336 ° 1 min 0,000 mm 1,4 UV-I 301 W/m² 15,0 °C 26,3 °C 4,8 km/h (1 Bft)
19.06.2017 18:47 26,3 °C 26,3 °C 51 % 1016,5 hPa 0,0 mm 0,6 km/h (0 Bft) N-NW 336 ° 1 min 0,000 mm 1,4 UV-I 295 W/m² 15,3 °C 26,3 °C 1,6 km/h (1 Bft)
19.06.2017 18:48 26,4 °C 26,4 °C 53 % 1016,4 hPa 0,0 mm 3,8 km/h (1 Bft) N-NW 345 ° 1 min 0,000 mm 1,4 UV-I 292 W/m² 16,0 °C 26,4 °C 4,8 km/h (1 Bft)
19.06.2017 18:49 26,4 °C 26,4 °C 53 % 1016,4 hPa 0,0 mm 3,0 km/h (1 Bft) N-NW 345 ° 0 min 0,000 mm 1,4 UV-I 288 W/m² 16,0 °C 26,4 °C 3,2 km/h (1 Bft)
19.06.2017 18:50 26,4 °C 26,4 °C 53 % 1016,4 hPa 0,0 mm 1,7 km/h (1 Bft) N-NW 343 ° 0 min 0,000 mm 1,3 UV-I 287 W/m² 16,0 °C 26,4 °C 3,2 km/h (1 Bft)
19.06.2017 18:51 26,4 °C 26,4 °C 51 % 1016,4 hPa 0,0 mm 4,8 km/h (1 Bft) W-NW 283 ° 0 min 0,000 mm 1,3 UV-I 267 W/m² 15,4 °C 26,4 °C 8,0 km/h (2 Bft)
19.06.2017 18:52 26,4 °C 26,4 °C 51 % 1016,4 hPa 0,0 mm 6,4 km/h (2 Bft) NW 317 ° 0 min 0,000 mm 1,3 UV-I 278 W/m² 15,4 °C 26,4 °C 9,7 km/h (2 Bft)
19.06.2017 18:53 26,4 °C 26,4 °C 52 % 1016,4 hPa 0,0 mm 3,3 km/h (1 Bft) NW 313 ° 0 min 0,000 mm 1,3 UV-I 225 W/m² 15,7 °C 26,4 °C 6,4 km/h (2 Bft)
19.06.2017 18:54 26,4 °C 26,4 °C 53 % 1016,4 hPa 0,0 mm 1,5 km/h (1 Bft) W 276 ° 0 min 0,000 mm 1,3 UV-I 262 W/m² 16,0 °C 26,4 °C 4,8 km/h (1 Bft)
19.06.2017 18:55 26,4 °C 26,4 °C 54 % 1016,5 hPa 0,0 mm 4,1 km/h (1 Bft) W-NW 282 ° 0 min 0,000 mm 1,3 UV-I 269 W/m² 16,3 °C 26,4 °C 6,4 km/h (2 Bft)
19.06.2017 18:56 26,4 °C 26,4 °C 52 % 1016,5 hPa 0,0 mm 4,1 km/h (1 Bft) W 280 ° 0 min 0,000 mm 1,2 UV-I 265 W/m² 15,7 °C 26,4 °C 6,4 km/h (2 Bft)
19.06.2017 18:57 26,4 °C 26,4 °C 52 % 1016,4 hPa 0,0 mm 4,7 km/h (1 Bft) NW 310 ° 0 min 0,000 mm 1,2 UV-I 265 W/m² 15,7 °C 26,4 °C 6,4 km/h (2 Bft)
19.06.2017 18:58 26,3 °C 26,4 °C 55 % 1016,4 hPa 0,0 mm 3,4 km/h (1 Bft) W 259 ° 0 min 0,000 mm 1,2 UV-I 264 W/m² 16,5 °C 26,3 °C 4,8 km/h (1 Bft)
19.06.2017 18:59 26,3 °C 26,3 °C 54 % 1016,4 hPa 0,0 mm 4,2 km/h (1 Bft) W-NW 286 ° 0 min 0,000 mm 1,2 UV-I 258 W/m² 16,2 °C 26,3 °C 8,0 km/h (2 Bft)
19.06.2017 19:00 26,3 °C 26,3 °C 50 % 1016,5 hPa 0,0 mm 7,6 km/h (2 Bft) W 271 ° 0 min 0,000 mm 1,2 UV-I 257 W/m² 15,0 °C 26,3 °C 9,7 km/h (2 Bft)
19.06.2017 19:01 26,3 °C 26,3 °C 52 % 1016,5 hPa 0,0 mm 6,8 km/h (2 Bft) W-NW 300 ° 0 min 0,152 mm 1,2 UV-I 236 W/m² 15,6 °C 26,3 °C 11,3 km/h (2 Bft)
19.06.2017 19:02 26,3 °C 26,3 °C 54 % 1016,4 hPa 0,0 mm 5,8 km/h (2 Bft) W-NW 292 ° 0 min 0,000 mm 1,0 UV-I 151 W/m² 16,2 °C 26,3 °C 9,7 km/h (2 Bft)
19.06.2017 19:03 26,2 °C 26,3 °C 52 % 1016,5 hPa 0,0 mm 7,5 km/h (2 Bft) W 271 ° 0 min 0,000 mm 1,0 UV-I 60 W/m² 15,6 °C 26,2 °C 12,9 km/h (3 Bft)
19.06.2017 19:04 26,2 °C 26,2 °C 52 % 1016,4 hPa 0,0 mm 6,2 km/h (2 Bft) W 271 ° 0 min 0,000 mm 1,0 UV-I 83 W/m² 15,6 °C 26,2 °C 8,0 km/h (2 Bft)
19.06.2017 19:05 26,2 °C 26,2 °C 52 % 1016,4 hPa 0,0 mm 6,4 km/h (2 Bft) W 271 ° 0 min 0,000 mm 1,1 UV-I 216 W/m² 15,6 °C 26,2 °C 9,7 km/h (2 Bft)
19.06.2017 19:06 26,2 °C 26,2 °C 53 % 1016,4 hPa 0,0 mm 3,5 km/h (1 Bft) NW 305 ° 0 min 0,000 mm 1,1 UV-I 229 W/m² 15,8 °C 26,2 °C 9,7 km/h (2 Bft)
19.06.2017 19:07 26,2 °C 26,2 °C 54 % 1016,4 hPa 0,0 mm 1,2 km/h (1 Bft) NW 305 ° 0 min 0,000 mm 1,1 UV-I 225 W/m² 16,1 °C 26,2 °C 3,2 km/h (1 Bft)
19.06.2017 19:08 26,2 °C 26,2 °C 53 % 1016,4 hPa 0,0 mm 1,3 km/h (1 Bft) NW 305 ° 0 min 0,000 mm 1,1 UV-I 230 W/m² 15,8 °C 26,2 °C 3,2 km/h (1 Bft)
19.06.2017 19:09 26,2 °C 26,2 °C 53 % 1016,4 hPa 0,0 mm 0,7 km/h (0 Bft) NW 305 ° 0 min 0,000 mm 1,1 UV-I 239 W/m² 15,8 °C 26,2 °C 1,6 km/h (1 Bft)
19.06.2017 19:10 26,2 °C 26,2 °C 53 % 1016,5 hPa 0,0 mm 1,8 km/h (1 Bft) W-NW 298 ° 0 min 0,000 mm 1,1 UV-I 246 W/m² 15,8 °C 26,2 °C 3,2 km/h (1 Bft)
19.06.2017 19:11 26,2 °C 26,2 °C 51 % 1016,4 hPa 0,0 mm 0,4 km/h (0 Bft) W-NW 298 ° 0 min 0,000 mm 1,1 UV-I 239 W/m² 15,2 °C 26,2 °C 1,6 km/h (1 Bft)
19.06.2017 19:12 26,2 °C 26,2 °C 52 % 1016,4 hPa 0,0 mm 1,3 km/h (1 Bft) W-NW 298 ° 0 min 0,000 mm 1,0 UV-I 237 W/m² 15,6 °C 26,2 °C 3,2 km/h (1 Bft)
19.06.2017 19:13 26,2 °C 26,2 °C 54 % 1016,4 hPa 0,0 mm 1,7 km/h (1 Bft) W-NW 298 ° 0 min 0,000 mm 1,0 UV-I 236 W/m² 16,1 °C 26,2 °C 3,2 km/h (1 Bft)
19.06.2017 19:14 26,2 °C 26,2 °C 55 % 1016,3 hPa 0,0 mm 3,3 km/h (1 Bft) W-NW 298 ° 0 min 0,000 mm 1,0 UV-I 232 W/m² 16,4 °C 26,2 °C 4,8 km/h (1 Bft)
19.06.2017 19:15 26,2 °C 26,2 °C 56 % 1016,4 hPa 0,0 mm 2,5 km/h (1 Bft) W-NW 298 ° 0 min 0,000 mm 1,0 UV-I 229 W/m² 16,7 °C 26,2 °C 3,2 km/h (1 Bft)
19.06.2017 19:16 26,1 °C 26,2 °C 55 % 1016,4 hPa 0,0 mm 0,9 km/h (0 Bft) W-NW 298 ° 0 min 0,000 mm 1,0 UV-I 221 W/m² 16,3 °C 26,1 °C 3,2 km/h (1 Bft)
19.06.2017 19:17 26,1 °C 26,1 °C 53 % 1016,4 hPa 0,0 mm 5,1 km/h (1 Bft) W-NW 292 ° 0 min 0,000 mm 0,9 UV-I 220 W/m² 15,8 °C 26,1 °C 6,4 km/h (2 Bft)
19.06.2017 19:18 26,2 °C 26,2 °C 54 % 1016,3 hPa 0,0 mm 5,6 km/h (1 Bft) W-NW 292 ° 0 min 0,000 mm 0,9 UV-I 220 W/m² 16,1 °C 26,2 °C 9,7 km/h (2 Bft)
19.06.2017 19:19 26,1 °C 26,2 °C 55 % 1016,3 hPa 0,0 mm 7,0 km/h (2 Bft) W 277 ° 0 min 0,000 mm 0,9 UV-I 216 W/m² 16,3 °C 26,1 °C 11,3 km/h (2 Bft)
19.06.2017 19:20 26,2 °C 26,2 °C 50 % 1016,3 hPa 0,0 mm 5,5 km/h (1 Bft) W 273 ° 0 min 0,000 mm 0,9 UV-I 214 W/m² 14,9 °C 26,2 °C 11,3 km/h (2 Bft)
19.06.2017 19:21 26,2 °C 26,2 °C 52 % 1016,3 hPa 0,0 mm 5,3 km/h (1 Bft) W-NW 286 ° 0 min 0,000 mm 0,9 UV-I 214 W/m² 15,6 °C 26,2 °C 12,9 km/h (3 Bft)
19.06.2017 19:22 26,2 °C 26,2 °C 52 % 1016,3 hPa 0,0 mm 5,3 km/h (1 Bft) W-NW 300 ° 0 min 0,000 mm 0,9 UV-I 213 W/m² 15,6 °C 26,2 °C 8,0 km/h (2 Bft)
19.06.2017 19:23 26,2 °C 26,2 °C 52 % 1016,3 hPa 0,0 mm 2,7 km/h (1 Bft) W-NW 282 ° 0 min 0,000 mm 0,9 UV-I 209 W/m² 15,6 °C 26,2 °C 4,8 km/h (1 Bft)
19.06.2017 19:24 26,1 °C 26,2 °C 53 % 1016,3 hPa 0,0 mm 3,1 km/h (1 Bft) W-NW 284 ° 0 min 0,000 mm 0,9 UV-I 207 W/m² 15,8 °C 26,1 °C 4,8 km/h (1 Bft)
19.06.2017 19:25 26,1 °C 26,1 °C 53 % 1016,3 hPa 0,0 mm 2,8 km/h (1 Bft) W-SW 254 ° 0 min 0,000 mm 0,8 UV-I 206 W/m² 15,8 °C 26,1 °C 6,4 km/h (2 Bft)
19.06.2017 19:26 26,1 °C 26,1 °C 53 % 1016,4 hPa 0,0 mm 3,3 km/h (1 Bft) W-SW 252 ° 0 min 0,000 mm 0,8 UV-I 202 W/m² 15,8 °C 26,1 °C 6,4 km/h (2 Bft)
19.06.2017 19:27 26,0 °C 26,1 °C 53 % 1016,3 hPa 0,0 mm 1,1 km/h (1 Bft) W-SW 252 ° 0 min 0,000 mm 0,8 UV-I 200 W/m² 15,7 °C 26,0 °C 3,2 km/h (1 Bft)
19.06.2017 19:28 25,9 °C 26,0 °C 52 % 1016,3 hPa 0,0 mm 2,6 km/h (1 Bft) W 269 ° 0 min 0,000 mm 0,8 UV-I 193 W/m² 15,3 °C 25,9 °C 4,8 km/h (1 Bft)
19.06.2017 19:29 25,9 °C 26,0 °C 54 % 1016,3 hPa 0,0 mm 3,4 km/h (1 Bft) W-NW 300 ° 0 min 0,000 mm 0,8 UV-I 188 W/m² 15,9 °C 25,9 °C 4,8 km/h (1 Bft)
19.06.2017 19:30 25,9 °C 25,9 °C 53 % 1016,3 hPa 0,0 mm 3,0 km/h (1 Bft) W-NW 300 ° 0 min 0,000 mm 0,8 UV-I 186 W/m² 15,6 °C 25,9 °C 4,8 km/h (1 Bft)
19.06.2017 19:31 25,8 °C 25,9 °C 53 % 1016,3 hPa 0,0 mm 2,0 km/h (1 Bft) W-NW 300 ° 0 min 0,000 mm 0,8 UV-I 185 W/m² 15,5 °C 25,8 °C 3,2 km/h (1 Bft)
19.06.2017 19:32 25,8 °C 25,9 °C 55 % 1016,2 hPa 0,0 mm 4,9 km/h (1 Bft) NW 309 ° 0 min 0,000 mm 0,8 UV-I 185 W/m² 16,1 °C 25,8 °C 6,4 km/h (2 Bft)
19.06.2017 19:33 25,8 °C 25,8 °C 54 % 1016,2 hPa 0,0 mm 2,8 km/h (1 Bft) NW 309 ° 0 min 0,000 mm 0,7 UV-I 181 W/m² 15,8 °C 25,8 °C 4,8 km/h (1 Bft)
19.06.2017 19:34 25,7 °C 25,8 °C 55 % 1016,2 hPa 0,0 mm 1,1 km/h (1 Bft) NW 309 ° 0 min 0,000 mm 0,7 UV-I 178 W/m² 16,0 °C 25,7 °C 3,2 km/h (1 Bft)
19.06.2017 19:35 25,7 °C 25,7 °C 55 % 1016,2 hPa 0,0 mm 2,3 km/h (1 Bft) W 263 ° 0 min 0,000 mm 0,7 UV-I 178 W/m² 16,0 °C 25,7 °C 4,8 km/h (1 Bft)
19.06.2017 19:36 25,7 °C 25,7 °C 56 % 1016,2 hPa 0,0 mm 0,8 km/h (0 Bft) W 263 ° 0 min 0,000 mm 0,7 UV-I 176 W/m² 16,2 °C 25,7 °C 3,2 km/h (1 Bft)
19.06.2017 19:37 25,7 °C 25,7 °C 55 % 1016,2 hPa 0,0 mm 0,6 km/h (0 Bft) W-SW 249 ° 0 min 0,000 mm 0,7 UV-I 174 W/m² 16,0 °C 25,7 °C 4,8 km/h (1 Bft)
19.06.2017 19:38 25,6 °C 25,7 °C 56 % 1016,2 hPa 0,0 mm 4,7 km/h (1 Bft) W-SW 245 ° 0 min 0,000 mm 0,7 UV-I 171 W/m² 16,2 °C 25,6 °C 6,4 km/h (2 Bft)
19.06.2017 19:39 25,6 °C 25,6 °C 54 % 1016,2 hPa 0,0 mm 4,4 km/h (1 Bft) W 273 ° 0 min 0,000 mm 0,7 UV-I 167 W/m² 15,6 °C 25,6 °C 6,4 km/h (2 Bft)
19.06.2017 19:40 25,6 °C 25,6 °C 53 % 1016,2 hPa 0,0 mm 4,4 km/h (1 Bft) W-NW 302 ° 0 min 0,000 mm 0,7 UV-I 165 W/m² 15,3 °C 25,6 °C 6,4 km/h (2 Bft)
19.06.2017 19:41 25,7 °C 25,7 °C 54 % 1016,2 hPa 0,0 mm 2,8 km/h (1 Bft) W 259 ° 0 min 0,000 mm 0,7 UV-I 162 W/m² 15,7 °C 25,7 °C 4,8 km/h (1 Bft)
19.06.2017 19:42 25,6 °C 25,7 °C 54 % 1016,2 hPa 0,0 mm 5,9 km/h (2 Bft) W-SW 241 ° 0 min 0,000 mm 0,6 UV-I 158 W/m² 15,6 °C 25,6 °C 9,7 km/h (2 Bft)
19.06.2017 19:43 25,6 °C 25,6 °C 55 % 1016,2 hPa 0,0 mm 2,5 km/h (1 Bft) W-SW 242 ° 0 min 0,000 mm 0,6 UV-I 155 W/m² 15,9 °C 25,6 °C 3,2 km/h (1 Bft)
19.06.2017 19:44 25,6 °C 25,6 °C 54 % 1016,2 hPa 0,0 mm 0,9 km/h (0 Bft) W-SW 242 ° 0 min 0,000 mm 0,6 UV-I 151 W/m² 15,6 °C 25,6 °C 3,2 km/h (1 Bft)
19.06.2017 19:45 25,5 °C 25,6 °C 54 % 1016,2 hPa 0,0 mm 0,1 km/h (0 Bft) W-SW 242 ° 0 min 0,000 mm 0,6 UV-I 148 W/m² 15,5 °C 25,5 °C 1,6 km/h (1 Bft)
19.06.2017 19:46 25,5 °C 25,5 °C 53 % 1016,2 hPa 0,0 mm 2,6 km/h (1 Bft) W 268 ° 0 min 0,000 mm 0,6 UV-I 142 W/m² 15,2 °C 25,5 °C 4,8 km/h (1 Bft)
19.06.2017 19:47 25,5 °C 25,6 °C 55 % 1016,2 hPa 0,0 mm 2,1 km/h (1 Bft) W 268 ° 0 min 0,000 mm 0,6 UV-I 139 W/m² 15,8 °C 25,5 °C 3,2 km/h (1 Bft)
19.06.2017 19:48 25,5 °C 25,6 °C 54 % 1016,2 hPa 0,0 mm 1,1 km/h (1 Bft) W 268 ° 0 min 0,000 mm 0,6 UV-I 137 W/m² 15,5 °C 25,5 °C 3,2 km/h (1 Bft)
19.06.2017 19:49 25,5 °C 25,5 °C 53 % 1016,2 hPa 0,0 mm 0,0 km/h (0 Bft) W 268 ° 0 min 0,000 mm 0,6 UV-I 134 W/m² 15,2 °C 25,5 °C 0,0 km/h (0 Bft)
19.06.2017 19:50 25,5 °C 25,6 °C 54 % 1016,2 hPa 0,0 mm 0,8 km/h (0 Bft) W 268 ° 0 min 0,000 mm 0,5 UV-I 132 W/m² 15,5 °C 25,5 °C 1,6 km/h (1 Bft)
19.06.2017 19:51 25,5 °C 25,6 °C 54 % 1016,2 hPa 0,0 mm 2,5 km/h (1 Bft) W 268 ° 0 min 0,000 mm 0,5 UV-I 128 W/m² 15,5 °C 25,5 °C 3,2 km/h (1 Bft)
19.06.2017 19:52 25,5 °C 25,5 °C 54 % 1016,2 hPa 0,0 mm 1,7 km/h (1 Bft) W 268 ° 0 min 0,000 mm 0,5 UV-I 123 W/m² 15,5 °C 25,5 °C 3,2 km/h (1 Bft)
19.06.2017 19:53 25,4 °C 25,5 °C 55 % 1016,2 hPa 0,0 mm 0,8 km/h (0 Bft) W 268 ° 0 min 0,000 mm 0,5 UV-I 120 W/m² 15,7 °C 25,4 °C 1,6 km/h (1 Bft)
19.06.2017 19:54 25,4 °C 25,4 °C 54 % 1016,2 hPa 0,0 mm 0,0 km/h (0 Bft) W 268 ° 0 min 0,000 mm 0,5 UV-I 118 W/m² 15,4 °C 25,4 °C 0,0 km/h (0 Bft)
19.06.2017 19:55 25,3 °C 25,4 °C 54 % 1016,2 hPa 0,0 mm 0,0 km/h (0 Bft) W 268 ° 0 min 0,000 mm 0,5 UV-I 114 W/m² 15,3 °C 25,3 °C 0,0 km/h (0 Bft)
19.06.2017 19:56 25,3 °C 25,3 °C 54 % 1016,2 hPa 0,0 mm 0,0 km/h (0 Bft) W 268 ° 0 min 0,000 mm 0,5 UV-I 111 W/m² 15,3 °C 25,3 °C 0,0 km/h (0 Bft)
19.06.2017 19:57 25,3 °C 25,3 °C 55 % 1016,2 hPa 0,0 mm 0,2 km/h (0 Bft) W 268 ° 0 min 0,000 mm 0,5 UV-I 107 W/m² 15,6 °C 25,3 °C 1,6 km/h (1 Bft)
19.06.2017 19:58 25,3 °C 25,3 °C 56 % 1016,3 hPa 0,0 mm 1,8 km/h (1 Bft) W 268 ° 0 min 0,000 mm 0,5 UV-I 104 W/m² 15,9 °C 25,3 °C 3,2 km/h (1 Bft)
19.06.2017 19:59 25,2 °C 25,3 °C 55 % 1016,2 hPa 0,0 mm 0,3 km/h (0 Bft) W 268 ° 0 min 0,000 mm 0,5 UV-I 102 W/m² 15,5 °C 25,2 °C 1,6 km/h (1 Bft)
19.06.2017 20:00 25,2 °C 25,2 °C 55 % 1016,3 hPa 0,0 mm 0,5 km/h (0 Bft) W 268 ° 0 min 0,127 mm 0,0 UV-I 100 W/m² 15,5 °C 25,2 °C 1,6 km/h (1 Bft)
19.06.2017 20:01 25,1 °C 25,2 °C 58 % 1016,3 hPa 0,0 mm 1,2 km/h (1 Bft) W 268 ° 0 min 0,000 mm 0,0 UV-I 98 W/m² 16,2 °C 25,1 °C 3,2 km/h (1 Bft)
19.06.2017 20:02 25,1 °C 25,1 °C 55 % 1016,3 hPa 0,0 mm 1,1 km/h (1 Bft) W 268 ° 0 min 0,000 mm 0,0 UV-I 93 W/m² 15,4 °C 25,1 °C 3,2 km/h (1 Bft)
19.06.2017 20:04 24,9 °C 25,1 °C 57 % 1016,3 hPa 0,0 mm 0,3 km/h (0 Bft) W 268 ° 0 min 0,000 mm 0,0 UV-I 88 W/m² 15,8 °C 24,9 °C 3,2 km/h (1 Bft)
19.06.2017 20:05 24,9 °C 24,9 °C 57 % 1016,3 hPa 0,0 mm 1,6 km/h (1 Bft) W 268 ° 0 min 0,000 mm 0,0 UV-I 84 W/m² 15,8 °C 24,9 °C 1,6 km/h (1 Bft)
19.06.2017 20:06 24,9 °C 24,9 °C 56 % 1016,3 hPa 0,0 mm 1,6 km/h (1 Bft) W 268 ° 0 min 0,000 mm 0,0 UV-I 83 W/m² 15,5 °C 24,9 °C 3,2 km/h (1 Bft)
19.06.2017 20:07 24,8 °C 24,9 °C 56 % 1016,3 hPa 0,0 mm 0,3 km/h (0 Bft) W 268 ° 0 min 0,000 mm 0,0 UV-I 83 W/m² 15,4 °C 24,8 °C 1,6 km/h (1 Bft)
19.06.2017 20:08 24,8 °C 24,8 °C 56 % 1016,3 hPa 0,0 mm 1,3 km/h (1 Bft) W 268 ° 0 min 0,000 mm 0,0 UV-I 81 W/m² 15,4 °C 24,8 °C 4,8 km/h (1 Bft)
19.06.2017 20:09 24,8 °C 24,8 °C 56 % 1016,3 hPa 0,0 mm 2,6 km/h (1 Bft) W 268 ° 0 min 0,000 mm 0,0 UV-I 77 W/m² 15,4 °C 24,8 °C 4,8 km/h (1 Bft)
19.06.2017 20:10 24,9 °C 24,9 °C 56 % 1016,3 hPa 0,0 mm 1,3 km/h (1 Bft) W 268 ° 0 min 0,000 mm 0,0 UV-I 76 W/m² 15,5 °C 24,9 °C 3,2 km/h (1 Bft)
19.06.2017 20:11 24,8 °C 24,9 °C 57 % 1016,3 hPa 0,0 mm 1,1 km/h (1 Bft) W 268 ° 0 min 0,000 mm 0,0 UV-I 74 W/m² 15,7 °C 24,8 °C 3,2 km/h (1 Bft)
19.06.2017 20:12 24,7 °C 24,8 °C 56 % 1016,3 hPa 0,0 mm 3,7 km/h (1 Bft) W 268 ° 0 min 0,000 mm 0,0 UV-I 72 W/m² 15,3 °C 24,7 °C 4,8 km/h (1 Bft)
19.06.2017 20:13 24,6 °C 24,7 °C 57 % 1016,3 hPa 0,0 mm 2,0 km/h (1 Bft) W 268 ° 0 min 0,000 mm 0,0 UV-I 70 W/m² 15,5 °C 24,6 °C 3,2 km/h (1 Bft)
19.06.2017 20:14 24,6 °C 24,6 °C 57 % 1016,3 hPa 0,0 mm 1,1 km/h (1 Bft) W 268 ° 0 min 0,000 mm 0,0 UV-I 69 W/m² 15,5 °C 24,6 °C 1,6 km/h (1 Bft)
19.06.2017 20:15 24,6 °C 24,6 °C 58 % 1016,3 hPa 0,0 mm 1,1 km/h (1 Bft) W 268 ° 0 min 0,000 mm 0,0 UV-I 65 W/m² 15,8 °C 24,6 °C 1,6 km/h (1 Bft)
19.06.2017 20:16 24,5 °C 24,6 °C 58 % 1016,3 hPa 0,0 mm 0,7 km/h (0 Bft) W 268 ° 0 min 0,000 mm 0,0 UV-I 65 W/m² 15,7 °C 24,5 °C 1,6 km/h (1 Bft)
19.06.2017 20:17 24,5 °C 24,5 °C 58 % 1016,3 hPa 0,0 mm 0,0 km/h (0 Bft) W 268 ° 0 min 0,000 mm 0,0 UV-I 65 W/m² 15,7 °C 24,5 °C 0,0 km/h (0 Bft)
19.06.2017 20:18 24,4 °C 24,5 °C 58 % 1016,3 hPa 0,0 mm 0,0 km/h (0 Bft) W 268 ° 0 min 0,000 mm 0,0 UV-I 63 W/m² 15,6 °C 24,4 °C 0,0 km/h (0 Bft)
19.06.2017 20:19 24,4 °C 24,5 °C 57 % 1016,3 hPa 0,0 mm 0,0 km/h (0 Bft) W 268 ° 0 min 0,000 mm 0,0 UV-I 63 W/m² 15,3 °C 24,4 °C 0,0 km/h (0 Bft)
19.06.2017 20:20 24,5 °C 24,5 °C 57 % 1016,3 hPa 0,0 mm 0,0 km/h (0 Bft) W 268 ° 0 min 0,000 mm 0,0 UV-I 62 W/m² 15,4 °C 24,5 °C 0,0 km/h (0 Bft)
19.06.2017 20:21 24,5 °C 24,5 °C 57 % 1016,3 hPa 0,0 mm 0,0 km/h (0 Bft) W 268 ° 0 min 0,000 mm 0,0 UV-I 60 W/m² 15,4 °C 24,5 °C 0,0 km/h (0 Bft)
19.06.2017 20:22 24,4 °C 24,5 °C 57 % 1016,4 hPa 0,0 mm 0,0 km/h (0 Bft) W 268 ° 0 min 0,000 mm 0,0 UV-I 58 W/m² 15,3 °C 24,4 °C 0,0 km/h (0 Bft)
19.06.2017 20:23 24,4 °C 24,4 °C 58 % 1016,3 hPa 0,0 mm 0,0 km/h (0 Bft) W 268 ° 0 min 0,000 mm 0,0 UV-I 56 W/m² 15,6 °C 24,4 °C 0,0 km/h (0 Bft)
19.06.2017 20:24 24,4 °C 24,4 °C 57 % 1016,3 hPa 0,0 mm 0,0 km/h (0 Bft) W 268 ° 0 min 0,000 mm 0,0 UV-I 54 W/m² 15,3 °C 24,4 °C 0,0 km/h (0 Bft)
19.06.2017 20:25 24,4 °C 24,4 °C 57 % 1016,3 hPa 0,0 mm 0,0 km/h (0 Bft) W 268 ° 0 min 0,000 mm 0,0 UV-I 54 W/m² 15,3 °C 24,4 °C 0,0 km/h (0 Bft)
19.06.2017 20:26 24,4 °C 24,4 °C 57 % 1016,3 hPa 0,0 mm 0,3 km/h (0 Bft) W 268 ° 0 min 0,000 mm 0,0 UV-I 54 W/m² 15,3 °C 24,4 °C 1,6 km/h (1 Bft)
19.06.2017 20:27 24,4 °C 24,4 °C 57 % 1016,3 hPa 0,0 mm 0,7 km/h (0 Bft) W 268 ° 0 min 0,000 mm 0,0 UV-I 49 W/m² 15,3 °C 24,4 °C 1,6 km/h (1 Bft)
19.06.2017 20:28 24,4 °C 24,4 °C 57 % 1016,3 hPa 0,0 mm 0,6 km/h (0 Bft) W 268 ° 0 min 0,000 mm 0,0 UV-I 49 W/m² 15,3 °C 24,4 °C 1,6 km/h (1 Bft)
19.06.2017 20:29 24,4 °C 24,4 °C 57 % 1016,3 hPa 0,0 mm 0,0 km/h (0 Bft) W 268 ° 0 min 0,000 mm 0,0 UV-I 47 W/m² 15,3 °C 24,4 °C 0,0 km/h (0 Bft)
19.06.2017 20:30 24,3 °C 24,4 °C 57 % 1016,4 hPa 0,0 mm 0,0 km/h (0 Bft) W 268 ° 0 min 0,000 mm 0,0 UV-I 46 W/m² 15,2 °C 24,3 °C 0,0 km/h (0 Bft)
19.06.2017 20:31 24,3 °C 24,3 °C 57 % 1016,4 hPa 0,0 mm 0,0 km/h (0 Bft) W 268 ° 0 min 0,000 mm 0,0 UV-I 44 W/m² 15,2 °C 24,3 °C 0,0 km/h (0 Bft)
19.06.2017 20:32 24,2 °C 24,3 °C 58 % 1016,3 hPa 0,0 mm 0,0 km/h (0 Bft) W 268 ° 0 min 0,000 mm 0,0 UV-I 44 W/m² 15,4 °C 24,2 °C 0,0 km/h (0 Bft)
19.06.2017 20:33 24,2 °C 24,2 °C 58 % 1016,4 hPa 0,0 mm 0,0 km/h (0 Bft) W 268 ° 0 min 0,000 mm 0,0 UV-I 40 W/m² 15,4 °C 24,2 °C 0,0 km/h (0 Bft)
19.06.2017 20:34 24,1 °C 24,2 °C 59 % 1016,4 hPa 0,0 mm 0,0 km/h (0 Bft) W 268 ° 0 min 0,000 mm 0,0 UV-I 35 W/m² 15,6 °C 24,1 °C 0,0 km/h (0 Bft)
19.06.2017 20:35 24,0 °C 24,1 °C 60 % 1016,4 hPa 0,0 mm 0,0 km/h (0 Bft) W 268 ° 0 min 0,000 mm 0,0 UV-I 30 W/m² 15,7 °C 24,0 °C 0,0 km/h (0 Bft)
19.06.2017 20:36 23,9 °C 24,0 °C 60 % 1016,3 hPa 0,0 mm 0,0 km/h (0 Bft) W 268 ° 0 min 0,000 mm 0,0 UV-I 26 W/m² 15,7 °C 23,9 °C 0,0 km/h (0 Bft)
19.06.2017 20:37 23,9 °C 23,9 °C 60 % 1016,3 hPa 0,0 mm 0,0 km/h (0 Bft) W 268 ° 0 min 0,000 mm 0,0 UV-I 26 W/m² 15,7 °C 23,9 °C 0,0 km/h (0 Bft)
19.06.2017 20:38 23,8 °C 23,9 °C 60 % 1016,3 hPa 0,0 mm 0,0 km/h (0 Bft) W 268 ° 0 min 0,000 mm 0,0 UV-I 25 W/m² 15,6 °C 23,8 °C 0,0 km/h (0 Bft)
19.06.2017 20:39 23,8 °C 23,8 °C 60 % 1016,3 hPa 0,0 mm 0,0 km/h (0 Bft) W 268 ° 0 min 0,000 mm 0,0 UV-I 25 W/m² 15,6 °C 23,8 °C 0,0 km/h (0 Bft)
19.06.2017 20:40 23,7 °C 23,8 °C 62 % 1016,3 hPa 0,0 mm 0,0 km/h (0 Bft) W 268 ° 0 min 0,000 mm 0,0 UV-I 23 W/m² 16,0 °C 23,7 °C 0,0 km/h (0 Bft)
19.06.2017 20:41 23,6 °C 23,7 °C 62 % 1016,3 hPa 0,0 mm 0,0 km/h (0 Bft) W 268 ° 0 min 0,000 mm 0,0 UV-I 23 W/m² 15,9 °C 23,6 °C 0,0 km/h (0 Bft)
19.06.2017 20:42 23,3 °C 23,6 °C 64 % 1016,3 hPa 0,0 mm 0,0 km/h (0 Bft) W 268 ° 0 min 0,000 mm 0,0 UV-I 21 W/m² 16,1 °C 23,3 °C 0,0 km/h (0 Bft)
19.06.2017 20:43 23,2 °C 23,3 °C 64 % 1016,3 hPa 0,0 mm 0,0 km/h (0 Bft) W 268 ° 0 min 0,000 mm 0,0 UV-I 21 W/m² 16,0 °C 23,2 °C 0,0 km/h (0 Bft)
19.06.2017 20:44 23,0 °C 23,2 °C 65 % 1016,3 hPa 0,0 mm 0,0 km/h (0 Bft) W 268 ° 0 min 0,000 mm 0,0 UV-I 21 W/m² 16,1 °C 23,0 °C 0,0 km/h (0 Bft)
19.06.2017 20:45 22,7 °C 23,0 °C 66 % 1016,3 hPa 0,0 mm 0,0 km/h (0 Bft) W 268 ° 0 min 0,000 mm 0,0 UV-I 19 W/m² 16,0 °C 22,7 °C 0,0 km/h (0 Bft)
19.06.2017 20:46 22,6 °C 22,7 °C 67 % 1016,3 hPa 0,0 mm 0,0 km/h (0 Bft) W 268 ° 0 min 0,000 mm 0,0 UV-I 19 W/m² 16,2 °C 22,6 °C 0,0 km/h (0 Bft)
19.06.2017 20:47 22,4 °C 22,6 °C 67 % 1016,3 hPa 0,0 mm 0,0 km/h (0 Bft) W 268 ° 0 min 0,000 mm 0,0 UV-I 19 W/m² 16,0 °C 22,4 °C 0,0 km/h (0 Bft)
19.06.2017 20:48 22,3 °C 22,4 °C 67 % 1016,3 hPa 0,0 mm 0,1 km/h (0 Bft) W 268 ° 0 min 0,000 mm 0,0 UV-I 18 W/m² 15,9 °C 22,3 °C 1,6 km/h (1 Bft)
19.06.2017 20:49 22,1 °C 22,3 °C 68 % 1016,3 hPa 0,0 mm 1,0 km/h (0 Bft) W 268 ° 0 min 0,000 mm 0,0 UV-I 18 W/m² 15,9 °C 22,1 °C 1,6 km/h (1 Bft)
19.06.2017 20:50 22,0 °C 22,1 °C 68 % 1016,3 hPa 0,0 mm 1,3 km/h (1 Bft) W 268 ° 0 min 0,000 mm 0,0 UV-I 18 W/m² 15,8 °C 22,0 °C 3,2 km/h (1 Bft)
19.06.2017 20:51 21,9 °C 22,0 °C 68 % 1016,3 hPa 0,0 mm 0,7 km/h (0 Bft) W 268 ° 0 min 0,000 mm 0,0 UV-I 16 W/m² 15,7 °C 21,9 °C 1,6 km/h (1 Bft)
19.06.2017 20:52 21,9 °C 21,9 °C 69 % 1016,3 hPa 0,0 mm 0,1 km/h (0 Bft) W 268 ° 0 min 0,000 mm 0,0 UV-I 16 W/m² 15,9 °C 21,9 °C 1,6 km/h (1 Bft)
19.06.2017 20:53 21,8 °C 21,9 °C 69 % 1016,3 hPa 0,0 mm 1,4 km/h (1 Bft) W 268 ° 0 min 0,000 mm 0,0 UV-I 16 W/m² 15,9 °C 21,8 °C 3,2 km/h (1 Bft)
19.06.2017 20:54 21,8 °C 21,8 °C 69 % 1016,3 hPa 0,0 mm 1,5 km/h (1 Bft) W 268 ° 0 min 0,000 mm 0,0 UV-I 16 W/m² 15,9 °C 21,8 °C 3,2 km/h (1 Bft)
19.06.2017 20:55 21,8 °C 21,8 °C 69 % 1016,3 hPa 0,0 mm 0,8 km/h (0 Bft) W 268 ° 0 min 0,000 mm 0,0 UV-I 16 W/m² 15,9 °C 21,8 °C 1,6 km/h (1 Bft)
19.06.2017 20:56 21,7 °C 21,8 °C 69 % 1016,3 hPa 0,0 mm 1,9 km/h (1 Bft) W 268 ° 0 min 0,000 mm 0,0 UV-I 14 W/m² 15,8 °C 21,7 °C 3,2 km/h (1 Bft)
19.06.2017 20:57 21,6 °C 21,7 °C 69 % 1016,4 hPa 0,0 mm 1,5 km/h (1 Bft) W 268 ° 0 min 0,000 mm 0,0 UV-I 14 W/m² 15,7 °C 21,6 °C 3,2 km/h (1 Bft)
19.06.2017 20:58 21,6 °C 21,6 °C 69 % 1016,4 hPa 0,0 mm 2,2 km/h (1 Bft) W 268 ° 0 min 0,000 mm 0,0 UV-I 12 W/m² 15,7 °C 21,6 °C 3,2 km/h (1 Bft)
19.06.2017 20:59 21,5 °C 21,6 °C 69 % 1016,4 hPa 0,0 mm 1,5 km/h (1 Bft) W 268 ° 0 min 0,000 mm 0,0 UV-I 12 W/m² 15,6 °C 21,5 °C 1,6 km/h (1 Bft)
19.06.2017 21:00 21,4 °C 21,5 °C 69 % 1016,3 hPa 0,0 mm 0,8 km/h (0 Bft) W 268 ° 0 min 0,000 mm 0,0 UV-I 12 W/m² 15,5 °C 21,4 °C 3,2 km/h (1 Bft)
19.06.2017 21:01 21,4 °C 21,4 °C 69 % 1016,3 hPa 0,0 mm 1,2 km/h (1 Bft) W 268 ° 0 min 0,051 mm 0,0 UV-I 12 W/m² 15,5 °C 21,4 °C 1,6 km/h (1 Bft)
19.06.2017 21:02 21,4 °C 21,4 °C 69 % 1016,4 hPa 0,0 mm 1,8 km/h (1 Bft) W 268 ° 0 min 0,000 mm 0,0 UV-I 11 W/m² 15,5 °C 21,4 °C 3,2 km/h (1 Bft)
19.06.2017 21:03 21,3 °C 21,4 °C 69 % 1016,4 hPa 0,0 mm 0,3 km/h (0 Bft) W 268 ° 0 min 0,000 mm 0,0 UV-I 11 W/m² 15,4 °C 21,3 °C 3,2 km/h (1 Bft)
19.06.2017 21:04 21,3 °C 21,3 °C 70 % 1016,3 hPa 0,0 mm 1,9 km/h (1 Bft) W 268 ° 0 min 0,000 mm 0,0 UV-I 11 W/m² 15,6 °C 21,3 °C 3,2 km/h (1 Bft)
19.06.2017 21:05 21,2 °C 21,3 °C 70 % 1016,4 hPa 0,0 mm 0,7 km/h (0 Bft) W 268 ° 0 min 0,000 mm 0,0 UV-I 9 W/m² 15,5 °C 21,2 °C 1,6 km/h (1 Bft)
19.06.2017 21:06 21,2 °C 21,2 °C 70 % 1016,4 hPa 0,0 mm 0,8 km/h (0 Bft) W 268 ° 0 min 0,000 mm 0,0 UV-I 9 W/m² 15,5 °C 21,2 °C 1,6 km/h (1 Bft)
19.06.2017 21:07 21,1 °C 21,2 °C 70 % 1016,4 hPa 0,0 mm 1,4 km/h (1 Bft) W 268 ° 0 min 0,000 mm 0,0 UV-I 9 W/m² 15,4 °C 21,1 °C 3,2 km/h (1 Bft)
19.06.2017 21:08 21,0 °C 21,1 °C 71 % 1016,4 hPa 0,0 mm 0,0 km/h (0 Bft) W 268 ° 0 min 0,000 mm 0,0 UV-I 7 W/m² 15,5 °C 21,0 °C 0,0 km/h (0 Bft)
19.06.2017 21:09 20,9 °C 21,0 °C 71 % 1016,4 hPa 0,0 mm 0,5 km/h (0 Bft) W 268 ° 0 min 0,000 mm 0,0 UV-I 7 W/m² 15,4 °C 20,9 °C 3,2 km/h (1 Bft)
19.06.2017 21:10 20,8 °C 20,9 °C 72 % 1016,4 hPa 0,0 mm 1,1 km/h (1 Bft) W 268 ° 0 min 0,000 mm 0,0 UV-I 7 W/m² 15,6 °C 20,8 °C 3,2 km/h (1 Bft)
19.06.2017 21:11 20,7 °C 20,8 °C 71 % 1016,4 hPa 0,0 mm 0,7 km/h (0 Bft) W 268 ° 0 min 0,000 mm 0,0 UV-I 5 W/m² 15,2 °C 20,7 °C 1,6 km/h (1 Bft)
19.06.2017 21:12 20,6 °C 20,7 °C 72 % 1016,4 hPa 0,0 mm 1,2 km/h (1 Bft) W 268 ° 0 min 0,000 mm 0,0 UV-I 5 W/m² 15,4 °C 20,6 °C 1,6 km/h (1 Bft)
19.06.2017 21:13 20,5 °C 20,6 °C 72 % 1016,4 hPa 0,0 mm 0,2 km/h (0 Bft) W 268 ° 0 min 0,000 mm 0,0 UV-I 5 W/m² 15,3 °C 20,5 °C 1,6 km/h (1 Bft)
19.06.2017 21:14 20,4 °C 20,5 °C 73 % 1016,4 hPa 0,0 mm 0,0 km/h (0 Bft) W 268 ° 0 min 0,000 mm 0,0 UV-I 5 W/m² 15,4 °C 20,4 °C 0,0 km/h (0 Bft)
19.06.2017 21:15 20,3 °C 20,4 °C 73 % 1016,4 hPa 0,0 mm 0,0 km/h (0 Bft) W 268 ° 0 min 0,000 mm 0,0 UV-I 0 W/m² 15,3 °C 20,3 °C 0,0 km/h (0 Bft)
19.06.2017 21:16 20,2 °C 20,3 °C 73 % 1016,4 hPa 0,0 mm 0,0 km/h (0 Bft) W 268 ° 0 min 0,000 mm 0,0 UV-I 0 W/m² 15,2 °C 20,2 °C 0,0 km/h (0 Bft)
19.06.2017 21:17 20,2 °C 20,2 °C 74 % 1016,4 hPa 0,0 mm 0,0 km/h (0 Bft) W 268 ° 0 min 0,000 mm 0,0 UV-I 0 W/m² 15,4 °C 20,2 °C 0,0 km/h (0 Bft)
19.06.2017 21:18 20,1 °C 20,2 °C 73 % 1016,4 hPa 0,0 mm 0,0 km/h (0 Bft) W 268 ° 0 min 0,000 mm 0,0 UV-I 0 W/m² 15,1 °C 20,1 °C 0,0 km/h (0 Bft)
19.06.2017 21:19 20,1 °C 20,1 °C 74 % 1016,4 hPa 0,0 mm 0,0 km/h (0 Bft) W 268 ° 0 min 0,000 mm 0,0 UV-I 0 W/m² 15,3 °C 20,1 °C 0,0 km/h (0 Bft)
19.06.2017 21:20 20,0 °C 20,1 °C 74 % 1016,4 hPa 0,0 mm 0,0 km/h (0 Bft) W 268 ° 0 min 0,000 mm 0,0 UV-I 0 W/m² 15,2 °C 20,0 °C 0,0 km/h (0 Bft)
19.06.2017 21:21 20,0 °C 20,0 °C 74 % 1016,5 hPa 0,0 mm 0,0 km/h (0 Bft) W 268 ° 0 min 0,000 mm 0,0 UV-I 0 W/m² 15,2 °C 20,0 °C 0,0 km/h (0 Bft)
19.06.2017 21:22 20,1 °C 20,1 °C 74 % 1016,5 hPa 0,0 mm 0,0 km/h (0 Bft) W 268 ° 0 min 0,000 mm 0,0 UV-I 0 W/m² 15,3 °C 20,1 °C 0,0 km/h (0 Bft)
19.06.2017 21:23 20,1 °C 20,1 °C 73 % 1016,5 hPa 0,0 mm 0,4 km/h (0 Bft) W 268 ° 0 min 0,000 mm 0,0 UV-I 0 W/m² 15,1 °C 20,1 °C 1,6 km/h (1 Bft)
19.06.2017 21:24 20,0 °C 20,1 °C 74 % 1016,5 hPa 0,0 mm 1,1 km/h (1 Bft) W 268 ° 0 min 0,000 mm 0,0 UV-I 0 W/m² 15,2 °C 20,0 °C 3,2 km/h (1 Bft)
19.06.2017 21:25 20,1 °C 20,1 °C 73 % 1016,5 hPa 0,0 mm 0,0 km/h (0 Bft) W 268 ° 0 min 0,000 mm 0,0 UV-I 0 W/m² 15,1 °C 20,1 °C 0,0 km/h (0 Bft)
19.06.2017 21:26 20,1 °C 20,1 °C 73 % 1016,5 hPa 0,0 mm 0,0 km/h (0 Bft) W 268 ° 0 min 0,000 mm 0,0 UV-I 0 W/m² 15,1 °C 20,1 °C 0,0 km/h (0 Bft)
19.06.2017 21:27 20,1 °C 20,1 °C 73 % 1016,5 hPa 0,0 mm 0,0 km/h (0 Bft) W 268 ° 0 min 0,000 mm 0,0 UV-I 0 W/m² 15,1 °C 20,1 °C 0,0 km/h (0 Bft)
19.06.2017 21:28 20,1 °C 20,1 °C 74 % 1016,5 hPa 0,0 mm 0,0 km/h (0 Bft) W 268 ° 0 min 0,000 mm 0,0 UV-I 0 W/m² 15,3 °C 20,1 °C 0,0 km/h (0 Bft)
19.06.2017 21:29 19,9 °C 20,1 °C 74 % 1016,5 hPa 0,0 mm 0,0 km/h (0 Bft) W 268 ° 0 min 0,000 mm 0,0 UV-I 0 W/m² 15,1 °C 19,9 °C 0,0 km/h (0 Bft)
19.06.2017 21:30 19,9 °C 19,9 °C 73 % 1016,5 hPa 0,0 mm 0,0 km/h (0 Bft) W 268 ° 0 min 0,000 mm 0,0 UV-I 0 W/m² 14,9 °C 19,9 °C 0,0 km/h (0 Bft)
19.06.2017 21:31 19,9 °C 19,9 °C 73 % 1016,5 hPa 0,0 mm 0,0 km/h (0 Bft) W 268 ° 0 min 0,000 mm 0,0 UV-I 0 W/m² 14,9 °C 19,9 °C 0,0 km/h (0 Bft)
19.06.2017 21:32 20,0 °C 20,0 °C 73 % 1016,5 hPa 0,0 mm 0,0 km/h (0 Bft) W 268 ° 0 min 0,000 mm 0,0 UV-I 0 W/m² 15,0 °C 20,0 °C 0,0 km/h (0 Bft)
19.06.2017 21:33 20,1 °C 20,1 °C 73 % 1016,5 hPa 0,0 mm 0,1 km/h (0 Bft) W 268 ° 0 min 0,000 mm 0,0 UV-I 0 W/m² 15,1 °C 20,1 °C 1,6 km/h (1 Bft)
19.06.2017 21:34 20,0 °C 20,1 °C 73 % 1016,5 hPa 0,0 mm 0,9 km/h (0 Bft) W 268 ° 0 min 0,000 mm 0,0 UV-I 0 W/m² 15,0 °C 20,0 °C 3,2 km/h (1 Bft)
19.06.2017 21:35 20,1 °C 20,1 °C 72 % 1016,5 hPa 0,0 mm 0,0 km/h (0 Bft) W 268 ° 0 min 0,000 mm 0,0 UV-I 0 W/m² 14,9 °C 20,1 °C 0,0 km/h (0 Bft)
19.06.2017 21:36 20,1 °C 20,1 °C 72 % 1016,6 hPa 0,0 mm 1,7 km/h (1 Bft) W 268 ° 0 min 0,000 mm 0,0 UV-I 0 W/m² 14,9 °C 20,1 °C 3,2 km/h (1 Bft)
19.06.2017 21:37 20,0 °C 20,1 °C 73 % 1016,6 hPa 0,0 mm 0,0 km/h (0 Bft) W 268 ° 0 min 0,000 mm 0,0 UV-I 0 W/m² 15,0 °C 20,0 °C 0,0 km/h (0 Bft)
19.06.2017 21:38 20,0 °C 20,0 °C 72 % 1016,6 hPa 0,0 mm 0,2 km/h (0 Bft) W 268 ° 0 min 0,000 mm 0,0 UV-I 0 W/m² 14,8 °C 20,0 °C 1,6 km/h (1 Bft)
19.06.2017 21:39 19,9 °C 20,0 °C 73 % 1016,6 hPa 0,0 mm 0,4 km/h (0 Bft) W 268 ° 0 min 0,000 mm 0,0 UV-I 0 W/m² 14,9 °C 19,9 °C 1,6 km/h (1 Bft)
19.06.2017 21:40 19,8 °C 19,9 °C 73 % 1016,6 hPa 0,0 mm 0,0 km/h (0 Bft) W 268 ° 0 min 0,000 mm 0,0 UV-I 0 W/m² 14,8 °C 19,8 °C 0,0 km/h (0 Bft)
19.06.2017 21:41 19,8 °C 19,8 °C 73 % 1016,6 hPa 0,0 mm 0,0 km/h (0 Bft) W 268 ° 0 min 0,000 mm 0,0 UV-I 0 W/m² 14,8 °C 19,8 °C 0,0 km/h (0 Bft)
19.06.2017 21:42 19,7 °C 19,8 °C 73 % 1016,6 hPa 0,0 mm 0,0 km/h (0 Bft) W 268 ° 0 min 0,000 mm 0,0 UV-I 0 W/m² 14,7 °C 19,7 °C 0,0 km/h (0 Bft)
19.06.2017 21:43 19,7 °C 19,7 °C 74 % 1016,6 hPa 0,0 mm 0,9 km/h (0 Bft) W 268 ° 0 min 0,000 mm 0,0 UV-I 0 W/m² 14,9 °C 19,7 °C 3,2 km/h (1 Bft)
19.06.2017 21:44 19,6 °C 19,7 °C 74 % 1016,6 hPa 0,0 mm 0,1 km/h (0 Bft) W 268 ° 0 min 0,000 mm 0,0 UV-I 0 W/m² 14,8 °C 19,6 °C 1,6 km/h (1 Bft)
19.06.2017 21:45 19,6 °C 19,7 °C 73 % 1016,7 hPa 0,0 mm 0,0 km/h (0 Bft) W 268 ° 0 min 0,000 mm 0,0 UV-I 0 W/m² 14,6 °C 19,6 °C 0,0 km/h (0 Bft)
19.06.2017 21:46 19,6 °C 19,6 °C 74 % 1016,7 hPa 0,0 mm 1,0 km/h (0 Bft) S-SW 212 ° 0 min 0,000 mm 0,0 UV-I 0 W/m² 14,8 °C 19,6 °C 4,8 km/h (1 Bft)
19.06.2017 21:47 19,6 °C 19,6 °C 75 % 1016,7 hPa 0,0 mm 1,6 km/h (1 Bft) S-SW 212 ° 0 min 0,000 mm 0,0 UV-I 0 W/m² 15,0 °C 19,6 °C 3,2 km/h (1 Bft)
19.06.2017 21:48 19,5 °C 19,6 °C 75 % 1016,7 hPa 0,0 mm 1,7 km/h (1 Bft) S-SW 211 ° 0 min 0,000 mm 0,0 UV-I 0 W/m² 14,9 °C 19,5 °C 3,2 km/h (1 Bft)
19.06.2017 21:49 19,6 °C 19,6 °C 75 % 1016,7 hPa 0,0 mm 1,1 km/h (1 Bft) S-SW 211 ° 0 min 0,000 mm 0,0 UV-I 0 W/m² 15,0 °C 19,6 °C 3,2 km/h (1 Bft)
19.06.2017 21:50 19,6 °C 19,6 °C 74 % 1016,7 hPa 0,0 mm 1,1 km/h (1 Bft) S-SW 211 ° 0 min 0,000 mm 0,0 UV-I 0 W/m² 14,8 °C 19,6 °C 3,2 km/h (1 Bft)
19.06.2017 21:51 19,6 °C 19,6 °C 74 % 1016,7 hPa 0,0 mm 1,8 km/h (1 Bft) S-SW 211 ° 0 min 0,000 mm 0,0 UV-I 0 W/m² 14,8 °C 19,6 °C 4,8 km/h (1 Bft)
19.06.2017 21:52 19,6 °C 19,6 °C 75 % 1016,7 hPa 0,0 mm 1,1 km/h (1 Bft) S-SW 211 ° 0 min 0,000 mm 0,0 UV-I 0 W/m² 15,0 °C 19,6 °C 3,2 km/h (1 Bft)
19.06.2017 21:53 19,5 °C 19,6 °C 75 % 1016,7 hPa 0,0 mm 0,8 km/h (0 Bft) S-SW 211 ° 0 min 0,000 mm 0,0 UV-I 0 W/m² 14,9 °C 19,5 °C 3,2 km/h (1 Bft)
19.06.2017 21:54 19,5 °C 19,6 °C 75 % 1016,8 hPa 0,0 mm 1,4 km/h (1 Bft) S-SW 211 ° 0 min 0,000 mm 0,0 UV-I 0 W/m² 14,9 °C 19,5 °C 4,8 km/h (1 Bft)
19.06.2017 21:55 19,5 °C 19,5 °C 74 % 1016,8 hPa 0,0 mm 1,2 km/h (1 Bft) S-SW 211 ° 0 min 0,000 mm 0,0 UV-I 0 W/m² 14,7 °C 19,5 °C 4,8 km/h (1 Bft)
19.06.2017 21:56 19,4 °C 19,5 °C 75 % 1016,8 hPa 0,0 mm 0,6 km/h (0 Bft) S-SW 211 ° 0 min 0,000 mm 0,0 UV-I 0 W/m² 14,8 °C 19,4 °C 4,8 km/h (1 Bft)
19.06.2017 21:57 19,4 °C 19,5 °C 75 % 1016,8 hPa 0,0 mm 0,7 km/h (0 Bft) S-SW 211 ° 0 min 0,000 mm 0,0 UV-I 0 W/m² 14,8 °C 19,4 °C 3,2 km/h (1 Bft)
19.06.2017 21:58 19,4 °C 19,4 °C 75 % 1016,8 hPa 0,0 mm 1,1 km/h (1 Bft) S-SW 211 ° 0 min 0,000 mm 0,0 UV-I 0 W/m² 14,8 °C 19,4 °C 3,2 km/h (1 Bft)
19.06.2017 21:59 19,3 °C 19,4 °C 75 % 1016,8 hPa 0,0 mm 0,5 km/h (0 Bft) S-SW 211 ° 0 min 0,000 mm 0,0 UV-I 0 W/m² 14,8 °C 19,3 °C 3,2 km/h (1 Bft)
19.06.2017 22:00 19,3 °C 19,3 °C 75 % 1016,8 hPa 0,0 mm 1,5 km/h (1 Bft) S-SW 211 ° 0 min 0,000 mm 0,0 UV-I 0 W/m² 14,8 °C 19,3 °C 4,8 km/h (1 Bft)
19.06.2017 22:01 19,3 °C 19,3 °C 76 % 1016,8 hPa 0,0 mm 2,4 km/h (1 Bft) S-SW 211 ° 0 min 0,000 mm 0,0 UV-I 0 W/m² 15,0 °C 19,3 °C 4,8 km/h (1 Bft)
19.06.2017 22:02 19,2 °C 19,3 °C 76 % 1016,8 hPa 0,0 mm 2,1 km/h (1 Bft) S-SW 211 ° 0 min 0,000 mm 0,0 UV-I 0 W/m² 14,9 °C 19,2 °C 3,2 km/h (1 Bft)
19.06.2017 22:03 19,1 °C 19,2 °C 76 % 1016,8 hPa 0,0 mm 2,7 km/h (1 Bft) S-SW 211 ° 0 min 0,000 mm 0,0 UV-I 0 W/m² 14,8 °C 19,1 °C 4,8 km/h (1 Bft)
19.06.2017 22:04 19,0 °C 19,1 °C 77 % 1016,8 hPa 0,0 mm 0,9 km/h (0 Bft) S-SW 211 ° 0 min 0,000 mm 0,0 UV-I 0 W/m² 14,9 °C 19,0 °C 3,2 km/h (1 Bft)
19.06.2017 22:05 18,9 °C 19,0 °C 77 % 1016,8 hPa 0,0 mm 3,6 km/h (1 Bft) S-SW 196 ° 0 min 0,000 mm 0,0 UV-I 0 W/m² 14,8 °C 18,9 °C 4,8 km/h (1 Bft)
19.06.2017 22:06 18,9 °C 18,9 °C 77 % 1016,8 hPa 0,0 mm 2,0 km/h (1 Bft) S-SW 196 ° 0 min 0,000 mm 0,0 UV-I 0 W/m² 14,8 °C 18,9 °C 4,8 km/h (1 Bft)
19.06.2017 22:07 18,9 °C 19,0 °C 77 % 1016,8 hPa 0,0 mm 0,6 km/h (0 Bft) S-SW 196 ° 0 min 0,000 mm 0,0 UV-I 0 W/m² 14,8 °C 18,9 °C 3,2 km/h (1 Bft)
19.06.2017 22:08 19,0 °C 19,0 °C 77 % 1016,8 hPa 0,0 mm 0,1 km/h (0 Bft) S-SW 196 ° 0 min 0,000 mm 0,0 UV-I 0 W/m² 14,9 °C 19,0 °C 1,6 km/h (1 Bft)
19.06.2017 22:09 18,9 °C 19,0 °C 77 % 1016,8 hPa 0,0 mm 1,1 km/h (1 Bft) S-SW 196 ° 0 min 0,000 mm 0,0 UV-I 0 W/m² 14,8 °C 18,9 °C 3,2 km/h (1 Bft)
19.06.2017 22:10 18,9 °C 18,9 °C 77 % 1016,8 hPa 0,0 mm 1,2 km/h (1 Bft) S-SW 196 ° 0 min 0,000 mm 0,0 UV-I 0 W/m² 14,8 °C 18,9 °C 3,2 km/h (1 Bft)
19.06.2017 22:11 18,8 °C 18,9 °C 77 % 1016,8 hPa 0,0 mm 1,2 km/h (1 Bft) S-SW 196 ° 0 min 0,000 mm 0,0 UV-I 0 W/m² 14,7 °C 18,8 °C 3,2 km/h (1 Bft)
19.06.2017 22:12 18,8 °C 18,8 °C 77 % 1016,8 hPa 0,0 mm 1,1 km/h (1 Bft) S-SW 196 ° 0 min 0,000 mm 0,0 UV-I 0 W/m² 14,7 °C 18,8 °C 3,2 km/h (1 Bft)
19.06.2017 22:13 18,8 °C 18,8 °C 77 % 1016,8 hPa 0,0 mm 0,3 km/h (0 Bft) S-SW 196 ° 0 min 0,000 mm 0,0 UV-I 0 W/m² 14,7 °C 18,8 °C 1,6 km/h (1 Bft)
19.06.2017 22:14 18,8 °C 18,8 °C 77 % 1016,8 hPa 0,0 mm 0,3 km/h (0 Bft) S-SW 196 ° 0 min 0,000 mm 0,0 UV-I 0 W/m² 14,7 °C 18,8 °C 1,6 km/h (1 Bft)
19.06.2017 22:15 18,8 °C 18,8 °C 77 % 1016,8 hPa 0,0 mm 1,4 km/h (1 Bft) S-SW 196 ° 0 min 0,000 mm 0,0 UV-I 0 W/m² 14,7 °C 18,8 °C 3,2 km/h (1 Bft)
19.06.2017 22:16 18,7 °C 18,8 °C 78 % 1016,8 hPa 0,0 mm 1,2 km/h (1 Bft) S-SW 196 ° 0 min 0,000 mm 0,0 UV-I 0 W/m² 14,8 °C 18,7 °C 3,2 km/h (1 Bft)
19.06.2017 22:17 18,7 °C 18,7 °C 78 % 1016,8 hPa 0,0 mm 1,5 km/h (1 Bft) S-SW 196 ° 0 min 0,000 mm 0,0 UV-I 0 W/m² 14,8 °C 18,7 °C 4,8 km/h (1 Bft)
19.06.2017 22:18 18,6 °C 18,7 °C 78 % 1016,8 hPa 0,0 mm 2,8 km/h (1 Bft) S-SW 196 ° 0 min 0,000 mm 0,0 UV-I 0 W/m² 14,7 °C 18,6 °C 4,8 km/h (1 Bft)
19.06.2017 22:19 18,6 °C 18,6 °C 78 % 1016,8 hPa 0,0 mm 3,2 km/h (1 Bft) S-SW 196 ° 0 min 0,000 mm 0,0 UV-I 0 W/m² 14,7 °C 18,6 °C 4,8 km/h (1 Bft)
19.06.2017 22:20 18,4 °C 18,6 °C 78 % 1016,8 hPa 0,0 mm 3,6 km/h (1 Bft) S 189 ° 0 min 0,000 mm 0,0 UV-I 0 W/m² 14,5 °C 18,4 °C 8,0 km/h (2 Bft)
19.06.2017 22:21 18,5 °C 18,5 °C 78 % 1016,8 hPa 0,0 mm 4,6 km/h (1 Bft) S 190 ° 0 min 0,000 mm 0,0 UV-I 0 W/m² 14,6 °C 18,5 °C 8,0 km/h (2 Bft)
19.06.2017 22:22 18,5 °C 18,5 °C 78 % 1016,8 hPa 0,0 mm 3,0 km/h (1 Bft) S 190 ° 0 min 0,000 mm 0,0 UV-I 0 W/m² 14,6 °C 18,5 °C 4,8 km/h (1 Bft)
19.06.2017 22:23 18,6 °C 18,6 °C 78 % 1016,8 hPa 0,0 mm 1,9 km/h (1 Bft) S 190 ° 0 min 0,000 mm 0,0 UV-I 0 W/m² 14,7 °C 18,6 °C 3,2 km/h (1 Bft)
19.06.2017 22:24 18,6 °C 18,6 °C 78 % 1016,8 hPa 0,0 mm 2,1 km/h (1 Bft) S 190 ° 0 min 0,000 mm 0,0 UV-I 0 W/m² 14,7 °C 18,6 °C 3,2 km/h (1 Bft)
19.06.2017 22:25 18,6 °C 18,6 °C 78 % 1016,7 hPa 0,0 mm 1,8 km/h (1 Bft) S 190 ° 0 min 0,000 mm 0,0 UV-I 0 W/m² 14,7 °C 18,6 °C 3,2 km/h (1 Bft)
19.06.2017 22:26 18,7 °C 18,7 °C 78 % 1016,8 hPa 0,0 mm 2,0 km/h (1 Bft) S 190 ° 0 min 0,000 mm 0,0 UV-I 0 W/m² 14,8 °C 18,7 °C 3,2 km/h (1 Bft)
19.06.2017 22:27 18,7 °C 18,7 °C 78 % 1016,7 hPa 0,0 mm 0,7 km/h (0 Bft) S 190 ° 0 min 0,000 mm 0,0 UV-I 0 W/m² 14,8 °C 18,7 °C 3,2 km/h (1 Bft)
19.06.2017 22:28 18,8 °C 18,8 °C 77 % 1016,7 hPa 0,0 mm 1,5 km/h (1 Bft) S 190 ° 0 min 0,000 mm 0,0 UV-I 0 W/m² 14,7 °C 18,8 °C 3,2 km/h (1 Bft)
19.06.2017 22:29 19,0 °C 19,0 °C 77 % 1016,8 hPa 0,0 mm 1,1 km/h (1 Bft) S 190 ° 0 min 0,000 mm 0,0 UV-I 0 W/m² 14,9 °C 19,0 °C 3,2 km/h (1 Bft)
19.06.2017 22:30 19,1 °C 19,2 °C 76 % 1016,7 hPa 0,0 mm 1,1 km/h (1 Bft) S 190 ° 0 min 0,000 mm 0,0 UV-I 0 W/m² 14,8 °C 19,1 °C 3,2 km/h (1 Bft)
19.06.2017 22:31 19,1 °C 19,2 °C 76 % 1016,7 hPa 0,0 mm 2,4 km/h (1 Bft) S 190 ° 0 min 0,000 mm 0,0 UV-I 0 W/m² 14,8 °C 19,1 °C 4,8 km/h (1 Bft)
19.06.2017 22:32 19,1 °C 19,1 °C 76 % 1016,7 hPa 0,0 mm 2,0 km/h (1 Bft) S 190 ° 0 min 0,000 mm 0,0 UV-I 0 W/m² 14,8 °C 19,1 °C 3,2 km/h (1 Bft)
19.06.2017 22:33 18,9 °C 19,1 °C 77 % 1016,7 hPa 0,0 mm 1,9 km/h (1 Bft) S 190 ° 0 min 0,000 mm 0,0 UV-I 0 W/m² 14,8 °C 18,9 °C 3,2 km/h (1 Bft)
19.06.2017 22:34 18,8 °C 18,9 °C 77 % 1016,7 hPa 0,0 mm 2,3 km/h (1 Bft) S 190 ° 0 min 0,000 mm 0,0 UV-I 0 W/m² 14,7 °C 18,8 °C 3,2 km/h (1 Bft)
19.06.2017 22:35 18,7 °C 18,8 °C 77 % 1016,7 hPa 0,0 mm 3,1 km/h (1 Bft) S 190 ° 0 min 0,000 mm 0,0 UV-I 0 W/m² 14,6 °C 18,7 °C 4,8 km/h (1 Bft)
19.06.2017 22:36 18,5 °C 18,7 °C 78 % 1016,7 hPa 0,0 mm 4,0 km/h (1 Bft) S 190 ° 0 min 0,000 mm 0,0 UV-I 0 W/m² 14,6 °C 18,5 °C 4,8 km/h (1 Bft)
19.06.2017 22:37 18,4 °C 18,5 °C 79 % 1016,8 hPa 0,0 mm 1,7 km/h (1 Bft) S 190 ° 0 min 0,000 mm 0,0 UV-I 0 W/m² 14,7 °C 18,4 °C 4,8 km/h (1 Bft)
19.06.2017 22:38 18,3 °C 18,4 °C 79 % 1016,7 hPa 0,0 mm 2,1 km/h (1 Bft) S 190 ° 0 min 0,000 mm 0,0 UV-I 0 W/m² 14,6 °C 18,3 °C 3,2 km/h (1 Bft)
19.06.2017 22:39 18,2 °C 18,3 °C 80 % 1016,7 hPa 0,0 mm 3,2 km/h (1 Bft) S 190 ° 0 min 0,000 mm 0,0 UV-I 0 W/m² 14,7 °C 18,2 °C 4,8 km/h (1 Bft)
19.06.2017 22:40 18,1 °C 18,2 °C 80 % 1016,8 hPa 0,0 mm 2,3 km/h (1 Bft) S 190 ° 0 min 0,000 mm 0,0 UV-I 0 W/m² 14,6 °C 18,1 °C 3,2 km/h (1 Bft)
19.06.2017 22:41 18,1 °C 18,1 °C 80 % 1016,8 hPa 0,0 mm 1,5 km/h (1 Bft) S 190 ° 0 min 0,000 mm 0,0 UV-I 0 W/m² 14,6 °C 18,1 °C 3,2 km/h (1 Bft)
19.06.2017 22:42 18,0 °C 18,1 °C 80 % 1016,8 hPa 0,0 mm 3,0 km/h (1 Bft) S 190 ° 0 min 0,000 mm 0,0 UV-I 0 W/m² 14,5 °C 18,0 °C 3,2 km/h (1 Bft)
19.06.2017 22:43 17,9 °C 18,0 °C 80 % 1016,7 hPa 0,0 mm 3,6 km/h (1 Bft) S 190 ° 0 min 0,000 mm 0,0 UV-I 0 W/m² 14,4 °C 17,9 °C 4,8 km/h (1 Bft)
19.06.2017 22:44 17,9 °C 17,9 °C 81 % 1016,7 hPa 0,0 mm 3,3 km/h (1 Bft) S 190 ° 0 min 0,000 mm 0,0 UV-I 0 W/m² 14,6 °C 17,9 °C 4,8 km/h (1 Bft)
19.06.2017 22:45 17,8 °C 17,9 °C 81 % 1016,8 hPa 0,0 mm 4,0 km/h (1 Bft) S 190 ° 0 min 0,000 mm 0,0 UV-I 0 W/m² 14,5 °C 17,8 °C 4,8 km/h (1 Bft)
19.06.2017 22:46 17,7 °C 17,8 °C 81 % 1016,8 hPa 0,0 mm 2,7 km/h (1 Bft) S 190 ° 0 min 0,000 mm 0,0 UV-I 0 W/m² 14,4 °C 17,7 °C 4,8 km/h (1 Bft)
19.06.2017 22:47 17,7 °C 17,7 °C 81 % 1016,8 hPa 0,0 mm 2,6 km/h (1 Bft) S 190 ° 0 min 0,000 mm 0,0 UV-I 0 W/m² 14,4 °C 17,7 °C 4,8 km/h (1 Bft)
19.06.2017 22:48 17,7 °C 17,7 °C 81 % 1016,8 hPa 0,0 mm 1,0 km/h (0 Bft) S 190 ° 0 min 0,000 mm 0,0 UV-I 0 W/m² 14,4 °C 17,7 °C 1,6 km/h (1 Bft)
19.06.2017 22:49 17,8 °C 17,8 °C 81 % 1016,8 hPa 0,0 mm 1,4 km/h (1 Bft) S-SW 193 ° 0 min 0,000 mm 0,0 UV-I 0 W/m² 14,5 °C 17,8 °C 4,8 km/h (1 Bft)
19.06.2017 22:50 17,9 °C 17,9 °C 81 % 1016,8 hPa 0,0 mm 2,8 km/h (1 Bft) S-SW 193 ° 0 min 0,000 mm 0,0 UV-I 0 W/m² 14,6 °C 17,9 °C 6,4 km/h (2 Bft)
19.06.2017 22:51 17,9 °C 17,9 °C 80 % 1016,8 hPa 0,0 mm 0,6 km/h (0 Bft) S-SW 193 ° 0 min 0,000 mm 0,0 UV-I 0 W/m² 14,4 °C 17,9 °C 1,6 km/h (1 Bft)
19.06.2017 22:52 18,1 °C 18,1 °C 80 % 1016,8 hPa 0,0 mm 0,5 km/h (0 Bft) S-SW 193 ° 0 min 0,000 mm 0,0 UV-I 0 W/m² 14,6 °C 18,1 °C 1,6 km/h (1 Bft)
19.06.2017 22:53 18,1 °C 18,1 °C 80 % 1016,8 hPa 0,0 mm 0,1 km/h (0 Bft) S-SW 193 ° 0 min 0,000 mm 0,0 UV-I 0 W/m² 14,6 °C 18,1 °C 1,6 km/h (1 Bft)
19.06.2017 22:54 18,2 °C 18,2 °C 80 % 1016,8 hPa 0,0 mm 0,0 km/h (0 Bft) S-SW 193 ° 0 min 0,000 mm 0,0 UV-I 0 W/m² 14,7 °C 18,2 °C 0,0 km/h (0 Bft)
19.06.2017 22:55 18,2 °C 18,2 °C 80 % 1016,9 hPa 0,0 mm 1,7 km/h (1 Bft) S-SW 193 ° 0 min 0,000 mm 0,0 UV-I 0 W/m² 14,7 °C 18,2 °C 3,2 km/h (1 Bft)
19.06.2017 22:56 18,2 °C 18,2 °C 80 % 1016,8 hPa 0,0 mm 1,5 km/h (1 Bft) S-SW 193 ° 0 min 0,000 mm 0,0 UV-I 0 W/m² 14,7 °C 18,2 °C 3,2 km/h (1 Bft)
19.06.2017 22:57 18,2 °C 18,2 °C 80 % 1016,8 hPa 0,0 mm 1,7 km/h (1 Bft) S-SW 193 ° 0 min 0,000 mm 0,0 UV-I 0 W/m² 14,7 °C 18,2 °C 3,2 km/h (1 Bft)
19.06.2017 22:58 18,2 °C 18,2 °C 80 % 1016,9 hPa 0,0 mm 2,3 km/h (1 Bft) S-SW 193 ° 0 min 0,000 mm 0,0 UV-I 0 W/m² 14,7 °C 18,2 °C 3,2 km/h (1 Bft)
19.06.2017 22:59 18,2 °C 18,2 °C 80 % 1016,8 hPa 0,0 mm 2,3 km/h (1 Bft) S-SW 193 ° 0 min 0,000 mm 0,0 UV-I 0 W/m² 14,7 °C 18,2 °C 4,8 km/h (1 Bft)
19.06.2017 23:00 18,2 °C 18,2 °C 80 % 1016,9 hPa 0,0 mm 1,7 km/h (1 Bft) S-SW 193 ° 0 min 0,000 mm 0,0 UV-I 0 W/m² 14,7 °C 18,2 °C 3,2 km/h (1 Bft)
19.06.2017 23:01 18,2 °C 18,2 °C 80 % 1016,9 hPa 0,0 mm 0,3 km/h (0 Bft) S-SW 193 ° 0 min 0,026 mm 0,0 UV-I 0 W/m² 14,7 °C 18,2 °C 1,6 km/h (1 Bft)
19.06.2017 23:02 18,3 °C 18,3 °C 80 % 1016,8 hPa 0,0 mm 0,1 km/h (0 Bft) S-SW 193 ° 0 min 0,000 mm 0,0 UV-I 0 W/m² 14,8 °C 18,3 °C 1,6 km/h (1 Bft)
19.06.2017 23:03 18,3 °C 18,3 °C 79 % 1016,8 hPa 0,0 mm 0,6 km/h (0 Bft) S-SW 193 ° 0 min 0,000 mm 0,0 UV-I 0 W/m² 14,6 °C 18,3 °C 1,6 km/h (1 Bft)
19.06.2017 23:04 18,3 °C 18,3 °C 79 % 1016,8 hPa 0,0 mm 0,0 km/h (0 Bft) S-SW 193 ° 0 min 0,000 mm 0,0 UV-I 0 W/m² 14,6 °C 18,3 °C 0,0 km/h (0 Bft)
19.06.2017 23:05 18,3 °C 18,3 °C 79 % 1016,8 hPa 0,0 mm 0,0 km/h (0 Bft) S-SW 193 ° 0 min 0,000 mm 0,0 UV-I 0 W/m² 14,6 °C 18,3 °C 0,0 km/h (0 Bft)
19.06.2017 23:06 18,3 °C 18,3 °C 79 % 1016,8 hPa 0,0 mm 1,5 km/h (1 Bft) S-SW 193 ° 0 min 0,000 mm 0,0 UV-I 0 W/m² 14,6 °C 18,3 °C 4,8 km/h (1 Bft)
19.06.2017 23:07 18,2 °C 18,3 °C 79 % 1016,8 hPa 0,0 mm 3,0 km/h (1 Bft) S-SW 193 ° 0 min 0,000 mm 0,0 UV-I 0 W/m² 14,5 °C 18,2 °C 4,8 km/h (1 Bft)
19.06.2017 23:08 18,2 °C 18,2 °C 79 % 1016,8 hPa 0,0 mm 2,3 km/h (1 Bft) S-SW 193 ° 0 min 0,000 mm 0,0 UV-I 0 W/m² 14,5 °C 18,2 °C 3,2 km/h (1 Bft)
19.06.2017 23:09 18,3 °C 18,3 °C 79 % 1016,8 hPa 0,0 mm 0,9 km/h (0 Bft) S-SW 193 ° 0 min 0,000 mm 0,0 UV-I 0 W/m² 14,6 °C 18,3 °C 3,2 km/h (1 Bft)
19.06.2017 23:10 18,3 °C 18,3 °C 79 % 1016,8 hPa 0,0 mm 0,1 km/h (0 Bft) S-SW 193 ° 0 min 0,000 mm 0,0 UV-I 0 W/m² 14,6 °C 18,3 °C 1,6 km/h (1 Bft)
19.06.2017 23:11 18,2 °C 18,3 °C 79 % 1016,8 hPa 0,0 mm 0,0 km/h (0 Bft) S-SW 193 ° 0 min 0,000 mm 0,0 UV-I 0 W/m² 14,5 °C 18,2 °C 0,0 km/h (0 Bft)
19.06.2017 23:12 18,2 °C 18,2 °C 79 % 1016,8 hPa 0,0 mm 0,7 km/h (0 Bft) S-SW 193 ° 0 min 0,000 mm 0,0 UV-I 0 W/m² 14,5 °C 18,2 °C 3,2 km/h (1 Bft)
19.06.2017 23:13 18,2 °C 18,2 °C 79 % 1016,8 hPa 0,0 mm 0,7 km/h (0 Bft) S-SW 193 ° 0 min 0,000 mm 0,0 UV-I 0 W/m² 14,5 °C 18,2 °C 1,6 km/h (1 Bft)
19.06.2017 23:14 18,2 °C 18,2 °C 79 % 1016,9 hPa 0,0 mm 0,0 km/h (0 Bft) S-SW 193 ° 0 min 0,000 mm 0,0 UV-I 0 W/m² 14,5 °C 18,2 °C 0,0 km/h (0 Bft)
19.06.2017 23:15 18,2 °C 18,2 °C 79 % 1016,8 hPa 0,0 mm 0,0 km/h (0 Bft) S-SW 193 ° 0 min 0,000 mm 0,0 UV-I 0 W/m² 14,5 °C 18,2 °C 0,0 km/h (0 Bft)
19.06.2017 23:16 18,1 °C 18,2 °C 80 % 1016,7 hPa 0,0 mm 0,6 km/h (0 Bft) S-SW 193 ° 0 min 0,000 mm 0,0 UV-I 0 W/m² 14,6 °C 18,1 °C 1,6 km/h (1 Bft)
19.06.2017 23:17 18,1 °C 18,1 °C 80 % 1016,8 hPa 0,0 mm 0,1 km/h (0 Bft) S-SW 193 ° 0 min 0,000 mm 0,0 UV-I 0 W/m² 14,6 °C 18,1 °C 1,6 km/h (1 Bft)
19.06.2017 23:18 18,1 °C 18,1 °C 80 % 1016,8 hPa 0,0 mm 0,4 km/h (0 Bft) S-SW 193 ° 0 min 0,000 mm 0,0 UV-I 0 W/m² 14,6 °C 18,1 °C 3,2 km/h (1 Bft)
19.06.2017 23:19 18,1 °C 18,1 °C 80 % 1016,7 hPa 0,0 mm 0,7 km/h (0 Bft) S-SW 193 ° 0 min 0,000 mm 0,0 UV-I 0 W/m² 14,6 °C 18,1 °C 3,2 km/h (1 Bft)
19.06.2017 23:20 18,2 °C 18,2 °C 80 % 1016,7 hPa 0,0 mm 0,0 km/h (0 Bft) S-SW 193 ° 0 min 0,000 mm 0,0 UV-I 0 W/m² 14,7 °C 18,2 °C 0,0 km/h (0 Bft)
19.06.2017 23:21 18,2 °C 18,2 °C 79 % 1016,7 hPa 0,0 mm 0,7 km/h (0 Bft) S-SW 193 ° 0 min 0,000 mm 0,0 UV-I 0 W/m² 14,5 °C 18,2 °C 3,2 km/h (1 Bft)
19.06.2017 23:22 18,2 °C 18,2 °C 79 % 1016,8 hPa 0,0 mm 0,1 km/h (0 Bft) S-SW 193 ° 0 min 0,000 mm 0,0 UV-I 0 W/m² 14,5 °C 18,2 °C 1,6 km/h (1 Bft)
19.06.2017 23:23 18,2 °C 18,2 °C 80 % 1016,8 hPa 0,0 mm 0,3 km/h (0 Bft) S-SW 193 ° 0 min 0,000 mm 0,0 UV-I 0 W/m² 14,7 °C 18,2 °C 1,6 km/h (1 Bft)
19.06.2017 23:24 18,2 °C 18,2 °C 80 % 1016,7 hPa 0,0 mm 0,0 km/h (0 Bft) S-SW 193 ° 0 min 0,000 mm 0,0 UV-I 0 W/m² 14,7 °C 18,2 °C 0,0 km/h (0 Bft)
19.06.2017 23:25 18,2 °C 18,2 °C 80 % 1016,8 hPa 0,0 mm 0,0 km/h (0 Bft) S-SW 193 ° 0 min 0,000 mm 0,0 UV-I 0 W/m² 14,7 °C 18,2 °C 0,0 km/h (0 Bft)
19.06.2017 23:26 18,2 °C 18,2 °C 79 % 1016,7 hPa 0,0 mm 0,0 km/h (0 Bft) S-SW 193 ° 0 min 0,000 mm 0,0 UV-I 0 W/m² 14,5 °C 18,2 °C 0,0 km/h (0 Bft)
19.06.2017 23:27 18,1 °C 18,2 °C 80 % 1016,8 hPa 0,0 mm 0,0 km/h (0 Bft) S-SW 193 ° 0 min 0,000 mm 0,0 UV-I 0 W/m² 14,6 °C 18,1 °C 0,0 km/h (0 Bft)
19.06.2017 23:28 18,1 °C 18,1 °C 80 % 1016,8 hPa 0,0 mm 0,0 km/h (0 Bft) S-SW 193 ° 0 min 0,000 mm 0,0 UV-I 0 W/m² 14,6 °C 18,1 °C 0,0 km/h (0 Bft)
19.06.2017 23:29 18,1 °C 18,1 °C 80 % 1016,8 hPa 0,0 mm 0,0 km/h (0 Bft) S-SW 193 ° 0 min 0,000 mm 0,0 UV-I 0 W/m² 14,6 °C 18,1 °C 0,0 km/h (0 Bft)
19.06.2017 23:30 18,0 °C 18,1 °C 80 % 1016,8 hPa 0,0 mm 0,0 km/h (0 Bft) S-SW 193 ° 0 min 0,000 mm 0,0 UV-I 0 W/m² 14,5 °C 18,0 °C 0,0 km/h (0 Bft)
19.06.2017 23:31 17,9 °C 18,0 °C 80 % 1016,8 hPa 0,0 mm 0,0 km/h (0 Bft) S-SW 193 ° 0 min 0,000 mm 0,0 UV-I 0 W/m² 14,4 °C 17,9 °C 0,0 km/h (0 Bft)
19.06.2017 23:32 17,9 °C 17,9 °C 80 % 1016,7 hPa 0,0 mm 0,0 km/h (0 Bft) S-SW 193 ° 0 min 0,000 mm 0,0 UV-I 0 W/m² 14,4 °C 17,9 °C 0,0 km/h (0 Bft)
19.06.2017 23:33 17,9 °C 17,9 °C 80 % 1016,7 hPa 0,0 mm 0,0 km/h (0 Bft) S-SW 193 ° 0 min 0,000 mm 0,0 UV-I 0 W/m² 14,4 °C 17,9 °C 0,0 km/h (0 Bft)
19.06.2017 23:34 17,8 °C 17,9 °C 80 % 1016,7 hPa 0,0 mm 0,2 km/h (0 Bft) S-SW 193 ° 0 min 0,000 mm 0,0 UV-I 0 W/m² 14,3 °C 17,8 °C 1,6 km/h (1 Bft)
19.06.2017 23:35 17,7 °C 17,8 °C 81 % 1016,7 hPa 0,0 mm 0,3 km/h (0 Bft) S-SW 193 ° 0 min 0,000 mm 0,0 UV-I 0 W/m² 14,4 °C 17,7 °C 1,6 km/h (1 Bft)
19.06.2017 23:36 17,7 °C 17,7 °C 81 % 1016,7 hPa 0,0 mm 0,4 km/h (0 Bft) S-SW 193 ° 0 min 0,000 mm 0,0 UV-I 0 W/m² 14,4 °C 17,7 °C 1,6 km/h (1 Bft)
19.06.2017 23:37 17,6 °C 17,7 °C 81 % 1016,8 hPa 0,0 mm 0,5 km/h (0 Bft) S-SW 193 ° 0 min 0,000 mm 0,0 UV-I 0 W/m² 14,3 °C 17,6 °C 1,6 km/h (1 Bft)
19.06.2017 23:38 17,6 °C 17,6 °C 81 % 1016,7 hPa 0,0 mm 0,1 km/h (0 Bft) S-SW 193 ° 0 min 0,000 mm 0,0 UV-I 0 W/m² 14,3 °C 17,6 °C 1,6 km/h (1 Bft)
19.06.2017 23:39 17,7 °C 17,7 °C 81 % 1016,7 hPa 0,0 mm 0,3 km/h (0 Bft) S-SW 193 ° 0 min 0,000 mm 0,0 UV-I 0 W/m² 14,4 °C 17,7 °C 1,6 km/h (1 Bft)
19.06.2017 23:40 17,7 °C 17,7 °C 81 % 1016,7 hPa 0,0 mm 2,1 km/h (1 Bft) S-SO 163 ° 0 min 0,000 mm 0,0 UV-I 0 W/m² 14,4 °C 17,7 °C 6,4 km/h (2 Bft)
19.06.2017 23:41 17,6 °C 17,7 °C 81 % 1016,8 hPa 0,0 mm 1,3 km/h (1 Bft) S-SO 163 ° 0 min 0,000 mm 0,0 UV-I 0 W/m² 14,3 °C 17,6 °C 3,2 km/h (1 Bft)
19.06.2017 23:42 17,6 °C 17,6 °C 81 % 1016,7 hPa 0,0 mm 0,0 km/h (0 Bft) S-SO 163 ° 0 min 0,000 mm 0,0 UV-I 0 W/m² 14,3 °C 17,6 °C 0,0 km/h (0 Bft)
19.06.2017 23:43 17,6 °C 17,7 °C 81 % 1016,7 hPa 0,0 mm 1,7 km/h (1 Bft) S-SO 163 ° 0 min 0,000 mm 0,0 UV-I 0 W/m² 14,3 °C 17,6 °C 3,2 km/h (1 Bft)
19.06.2017 23:44 17,7 °C 17,7 °C 81 % 1016,7 hPa 0,0 mm 1,0 km/h (0 Bft) S-SO 163 ° 0 min 0,000 mm 0,0 UV-I 0 W/m² 14,4 °C 17,7 °C 3,2 km/h (1 Bft)
19.06.2017 23:45 17,8 °C 17,8 °C 81 % 1016,7 hPa 0,0 mm 1,7 km/h (1 Bft) S-SO 163 ° 0 min 0,000 mm 0,0 UV-I 0 W/m² 14,5 °C 17,8 °C 3,2 km/h (1 Bft)
19.06.2017 23:46 17,9 °C 17,9 °C 81 % 1016,7 hPa 0,0 mm 0,1 km/h (0 Bft) S-SO 163 ° 0 min 0,000 mm 0,0 UV-I 0 W/m² 14,6 °C 17,9 °C 1,6 km/h (1 Bft)
19.06.2017 23:47 17,9 °C 17,9 °C 81 % 1016,7 hPa 0,0 mm 0,9 km/h (0 Bft) S-SO 163 ° 0 min 0,000 mm 0,0 UV-I 0 W/m² 14,6 °C 17,9 °C 6,4 km/h (2 Bft)
19.06.2017 23:48 17,8 °C 17,9 °C 81 % 1016,8 hPa 0,0 mm 0,9 km/h (0 Bft) S-SO 163 ° 0 min 0,000 mm 0,0 UV-I 0 W/m² 14,5 °C 17,8 °C 3,2 km/h (1 Bft)
19.06.2017 23:49 17,8 °C 17,8 °C 81 % 1016,7 hPa 0,0 mm 0,5 km/h (0 Bft) S-SO 163 ° 0 min 0,000 mm 0,0 UV-I 0 W/m² 14,5 °C 17,8 °C 1,6 km/h (1 Bft)
19.06.2017 23:50 17,8 °C 17,8 °C 81 % 1016,8 hPa 0,0 mm 0,1 km/h (0 Bft) S-SO 163 ° 0 min 0,000 mm 0,0 UV-I 0 W/m² 14,5 °C 17,8 °C 1,6 km/h (1 Bft)
19.06.2017 23:51 17,9 °C 17,9 °C 81 % 1016,8 hPa 0,0 mm 0,8 km/h (0 Bft) S-SO 163 ° 0 min 0,000 mm 0,0 UV-I 0 W/m² 14,6 °C 17,9 °C 1,6 km/h (1 Bft)
19.06.2017 23:52 17,9 °C 17,9 °C 80 % 1016,7 hPa 0,0 mm 1,0 km/h (0 Bft) S-SO 163 ° 0 min 0,000 mm 0,0 UV-I 0 W/m² 14,4 °C 17,9 °C 3,2 km/h (1 Bft)
19.06.2017 23:53 17,9 °C 17,9 °C 80 % 1016,7 hPa 0,0 mm 0,9 km/h (0 Bft) S-SO 163 ° 0 min 0,000 mm 0,0 UV-I 0 W/m² 14,4 °C 17,9 °C 1,6 km/h (1 Bft)
19.06.2017 23:54 17,9 °C 18,0 °C 80 % 1016,8 hPa 0,0 mm 0,0 km/h (0 Bft) S-SO 163 ° 0 min 0,000 mm 0,0 UV-I 0 W/m² 14,4 °C 17,9 °C 0,0 km/h (0 Bft)
19.06.2017 23:55 17,9 °C 17,9 °C 80 % 1016,7 hPa 0,0 mm 0,0 km/h (0 Bft) S-SO 163 ° 0 min 0,000 mm 0,0 UV-I 0 W/m² 14,4 °C 17,9 °C 0,0 km/h (0 Bft)
19.06.2017 23:56 17,8 °C 17,9 °C 80 % 1016,7 hPa 0,0 mm 0,0 km/h (0 Bft) S-SO 163 ° 0 min 0,000 mm 0,0 UV-I 0 W/m² 14,3 °C 17,8 °C 0,0 km/h (0 Bft)
19.06.2017 23:57 17,8 °C 17,8 °C 80 % 1016,7 hPa 0,0 mm 0,0 km/h (0 Bft) S-SO 163 ° 0 min 0,000 mm 0,0 UV-I 0 W/m² 14,3 °C 17,8 °C 0,0 km/h (0 Bft)
19.06.2017 23:58 17,8 °C 17,8 °C 81 % 1016,7 hPa 0,0 mm 0,6 km/h (0 Bft) S-SO 163 ° 0 min 0,000 mm 0,0 UV-I 0 W/m² 14,5 °C 17,8 °C 1,6 km/h (1 Bft)
19.06.2017 23:59 17,7 °C 17,8 °C 81 % 1016,7 hPa 0,0 mm 0,9 km/h (0 Bft) S-SO 163 ° 0 min 0,000 mm 0,0 UV-I 0 W/m² 14,4 °C 17,7 °C 1,6 km/h (1 Bft)
_ Min-Zeit 05:34 05:35 17:52 19:59 - 23:57 - - - - - - 05:34 05:34 23:57
Minimum _ 8,3 °C 8,4 °C 49 % 1016,2 hPa - 0,0 km/h (0 Bft) - - - - - - 7,2 °C 8,3 °C 0,0 km/h (0 Bft)
_ Max-Zeit 15:50 15:51 06:15 00:03 23:59 15:03 - - 13:54 14:01 13:52 14:04 13:10 15:50 12:51
Maximum _ 27,0 °C 27,0 °C 94 % 1021,3 hPa 0,0 mm 15,2 km/h
W-NW (3 Bft)
- - 2 min 0,635 mm 8,0 UV-I 991 W/m² 18,1 °C 27,0 °C 22,5 km/h
W (4 Bft)
Durchschnitt _ 18,8 °C 18,9 °C 72 % 1018,6 hPa #0,0 mm 2,3 km/h (1 Bft) W-NW - #8:09 h #4,674 mm 4,1 UV-I 297 W/m² 13,2 °C 18,8 °C 4,1 km/h (1 Bft)